# Wetter Temperatur Luftdruck Luftfeuchtigkeit Sichtweite Windgeschwindigkeit Windrichtung Zeit
1 Clear -20 1021 84 10000 2 0 21:41 02.12.2021
2 Clear -20 1021 84 10000 2 0 21:41 02.12.2021
3 Clear -20 1021 77 10000 2 0 20:46 02.12.2021
4 Clear -20 1021 77 10000 2 0 20:26 02.12.2021
5 Clear -19 1020 78 10000 0 0 19:23 02.12.2021
6 Clear -19 1020 71 10000 0 0 17:30 02.12.2021
7 Clear -18 1020 78 10000 2 0 15:41 02.12.2021
8 Clear -17 1020 78 10000 1 0 14:57 02.12.2021
9 Clear -14 1020 72 10000 2 0 13:45 02.12.2021
10 Clear -16 1020 78 10000 4 170 12:52 02.12.2021
11 Clear -16 1019 78 10000 1 0 11:53 02.12.2021
12 Clear -3 1019 46 10000 0 0 09:28 02.12.2021
13 Clear -3 1019 46 10000 5 310 08:20 02.12.2021
14 Clear -6 1019 58 10000 0 0 03:33 02.12.2021
15 Clear -17 1016 78 10000 2 0 00:51 02.12.2021
16 Clear -17 1016 71 10000 1 0 22:41 01.12.2021
17 Clear -17 1016 71 10000 1 0 22:23 01.12.2021
18 Clear -15 1017 72 10000 2 0 20:35 01.12.2021
19 Clear -20 1017 77 10000 1 0 19:51 01.12.2021
20 Clear -20 1017 77 10000 1 0 19:21 01.12.2021
21 Clear -19 1018 78 10000 1 0 17:42 01.12.2021
22 Clear -20 1019 77 10000 1 0 16:38 01.12.2021
23 Clear -22 1019 84 10000 2 0 14:49 01.12.2021
24 Clear -18 1019 85 10000 1 0 13:44 01.12.2021
25 Clear -18 1020 71 10000 1 0 11:42 01.12.2021
26 Clear -14 1020 72 10000 0 0 10:42 01.12.2021
27 Clear -9 1021 57 10000 1 0 08:55 01.12.2021
28 Clouds -9 1021 57 8000 1 0 08:26 01.12.2021
29 Clouds -10 1021 62 8000 1 0 07:33 01.12.2021
30 Clouds -16 1023 78 6000 1 0 04:22 01.12.2021
31 Clouds -18 1023 78 6000 1 0 03:39 01.12.2021
32 Clear -14 1034 85 10000 0.99 84 00:51 01.12.2021
33 Clear -23 1022 77 10000 1 0 23:37 30.11.2021
34 Clear -24 1023 70 10000 2 0 22:48 30.11.2021
35 Clear -24 1024 77 10000 0 0 20:59 30.11.2021
36 Clear -24 1024 77 10000 0 0 20:34 30.11.2021
37 Clear -23 1024 77 10000 0 0 19:53 30.11.2021
38 Clear -23 1024 77 10000 0 0 19:27 30.11.2021
39 Clear -23 1024 77 10000 1 0 18:24 30.11.2021
40 Clear -23 1024 77 10000 2 0 16:25 30.11.2021
41 Clear -23 1024 77 10000 1 0 14:35 30.11.2021
42 Clear -21 1024 77 10000 2 0 13:52 30.11.2021
43 Clear -21 1024 77 10000 2 0 13:24 30.11.2021
44 Clear -21 1024 77 10000 2 0 13:24 30.11.2021
45 Clear -21 1024 71 10000 1 0 12:44 30.11.2021
46 Clear -21 1024 77 10000 0 0 11:27 30.11.2021
47 Clear -20 1024 71 10000 1 0 10:47 30.11.2021
48 Clear -15 1024 66 10000 0 0 10:29 30.11.2021
49 Clear -11 1024 62 10000 2 0 08:51 30.11.2021
50 Clear -10 1024 57 10000 2 0 08:20 30.11.2021
51 Clear -10 1025 57 10000 2 0 07:39 30.11.2021
52 Clouds -26 1027 70 8000 1 0 01:52 30.11.2021
53 Clouds -16 1039 92 10000 0.61 94 01:32 30.11.2021
54 Clear -26 1026 70 10000 2 160 23:57 29.11.2021
55 Clouds -16 1040 96 10000 0.39 66 23:21 29.11.2021
56 Clear -26 1027 76 10000 1 0 22:44 29.11.2021
57 Clear -26 1027 76 10000 1 0 22:25 29.11.2021
58 Clear -26 1027 70 10000 1 0 21:22 29.11.2021
59 Clear -25 1027 77 10000 1 0 20:56 29.11.2021
60 Clear -25 1027 77 10000 1 0 20:22 29.11.2021
61 Clear -25 1027 77 10000 1 0 19:44 29.11.2021
62 Clear -25 1027 77 10000 1 0 19:44 29.11.2021
63 Clear -25 1027 77 10000 1 0 19:26 29.11.2021
64 Clouds -17 1041 99 8679 0.27 164 18:47 29.11.2021
65 Clouds -16 1042 99 7158 0.43 181 17:22 29.11.2021
66 Clouds -16 1042 99 7158 0.43 181 16:56 29.11.2021
67 Clouds -16 1042 100 5657 0.65 185 16:25 29.11.2021
68 Clouds -16 1042 99 6022 0.27 153 15:24 29.11.2021
69 Clouds -16 1042 99 6022 0.27 153 14:41 29.11.2021
70 Clouds -15 1041 99 8266 0.54 19 13:25 29.11.2021
71 Clouds -15 1040 98 8909 0.95 357 12:20 29.11.2021
72 Clouds -15 1040 98 8909 0.95 357 11:31 29.11.2021
73 Clouds -14 1038 97 10000 1.39 316 10:27 29.11.2021
74 Clear -9 1025 67 10000 4 300 08:30 29.11.2021
75 Clear -10 1025 73 10000 1 0 05:54 29.11.2021
76 Clouds -20 1022 77 10000 1 0 01:31 29.11.2021
77 Clouds -18 1022 78 10000 1 0 00:35 29.11.2021
78 Snow -19 1022 78 10000 0 0 23:41 28.11.2021
79 Snow -17 1022 85 10000 1 0 22:30 28.11.2021
80 Snow -17 1023 85 10000 1 0 21:41 28.11.2021
81 Snow -17 1023 85 10000 1 0 21:41 28.11.2021
82 Clear -18 1023 85 10000 1 0 20:51 28.11.2021
83 Clear -18 1023 85 10000 1 0 19:54 28.11.2021
84 Clear -22 1024 77 10000 1 0 18:42 28.11.2021
85 Clear -22 1024 77 10000 1 0 18:23 28.11.2021
86 Clear -22 1025 77 10000 1 0 17:46 28.11.2021
87 Clear -22 1025 77 10000 1 0 17:18 28.11.2021
88 Clear -22 1025 77 10000 2 0 16:28 28.11.2021
89 Clear -20 1026 71 10000 1 0 15:51 28.11.2021
90 Clear -20 1026 71 10000 1 0 14:56 28.11.2021
91 Clear -18 1026 85 10000 1 0 14:29 28.11.2021
92 Clear -16 1027 78 10000 1 0 12:54 28.11.2021
93 Clear -18 1027 78 10000 3 190 11:56 28.11.2021
94 Clear -15 1027 72 10000 4 170 10:37 28.11.2021
95 Clear -15 1027 72 10000 4 170 10:18 28.11.2021
96 Clear -11 1027 62 10000 2 0 09:36 28.11.2021
97 Clear -11 1029 67 10000 3 290 05:23 28.11.2021
98 Clouds -11 1025 79 10000 4 310 22:58 27.11.2021
99 Snow -10 1024 85 8000 3 330 20:28 27.11.2021
100 Snow -9 1023 79 5000 4 330 18:44 27.11.2021
101 Snow -9 1022 86 8000 4 300 16:19 27.11.2021
102 Snow -8 1022 79 6000 2 0 15:32 27.11.2021
103 Snow -7 1021 79 10000 4 360 13:41 27.11.2021
104 Clouds -7 1020 79 10000 4 340 12:27 27.11.2021
105 Clouds -5 1018 74 10000 5 340 10:30 27.11.2021
106 Clouds -3 1017 68 10000 4 350 09:41 27.11.2021
107 Clear -2 1016 59 10000 2 0 07:44 27.11.2021
108 Clouds -9 1016 73 8000 1 0 04:55 27.11.2021
109 Clear -18 1014 85 10000 0 0 00:31 27.11.2021
110 Clouds -9 1023 83 10000 1.81 54 22:52 26.11.2021
111 Clouds -9 1023 83 10000 1.74 65 22:24 26.11.2021
112 Clear -17 1014 85 10000 1 0 21:34 26.11.2021
113 Clear -16 1014 78 10000 1 0 20:45 26.11.2021
114 Clear -17 1014 85 10000 2 0 19:56 26.11.2021
115 Clear -17 1014 85 10000 2 0 19:28 26.11.2021
116 Clear -16 1014 85 10000 1 0 17:55 26.11.2021
117 Clear -16 1014 85 10000 1 0 17:21 26.11.2021
118 Clear -16 1014 78 10000 1 0 15:56 26.11.2021
119 Clear -12 1014 85 10000 1 0 13:35 26.11.2021
120 Clear -14 1014 78 10000 1 0 12:30 26.11.2021
121 Clear -12 1013 79 10000 1 0 10:37 26.11.2021
122 Clear -4 1013 58 10000 1 0 08:58 26.11.2021
123 Clear -2 1013 50 10000 1 0 08:21 26.11.2021
124 Clouds -3 1014 54 8000 1 0 07:26 26.11.2021
125 Clouds -4 1014 54 8000 1 0 06:26 26.11.2021
126 Clouds -11 1017 79 8000 0 0 03:59 26.11.2021
127 Clouds -9 1026 81 10000 2.59 106 01:55 26.11.2021
128 Clear -10 1028 82 10000 2.44 104 23:18 25.11.2021
129 Clear -10 1029 81 10000 2.36 109 21:26 25.11.2021
130 Clear -9 1029 80 10000 2.37 112 20:27 25.11.2021
131 Clear -18 1021 85 10000 0 0 18:48 25.11.2021
132 Clear -19 1021 84 10000 1 0 17:48 25.11.2021
133 Clear -19 1021 84 10000 1 0 17:25 25.11.2021
134 Clouds -10 1030 79 10000 2.05 106 16:33 25.11.2021
135 Clear -18 1022 78 10000 1 0 15:33 25.11.2021
136 Clear -17 1022 85 10000 1 0 13:50 25.11.2021
137 Clear -16 1022 85 10000 1 0 12:27 25.11.2021
138 Clear -13 1022 72 10000 1 0 11:50 25.11.2021
139 Clear -4 1021 54 10000 2 0 09:28 25.11.2021
140 Clear -7 1021 63 8000 1 0 06:22 25.11.2021
141 Clear -18 1020 85 6000 1 0 02:50 25.11.2021
142 Clear -11 1027 83 10000 1.73 337 23:28 24.11.2021
143 Clear -21 1016 77 10000 1 0 22:25 24.11.2021
144 Clear -21 1016 77 10000 1 0 21:38 24.11.2021
145 Clear -21 1015 84 10000 2 0 20:53 24.11.2021
146 Clear -21 1015 84 10000 2 0 20:26 24.11.2021
147 Clear -19 1014 78 10000 1 0 18:31 24.11.2021
148 Clear -19 1014 78 10000 1 0 17:58 24.11.2021
149 Clear -18 1013 85 10000 1 0 15:47 24.11.2021
150 Clear -17 1014 71 10000 1 0 14:54 24.11.2021
151 Clear -17 1014 71 10000 1 0 14:20 24.11.2021
152 Clear -17 1014 71 10000 2 0 12:50 24.11.2021
153 Clear -13 1013 66 10000 2 0 11:22 24.11.2021
154 Clear -13 1013 66 10000 2 0 10:49 24.11.2021
155 Clear -13 1013 66 10000 2 0 10:26 24.11.2021
156 Clear -6 1012 58 10000 1 0 07:55 24.11.2021
157 Clear -7 1013 53 10000 1 0 06:55 24.11.2021
158 Clear -13 1014 72 8000 1 0 03:55 24.11.2021
159 Clear -22 1013 77 10000 0 0 00:53 24.11.2021
160 Clear -21 1013 77 10000 1 0 22:58 23.11.2021
161 Clear -21 1013 77 10000 1 0 22:34 23.11.2021
162 Clear -23 1013 77 10000 2 0 21:44 23.11.2021
163 Clear -21 1013 71 10000 0 0 20:19 23.11.2021
164 Clear -20 1012 77 10000 1 0 18:43 23.11.2021
165 Clear -20 1012 77 10000 1 0 18:22 23.11.2021
166 Clear -19 1012 84 10000 2 0 17:19 23.11.2021
167 Clear -19 1012 78 10000 2 0 16:34 23.11.2021
168 Clear -21 1011 77 10000 1 0 15:23 23.11.2021
169 Clear -18 1011 78 10000 1 0 14:26 23.11.2021
170 Clear -18 1011 78 10000 2 0 11:48 23.11.2021
171 Clear -13 1011 66 10000 2 0 10:22 23.11.2021
172 Clear -9 1011 57 10000 1 0 09:22 23.11.2021
173 Clouds -11 1013 57 8000 1 0 06:46 23.11.2021
174 Clouds -18 1014 71 8000 1 0 03:56 23.11.2021
175 Clouds -21 1014 77 8000 1 0 02:58 23.11.2021
176 Clouds -14 1025 77 10000 1.38 86 23:21 22.11.2021
177 Clouds -14 1025 77 10000 1.38 86 22:53 22.11.2021
178 Clouds -14 1026 77 10000 1.32 83 22:29 22.11.2021
179 Clouds -14 1026 77 10000 1.32 83 21:43 22.11.2021
180 Clouds -14 1026 76 10000 1.31 82 20:52 22.11.2021
181 Clear -24 1016 77 10000 1 0 19:58 22.11.2021
182 Clear -24 1016 77 10000 1 0 19:19 22.11.2021
183 Clear -24 1017 77 10000 0 0 18:40 22.11.2021
184 Clear -14 1028 78 10000 1.13 93 17:45 22.11.2021
185 Clear -14 1029 77 10000 0.99 81 16:22 22.11.2021
186 Clear -24 1017 77 10000 0 0 14:20 22.11.2021
187 Clear -23 1018 77 10000 2 160 12:26 22.11.2021
188 Clear -20 1018 65 10000 2 170 10:43 22.11.2021
189 Clear -12 1018 48 10000 0 0 09:48 22.11.2021
190 Clear -12 1019 48 10000 1 0 08:40 22.11.2021
191 Clear -14 1020 51 10000 1 0 06:43 22.11.2021
192 Clear -18 1037 74 10000 0.74 83 23:35 21.11.2021
193 Clouds -18 1038 75 10000 0.65 92 22:51 21.11.2021
194 Clouds -18 1038 76 10000 0.55 103 22:19 21.11.2021
195 Clouds -19 1039 79 10000 0.55 101 20:42 21.11.2021
196 Clouds -19 1040 80 10000 0.45 74 19:59 21.11.2021
197 Clear -19 1040 81 10000 0.48 41 18:30 21.11.2021
198 Clear -25 1026 70 10000 2 0 17:39 21.11.2021
199 Clear -18 1041 83 10000 0.64 12 16:46 21.11.2021
200 Clear -18 1041 83 10000 0.98 342 14:46 21.11.2021
201 Clear -25 1027 70 10000 3 160 13:49 21.11.2021
202 Clear -26 1027 70 10000 1 0 12:38 21.11.2021
203 Clear -26 1027 70 10000 1 0 11:57 21.11.2021
204 Clear -18 1027 65 10000 0 0 11:35 21.11.2021
205 Clear -16 1027 60 10000 3 280 10:19 21.11.2021
206 Clouds -15 1026 56 10000 3 300 08:56 21.11.2021
207 Clouds -15 1026 56 10000 3 300 08:26 21.11.2021
208 Clouds -14 1027 51 10000 4 300 07:49 21.11.2021
209 Clouds -15 1027 56 10000 8 310 06:20 21.11.2021
210 Clouds -15 1027 56 10000 5 320 05:30 21.11.2021
211 Clouds -16 1026 66 10000 1 0 03:20 21.11.2021
212 Clouds -17 1025 71 10000 4 320 02:53 21.11.2021
213 Clouds -16 1038 90 4952 4.75 322 01:23 21.11.2021
214 Clouds -17 1023 71 10000 4 330 00:23 21.11.2021
215 Snow -14 1020 78 6000 8 320 21:50 20.11.2021
216 Snow -14 1020 78 6000 8 320 21:30 20.11.2021
217 Snow -13 1017 78 6000 8 330 19:23 20.11.2021
218 Snow -12 1015 79 10000 7 330 18:45 20.11.2021
219 Snow -12 1015 79 10000 7 330 18:19 20.11.2021
220 Snow -11 1014 73 10000 5 340 17:19 20.11.2021
221 Snow -10 1013 79 6000 4 330 14:50 20.11.2021
222 Snow -10 1013 79 6000 4 330 14:28 20.11.2021
223 Snow -10 1012 85 3000 3 310 13:33 20.11.2021
224 Snow -10 1011 92 3000 2 0 11:24 20.11.2021
225 Snow -10 1012 85 3000 2 0 09:54 20.11.2021
226 Snow -10 1012 79 3000 2 0 08:26 20.11.2021
227 Clouds -12 1015 79 8000 1 0 05:30 20.11.2021
228 Clouds -13 1016 78 8000 0 0 04:51 20.11.2021
229 Clouds -15 1017 78 10000 0 0 03:25 20.11.2021
230 Clouds -20 1018 84 10000 0 0 00:42 20.11.2021
231 Clouds -20 1018 84 10000 1 0 23:44 19.11.2021
232 Clouds -18 1018 85 10000 1 0 22:53 19.11.2021
233 Clouds -19 1018 84 10000 1 0 21:22 19.11.2021
234 Clear -21 1018 84 10000 2 0 20:39 19.11.2021
235 Clear -21 1018 84 10000 2 0 20:20 19.11.2021
236 Clear -19 1017 78 10000 2 0 19:43 19.11.2021
237 Clouds -17 1018 78 10000 2 0 18:43 19.11.2021
238 Clouds -12 1017 79 10000 1 0 17:39 19.11.2021
239 Clouds -11 1017 85 10000 1 0 16:22 19.11.2021
240 Snow -11 1016 85 10000 3 330 14:19 19.11.2021
241 Clouds -8 1014 73 10000 1 0 10:56 19.11.2021
242 Clouds -7 1013 73 10000 4 300 10:23 19.11.2021
243 Snow -5 1012 80 6000 3 300 08:32 19.11.2021
244 Clouds -6 1011 68 10000 2 0 04:58 19.11.2021
245 Snow -6 1011 63 8000 2 0 03:19 19.11.2021
246 Snow -7 1009 73 10000 8 140 23:53 18.11.2021
247 Snow -7 1010 79 10000 8 150 22:43 18.11.2021
248 Clouds -5 1010 36 10000 10 150 20:56 18.11.2021
249 Clouds -5 1010 36 10000 10 150 20:37 18.11.2021
250 Clouds -5 1010 36 10000 10 150 20:19 18.11.2021
251 Clouds -4 1010 28 10000 5 140 19:36 18.11.2021
252 Clouds -4 1011 30 10000 5 140 18:35 18.11.2021
253 Clouds -4 1013 30 10000 4 160 17:52 18.11.2021
254 Clouds -4 1013 33 10000 4 160 16:46 18.11.2021
255 Snow -7 1013 45 10000 2 0 15:52 18.11.2021
256 Clouds -6 1013 38 10000 1 0 14:40 18.11.2021
257 Clouds -8 1013 49 10000 1 0 12:55 18.11.2021
258 Clouds -9 1013 53 10000 2 0 11:44 18.11.2021
259 Clouds -9 1013 53 10000 2 0 11:25 18.11.2021
260 Clear -7 1014 49 10000 2 0 10:22 18.11.2021
261 Clear -5 1014 42 10000 2 0 08:26 18.11.2021
262 Clear -5 1015 42 10000 2 0 06:40 18.11.2021
263 Clear -6 1015 49 10000 1 0 05:44 18.11.2021
264 Clear -9 1024 69 10000 1.67 305 01:26 18.11.2021
265 Clear -9 1023 67 10000 1.75 310 23:35 17.11.2021
266 Clear -9 1022 66 10000 1.77 309 22:40 17.11.2021
267 Clear -9 1021 64 10000 1.95 306 22:19 17.11.2021
268 Clear -17 1013 71 10000 1 0 21:35 17.11.2021
269 Clear -11 1012 57 10000 2 330 19:51 17.11.2021
270 Clear -14 1011 66 10000 1 0 17:35 17.11.2021
271 Clear -14 1011 66 10000 1 0 17:35 17.11.2021
272 Clouds -8 1010 49 10000 1 0 15:56 17.11.2021
273 Clouds -7 1010 45 10000 0 0 13:19 17.11.2021
274 Clear -8 1009 49 10000 3 170 12:37 17.11.2021
275 Clouds -8 1010 49 10000 3 160 10:54 17.11.2021
276 Clouds -3 1010 36 10000 1 0 09:38 17.11.2021
277 Clear -3 1010 39 10000 4 230 07:56 17.11.2021
278 Clear -3 1010 39 10000 4 220 07:37 17.11.2021
279 Clouds -9 1013 48 10000 1 0 02:49 17.11.2021
280 Clouds -11 1012 48 10000 1 0 00:35 17.11.2021
281 Clear -6 1011 33 10000 4 260 22:32 16.11.2021
282 Clear -5 1010 30 10000 7 270 20:19 16.11.2021
283 Clear -4 1010 28 10000 6 260 19:55 16.11.2021
284 Clear -4 1010 26 10000 5 270 18:52 16.11.2021
285 Clear -4 1010 26 10000 5 270 18:29 16.11.2021
286 Clear -4 1010 30 10000 3 270 17:29 16.11.2021
287 Clouds -4 1010 39 10000 4 300 16:21 16.11.2021
288 Clouds -5 1009 58 10000 1 0 15:44 16.11.2021
289 Clear -1 1009 40 10000 1 0 13:49 16.11.2021
290 Clear -1 1007 40 10000 5 220 10:39 16.11.2021
291 Clear 2 1006 30 10000 3 240 09:42 16.11.2021
292 Clouds 3 1007 28 8000 1 0 08:24 16.11.2021
293 Clouds 2 1008 30 8000 1 0 07:30 16.11.2021
294 Clear -14 1013 66 10000 1 0 23:54 15.11.2021
295 Clouds -4 1019 50 10000 2.13 115 22:43 15.11.2021
296 Clouds -4 1020 50 10000 1.99 112 22:20 15.11.2021
297 Clear -14 1014 78 10000 0 0 21:51 15.11.2021
298 Clear -14 1014 78 10000 0 0 21:25 15.11.2021
299 Clouds -4 1020 49 10000 1.93 120 19:41 15.11.2021
300 Clear -11 1015 67 10000 1 0 17:50 15.11.2021
301 Clear -10 1015 67 10000 1 0 16:19 15.11.2021
302 Clear -8 1015 57 10000 1 0 15:39 15.11.2021
303 Clear -8 1015 57 10000 1 0 15:19 15.11.2021
304 Clear -6 1014 49 10000 3 160 12:43 15.11.2021
305 Clear -4 1013 46 10000 4 220 10:54 15.11.2021
306 Clear 4 1013 26 10000 1 0 09:26 15.11.2021
307 Clear 3 1014 28 10000 1 0 07:45 15.11.2021
308 Clear -5 1016 54 10000 1 0 04:45 15.11.2021
309 Clear -5 1021 50 10000 1.23 113 22:47 14.11.2021
310 Clear -5 1021 50 10000 1.02 109 22:28 14.11.2021
311 Clear -14 1017 78 10000 0 0 19:51 14.11.2021
312 Clear -14 1017 78 10000 0 0 19:18 14.11.2021
313 Clear -5 1022 50 10000 0.72 109 18:54 14.11.2021
314 Clear -5 1022 50 10000 0.72 109 18:36 14.11.2021
315 Clear -5 1022 50 10000 0.67 96 18:18 14.11.2021
316 Clear -13 1017 72 10000 0 0 17:54 14.11.2021
317 Clear -13 1017 72 10000 0 0 17:36 14.11.2021
318 Clear -13 1017 72 10000 0 0 17:18 14.11.2021
319 Clear -12 1017 72 10000 1 0 16:45 14.11.2021
320 Clear -12 1017 72 10000 1 0 16:19 14.11.2021
321 Clear -10 1017 62 10000 1 0 15:22 14.11.2021
322 Clear -10 1017 62 10000 2 0 14:45 14.11.2021
323 Clear -10 1017 62 10000 2 0 14:23 14.11.2021
324 Clear -12 1017 61 10000 3 170 13:53 14.11.2021
325 Clear -12 1017 61 10000 3 170 13:32 14.11.2021
326 Clear -7 1016 49 10000 2 0 12:26 14.11.2021
327 Clear -8 1016 53 10000 3 180 11:34 14.11.2021
328 Clear -5 1016 42 10000 3 210 10:40 14.11.2021
329 Clear 1 1016 27 10000 3 230 09:42 14.11.2021
330 Clear 2 1016 25 10000 5 240 08:52 14.11.2021
331 Clouds 2 1016 30 8000 3 290 06:51 14.11.2021
332 Clouds -6 1022 59 10000 0.51 357 23:27 13.11.2021
333 Clear -13 1017 78 10000 0 0 22:21 13.11.2021
334 Clear -14 1016 72 10000 1 0 21:49 13.11.2021
335 Clear -13 1016 72 10000 1 0 20:59 13.11.2021
336 Clear -11 1015 67 10000 2 140 19:33 13.11.2021
337 Clear -13 1015 72 10000 2 200 18:32 13.11.2021
338 Clear -11 1014 67 10000 1 0 17:41 13.11.2021
339 Clear -11 1014 62 10000 1 0 16:29 13.11.2021
340 Clear -11 1013 62 10000 3 180 14:55 13.11.2021
341 Clear -11 1013 62 10000 3 180 14:18 13.11.2021
342 Clear -9 1012 53 10000 2 0 12:45 13.11.2021
343 Clear -7 1011 45 10000 1 0 11:57 13.11.2021
344 Clear -7 1011 45 10000 1 0 11:24 13.11.2021
345 Clear -7 1011 45 10000 1 0 10:39 13.11.2021
346 Clear 2 1011 25 10000 1 0 09:50 13.11.2021
347 Clear 2 1011 25 10000 1 0 09:31 13.11.2021
348 Clear 4 1011 24 10000 1 0 08:49 13.11.2021
349 Clear 4 1011 22 10000 1 0 08:18 13.11.2021
350 Clear -1 1013 43 10000 1 0 04:43 13.11.2021
351 Clear -3 1013 50 10000 1 0 04:23 13.11.2021
352 Clear -12 1013 72 10000 0 0 00:19 13.11.2021
353 Clear -10 1013 67 10000 1 0 22:42 12.11.2021
354 Clear -10 1014 67 10000 0 0 20:55 12.11.2021
355 Clear -11 1014 73 10000 2 0 19:40 12.11.2021
356 Clear -11 1014 73 10000 2 0 19:22 12.11.2021
357 Clear -8 1014 62 10000 2 0 18:20 12.11.2021
358 Clear -9 1013 62 10000 2 0 16:18 12.11.2021
359 Clear -8 1013 57 10000 3 170 14:46 12.11.2021
360 Clear -1 1012 37 10000 1 0 11:31 12.11.2021
361 Clear 1 1012 29 10000 3 260 10:48 12.11.2021
362 Clear 4 1012 24 10000 5 270 09:27 12.11.2021
363 Clear 4 1012 26 10000 5 250 08:35 12.11.2021
364 Clear -14 1015 85 10000 2 0 02:19 12.11.2021
365 Clouds -5 1020 59 10000 0.49 242 23:31 11.11.2021
366 Clouds -5 1021 59 10000 0.53 185 22:28 11.11.2021
367 Clear -15 1017 78 10000 1 0 21:26 11.11.2021
368 Clouds -5 1022 58 10000 0.21 240 20:26 11.11.2021
369 Clear -15 1018 78 10000 1 0 18:54 11.11.2021
370 Clear -13 1018 78 10000 1 0 17:42 11.11.2021
371 Clear -14 1018 78 10000 1 0 16:24 11.11.2021
372 Clear -11 1019 73 10000 1 0 14:44 11.11.2021
373 Clear -11 1019 73 10000 1 0 14:26 11.11.2021
374 Clear -10 1019 73 10000 1 0 13:36 11.11.2021
375 Clear -9 1019 67 10000 3 160 12:48 11.11.2021
376 Clear -5 1019 54 10000 2 0 10:34 11.11.2021
377 Clear 1 1020 37 10000 2 220 09:33 11.11.2021
378 Clear 1 1020 37 10000 3 240 07:35 11.11.2021
379 Clouds -6 1030 73 10000 1.16 318 00:43 11.11.2021
380 Clear -15 1024 85 10000 1 0 22:46 10.11.2021
381 Clear -16 1025 78 10000 0 0 21:56 10.11.2021
382 Clear -16 1025 78 10000 0 0 21:18 10.11.2021
383 Clear -15 1025 78 10000 2 160 20:35 10.11.2021
384 Clear -14 1025 78 10000 1 0 19:46 10.11.2021
385 Clear -14 1026 85 10000 3 170 17:39 10.11.2021
386 Clear -13 1026 78 10000 2 0 16:21 10.11.2021
387 Clear -13 1026 78 10000 1 0 14:25 10.11.2021
388 Clear -9 1026 62 10000 1 0 13:40 10.11.2021
389 Clear -6 1026 53 10000 3 320 12:40 10.11.2021
390 Clear 0 1025 34 10000 4 350 10:20 10.11.2021
391 Clear 2 1025 27 10000 6 320 08:45 10.11.2021
392 Clear 3 1025 28 10000 5 310 07:22 10.11.2021
393 Clear 2 1026 32 10000 4 280 05:59 10.11.2021
394 Clear -3 1027 59 10000 1 0 04:59 10.11.2021
395 Clear -13 1025 78 10000 0 0 22:45 09.11.2021
396 Clear -13 1026 78 10000 1 0 21:46 09.11.2021
397 Clear -13 1026 85 10000 1 0 20:20 09.11.2021
398 Clear -10 1025 79 10000 2 130 18:59 09.11.2021
399 Clear -11 1025 85 10000 2 0 17:30 09.11.2021
400 Clear -10 1025 73 10000 2 170 15:38 09.11.2021
401 Clear -10 1025 73 10000 1 0 13:59 09.11.2021
402 Clear -7 1025 63 10000 1 0 12:50 09.11.2021
403 Clear -1 1025 47 10000 2 310 11:34 09.11.2021
404 Clear 0 1024 40 10000 1 0 10:42 09.11.2021
405 Clear 4 1024 30 10000 3 310 09:24 09.11.2021
406 Clear 4 1024 28 10000 3 240 08:18 09.11.2021
407 Clear 0 1025 40 10000 2 0 05:23 09.11.2021
408 Clear -12 1026 72 10000 1 0 01:58 09.11.2021
409 Clear -12 1026 72 10000 1 0 01:39 09.11.2021
410 Clear -14 1025 78 10000 2 0 23:34 08.11.2021
411 Clear -14 1025 78 10000 0 0 22:48 08.11.2021
412 Clear -13 1025 78 10000 1 0 21:46 08.11.2021
413 Clear -13 1025 72 10000 1 0 20:38 08.11.2021
414 Clear -11 1025 67 10000 0 0 19:46 08.11.2021
415 Clear -13 1026 72 10000 0 0 17:48 08.11.2021
416 Snow -12 1025 67 10000 2 0 15:59 08.11.2021
417 Clear -12 1025 67 10000 2 0 14:57 08.11.2021
418 Clear -12 1025 67 10000 2 0 14:34 08.11.2021
419 Clear -12 1025 61 10000 1 0 13:22 08.11.2021
420 Clear -5 1025 42 10000 2 0 11:56 08.11.2021
421 Clear -2 1024 37 10000 3 270 10:50 08.11.2021
422 Clear -1 1024 34 10000 4 270 09:37 08.11.2021
423 Clear -1 1024 37 10000 3 220 08:52 08.11.2021
424 Clear -2 1024 37 10000 2 0 07:27 08.11.2021
425 Clear -8 1026 57 10000 1 0 03:38 08.11.2021
426 Clear -10 1027 62 10000 1 0 03:19 08.11.2021
427 Clear -15 1026 78 10000 1 0 23:43 07.11.2021
428 Clear -16 1026 72 10000 1 0 21:42 07.11.2021
429 Clear -11 1026 62 10000 0 0 20:51 07.11.2021
430 Clear -12 1026 67 10000 0 0 19:22 07.11.2021
431 Clear -12 1027 67 10000 2 0 17:47 07.11.2021
432 Clear -15 1027 72 10000 2 0 16:44 07.11.2021
433 Clear -14 1027 66 10000 3 160 15:42 07.11.2021
434 Clear -14 1027 66 10000 3 180 14:28 07.11.2021
435 Clear -9 1027 53 10000 1 0 12:57 07.11.2021
436 Clear -7 1026 49 10000 3 330 11:42 07.11.2021
437 Clear -4 1026 36 10000 6 330 09:22 07.11.2021
438 Clear -11 1028 44 10000 1 0 04:33 07.11.2021
439 Clear -17 1028 66 10000 1 0 02:32 07.11.2021
440 Clear -21 1028 71 10000 2 0 22:57 06.11.2021
441 Clear -22 1027 71 10000 1 0 22:32 06.11.2021
442 Clear -20 1028 65 10000 1 0 21:28 06.11.2021
443 Clear -21 1028 65 10000 2 0 20:32 06.11.2021
444 Clear -22 1029 71 10000 1 0 18:56 06.11.2021
445 Clear -17 1030 55 10000 1 0 16:38 06.11.2021
446 Clear -15 1031 51 10000 1 0 14:31 06.11.2021
447 Clear -16 1031 51 10000 3 160 13:38 06.11.2021
448 Clear -14 1031 47 10000 2 0 11:25 06.11.2021
449 Clear -8 1031 32 10000 2 0 09:22 06.11.2021
450 Clear -13 1034 52 10000 2 250 04:56 06.11.2021
451 Clear -23 1034 70 10000 2 180 01:27 06.11.2021
452 Clear -23 1033 70 10000 3 150 23:34 05.11.2021
453 Clear -23 1033 70 10000 2 170 22:33 05.11.2021
454 Clear -23 1033 70 10000 2 170 22:33 05.11.2021
455 Clear -22 1034 71 10000 2 170 20:42 05.11.2021
456 Clear -22 1034 71 10000 2 170 20:19 05.11.2021
457 Clear -23 1034 70 10000 2 170 19:32 05.11.2021
458 Clear -18 1034 60 10000 1 0 18:38 05.11.2021
459 Clear -17 1033 60 10000 1 0 17:25 05.11.2021
460 Clouds -15 1031 51 10000 5 350 14:54 05.11.2021
461 Clouds -15 1031 56 10000 5 350 13:33 05.11.2021
462 Clear -12 1026 44 10000 8 340 09:59 05.11.2021
463 Clear -12 1026 40 10000 9 340 08:39 05.11.2021
464 Clear -12 1026 37 10000 8 350 07:21 05.11.2021
465 Clear -13 1026 43 10000 7 320 04:43 05.11.2021
466 Clouds -15 1025 51 10000 5 330 02:24 05.11.2021
467 Clouds -14 1023 56 10000 5 330 00:30 05.11.2021
468 Clouds -14 1022 61 10000 4 340 22:57 04.11.2021
469 Clouds -14 1022 61 10000 4 340 22:18 04.11.2021
470 Clouds -13 1021 61 10000 5 340 21:30 04.11.2021
471 Clouds -13 1021 66 10000 5 330 20:30 04.11.2021
472 Clouds -13 1020 66 10000 4 330 19:50 04.11.2021
473 Clouds -13 1020 66 10000 4 330 19:28 04.11.2021
474 Clouds -12 1020 67 10000 5 360 18:42 04.11.2021
475 Clouds -12 1019 67 10000 5 10 17:28 04.11.2021
476 Clouds -12 1018 72 10000 7 360 16:23 04.11.2021
477 Clouds -12 1018 72 10000 7 360 16:23 04.11.2021
478 Snow -10 1017 67 10000 6 360 14:19 04.11.2021
479 Clouds -7 1012 63 10000 6 10 10:52 04.11.2021
480 Clouds -4 1010 58 10000 6 320 08:58 04.11.2021
481 Clouds -4 1010 63 10000 7 330 08:28 04.11.2021
482 Clouds -2 1009 54 10000 7 320 07:33 04.11.2021
483 Clouds -5 1004 63 10000 0 0 23:43 03.11.2021
484 Clouds -7 1003 68 10000 0 0 22:49 03.11.2021
485 Clouds -8 1003 73 10000 0 0 21:45 03.11.2021
486 Clouds -8 1003 73 10000 0 0 20:45 03.11.2021
487 Clouds -8 1003 73 10000 0 0 20:27 03.11.2021
488 Clear -6 1003 63 10000 0 0 19:38 03.11.2021
489 Clear -7 1003 68 10000 1 0 18:47 03.11.2021
490 Clear -7 1003 63 10000 1 0 17:58 03.11.2021
491 Clear -6 1003 63 10000 0 0 16:53 03.11.2021
492 Clear -6 1003 58 10000 1 0 15:52 03.11.2021
493 Clear -6 1003 58 10000 1 0 15:31 03.11.2021
494 Clear -3 1004 50 10000 1 0 13:46 03.11.2021
495 Clouds -2 1003 43 10000 2 0 11:38 03.11.2021
496 Clouds 1 1003 29 10000 1 0 10:52 03.11.2021
497 Clouds 2 1003 32 10000 1 0 10:18 03.11.2021
498 Clouds 4 1003 26 10000 1 0 09:27 03.11.2021
499 Clouds 3 1003 28 10000 1 0 08:21 03.11.2021
500 Clouds 4 1003 26 10000 1 0 07:38 03.11.2021
501 Clear -3 1006 50 10000 1 0 04:24 03.11.2021
502 Clouds -2 1012 39 10000 1.99 133 01:42 03.11.2021
503 Clouds -3 1012 39 10000 1.77 149 23:32 02.11.2021
504 Clouds -3 1013 39 10000 1.55 150 22:21 02.11.2021
505 Clouds -3 1013 39 10000 1.74 150 20:48 02.11.2021
506 Clear -3 1014 41 10000 1.95 149 20:23 02.11.2021
507 Clear -12 1008 72 10000 0 0 19:46 02.11.2021
508 Clear -10 1009 67 10000 0 0 18:36 02.11.2021
509 Clear -10 1010 67 10000 1 0 17:57 02.11.2021
510 Clear -10 1010 67 10000 1 0 17:31 02.11.2021
511 Clear -11 1010 67 10000 2 160 16:27 02.11.2021
512 Clear -7 1010 53 10000 1 0 14:58 02.11.2021
513 Clear -6 1010 53 10000 4 180 13:50 02.11.2021
514 Clear -6 1010 53 10000 4 180 13:26 02.11.2021
515 Clouds -6 1010 49 10000 1 0 12:28 02.11.2021
516 Clouds 0 1010 34 10000 2 260 11:28 02.11.2021
517 Clouds 1 1010 27 10000 4 250 10:51 02.11.2021
518 Clouds 1 1010 32 10000 2 240 10:23 02.11.2021
519 Clouds 3 1011 32 10000 5 230 08:42 02.11.2021
520 Clear 3 1012 38 10000 2 200 06:42 02.11.2021
521 Clouds -1 1013 64 10000 3 230 03:32 02.11.2021
522 Clouds -5 1012 80 10000 2 140 00:58 02.11.2021
523 Clouds -5 1011 86 10000 2 0 22:28 01.11.2021
524 Clouds -5 1011 93 10000 1 0 20:50 01.11.2021
525 Clouds -5 1011 93 10000 1 0 20:32 01.11.2021
526 Clouds -5 1011 86 10000 1 0 19:44 01.11.2021
527 Snow 0 1010 86 10000 2 130 18:55 01.11.2021
528 Snow 0 1010 86 10000 2 130 18:19 01.11.2021
529 Clouds 1 1010 75 10000 4 320 17:18 01.11.2021
530 Clouds 3 1010 52 10000 5 240 16:34 01.11.2021
531 Snow 0 1010 69 10000 2 190 15:44 01.11.2021
532 Snow 0 1010 69 10000 2 190 15:19 01.11.2021
533 Snow -1 1009 69 10000 1 0 14:40 01.11.2021
534 Clouds -1 1009 69 10000 1 0 14:19 01.11.2021
535 Clouds -3 1009 74 10000 1 0 12:59 01.11.2021
536 Clouds 2 1009 55 10000 2 0 11:40 01.11.2021
537 Clouds 7 1009 42 10000 1 0 10:22 01.11.2021
538 Rain 7 1010 42 10000 4 240 08:26 01.11.2021
539 Clouds 7 1011 39 10000 4 180 07:47 01.11.2021
540 Clouds 2 1014 48 10000 8 140 03:55 01.11.2021
541 Clouds 2 1014 48 10000 8 140 03:36 01.11.2021
542 Clear -7 1017 86 10000 1 0 23:58 31.10.2021
543 Clear -8 1020 79 10000 1 0 21:26 31.10.2021
544 Clear -7 1020 86 10000 1 0 20:24 31.10.2021
545 Clear -4 1022 74 10000 0 0 18:43 31.10.2021
546 Clear -4 1022 74 10000 0 0 18:21 31.10.2021
547 Clear 0 1022 59 10000 4 140 16:48 31.10.2021
548 Clear 1 1023 55 10000 7 140 14:53 31.10.2021
549 Clear 1 1023 51 10000 5 140 12:58 31.10.2021
550 Clear 1 1023 51 10000 5 140 12:58 31.10.2021
551 Clear 1 1023 51 10000 5 140 12:19 31.10.2021
552 Clouds 4 1023 45 10000 4 160 10:51 31.10.2021
553 Clouds 6 1023 39 10000 7 170 09:26 31.10.2021
554 Clouds 6 1024 36 10000 6 190 08:46 31.10.2021
555 Clear -9 1028 86 10000 2 0 02:59 31.10.2021
556 Clear -12 1029 85 10000 0 0 23:54 30.10.2021
557 Clear -13 1029 85 10000 0 0 21:50 30.10.2021
558 Clear -13 1029 85 10000 0 0 21:26 30.10.2021
559 Clear -11 1030 73 10000 1 0 19:40 30.10.2021
560 Clear -9 1030 73 10000 1 0 17:48 30.10.2021
561 Clear -6 1031 53 10000 1 0 15:41 30.10.2021
562 Clear -6 1030 53 10000 3 160 13:59 30.10.2021
563 Clear -6 1030 53 10000 3 160 13:38 30.10.2021
564 Clear -6 1030 53 10000 3 160 13:20 30.10.2021
565 Clear -1 1030 40 10000 3 220 11:49 30.10.2021
566 Clear 4 1030 26 10000 1 0 10:44 30.10.2021
567 Clear 4 1030 30 10000 3 260 08:56 30.10.2021
568 Clear 2 1030 48 10000 3 260 07:56 30.10.2021
569 Clear -1 1031 69 10000 1 0 05:46 30.10.2021
570 Clear -9 1031 92 10000 1 0 02:59 30.10.2021
571 Clear -8 1029 86 10000 0 0 23:21 29.10.2021
572 Clear -9 1029 92 10000 2 0 22:34 29.10.2021
573 Clouds -6 1028 93 10000 3 170 20:59 29.10.2021
574 Clouds -6 1028 93 10000 3 170 20:32 29.10.2021
575 Clouds -6 1028 93 10000 3 170 20:32 29.10.2021
576 Clear -8 1028 86 10000 1 0 19:26 29.10.2021
577 Clear -5 1027 86 10000 1 0 17:43 29.10.2021
578 Clear -4 1026 86 10000 1 0 15:42 29.10.2021
579 Snow -1 1025 74 10000 2 350 12:50 29.10.2021
580 Clouds 2 1023 60 10000 5 20 10:46 29.10.2021
581 Clouds 2 1023 60 10000 5 20 09:45 29.10.2021
582 Snow -2 1021 80 10000 7 350 02:22 29.10.2021
583 Clear -3 1019 80 10000 6 340 00:30 29.10.2021
584 Clear -1 1018 69 10000 3 360 22:27 28.10.2021
585 Clear -2 1017 69 10000 1 0 20:59 28.10.2021
586 Clear -2 1017 69 10000 1 0 19:56 28.10.2021
587 Clear -6 1017 73 10000 0 0 18:46 28.10.2021
588 Clear -5 1017 63 10000 1 0 17:38 28.10.2021
589 Clear -5 1016 63 10000 1 0 16:38 28.10.2021
590 Clear -2 1016 50 10000 2 0 14:42 28.10.2021
591 Clear -1 1015 47 10000 1 0 13:33 28.10.2021
592 Clear 0 1015 40 10000 2 0 12:50 28.10.2021
593 Clear 6 1014 24 10000 2 0 11:49 28.10.2021
594 Clear 11 1014 19 10000 3 230 10:23 28.10.2021
595 Clear 11 1014 19 10000 3 240 09:37 28.10.2021
596 Clear 11 1014 19 10000 3 230 08:36 28.10.2021
597 Clear 10 1015 22 10000 1 0 07:41 28.10.2021
598 Clear 1 1019 46 10000 1.68 111 01:48 28.10.2021
599 Clear -8 1017 79 10000 1 0 22:49 27.10.2021
600 Clear -7 1017 73 10000 1 0 21:53 27.10.2021
601 Clear -7 1017 73 10000 1 0 21:20 27.10.2021
602 Clear -8 1017 79 10000 1 0 20:43 27.10.2021
603 Clear -6 1017 68 10000 1 0 19:46 27.10.2021
604 Clear 2 1019 47 10000 2.01 103 18:56 27.10.2021
605 Clear -6 1017 68 10000 1 0 17:39 27.10.2021
606 Clear 0 1017 47 10000 0 0 16:25 27.10.2021
607 Clear 1 1017 37 10000 0 0 15:24 27.10.2021
608 Clear 1 1017 37 10000 0 0 15:24 27.10.2021
609 Clear 5 1017 30 10000 3 100 14:20 27.10.2021
610 Clear 13 1016 19 10000 5 140 11:18 27.10.2021
611 Clear 15 1016 18 10000 3 160 10:37 27.10.2021
612 Clear 14 1017 19 10000 2 0 09:23 27.10.2021
613 Clear 11 1018 25 10000 1 0 07:44 27.10.2021
614 Clear 5 1020 36 10000 1 0 05:49 27.10.2021
615 Clear 1 1023 49 10000 1.5 107 01:24 27.10.2021
616 Clear 1 1023 49 10000 1.5 107 00:54 27.10.2021
617 Clear 1 1023 49 10000 1.26 109 23:55 26.10.2021
618 Clear -9 1022 79 10000 2 0 22:47 26.10.2021
619 Clear -9 1022 79 10000 2 0 22:25 26.10.2021
620 Clear -9 1022 86 10000 1 0 21:41 26.10.2021
621 Clear -6 1022 73 10000 1 0 19:54 26.10.2021
622 Clear -6 1022 73 10000 1 0 19:22 26.10.2021
623 Clear -7 1022 79 10000 0 0 18:23 26.10.2021
624 Clear -5 1021 68 10000 2 0 15:51 26.10.2021
625 Clear -1 1021 55 10000 2 0 13:21 26.10.2021
626 Clear 10 1021 25 10000 3 230 10:54 26.10.2021
627 Clear 10 1021 25 10000 4 230 09:26 26.10.2021
628 Clear 8 1023 31 10000 2 0 07:22 26.10.2021
629 Clear -12 1026 85 10000 0 0 00:19 26.10.2021
630 Clear -10 1026 92 10000 1 0 23:37 25.10.2021
631 Clear -9 1026 86 10000 1 0 22:33 25.10.2021
632 Clear -9 1026 86 10000 2 0 21:45 25.10.2021
633 Clear -9 1026 86 10000 2 170 20:38 25.10.2021
634 Clear -8 1026 86 10000 2 160 19:44 25.10.2021
635 Clear -8 1026 86 10000 2 160 19:23 25.10.2021
636 Clear -7 1025 79 10000 3 170 18:38 25.10.2021
637 Clear -7 1025 79 10000 2 160 17:34 25.10.2021
638 Clear 1 1025 51 10000 2 340 15:18 25.10.2021
639 Clear 5 1022 36 10000 6 340 12:33 25.10.2021
640 Clear 8 1020 29 10000 6 340 10:54 25.10.2021
641 Clear 8 1020 29 10000 3 230 08:59 25.10.2021
642 Clear 6 1021 31 10000 3 250 07:19 25.10.2021
643 Clear 1 1021 44 10000 1 0 04:35 25.10.2021
644 Clear -8 1020 67 10000 1 0 00:52 25.10.2021
645 Clear -8 1020 67 10000 1 0 00:33 25.10.2021
646 Clear -10 1019 79 10000 0 0 23:41 24.10.2021
647 Clear -10 1019 79 10000 1 0 22:39 24.10.2021
648 Clear -10 1019 79 10000 1 0 22:19 24.10.2021
649 Clear -9 1019 73 10000 0 0 21:18 24.10.2021
650 Clear -9 1019 73 10000 2 0 20:36 24.10.2021
651 Clear 0 1022 55 10000 1.34 348 19:40 24.10.2021
652 Clear -5 1019 58 10000 1 0 18:29 24.10.2021
653 Clear -6 1019 63 10000 3 160 17:44 24.10.2021
654 Clear -4 1019 54 10000 2 0 15:56 24.10.2021
655 Clear -3 1018 50 10000 2 0 14:42 24.10.2021
656 Clear 2 1017 30 10000 2 0 12:58 24.10.2021
657 Clear 6 1017 22 10000 3 200 11:45 24.10.2021
658 Clear 9 1017 18 10000 3 220 11:26 24.10.2021
659 Clear 10 1017 17 10000 3 220 10:28 24.10.2021
660 Clear 7 1019 26 10000 1 0 07:59 24.10.2021
661 Clouds 0 1023 43 10000 0.2 235 01:25 24.10.2021
662 Clear -10 1022 79 10000 1 0 23:49 23.10.2021
663 Clear -9 1022 79 10000 0 0 22:32 23.10.2021
664 Clear -9 1022 73 10000 1 0 20:37 23.10.2021
665 Clear -9 1023 73 10000 0 0 18:59 23.10.2021
666 Clear -8 1023 67 10000 1 0 18:30 23.10.2021
667 Clear -5 1023 58 10000 0 0 17:43 23.10.2021
668 Clear -6 1023 58 10000 1 0 16:38 23.10.2021
669 Clear -2 1023 46 10000 3 140 14:35 23.10.2021
670 Clear 10 1021 18 10000 2 0 09:45 23.10.2021
671 Clear -9 1022 73 10000 0 0 00:25 23.10.2021
672 Clear -10 1022 79 10000 1 0 23:23 22.10.2021
673 Clear -7 1022 68 10000 0 0 20:55 22.10.2021
674 Clear -7 1022 63 10000 0 0 18:57 22.10.2021
675 Clear 0 1022 37 10000 2 0 17:44 22.10.2021
676 Clear 4 1022 26 10000 6 140 15:50 22.10.2021
677 Clear 4 1022 26 10000 6 140 14:30 22.10.2021
678 Clear 5 1021 24 10000 4 150 12:38 22.10.2021
679 Clear 10 1022 17 10000 5 170 10:48 22.10.2021
680 Clear 11 1022 16 10000 5 180 09:56 22.10.2021
681 Clear 11 1022 16 10000 5 180 09:56 22.10.2021
682 Clear 11 1022 15 10000 5 180 09:32 22.10.2021
683 Clear 11 1023 16 10000 6 160 07:26 22.10.2021
684 Clear 1 1025 47 10000 0 0 04:59 22.10.2021
685 Clear -8 1025 73 10000 0 0 00:24 22.10.2021
686 Clear -10 1025 85 10000 0 0 23:40 21.10.2021
687 Clear -10 1025 79 10000 0 0 22:21 21.10.2021
688 Clear -9 1026 79 10000 0 0 20:55 21.10.2021
689 Clear -9 1026 79 10000 0 0 20:20 21.10.2021
690 Clear -6 1026 68 10000 0 0 19:30 21.10.2021
691 Clear -6 1026 68 10000 0 0 19:30 21.10.2021
692 Clear -9 1026 79 10000 0 0 18:52 21.10.2021
693 Clear -9 1026 79 10000 0 0 18:22 21.10.2021
694 Clear -5 1026 68 10000 0 0 17:42 21.10.2021
695 Clear -4 1026 58 10000 1 0 16:20 21.10.2021
696 Clear -3 1025 54 10000 1 0 15:21 21.10.2021
697 Clear 0 1025 43 10000 0 0 14:49 21.10.2021
698 Clear -1 1025 51 10000 3 140 13:26 21.10.2021
699 Clear 9 1025 23 10000 0 0 11:27 21.10.2021
700 Clear 9 1026 23 10000 2 0 09:23 21.10.2021
701 Clear 8 1027 27 10000 3 250 07:31 21.10.2021
702 Clear 3 1029 41 10000 1 0 05:33 21.10.2021
703 Clear -10 1029 79 10000 1 0 23:56 20.10.2021
704 Clear -11 1028 85 10000 0 0 22:21 20.10.2021
705 Clear -8 1028 79 10000 1 0 21:45 20.10.2021
706 Clear -8 1028 79 10000 1 0 20:57 20.10.2021
707 Clear -10 1028 85 10000 1 0 20:36 20.10.2021
708 Clear -10 1028 85 10000 1 0 19:59 20.10.2021
709 Clear -8 1028 79 10000 1 0 18:59 20.10.2021
710 Clear -7 1028 73 10000 2 0 17:54 20.10.2021
711 Clear -7 1027 68 10000 2 0 15:54 20.10.2021
712 Clear 1 1026 44 10000 1 0 12:50 20.10.2021
713 Clear 7 1026 26 10000 7 330 09:30 20.10.2021
714 Clear 3 1028 44 10000 1 0 05:24 20.10.2021
715 Clear -11 1026 85 10000 2 0 00:53 20.10.2021
716 Clear -11 1026 85 10000 2 0 00:26 20.10.2021
717 Clear -10 1025 85 10000 0 0 21:47 19.10.2021
718 Clear -10 1025 85 10000 0 0 21:27 19.10.2021
719 Clear -9 1025 79 10000 1 0 20:26 19.10.2021
720 Clear -9 1025 79 10000 1 0 19:45 19.10.2021
721 Clear -9 1025 79 10000 1 0 19:23 19.10.2021
722 Clear -7 1025 73 10000 1 0 18:23 19.10.2021
723 Clear -7 1025 73 10000 1 0 18:23 19.10.2021
724 Clear -1 1028 58 10000 1.73 349 16:25 19.10.2021
725 Clear -5 1024 63 10000 3 170 15:25 19.10.2021
726 Clear -3 1024 54 10000 2 0 14:31 19.10.2021
727 Clear -1 1023 51 10000 2 0 13:43 19.10.2021
728 Clear 6 1023 28 10000 2 0 11:37 19.10.2021
729 Clear 8 1023 25 10000 3 210 10:39 19.10.2021
730 Clear 7 1023 29 10000 3 220 08:59 19.10.2021
731 Clear 7 1024 29 10000 2 0 07:56 19.10.2021
732 Clear -3 1030 60 10000 1.32 125 00:27 19.10.2021
733 Clear -12 1026 79 10000 0 0 23:56 18.10.2021
734 Clear -12 1026 79 10000 0 0 23:20 18.10.2021
735 Clear -3 1030 58 10000 1.39 124 22:54 18.10.2021
736 Clear -11 1027 85 10000 0 0 21:58 18.10.2021
737 Clear -10 1027 79 10000 1 0 20:46 18.10.2021
738 Clear -10 1027 79 10000 1 0 20:20 18.10.2021
739 Clear -10 1027 79 10000 2 0 19:30 18.10.2021
740 Clear -10 1027 79 10000 2 0 18:58 18.10.2021
741 Clear -8 1027 73 10000 1 0 16:30 18.10.2021
742 Clear -7 1027 68 10000 3 160 14:33 18.10.2021
743 Clear 4 1026 30 10000 2 300 11:44 18.10.2021
744 Clear 5 1026 20 10000 4 330 09:42 18.10.2021
745 Clear 0 1028 51 10000 2 0 05:32 18.10.2021
746 Clear -11 1026 85 10000 3 180 23:52 17.10.2021
747 Clear -7 1025 63 10000 2 0 22:23 17.10.2021
748 Clear -7 1025 79 10000 0 0 21:42 17.10.2021
749 Clear -5 1025 74 10000 1 0 20:49 17.10.2021
750 Clear -5 1025 74 10000 1 0 19:56 17.10.2021
751 Clear -5 1024 74 7000 1 300 19:37 17.10.2021
752 Clear -3 1029 69 10000 2.41 340 18:28 17.10.2021
753 Clear -3 1023 63 10000 3 350 15:57 17.10.2021
754 Clear 1 1022 37 10000 5 340 14:38 17.10.2021
755 Clear 1 1022 37 10000 5 340 13:56 17.10.2021
756 Clear 0 1021 40 10000 1 0 13:30 17.10.2021
757 Clear 6 1020 26 10000 7 330 11:27 17.10.2021
758 Clear 8 1019 19 10000 5 360 09:56 17.10.2021
759 Clear 7 1020 21 10000 3 260 07:43 17.10.2021
760 Clear -9 1023 79 10000 1 0 02:35 17.10.2021
761 Clear -13 1024 78 10000 1 0 00:30 17.10.2021
762 Clear -13 1025 78 10000 0 0 22:46 16.10.2021
763 Clear -11 1026 79 10000 0 0 20:36 16.10.2021
764 Clear -11 1026 79 10000 0 0 19:59 16.10.2021
765 Clear -10 1027 73 10000 0 0 19:40 16.10.2021
766 Clear -10 1027 73 10000 0 0 19:18 16.10.2021
767 Clear -11 1028 79 10000 1 0 18:44 16.10.2021
768 Clear -11 1028 79 10000 1 0 18:22 16.10.2021
769 Clear -10 1028 73 10000 1 0 17:31 16.10.2021
770 Clear -9 1029 67 10000 0 0 16:18 16.10.2021
771 Clear -4 1030 50 10000 3 160 12:50 16.10.2021
772 Clear 3 1031 28 10000 3 200 11:24 16.10.2021
773 Clear 2 1033 30 10000 2 0 08:57 16.10.2021
774 Clear -17 1039 78 10000 1 0 01:37 16.10.2021
775 Clear -16 1039 85 10000 0 0 00:29 16.10.2021
776 Clear -16 1039 78 10000 0 0 23:25 15.10.2021
777 Clear -15 1040 72 10000 0 0 22:20 15.10.2021
778 Clear -13 1040 66 10000 0 0 21:40 15.10.2021
779 Clear -15 1041 72 10000 1 0 20:54 15.10.2021
780 Clear -15 1041 72 10000 1 0 20:22 15.10.2021
781 Clear -15 1041 72 10000 1 0 19:20 15.10.2021
782 Clear -16 1041 78 10000 2 150 18:21 15.10.2021
783 Clear -12 1041 67 10000 1 0 15:46 15.10.2021
784 Clear -11 1040 62 10000 1 0 14:18 15.10.2021
785 Clear -7 1040 42 10000 4 340 12:25 15.10.2021
786 Clouds -5 1039 36 10000 7 350 11:18 15.10.2021
787 Clouds -5 1039 36 10000 7 350 10:28 15.10.2021
788 Clouds -5 1040 36 10000 5 340 07:35 15.10.2021
789 Clear -7 1040 35 10000 5 350 04:46 15.10.2021
790 Clear -9 1037 57 10000 4 20 00:22 15.10.2021
791 Clouds -8 1036 57 10000 5 10 23:25 14.10.2021
792 Clouds -8 1036 57 10000 6 20 22:20 14.10.2021
793 Clear -7 1035 58 10000 4 10 21:37 14.10.2021
794 Clear -7 1034 68 10000 4 350 20:20 14.10.2021
795 Clear -6 1034 63 10000 4 340 19:46 14.10.2021
796 Clear -7 1034 73 10000 2 0 18:40 14.10.2021
797 Clear -7 1034 73 10000 2 0 18:40 14.10.2021
798 Clear -6 1033 68 10000 4 340 16:59 14.10.2021
799 Clear -6 1033 68 10000 4 340 16:32 14.10.2021
800 Clear -6 1032 68 10000 4 340 14:50 14.10.2021
801 Clear -6 1032 68 10000 4 340 14:26 14.10.2021
802 Clear -6 1031 68 10000 3 350 13:33 14.10.2021
803 Clouds -3 1030 54 10000 6 360 11:34 14.10.2021
804 Clouds -1 1029 51 10000 9 340 09:24 14.10.2021
805 Clouds 0 1031 64 10000 8.05 315 06:19 14.10.2021
806 Clouds -1 1029 74 10000 1.56 231 00:41 14.10.2021
807 Clear -7 1026 86 10000 0 0 22:40 13.10.2021
808 Clear -5 1026 80 10000 1 0 21:36 13.10.2021
809 Clear -8 1026 93 10000 1 0 20:45 13.10.2021
810 Clear -7 1026 86 10000 1 0 19:39 13.10.2021
811 Clear -6 1026 86 10000 1 0 18:47 13.10.2021
812 Clear -5 1026 86 10000 1 0 17:22 13.10.2021
813 Clear -3 1025 74 10000 1 0 14:47 13.10.2021
814 Clear -3 1025 74 10000 1 0 14:25 13.10.2021
815 Clouds 5 1024 42 10000 2 360 12:48 13.10.2021
816 Clouds 7 1023 33 10000 4 310 11:37 13.10.2021
817 Clouds 9 1022 31 10000 7 320 10:18 13.10.2021
818 Clouds 9 1022 29 10000 6 270 07:53 13.10.2021
819 Clear 4 1023 60 10000 0 0 03:39 13.10.2021
820 Clear -3 1022 80 10000 1 0 02:21 13.10.2021
821 Clear -4 1019 80 10000 2 0 23:36 12.10.2021
822 Clear -5 1019 86 10000 1 0 22:50 12.10.2021
823 Clear -5 1019 86 10000 1 0 22:29 12.10.2021
824 Clear -5 1019 86 10000 1 0 20:54 12.10.2021
825 Clear -5 1019 86 10000 1 0 20:31 12.10.2021
826 Clear -3 1018 80 10000 2 0 19:36 12.10.2021
827 Clear -2 1018 74 10000 1 0 18:25 12.10.2021
828 Clear 0 1018 64 10000 1 0 17:20 12.10.2021
829 Clouds 1 1017 55 10000 3 130 16:22 12.10.2021
830 Clouds 1 1017 60 10000 2 0 15:31 12.10.2021
831 Clouds 1 1017 60 10000 2 0 15:30 12.10.2021
832 Clouds 5 1016 38 10000 0 0 13:46 12.10.2021
833 Clouds 5 1016 42 10000 1 0 13:18 12.10.2021
834 Clouds 12 1015 19 10000 2 0 11:29 12.10.2021
835 Clouds 13 1015 16 10000 5 250 09:34 12.10.2021
836 Clear 12 1016 19 10000 7 160 08:20 12.10.2021
837 Clouds 11 1016 19 10000 6 160 06:45 12.10.2021
838 Clouds 8 1017 23 10000 7 140 04:39 12.10.2021
839 Clouds 5 1017 28 10000 4 120 02:55 12.10.2021
840 Clear -2 1018 64 10000 1 0 23:49 11.10.2021
841 Clear -2 1018 64 10000 1 0 23:28 11.10.2021
842 Clear -2 1018 64 10000 1 0 23:28 11.10.2021
843 Clear -2 1019 64 10000 1 0 22:47 11.10.2021
844 Clear 0 1020 51 10000 3 350 21:25 11.10.2021
845 Clear 4 1020 35 10000 5 140 19:53 11.10.2021
846 Clear 4 1020 35 10000 5 140 19:34 11.10.2021
847 Clear 3 1020 41 10000 4 160 18:23 11.10.2021
848 Clear 4 1020 41 10000 3 160 16:40 11.10.2021
849 Clear 4 1020 41 10000 3 160 16:20 11.10.2021
850 Clear 5 1020 38 10000 4 170 15:42 11.10.2021
851 Clear 5 1020 42 10000 4 170 14:53 11.10.2021
852 Clear 5 1020 42 10000 4 170 14:19 11.10.2021
853 Clear 2 1020 51 10000 3 170 13:35 11.10.2021
854 Clear 12 1019 20 10000 5 170 11:18 11.10.2021
855 Clear 12 1020 28 10000 5 150 09:46 11.10.2021
856 Clear 11 1020 32 10000 1 0 07:57 11.10.2021
857 Clear -9 1022 92 10000 0 0 01:44 11.10.2021
858 Clear -8 1021 86 10000 1 0 00:57 11.10.2021
859 Clear -7 1022 93 10000 1 0 00:37 11.10.2021
860 Clear -7 1022 86 10000 0 0 22:35 10.10.2021
861 Clear -5 1022 86 10000 0 0 21:49 10.10.2021
862 Clear -5 1022 86 10000 0 0 20:57 10.10.2021
863 Clear -6 1022 86 10000 0 0 20:38 10.10.2021
864 Clear -6 1022 86 10000 0 0 20:19 10.10.2021
865 Clear -5 1022 86 10000 0 0 19:40 10.10.2021
866 Clear -5 1023 86 10000 0 0 18:57 10.10.2021
867 Clear -5 1023 86 10000 0 0 18:19 10.10.2021
868 Clear 1 1023 55 10000 1 0 15:48 10.10.2021
869 Clear 1 1023 60 10000 4 160 14:45 10.10.2021
870 Clear 1 1022 64 10000 4 170 13:40 10.10.2021
871 Clear 6 1022 36 10000 4 190 12:43 10.10.2021
872 Clear 8 1023 29 10000 5 210 11:30 10.10.2021
873 Clear 8 1023 29 10000 4 200 10:26 10.10.2021
874 Clear 7 1024 36 10000 4 180 09:18 10.10.2021
875 Clear 6 1024 39 10000 4 210 08:50 10.10.2021
876 Clear -1 1027 69 10000 0 0 04:31 10.10.2021
877 Clear -9 1026 86 10000 0 0 02:19 10.10.2021
878 Clear -11 1025 85 10000 1 0 00:47 10.10.2021
879 Clear -7 1025 86 10000 0 0 23:26 09.10.2021
880 Clear -6 1025 93 10000 0 0 21:55 09.10.2021
881 Clear -6 1025 93 10000 0 0 21:30 09.10.2021
882 Clear -6 1025 79 10000 0 0 20:19 09.10.2021
883 Clear -6 1025 86 10000 0 0 19:41 09.10.2021
884 Clear -3 1025 74 10000 2 0 18:48 09.10.2021
885 Clear -4 1025 80 10000 2 0 17:57 09.10.2021
886 Clear -5 1024 86 10000 2 0 16:20 09.10.2021
887 Clouds -5 1024 86 10000 3 170 14:28 09.10.2021
888 Clouds -1 1023 80 10000 1 0 13:38 09.10.2021
889 Clouds 1 1023 64 10000 3 300 12:27 09.10.2021
890 Clouds 1 1022 64 10000 6 320 10:44 09.10.2021
891 Clouds 1 1022 64 10000 6 320 10:19 09.10.2021
892 Clouds 1 1022 64 10000 8 310 08:45 09.10.2021
893 Clouds 0 1022 74 10000 8 320 08:20 09.10.2021
894 Snow 0 1021 74 8000 8 330 06:37 09.10.2021
895 Clouds 0 1020 74 10000 8 340 04:43 09.10.2021
896 Clouds -1 1018 80 10000 8 340 02:46 09.10.2021
897 Snow 0 1015 86 10000 6 340 00:24 09.10.2021
898 Snow 0 1015 86 10000 6 330 23:31 08.10.2021
899 Snow 0 1015 86 10000 6 340 22:46 08.10.2021
900 Rain 1 1015 80 10000 5 360 21:44 08.10.2021
901 Rain 1 1016 86 8000 2 0 19:49 08.10.2021
902 Snow 1 1016 93 8000 2 0 18:23 08.10.2021
903 Snow 0 1016 93 6000 1 0 16:55 08.10.2021
904 Snow 0 1016 93 6000 1 0 16:24 08.10.2021
905 Snow 0 1016 93 6000 3 360 14:56 08.10.2021
906 Snow 2 1016 75 8000 5 360 13:45 08.10.2021
907 Rain 4 1016 52 10000 6 350 11:42 08.10.2021
908 Clouds 5 1015 48 10000 7 360 10:42 08.10.2021
909 Rain 6 1015 42 10000 7 330 09:47 08.10.2021
910 Clouds 4 1016 87 10000 1 0 03:38 08.10.2021
911 Clouds 1 1014 86 10000 1 0 23:24 07.10.2021
912 Clouds 3 1015 93 10000 1 0 21:48 07.10.2021
913 Clouds 3 1015 93 10000 1 0 21:28 07.10.2021
914 Clouds 3 1015 93 10000 1 0 21:28 07.10.2021
915 Clouds 2 1015 93 10000 1 0 20:29 07.10.2021
916 Clouds -1 1014 100 10000 1 0 19:32 07.10.2021
917 Clouds 1 1014 93 10000 1 0 18:40 07.10.2021
918 Clouds 3 1014 87 10000 2 0 17:32 07.10.2021
919 Clouds 5 1014 81 10000 1 0 16:25 07.10.2021
920 Clouds 6 1014 81 10000 2 0 14:48 07.10.2021
921 Clouds 7 1013 76 10000 1 0 13:43 07.10.2021
922 Clouds 10 1013 62 10000 6 220 12:53 07.10.2021
923 Clouds 12 1012 43 10000 5 150 10:58 07.10.2021
924 Clouds 14 1012 28 10000 3 240 10:22 07.10.2021
925 Clouds 14 1012 30 10000 3 230 09:42 07.10.2021
926 Clouds 14 1013 28 10000 4 240 08:53 07.10.2021
927 Clouds 15 1014 26 10000 7 210 07:58 07.10.2021
928 Clouds 15 1014 26 10000 7 210 07:38 07.10.2021
929 Clouds 13 1015 30 10000 6 190 06:36 07.10.2021
930 Clear -6 1018 79 10000 0 0 00:29 07.10.2021
931 Clear -4 1019 74 10000 0 0 22:59 06.10.2021
932 Clear -4 1019 74 10000 0 0 22:24 06.10.2021
933 Clear -5 1019 80 10000 0 0 20:51 06.10.2021
934 Clear -5 1019 80 10000 0 0 20:26 06.10.2021
935 Clear -3 1020 63 10000 1 0 18:43 06.10.2021
936 Clear -2 1019 59 10000 1 0 17:19 06.10.2021
937 Clear 1 1019 44 10000 2 160 15:34 06.10.2021
938 Clear 2 1019 41 10000 2 0 14:34 06.10.2021
939 Clear 5 1018 30 10000 0 0 13:24 06.10.2021
940 Clear 8 1018 27 10000 3 290 12:45 06.10.2021
941 Clouds 10 1018 20 10000 4 290 12:23 06.10.2021
942 Clouds 14 1018 19 10000 3 250 10:36 06.10.2021
943 Clouds 14 1019 19 10000 3 250 09:39 06.10.2021
944 Clouds 13 1019 21 10000 4 260 08:57 06.10.2021
945 Clouds 13 1020 24 10000 3 240 07:53 06.10.2021
946 Clear 11 1022 28 10000 4 170 05:37 06.10.2021
947 Clear 5 1022 36 10000 4 170 01:23 06.10.2021
948 Clouds 5 1022 36 10000 7 160 00:20 06.10.2021
949 Clouds 5 1022 36 10000 7 160 00:20 06.10.2021
950 Clouds 6 1023 33 10000 5 160 23:48 05.10.2021
951 Clouds 6 1023 33 10000 5 160 23:29 05.10.2021
952 Clouds 7 1023 31 10000 6 180 22:30 05.10.2021
953 Clouds 8 1024 29 10000 7 180 21:50 05.10.2021
954 Clouds 8 1024 29 10000 9 170 20:49 05.10.2021
955 Clouds 8 1024 29 10000 9 170 20:25 05.10.2021
956 Clouds 8 1024 31 10000 9 170 19:50 05.10.2021
957 Clouds 8 1024 31 10000 9 170 19:18 05.10.2021
958 Clouds 9 1025 27 10000 8 170 16:58 05.10.2021
959 Clouds 9 1025 27 10000 8 150 15:22 05.10.2021
960 Clouds 10 1025 27 10000 6 180 13:43 05.10.2021
961 Clouds 11 1024 24 10000 7 200 12:54 05.10.2021
962 Clouds 11 1024 24 10000 7 200 12:19 05.10.2021
963 Clouds 12 1025 22 10000 8 200 11:21 05.10.2021
964 Clouds 12 1025 20 10000 8 200 09:50 05.10.2021
965 Clouds 10 1028 27 10000 8 190 05:36 05.10.2021
966 Clouds 1 1028 60 10000 3 290 23:54 04.10.2021
967 Clouds 4 1028 41 10000 4 150 22:39 04.10.2021
968 Clouds 0 1029 64 10000 0 0 20:43 04.10.2021
969 Clouds 1 1029 55 10000 1 0 18:34 04.10.2021
970 Clouds -1 1029 64 10000 1 0 16:39 04.10.2021
971 Clouds -2 1029 64 10000 2 0 15:32 04.10.2021
972 Clouds -2 1029 64 10000 2 0 15:32 04.10.2021
973 Clouds -1 1029 59 10000 1 0 14:43 04.10.2021
974 Clouds -1 1029 59 10000 1 0 13:57 04.10.2021
975 Clouds -1 1028 59 10000 3 150 13:27 04.10.2021
976 Clouds 8 1028 27 10000 0 0 12:28 04.10.2021
977 Clouds 8 1028 27 10000 0 0 11:31 04.10.2021
978 Clouds 7 1028 29 10000 1 0 10:23 04.10.2021
979 Clouds 7 1028 29 10000 1 0 08:42 04.10.2021
980 Clouds 7 1029 29 10000 2 0 07:43 04.10.2021
981 Clouds -8 1029 93 10000 0 0 01:56 04.10.2021
982 Clear -10 1028 85 10000 0 0 22:41 03.10.2021
983 Clear -8 1027 86 10000 1 0 21:42 03.10.2021
984 Clear -8 1027 86 10000 1 0 21:23 03.10.2021
985 Clear -8 1027 86 10000 2 0 20:21 03.10.2021
986 Clear -8 1027 86 10000 1 0 19:30 03.10.2021
987 Clouds -4 1026 80 10000 1 0 18:28 03.10.2021
988 Clouds -4 1026 80 10000 2 0 17:28 03.10.2021
989 Clear -1 1024 69 10000 2 0 14:48 03.10.2021
990 Clear -1 1024 69 10000 2 0 14:24 03.10.2021
991 Clouds 2 1023 55 10000 2 0 13:34 03.10.2021
992 Clouds 3 1022 52 10000 4 30 12:29 03.10.2021
993 Clouds 3 1021 52 10000 4 350 10:52 03.10.2021
994 Clouds 4 1021 48 10000 5 350 08:53 03.10.2021
995 Clouds 1 1019 64 10000 5 330 03:29 03.10.2021
996 Clouds 0 1015 69 10000 4 330 22:43 02.10.2021
997 Clouds 0 1014 74 10000 3 310 21:21 02.10.2021
998 Clouds 0 1013 69 10000 5 320 19:50 02.10.2021
999 Snow 0 1012 74 10000 3 310 18:55 02.10.2021
1000 Clouds 1 1010 69 10000 7 340 17:57 02.10.2021
1001 Rain 1 1010 69 10000 7 340 17:26 02.10.2021
1002 Snow 0 1008 69 10000 7 330 15:38 02.10.2021
1003 Clear -5 1013 74 10000 3 180 16:50 30.09.2021
1004 Clear -3 1013 63 10000 2 0 15:37 30.09.2021
1005 Clear 4 1013 33 10000 0 0 13:45 30.09.2021
1006 Clear 9 1013 20 10000 5 290 11:37 30.09.2021
1007 Clear 9 1013 20 10000 6 270 10:43 30.09.2021
1008 Clear 9 1013 25 8000 7 290 09:41 30.09.2021
1009 Clouds 8 1014 29 10000 4 240 08:29 30.09.2021
1010 Clouds 6 1015 33 10000 4 230 07:33 30.09.2021
1011 Clear 3 1016 52 10000 1 0 04:58 30.09.2021
1012 Clear -8 1017 86 10000 0 0 01:20 30.09.2021
1013 Clear -8 1016 86 10000 2 0 23:55 29.09.2021
1014 Clear -8 1015 93 10000 3 160 22:31 29.09.2021
1015 Clear -8 1015 86 10000 1 0 21:24 29.09.2021
1016 Clear -6 1015 86 10000 2 0 20:26 29.09.2021
1017 Clear -3 1015 80 10000 0 0 19:50 29.09.2021
1018 Clear -3 1015 80 10000 2 0 18:29 29.09.2021
1019 Clear -1 1015 69 10000 1 0 17:34 29.09.2021
1020 Clear -1 1015 69 10000 1 0 16:46 29.09.2021
1021 Clouds -2 1014 80 10000 0 0 15:55 29.09.2021
1022 Clouds -1 1014 74 10000 0 0 14:39 29.09.2021
1023 Clouds 3 1013 52 10000 3 350 13:42 29.09.2021
1024 Clouds 4 1013 52 10000 4 270 12:50 29.09.2021
1025 Clouds 4 1013 60 10000 3 240 11:55 29.09.2021
1026 Clouds 5 1013 48 10000 3 330 10:44 29.09.2021
1027 Clouds 7 1013 36 10000 7 270 09:49 29.09.2021
1028 Clouds 5 1013 45 10000 4 240 08:49 29.09.2021
1029 Clouds 5 1014 45 10000 4 220 07:31 29.09.2021
1030 Clouds 0 1016 69 10000 1 0 03:39 29.09.2021
1031 Clouds -5 1016 86 10000 1 0 23:26 28.09.2021
1032 Clouds -3 1016 80 10000 0 0 22:23 28.09.2021
1033 Clear -4 1016 86 10000 1 0 21:35 28.09.2021
1034 Clear -6 1017 86 10000 0 0 20:36 28.09.2021
1035 Clear -6 1017 86 10000 1 0 19:43 28.09.2021
1036 Clear -6 1017 86 10000 2 0 18:45 28.09.2021
1037 Clear -6 1017 86 10000 2 0 17:54 28.09.2021
1038 Clear -2 1017 69 10000 1 0 15:56 28.09.2021
1039 Clouds 2 1016 48 10000 4 340 13:44 28.09.2021
1040 Clouds 2 1016 48 10000 5 350 12:47 28.09.2021
1041 Clouds 3 1016 44 10000 6 360 12:19 28.09.2021
1042 Clouds 4 1016 45 10000 5 350 11:45 28.09.2021
1043 Clouds 3 1015 52 10000 6 340 10:55 28.09.2021
1044 Clouds 3 1015 56 10000 6 350 09:53 28.09.2021
1045 Clouds 4 1015 48 10000 7 360 08:57 28.09.2021
1046 Clouds 4 1015 48 10000 7 360 08:34 28.09.2021
1047 Clouds 1 1014 69 10000 8 330 06:51 28.09.2021
1048 Rain 1 1013 75 10000 7 270 05:27 28.09.2021
1049 Snow 0 1011 93 8000 8 270 01:22 28.09.2021
1050 Clouds 2 1010 80 10000 3 290 00:25 28.09.2021
1051 Clouds 3 1009 70 10000 5 310 23:32 27.09.2021
1052 Clouds 4 1009 65 10000 4 320 22:55 27.09.2021
1053 Clouds 5 1007 56 10000 4 310 21:44 27.09.2021
1054 Clouds 5 1007 52 10000 3 310 20:44 27.09.2021
1055 Clouds 7 1006 33 10000 3 60 19:53 27.09.2021
1056 Clouds 7 1006 33 10000 3 60 19:27 27.09.2021
1057 Clouds 7 1007 36 10000 4 20 18:48 27.09.2021
1058 Clouds 7 1008 39 10000 3 40 17:29 27.09.2021
1059 Clouds 8 1008 34 10000 6 360 16:48 27.09.2021
1060 Clouds 9 1007 29 10000 4 10 15:43 27.09.2021
1061 Clouds 7 1006 33 10000 3 340 14:56 27.09.2021
1062 Clouds 11 1004 22 10000 5 360 13:31 27.09.2021
1063 Clouds 15 1004 15 10000 5 310 11:31 27.09.2021
1064 Clouds 16 1005 14 10000 4 240 10:32 27.09.2021
1065 Clouds 14 1006 19 10000 4 230 08:48 27.09.2021
1066 Clear 9 1008 37 10000 1 0 05:22 27.09.2021
1067 Clear 0 1009 74 10000 0 0 02:59 27.09.2021
1068 Clear -5 1011 86 10000 1 0 22:32 26.09.2021
1069 Clear -4 1012 86 10000 1 0 21:50 26.09.2021
1070 Clear -1 1012 80 10000 1 0 20:58 26.09.2021
1071 Clear -1 1012 80 10000 1 0 20:21 26.09.2021
1072 Clear -1 1013 80 10000 1 0 19:48 26.09.2021
1073 Clear -3 1014 86 10000 0 0 18:45 26.09.2021
1074 Clear -2 1014 86 10000 1 0 17:56 26.09.2021
1075 Clear -2 1014 86 10000 1 0 17:22 26.09.2021
1076 Clear 0 1015 69 10000 1 0 16:40 26.09.2021
1077 Clear 0 1015 69 10000 1 0 15:59 26.09.2021
1078 Clear 0 1015 69 10000 2 0 14:59 26.09.2021
1079 Clouds 5 1015 52 10000 2 230 13:57 26.09.2021
1080 Clouds 5 1015 52 10000 2 230 13:20 26.09.2021
1081 Clouds 8 1016 36 10000 2 0 12:24 26.09.2021
1082 Clouds 7 1016 42 10000 4 280 11:42 26.09.2021
1083 Clouds 8 1016 39 10000 6 270 10:30 26.09.2021
1084 Clouds 8 1016 39 10000 6 290 09:20 26.09.2021
1085 Clouds 6 1017 49 10000 5 310 07:39 26.09.2021
1086 Clouds 2 1016 87 10000 4 260 00:23 26.09.2021
1087 Clouds 3 1015 87 10000 5 290 23:30 25.09.2021
1088 Clouds 2 1015 93 10000 0 0 22:38 25.09.2021
1089 Clouds 0 1016 93 10000 2 0 21:55 25.09.2021
1090 Clouds 0 1016 93 10000 2 0 21:32 25.09.2021
1091 Clouds 4 1016 87 10000 0 0 20:48 25.09.2021
1092 Clouds 3 1014 93 10000 3 270 18:59 25.09.2021
1093 Clouds 3 1014 93 10000 3 270 18:24 25.09.2021
1094 Clouds 10 1012 71 10000 1 0 15:56 25.09.2021
1095 Clouds 15 1009 47 10000 6 200 13:57 25.09.2021
1096 Clouds 15 1009 47 10000 6 200 13:32 25.09.2021
1097 Clouds 18 1009 42 10000 6 200 12:28 25.09.2021
1098 Clouds 16 1010 51 10000 7 220 10:35 25.09.2021
1099 Rain 14 1010 67 10000 7 220 09:40 25.09.2021
1100 Clouds 19 1008 42 10000 10 160 08:20 25.09.2021
1101 Clouds 19 1010 39 10000 11 150 06:26 25.09.2021
1102 Clear 6 1013 75 10000 1 0 23:55 24.09.2021
1103 Clear 6 1014 75 10000 2 0 21:50 24.09.2021
1104 Clear 6 1015 81 10000 1 0 20:39 24.09.2021
1105 Clear 7 1015 76 10000 1 0 19:48 24.09.2021
1106 Clear 8 1015 71 10000 1 0 18:34 24.09.2021
1107 Clear 10 1015 66 10000 2 0 17:54 24.09.2021
1108 Clear 10 1015 66 10000 2 0 17:36 24.09.2021
1109 Clear 10 1015 66 10000 2 0 17:18 24.09.2021
1110 Clouds 16 1014 41 10000 1 0 14:31 24.09.2021
1111 Clouds 17 1013 39 10000 2 0 13:18 24.09.2021
1112 Clouds 19 1013 34 10000 1 0 12:39 24.09.2021
1113 Clouds 19 1013 34 10000 1 0 12:20 24.09.2021
1114 Clouds 20 1014 28 10000 6 190 10:27 24.09.2021
1115 Clouds 20 1014 32 10000 10 160 08:55 24.09.2021
1116 Clouds 18 1014 42 10000 11 160 07:34 24.09.2021
1117 Clouds 17 1015 42 10000 12 150 06:46 24.09.2021
1118 Clouds 15 1017 47 10000 8 130 04:55 24.09.2021
1119 Clear 3 1018 65 10000 1 0 00:26 24.09.2021
1120 Clear 0 1019 80 10000 2 0 22:30 23.09.2021
1121 Clear 0 1019 80 10000 0 0 21:56 23.09.2021
1122 Clear 0 1020 80 10000 0 0 20:34 23.09.2021
1123 Clear 1 1020 69 10000 0 0 19:46 23.09.2021
1124 Clear 0 1020 80 10000 0 0 17:47 23.09.2021
1125 Clear 3 1020 65 10000 2 160 15:32 23.09.2021
1126 Clear 3 1020 65 10000 2 160 14:59 23.09.2021
1127 Clear 9 1019 40 10000 2 270 13:46 23.09.2021
1128 Clear 9 1019 40 10000 2 270 13:20 23.09.2021
1129 Clear 13 1019 24 10000 3 310 12:52 23.09.2021
1130 Clear 13 1019 24 10000 3 310 12:22 23.09.2021
1131 Clear 13 1019 24 10000 3 310 12:22 23.09.2021
1132 Clear 14 1019 21 10000 3 320 11:32 23.09.2021
1133 Clear 14 1019 21 10000 3 310 10:26 23.09.2021
1134 Clear 14 1019 18 10000 3 360 09:52 23.09.2021
1135 Clear 13 1019 26 10000 4 300 08:21 23.09.2021
1136 Clouds 8 1021 53 10000 3 350 04:27 23.09.2021
1137 Clear 1 1018 86 10000 1 0 23:27 22.09.2021
1138 Clouds 1 1018 86 10000 2 0 22:29 22.09.2021
1139 Clouds 2 1017 93 10000 1 0 21:56 22.09.2021
1140 Clouds 2 1017 93 10000 1 0 21:34 22.09.2021
1141 Clouds 3 1017 81 10000 2 0 20:54 22.09.2021
1142 Clouds 5 1016 81 10000 4 350 19:32 22.09.2021
1143 Clouds 4 1016 81 10000 3 330 18:39 22.09.2021
1144 Clouds 6 1015 93 10000 2 349 17:47 22.09.2021
1145 Clouds 6 1015 94 10000 2.07 342 16:38 22.09.2021
1146 Clear 6 1013 81 10000 3 330 15:19 22.09.2021
1147 Clouds 12 1010 62 10000 5 360 13:48 22.09.2021
1148 Clouds 15 1008 51 10000 7 300 11:59 22.09.2021
1149 Clouds 19 1007 34 10000 9 260 10:52 22.09.2021
1150 Clouds 20 1007 40 10000 5 250 09:25 22.09.2021
1151 Clouds 20 1007 40 10000 4 250 08:29 22.09.2021
1152 Clouds 19 1008 42 10000 6 150 07:19 22.09.2021
1153 Clouds 15 1009 55 10000 3 260 05:56 22.09.2021
1154 Clear 14 1009 58 10000 4 270 05:34 22.09.2021
1155 Clear 9 1010 71 10000 0 0 03:50 22.09.2021
1156 Clear 1 1010 93 10000 0 0 00:22 22.09.2021
1157 Clear 2 1009 87 10000 1 0 22:54 21.09.2021
1158 Clear 5 1009 93 10000 1 0 21:36 21.09.2021
1159 Clouds 8 1008 95 10000 2.17 13 20:26 21.09.2021
1160 Clouds 8 1010 95 10000 2.01 10 19:22 21.09.2021
1161 Clouds 8 1009 95 10000 2.48 355 17:36 21.09.2021
1162 Clouds 10 1008 81 10000 3 330 16:35 21.09.2021
1163 Clouds 12 1008 66 10000 3 360 15:39 21.09.2021
1164 Clouds 12 1007 66 10000 3 350 14:57 21.09.2021
1165 Clouds 15 1006 58 10000 6 20 13:56 21.09.2021
1166 Clouds 15 1006 58 10000 6 20 13:36 21.09.2021
1167 Clouds 16 1006 59 10000 6 10 12:35 21.09.2021
1168 Clouds 18 1004 55 10000 5 110 10:26 21.09.2021
1169 Clouds 19 1005 48 10000 7 140 08:28 21.09.2021
1170 Clouds 18 1006 52 10000 7 150 06:53 21.09.2021
1171 Clear 3 1007 93 10000 1 0 00:30 21.09.2021
1172 Clear 4 1008 93 10000 1 0 22:27 20.09.2021
1173 Clear 4 1007 93 10000 0 0 21:40 20.09.2021
1174 Clear 5 1008 87 10000 0 0 20:34 20.09.2021
1175 Clear 8 1008 87 10000 0 0 19:31 20.09.2021
1176 Clear 8 1008 87 10000 0 0 17:47 20.09.2021
1177 Clear 9 1008 81 10000 1 0 16:43 20.09.2021
1178 Clear 11 1008 76 10000 0 0 15:50 20.09.2021
1179 Clear 11 1008 76 10000 0 0 15:32 20.09.2021
1180 Clouds 11 1008 76 10000 2 140 14:24 20.09.2021
1181 Clouds 17 1007 51 10000 1 0 12:35 20.09.2021
1182 Clouds 18 1008 45 10000 2 0 11:26 20.09.2021
1183 Clouds 18 1008 45 10000 1 20 10:24 20.09.2021
1184 Clouds 18 1008 45 10000 2 0 09:37 20.09.2021
1185 Clouds 17 1008 48 10000 1 0 09:18 20.09.2021
1186 Clouds 16 1009 59 10000 2 0 07:50 20.09.2021
1187 Clouds 9 1011 93 10000 1 0 00:36 20.09.2021
1188 Clouds 10 1012 93 10000 1 0 22:26 19.09.2021
1189 Clouds 10 1013 93 10000 0 0 21:43 19.09.2021
1190 Clouds 10 1013 93 10000 1 0 20:51 19.09.2021
1191 Clouds 10 1014 93 10000 1 0 19:32 19.09.2021
1192 Clouds 10 1014 93 10000 0 0 18:30 19.09.2021
1193 Clouds 11 1015 87 10000 0 0 17:23 19.09.2021
1194 Clouds 11 1015 87 10000 0 0 17:23 19.09.2021
1195 Clouds 11 1015 82 10000 1 0 15:59 19.09.2021
1196 Clouds 11 1015 82 10000 2 0 15:30 19.09.2021
1197 Clouds 11 1015 82 10000 3 50 14:48 19.09.2021
1198 Clouds 11 1015 87 10000 1 0 13:29 19.09.2021
1199 Clouds 11 1015 87 10000 0 0 12:51 19.09.2021
1200 Clouds 11 1015 87 10000 0 0 11:28 19.09.2021
1201 Rain 11 1015 87 10000 1 0 10:53 19.09.2021
1202 Rain 11 1016 82 10000 4 30 09:49 19.09.2021
1203 Rain 11 1016 87 8000 3 50 08:35 19.09.2021
1204 Rain 13 1017 67 10000 2 0 06:42 19.09.2021
1205 Clear 5 1015 87 10000 0 0 23:53 18.09.2021
1206 Clear 5 1015 87 10000 1 0 22:31 18.09.2021
1207 Clear 7 1016 81 10000 0 0 20:56 18.09.2021
1208 Clear 7 1016 81 10000 0 0 20:36 18.09.2021
1209 Clear 9 1016 71 10000 1 0 19:39 18.09.2021
1210 Clear 9 1016 71 10000 1 0 19:20 18.09.2021
1211 Clear 8 1015 76 10000 1 0 18:32 18.09.2021
1212 Clear 8 1015 76 10000 2 0 17:34 18.09.2021
1213 Clear 9 1015 71 10000 1 0 16:20 18.09.2021
1214 Clouds 15 1013 51 10000 1 0 13:49 18.09.2021
1215 Clouds 18 1013 39 10000 2 0 13:29 18.09.2021
1216 Clouds 20 1013 28 10000 1 0 12:49 18.09.2021
1217 Clouds 22 1012 23 10000 2 0 11:41 18.09.2021
1218 Clouds 22 1012 24 10000 1 0 10:32 18.09.2021
1219 Clouds 22 1013 24 10000 2 0 09:28 18.09.2021
1220 Clouds 21 1013 26 10000 2 0 08:57 18.09.2021
1221 Clear 18 1015 39 10000 1 0 05:49 18.09.2021
1222 Clouds 10 1012 77 10000 0.92 73 00:41 18.09.2021
1223 Clouds 10 1012 77 10000 1.41 78 23:49 17.09.2021
1224 Rain 10 1011 76 10000 1.03 100 22:38 17.09.2021
1225 Clouds 11 1011 76 10000 1.17 87 22:19 17.09.2021
1226 Clouds 10 1014 71 10000 1 0 20:47 17.09.2021
1227 Rain 14 1014 51 10000 2 0 19:22 17.09.2021
1228 Rain 12 1014 66 10000 1 0 17:21 17.09.2021
1229 Clouds 13 1013 54 10000 2 0 16:24 17.09.2021
1230 Clouds 18 1012 42 10000 1 0 13:21 17.09.2021
1231 Clouds 23 1011 25 10000 3 30 10:42 17.09.2021
1232 Clouds 23 1012 20 10000 4 60 08:45 17.09.2021
1233 Clouds 20 1014 32 10000 2 0 06:50 17.09.2021
1234 Clear 2 1014 80 10000 1 0 00:59 17.09.2021
1235 Clear 2 1014 93 10000 0 0 23:23 16.09.2021
1236 Clear 4 1014 87 10000 1 0 22:25 16.09.2021
1237 Clear 3 1015 87 10000 0 0 21:41 16.09.2021
1238 Clear 3 1015 87 10000 0 0 21:20 16.09.2021
1239 Clear 3 1015 87 10000 1 0 20:18 16.09.2021
1240 Clouds 6 1015 81 10000 1 0 18:19 16.09.2021
1241 Clouds 9 1016 66 10000 0 0 17:29 16.09.2021
1242 Clouds 10 1015 66 10000 2 0 14:55 16.09.2021
1243 Clouds 13 1015 58 10000 1 0 13:55 16.09.2021
1244 Clouds 20 1015 34 10000 2 0 12:48 16.09.2021
1245 Clouds 22 1015 28 10000 3 310 12:28 16.09.2021
1246 Clouds 22 1015 23 10000 4 250 11:25 16.09.2021
1247 Clouds 22 1015 20 10000 5 250 10:31 16.09.2021
1248 Clouds 22 1015 20 10000 5 250 10:31 16.09.2021
1249 Clouds 22 1015 20 10000 5 250 10:30 16.09.2021
1250 Clouds 22 1016 28 10000 4 250 09:53 16.09.2021
1251 Clouds 21 1017 32 10000 5 230 08:42 16.09.2021
1252 Clear 19 1018 42 10000 6 220 07:22 16.09.2021
1253 Clear 19 1018 45 10000 4 210 06:39 16.09.2021
1254 Clear 15 1020 51 10000 1 0 04:34 16.09.2021
1255 Clear 1 1021 93 10000 0 0 01:26 16.09.2021
1256 Clear 1 1021 93 10000 0 0 01:26 16.09.2021
1257 Clear 2 1021 93 10000 1 0 23:35 15.09.2021
1258 Clear 2 1021 87 10000 0 0 22:47 15.09.2021
1259 Clear 4 1021 81 10000 1 0 21:41 15.09.2021
1260 Clear 4 1021 81 10000 1 0 21:23 15.09.2021
1261 Clear 6 1021 81 10000 1 0 19:51 15.09.2021
1262 Clear 6 1021 81 10000 1 0 19:19 15.09.2021
1263 Clear 9 1022 71 10000 1 0 17:49 15.09.2021
1264 Clear 8 1022 81 10000 2 0 16:48 15.09.2021
1265 Clear 13 1022 62 10000 2 0 15:31 15.09.2021
1266 Clear 12 1021 66 10000 4 230 14:44 15.09.2021
1267 Clear 14 1021 58 10000 5 220 13:51 15.09.2021
1268 Clear 15 1020 55 10000 4 230 13:29 15.09.2021
1269 Clouds 17 1020 34 10000 3 270 12:34 15.09.2021
1270 Clouds 19 1020 26 10000 6 300 11:51 15.09.2021
1271 Clouds 19 1020 32 10000 6 290 11:18 15.09.2021
1272 Clouds 19 1020 34 10000 5 300 10:35 15.09.2021
1273 Clouds 18 1020 42 10000 4 310 09:23 15.09.2021
1274 Clouds 16 1021 55 10000 4 290 07:30 15.09.2021
1275 Clouds 12 1022 76 10000 1 0 04:19 15.09.2021
1276 Clouds 9 1020 93 10000 2 310 22:38 14.09.2021
1277 Clouds 9 1019 93 10000 1 0 21:38 14.09.2021
1278 Clouds 9 1019 93 10000 0 0 20:26 14.09.2021
1279 Clouds 9 1019 93 10000 1 0 19:41 14.09.2021
1280 Clouds 8 1020 87 10000 0 0 17:34 14.09.2021
1281 Clouds 10 1019 93 10000 1 0 16:56 14.09.2021
1282 Clouds 11 1019 87 10000 0 0 15:27 14.09.2021
1283 Clouds 12 1018 87 10000 0 0 14:28 14.09.2021
1284 Clouds 12 1018 87 6000 1 0 11:50 14.09.2021
1285 Clouds 13 1018 76 10000 2 220 10:49 14.09.2021
1286 Clouds 15 1018 58 10000 4 160 09:50 14.09.2021
1287 Clouds 16 1018 48 10000 5 150 08:36 14.09.2021
1288 Clouds 17 1019 36 10000 6 140 06:22 14.09.2021
1289 Rain 12 1019 40 10000 1 0 23:36 13.09.2021
1290 Clouds 13 1019 35 10000 1 0 22:29 13.09.2021
1291 Clouds 15 1019 25 10000 5 120 21:59 13.09.2021
1292 Rain 15 1019 25 10000 5 120 21:39 13.09.2021
1293 Clouds 16 1019 27 10000 8 140 19:48 13.09.2021
1294 Clouds 15 1019 29 10000 9 140 18:45 13.09.2021
1295 Clouds 16 1019 27 10000 8 140 17:39 13.09.2021
1296 Clouds 16 1019 31 10000 7 140 16:50 13.09.2021
1297 Clouds 17 1019 36 10000 7 140 14:47 13.09.2021
1298 Clear 21 1018 28 10000 6 170 11:45 13.09.2021
1299 Clear 21 1018 30 10000 5 160 10:50 13.09.2021
1300 Clear 21 1018 28 10000 5 190 08:55 13.09.2021
1301 Clear -1 1021 93 10000 1 0 00:48 13.09.2021
1302 Clear 0 1020 93 10000 0 0 22:51 12.09.2021
1303 Clear 0 1020 93 10000 0 0 22:23 12.09.2021
1304 Clear 1 1020 86 10000 0 0 21:21 12.09.2021
1305 Clear 2 1021 87 10000 1 0 20:19 12.09.2021
1306 Clear 3 1021 87 10000 1 0 19:37 12.09.2021
1307 Clear 3 1021 87 10000 1 0 19:18 12.09.2021
1308 Clear 4 1020 87 10000 0 0 18:18 12.09.2021
1309 Clear 7 1019 76 10000 3 160 15:58 12.09.2021
1310 Clear 7 1019 76 10000 3 150 14:47 12.09.2021
1311 Clear 16 1018 31 10000 3 330 12:43 12.09.2021
1312 Clear 17 1017 27 10000 6 320 10:32 12.09.2021
1313 Clear 16 1017 33 10000 5 290 08:39 12.09.2021
1314 Clear 14 1017 41 10000 3 280 07:32 12.09.2021
1315 Clouds 6 1017 81 10000 4 330 00:47 12.09.2021
1316 Clouds 6 1017 81 10000 4 330 00:47 12.09.2021
1317 Clouds 7 1015 81 10000 5 350 22:58 11.09.2021
1318 Clouds 7 1015 81 10000 7 340 21:39 11.09.2021
1319 Clouds 7 1014 87 10000 6 340 19:41 11.09.2021
1320 Rain 8 1014 87 10000 7 340 18:28 11.09.2021
1321 Clouds 8 1014 87 10000 3 310 17:28 11.09.2021
1322 Rain 9 1014 93 10000 3 290 15:36 11.09.2021
1323 Rain 11 1014 82 10000 2 0 13:23 11.09.2021
1324 Clouds 12 1013 76 10000 4 320 11:44 11.09.2021
1325 Rain 13 1012 71 10000 3 360 10:35 11.09.2021
1326 Rain 17 1012 48 10000 4 340 08:51 11.09.2021
1327 Clouds 19 1013 30 10000 2 0 07:43 11.09.2021
1328 Clouds 13 1013 62 10000 1 0 04:23 11.09.2021
1329 Clouds 6 1014 87 10000 1 0 22:43 10.09.2021
1330 Clouds 6 1014 87 10000 1 0 21:57 10.09.2021
1331 Clouds 6 1013 87 10000 1 0 21:38 10.09.2021
1332 Clouds 9 1013 81 10000 1 0 19:31 10.09.2021
1333 Clouds 15 1011 55 10000 5 140 17:58 10.09.2021
1334 Rain 14 1012 62 10000 8 160 16:28 10.09.2021
1335 Clouds 17 1011 42 10000 5 80 13:29 10.09.2021
1336 Clouds 20 1010 30 10000 3 70 10:54 10.09.2021
1337 Clouds 20 1011 30 10000 1 0 08:26 10.09.2021
1338 Clear 20 1011 30 10000 1 0 07:43 10.09.2021
1339 Clear 0 1013 86 10000 0 0 00:40 10.09.2021
1340 Clear 1 1013 86 10000 0 0 21:54 09.09.2021
1341 Clear 2 1013 87 10000 0 0 20:48 09.09.2021
1342 Clear 2 1013 87 10000 0 0 20:28 09.09.2021
1343 Clear 3 1012 81 10000 1 0 18:46 09.09.2021
1344 Clear 4 1012 81 10000 2 0 17:51 09.09.2021
1345 Clear 7 1012 70 10000 1 0 16:39 09.09.2021
1346 Clear 6 1012 75 10000 2 0 15:26 09.09.2021
1347 Clouds 15 1011 38 10000 3 280 12:33 09.09.2021
1348 Clouds 16 1011 31 10000 1 0 11:23 09.09.2021
1349 Clouds 14 1011 35 10000 5 280 09:36 09.09.2021
1350 Clouds 12 1012 47 10000 4 250 07:56 09.09.2021
1351 Clouds 10 1014 62 10000 3 250 05:51 09.09.2021
1352 Clear -2 1014 93 10000 1 0 00:33 09.09.2021
1353 Clear -2 1014 86 10000 3 170 21:49 08.09.2021
1354 Clear -2 1014 93 10000 2 170 20:54 08.09.2021
1355 Clear -2 1014 86 10000 1 0 19:46 08.09.2021
1356 Clear -2 1014 86 10000 0 0 18:47 08.09.2021
1357 Clear -2 1014 86 10000 0 0 18:25 08.09.2021
1358 Clear 1 1014 80 10000 1 0 17:40 08.09.2021
1359 Clouds 4 1014 70 10000 1 0 15:35 08.09.2021
1360 Clouds 8 1013 49 10000 5 360 13:45 08.09.2021
1361 Clouds 10 1013 43 10000 5 330 12:41 08.09.2021
1362 Clouds 10 1013 43 10000 5 330 12:23 08.09.2021
1363 Clouds 10 1013 43 10000 5 350 11:26 08.09.2021
1364 Clouds 10 1012 46 10000 5 340 10:31 08.09.2021
1365 Clouds 10 1012 43 10000 5 320 09:56 08.09.2021
1366 Clouds 9 1013 49 10000 3 290 07:45 08.09.2021
1367 Clouds 9 1013 49 10000 3 280 07:19 08.09.2021
1368 Clouds 4 1014 75 10000 2 0 23:28 07.09.2021
1369 Rain 4 1015 75 10000 1 0 22:19 07.09.2021
1370 Rain 5 1015 65 10000 4 340 20:42 07.09.2021
1371 Clouds 6 1015 56 10000 3 340 18:53 07.09.2021
1372 Clouds 6 1015 56 10000 3 340 18:28 07.09.2021
1373 Rain 6 1015 61 10000 3 360 17:35 07.09.2021
1374 Clouds 7 1014 61 10000 3 320 15:57 07.09.2021
1375 Clouds 7 1013 61 10000 4 350 14:53 07.09.2021
1376 Clouds 7 1014 57 10000 3 320 13:52 07.09.2021
1377 Clouds 9 1014 53 10000 5 10 11:58 07.09.2021
1378 Clouds 11 1013 54 10000 6 340 10:50 07.09.2021
1379 Clouds 11 1013 54 10000 5 350 09:40 07.09.2021
1380 Clouds 12 1013 50 10000 5 320 07:47 07.09.2021
1381 Clouds 11 1013 54 10000 5 310 06:20 07.09.2021
1382 Clouds 8 1013 71 10000 0 0 02:39 07.09.2021
1383 Clouds 4 1013 87 10000 1 0 01:57 07.09.2021
1384 Clouds 5 1012 81 10000 2 0 23:49 06.09.2021
1385 Clouds 8 1012 66 10000 0 0 23:30 06.09.2021
1386 Clouds 9 1013 61 10000 4 60 22:51 06.09.2021
1387 Clouds 8 1014 71 10000 7 30 21:55 06.09.2021
1388 Clouds 6 1014 87 10000 2 0 20:34 06.09.2021
1389 Clear 3 1013 93 10000 1 0 19:18 06.09.2021
1390 Clear 6 1013 81 10000 0 0 18:33 06.09.2021
1391 Clear 5 1013 87 10000 2 0 17:50 06.09.2021
1392 Clear 7 1014 76 10000 3 170 16:20 06.09.2021
1393 Clear 7 1014 76 10000 3 170 16:20 06.09.2021
1394 Clear 7 1014 76 10000 3 170 16:20 06.09.2021
1395 Clouds 11 1014 54 10000 1 0 14:59 06.09.2021
1396 Clouds 15 1014 38 10000 5 260 12:49 06.09.2021
1397 Clouds 16 1014 33 10000 7 290 11:52 06.09.2021
1398 Clouds 16 1014 44 10000 2 0 10:19 06.09.2021
1399 Clouds 15 1016 44 10000 4 250 07:35 06.09.2021
1400 Clouds 10 1018 62 10000 6 140 02:54 06.09.2021
1401 Clouds 4 1020 81 10000 1 0 23:22 05.09.2021
1402 Clouds 3 1020 81 10000 1 0 22:32 05.09.2021
1403 Clouds 3 1021 87 10000 2 0 21:55 05.09.2021
1404 Clouds 3 1021 87 10000 2 0 21:19 05.09.2021
1405 Clouds 6 1022 65 10000 1 0 19:30 05.09.2021
1406 Clouds 6 1023 70 10000 1 0 17:51 05.09.2021
1407 Clouds 8 1023 71 10000 2 0 15:43 05.09.2021
1408 Clouds 8 1023 71 10000 2 0 15:19 05.09.2021
1409 Clouds 10 1023 43 10000 1 0 12:44 05.09.2021
1410 Clouds 11 1023 40 10000 1 0 11:31 05.09.2021
1411 Clouds 11 1023 37 10000 2 0 10:36 05.09.2021
1412 Clouds 10 1024 34 10000 4 300 09:32 05.09.2021
1413 Clouds 11 1023 35 10000 5 340 08:28 05.09.2021
1414 Clouds 4 1025 75 10000 1 0 03:22 05.09.2021
1415 Clear -4 1024 93 10000 0 0 00:37 05.09.2021
1416 Clear -1 1024 93 10000 1 0 23:54 04.09.2021
1417 Clear -1 1024 93 10000 1 0 23:21 04.09.2021
1418 Clear 0 1024 86 10000 2 310 22:34 04.09.2021
1419 Clear 0 1024 86 10000 2 310 22:34 04.09.2021
1420 Clear 3 1023 75 10000 2 340 19:59 04.09.2021
1421 Clear 3 1023 75 10000 2 340 19:32 04.09.2021
1422 Clouds 5 1023 70 10000 5 340 16:48 04.09.2021
1423 Clouds 7 1022 57 10000 7 340 14:28 04.09.2021
1424 Clouds 9 1020 49 10000 8 360 11:22 04.09.2021
1425 Clouds 10 1019 46 10000 10 350 10:27 04.09.2021
1426 Clouds 8 1018 53 10000 10 360 07:30 04.09.2021
1427 Clouds 3 1015 87 10000 5 350 00:48 04.09.2021
1428 Clouds 4 1015 87 10000 4 10 23:32 03.09.2021
1429 Rain 5 1015 81 10000 6 350 22:57 03.09.2021
1430 Clouds 6 1015 87 10000 5 330 21:37 03.09.2021
1431 Rain 6 1015 87 10000 3 340 20:53 03.09.2021
1432 Rain 7 1015 81 10000 4 350 19:57 03.09.2021
1433 Rain 7 1015 81 10000 4 350 19:30 03.09.2021
1434 Rain 7 1015 93 10000 6 310 17:58 03.09.2021
1435 Clouds 9 1013 87 10000 4 320 16:44 03.09.2021
1436 Clouds 10 1013 87 10000 4 330 15:34 03.09.2021
1437 Rain 12 1014 82 10000 3 60 12:59 03.09.2021
1438 Rain 16 1012 67 10000 7 330 10:43 03.09.2021
1439 Clouds 23 1011 35 10000 7 170 09:20 03.09.2021
1440 Clouds 23 1012 38 10000 7 180 07:51 03.09.2021
1441 Clouds 20 1013 49 10000 5 150 06:21 03.09.2021
1442 Clouds 11 1014 87 10000 0 0 23:54 02.09.2021
1443 Clouds 11 1014 87 10000 1 0 21:42 02.09.2021
1444 Clouds 10 1014 87 10000 2 0 20:24 02.09.2021
1445 Clouds 12 1014 82 10000 0 0 17:33 02.09.2021
1446 Clouds 13 1014 76 10000 1 0 16:20 02.09.2021
1447 Clouds 14 1013 72 10000 3 320 14:36 02.09.2021
1448 Clouds 19 1012 48 10000 5 350 12:58 02.09.2021
1449 Clouds 21 1011 43 10000 6 340 11:40 02.09.2021
1450 Clouds 22 1011 40 10000 6 330 10:37 02.09.2021
1451 Clouds 21 1012 46 10000 5 330 08:40 02.09.2021
1452 Clouds 20 1012 49 10000 4 340 07:20 02.09.2021
1453 Clouds 20 1012 49 10000 4 340 07:20 02.09.2021
1454 Clouds 18 1013 59 10000 2 0 05:31 02.09.2021
1455 Clouds 13 1013 82 10000 1 0 02:35 02.09.2021
1456 Clouds 10 1013 93 10000 0 0 01:34 02.09.2021
1457 Clouds 9 1012 87 10000 2 0 23:40 01.09.2021
1458 Clouds 10 1012 93 10000 1.03 320 22:42 01.09.2021
1459 Clouds 11 1011 87 10000 0 0 21:41 01.09.2021
1460 Clouds 10 1011 87 10000 0 0 20:53 01.09.2021
1461 Clouds 11 1011 82 10000 1 0 19:23 01.09.2021
1462 Clouds 13 1011 88 10000 1 0 17:47 01.09.2021
1463 Clouds 14 1011 82 10000 1 0 16:48 01.09.2021
1464 Clouds 14 1011 82 10000 1 0 16:21 01.09.2021
1465 Clouds 17 1011 63 10000 2 0 13:40 01.09.2021
1466 Thunderstorm 15 1011 77 10000 4 90 11:46 01.09.2021
1467 Rain 24 1011 27 10000 2 0 09:25 01.09.2021
1468 Clouds 24 1012 27 10000 4 260 07:53 01.09.2021
1469 Clouds 21 1013 40 10000 2 0 05:39 01.09.2021
1470 Clouds 10 1014 76 10000 1 0 23:19 31.08.2021
1471 Clouds 11 1014 71 10000 1 0 21:40 31.08.2021
1472 Clear 13 1015 62 10000 1 0 19:48 31.08.2021
1473 Clear 12 1015 62 10000 1 0 18:37 31.08.2021
1474 Clear 15 1015 51 10000 1 0 17:38 31.08.2021
1475 Clear 15 1015 51 10000 1 0 17:20 31.08.2021
1476 Clouds 14 1016 54 10000 3 190 16:24 31.08.2021
1477 Clouds 23 1014 27 10000 3 270 13:40 31.08.2021
1478 Clouds 26 1014 22 10000 6 280 11:36 31.08.2021
1479 Clouds 26 1014 25 10000 4 240 10:55 31.08.2021
1480 Clouds 25 1014 27 10000 2 0 09:45 31.08.2021
1481 Clouds 25 1015 25 10000 2 0 08:40 31.08.2021
1482 Clouds 24 1015 27 10000 4 230 07:38 31.08.2021
1483 Clear 21 1016 35 10000 4 240 05:36 31.08.2021
1484 Clouds 11 1016 76 10000 3 90 23:35 30.08.2021
1485 Clouds 9 1016 81 10000 0 0 21:52 30.08.2021
1486 Clouds 9 1016 81 10000 0 0 21:32 30.08.2021
1487 Clear 9 1016 76 10000 0 0 20:20 30.08.2021
1488 Clear 9 1016 76 10000 0 0 19:29 30.08.2021
1489 Clear 9 1016 71 10000 1 0 18:44 30.08.2021
1490 Clear 10 1017 66 10000 1 0 17:46 30.08.2021
1491 Clouds 14 1016 51 10000 1 0 16:24 30.08.2021
1492 Clouds 13 1016 58 10000 2 0 15:39 30.08.2021
1493 Clouds 20 1015 37 10000 2 0 13:43 30.08.2021
1494 Clouds 24 1015 27 10000 3 290 12:24 30.08.2021
1495 Clouds 24 1015 27 10000 3 260 09:30 30.08.2021
1496 Clouds 4 1016 87 10000 1 0 22:28 29.08.2021
1497 Clear 4 1016 87 10000 0 0 21:33 29.08.2021
1498 Clear 6 1016 75 10000 0 0 19:59 29.08.2021
1499 Clear 6 1016 75 10000 0 0 19:19 29.08.2021
1500 Clear 8 1015 71 10000 1 0 17:50 29.08.2021
1501 Clouds 13 1014 50 10000 1 0 15:48 29.08.2021
1502 Clouds 13 1014 50 10000 1 0 15:48 29.08.2021
1503 Clouds 13 1013 54 10000 2 0 14:19 29.08.2021
1504 Clouds 22 1013 24 10000 2 0 13:43 29.08.2021
1505 Clouds 23 1013 21 10000 2 0 12:32 29.08.2021
1506 Clouds 23 1013 20 10000 2 0 11:48 29.08.2021
1507 Clouds 23 1013 21 10000 2 0 10:52 29.08.2021
1508 Clouds 23 1013 21 10000 2 0 10:33 29.08.2021
1509 Clouds 23 1014 23 10000 3 260 09:54 29.08.2021
1510 Clouds 21 1015 30 10000 5 210 06:55 29.08.2021
1511 Clear 2 1017 93 10000 0 0 00:20 29.08.2021
1512 Clear 5 1018 87 10000 1 0 20:55 28.08.2021
1513 Clear 5 1018 87 10000 1 0 19:54 28.08.2021
1514 Clear 9 1018 71 10000 1 0 18:28 28.08.2021
1515 Clear 11 1018 62 10000 1 0 17:48 28.08.2021
1516 Clear 11 1018 62 10000 1 0 17:48 28.08.2021
1517 Clear 11 1018 66 10000 5 140 16:58 28.08.2021
1518 Clouds 11 1018 62 10000 1 0 15:32 28.08.2021
1519 Clouds 11 1018 58 10000 2 0 14:19 28.08.2021
1520 Clouds 14 1017 47 10000 3 160 13:43 28.08.2021
1521 Clouds 17 1018 34 10000 3 180 12:41 28.08.2021
1522 Clouds 17 1018 36 10000 3 160 11:51 28.08.2021
1523 Clouds 18 1018 34 10000 3 130 10:29 28.08.2021
1524 Clouds 16 1019 48 10000 2 0 08:36 28.08.2021
1525 Clouds 14 1020 51 10000 2 0 05:22 28.08.2021
1526 Clouds 7 1020 87 10000 0 0 22:26 27.08.2021
1527 Clouds 4 1020 87 10000 2 0 20:56 27.08.2021
1528 Clouds 3 1020 87 10000 2 0 19:59 27.08.2021
1529 Clouds 4 1020 87 10000 2 0 18:39 27.08.2021
1530 Clouds 4 1020 87 10000 2 0 18:20 27.08.2021
1531 Clouds 6 1020 81 10000 1 0 16:47 27.08.2021
1532 Clouds 9 1020 66 10000 1 0 15:21 27.08.2021
1533 Clouds 11 1020 62 10000 1 0 14:37 27.08.2021
1534 Clouds 14 1019 44 10000 5 350 12:28 27.08.2021
1535 Clouds 15 1019 47 10000 6 340 11:24 27.08.2021
1536 Clouds 16 1019 41 10000 6 350 10:41 27.08.2021
1537 Clouds 14 1020 47 10000 4 350 09:26 27.08.2021
1538 Clouds 13 1020 54 10000 5 360 08:38 27.08.2021
1539 Clouds 14 1020 47 10000 7 340 05:51 27.08.2021
1540 Clouds 9 1020 76 10000 2 10 00:50 27.08.2021
1541 Clouds 9 1020 76 10000 3 20 00:28 27.08.2021
1542 Clouds 9 1020 81 10000 0 0 22:28 26.08.2021
1543 Rain 8 1020 87 10000 0 0 21:57 26.08.2021
1544 Clouds 8 1020 87 10000 1 0 19:53 26.08.2021
1545 Clouds 10 1020 76 10000 1 0 18:36 26.08.2021
1546 Clouds 8 1020 81 10000 1 0 17:26 26.08.2021
1547 Clouds 10 1020 76 10000 3 10 16:30 26.08.2021
1548 Clouds 12 1019 62 10000 4 10 14:53 26.08.2021
1549 Clouds 13 1019 58 10000 6 350 13:27 26.08.2021
1550 Clouds 14 1019 51 10000 7 360 12:34 26.08.2021
1551 Clouds 14 1019 54 10000 8 340 11:45 26.08.2021
1552 Clouds 15 1018 51 10000 8 340 09:25 26.08.2021
1553 Clouds 15 1018 47 10000 8 350 08:19 26.08.2021
1554 Clouds 15 1018 47 10000 8 350 08:19 26.08.2021
1555 Clouds 9 1018 76 10000 3 10 23:45 25.08.2021
1556 Clouds 9 1018 76 10000 3 10 22:44 25.08.2021
1557 Clouds 9 1018 76 10000 3 10 22:25 25.08.2021
1558 Clouds 9 1018 81 10000 2 0 20:57 25.08.2021
1559 Clouds 9 1018 81 10000 2 0 20:30 25.08.2021
1560 Clouds 10 1018 76 10000 3 10 19:52 25.08.2021
1561 Clouds 10 1018 76 8000 3 320 18:18 25.08.2021
1562 Clouds 12 1018 58 10000 4 10 15:59 25.08.2021
1563 Clouds 12 1018 58 10000 4 10 15:59 25.08.2021
1564 Clouds 12 1018 58 10000 4 10 15:39 25.08.2021
1565 Clouds 12 1018 58 10000 4 350 14:47 25.08.2021
1566 Clouds 13 1017 54 10000 6 10 13:54 25.08.2021
1567 Clouds 14 1016 54 10000 7 350 12:23 25.08.2021
1568 Clouds 14 1016 51 10000 8 350 11:20 25.08.2021
1569 Clouds 15 1016 51 10000 9 340 09:59 25.08.2021
1570 Clouds 16 1016 48 10000 8 340 09:36 25.08.2021
1571 Clouds 16 1016 48 10000 8 340 08:36 25.08.2021
1572 Clouds 14 1016 54 10000 8 340 07:21 25.08.2021
1573 Clouds 8 1017 76 10000 3 350 01:25 25.08.2021
1574 Clouds 6 1016 81 10000 3 310 23:31 24.08.2021
1575 Clouds 9 1016 76 10000 5 340 21:20 24.08.2021
1576 Clouds 8 1017 81 10000 4 340 20:18 24.08.2021
1577 Clouds 9 1017 76 10000 4 350 19:43 24.08.2021
1578 Clouds 10 1017 76 10000 4 360 17:55 24.08.2021
1579 Clouds 10 1017 76 10000 4 360 17:22 24.08.2021
1580 Clouds 10 1017 76 10000 4 360 17:22 24.08.2021
1581 Clouds 10 1017 76 10000 4 350 16:23 24.08.2021
1582 Clouds 13 1015 62 10000 7 340 13:54 24.08.2021
1583 Clouds 13 1015 67 10000 8 340 12:45 24.08.2021
1584 Clouds 14 1015 58 10000 7 340 11:21 24.08.2021
1585 Clouds 14 1015 58 10000 6 350 10:47 24.08.2021
1586 Clouds 14 1015 62 10000 7 340 09:53 24.08.2021
1587 Clouds 12 1015 66 10000 8 340 07:42 24.08.2021
1588 Clouds 12 1015 71 10000 10 340 05:50 24.08.2021
1589 Clouds 11 1015 71 10000 7 360 03:37 24.08.2021
1590 Clouds 10 1014 81 10000 7 340 23:54 23.08.2021
1591 Rain 10 1014 81 10000 7 340 22:46 23.08.2021
1592 Rain 10 1014 81 10000 6 340 21:36 23.08.2021
1593 Rain 11 1014 76 10000 8 340 19:55 23.08.2021
1594 Clouds 11 1014 76 10000 9 350 18:25 23.08.2021
1595 Clouds 12 1013 76 10000 8 350 15:45 23.08.2021
1596 Clouds 13 1011 71 10000 9 340 13:56 23.08.2021
1597 Clouds 13 1011 76 10000 9 350 12:33 23.08.2021
1598 Clouds 13 1010 71 10000 8 360 10:52 23.08.2021
1599 Rain 13 1010 71 10000 6 360 10:22 23.08.2021
1600 Rain 13 1010 67 10000 8 360 08:49 23.08.2021
1601 Rain 14 1009 62 10000 9 360 07:43 23.08.2021
1602 Clouds 13 1008 76 10000 7 350 06:42 23.08.2021
1603 Clouds 13 1008 67 10000 7 10 04:22 23.08.2021
1604 Clouds 7 1009 87 10000 1 0 00:46 23.08.2021
1605 Clouds 9 1007 81 10000 5 360 22:42 22.08.2021
1606 Clouds 10 1006 71 10000 5 50 21:30 22.08.2021
1607 Clouds 10 1006 76 10000 5 50 20:20 22.08.2021
1608 Clouds 10 1008 87 10000 3 160 18:36 22.08.2021
1609 Clouds 8 1007 87 10000 1 0 16:22 22.08.2021
1610 Clouds 12 1006 71 10000 2 0 14:54 22.08.2021
1611 Clouds 15 1006 63 10000 1 0 13:50 22.08.2021
1612 Clouds 15 1005 58 10000 2 0 13:20 22.08.2021
1613 Clouds 15 1006 58 10000 0 0 12:49 22.08.2021
1614 Clouds 14 1006 62 10000 2 0 11:53 22.08.2021
1615 Clouds 14 1006 62 10000 2 0 11:32 22.08.2021
1616 Clouds 13 1006 67 10000 2 0 09:21 22.08.2021
1617 Clouds 13 1006 67 10000 3 230 07:54 22.08.2021
1618 Clouds 11 1006 87 8000 3 240 04:43 22.08.2021
1619 Clouds 6 1003 93 10000 1 0 22:38 21.08.2021
1620 Clouds 7 1003 93 10000 1 0 21:42 21.08.2021
1621 Clouds 10 1002 87 10000 3 240 18:58 21.08.2021
1622 Clouds 10 1002 87 10000 3 240 18:39 21.08.2021
1623 Clouds 9 1001 87 10000 1 0 17:18 21.08.2021
1624 Clouds 11 999 76 10000 6 20 16:49 21.08.2021
1625 Rain 11 1000 82 10000 6 30 15:40 21.08.2021
1626 Rain 11 1000 82 10000 6 30 15:22 21.08.2021
1627 Rain 10 1001 87 10000 3 330 13:43 21.08.2021
1628 Thunderstorm 11 1000 82 6000 10 250 12:40 21.08.2021
1629 Thunderstorm 15 997 63 10000 4 50 11:36 21.08.2021
1630 Clouds 17 998 59 10000 8 60 08:54 21.08.2021
1631 Clear 5 1005 81 10000 1 0 00:46 21.08.2021
1632 Clear 5 1007 87 10000 1 0 22:29 20.08.2021
1633 Clear 8 1008 76 10000 1 0 19:49 20.08.2021
1634 Clouds 10 1008 66 10000 2 0 17:45 20.08.2021
1635 Clouds 16 1008 48 10000 2 0 14:35 20.08.2021
1636 Clouds 23 1008 21 10000 3 240 12:18 20.08.2021
1637 Clouds 22 1008 23 10000 1 0 11:29 20.08.2021
1638 Clouds 23 1009 23 10000 3 240 10:22 20.08.2021
1639 Clouds 22 1009 24 10000 4 230 09:28 20.08.2021
1640 Clouds 23 1010 25 10000 2 0 08:36 20.08.2021
1641 Clear 17 1013 48 10000 1 0 04:46 20.08.2021
1642 Clear 14 1013 58 10000 1 0 04:20 20.08.2021
1643 Clear 5 1014 87 10000 1 0 23:30 19.08.2021
1644 Clouds 7 1013 81 10000 0 0 22:38 19.08.2021
1645 Clouds 8 1014 87 10000 1 0 21:55 19.08.2021
1646 Clouds 8 1014 87 10000 1 0 20:20 19.08.2021
1647 Clouds 7 1014 81 10000 1 0 17:59 19.08.2021
1648 Clouds 11 1013 66 10000 1 0 16:51 19.08.2021
1649 Clouds 14 1013 54 10000 3 330 14:37 19.08.2021
1650 Clouds 17 1012 42 10000 7 320 12:50 19.08.2021
1651 Clouds 17 1012 42 10000 7 320 12:28 19.08.2021
1652 Clouds 18 1011 45 10000 9 310 10:49 19.08.2021
1653 Clouds 17 1011 45 10000 7 320 09:48 19.08.2021
1654 Clouds 19 1011 37 10000 9 330 09:27 19.08.2021
1655 Clouds 18 1011 39 10000 8 330 08:33 19.08.2021
1656 Rain 12 1011 71 10000 6 340 03:53 19.08.2021
1657 Clouds 11 1010 76 10000 6 330 02:20 19.08.2021
1658 Clouds 11 1009 76 10000 6 340 23:29 18.08.2021
1659 Rain 11 1009 76 10000 5 340 22:36 18.08.2021
1660 Rain 11 1009 76 10000 5 340 21:33 18.08.2021
1661 Clouds 11 1009 76 10000 4 340 20:20 18.08.2021
1662 Rain 11 1009 82 10000 6 330 19:26 18.08.2021
1663 Rain 12 1009 76 10000 5 320 18:34 18.08.2021
1664 Clouds 13 1008 76 10000 5 340 16:56 18.08.2021
1665 Clouds 13 1008 76 10000 5 360 15:40 18.08.2021
1666 Clouds 13 1008 76 10000 5 360 15:21 18.08.2021
1667 Clouds 15 1007 72 10000 6 330 12:51 18.08.2021
1668 Clouds 18 1007 59 10000 6 350 12:27 18.08.2021
1669 Clouds 17 1007 67 10000 8 340 11:49 18.08.2021
1670 Clouds 23 1005 49 10000 5 270 08:29 18.08.2021
1671 Clouds 17 1006 72 10000 0 0 01:29 18.08.2021
1672 Clouds 16 1008 77 10000 4 130 22:40 17.08.2021
1673 Clouds 16 1008 82 10000 1 0 21:54 17.08.2021
1674 Rain 16 1008 82 10000 1 0 21:22 17.08.2021
1675 Rain 19 1009 59 10000 8 130 19:42 17.08.2021
1676 Rain 17 1011 82 10000 1 0 17:47 17.08.2021
1677 Clouds 17 1011 82 10000 1 0 17:25 17.08.2021
1678 Rain 21 1012 52 10000 8 240 15:44 17.08.2021
1679 Rain 25 1011 29 10000 8 130 14:47 17.08.2021
1680 Rain 25 1012 29 10000 6 130 12:37 17.08.2021
1681 Clouds 27 1014 24 10000 7 150 09:42 17.08.2021
1682 Clouds 27 1014 24 10000 8 150 09:18 17.08.2021
1683 Clouds 25 1016 27 10000 9 140 06:57 17.08.2021
1684 Clouds 15 1019 67 10000 2 0 23:25 16.08.2021
1685 Clouds 15 1019 67 10000 0 0 22:53 16.08.2021
1686 Clouds 15 1019 67 10000 0 0 22:35 16.08.2021
1687 Clouds 17 1019 55 10000 1 0 21:40 16.08.2021
1688 Clouds 19 1019 52 10000 1 0 20:51 16.08.2021
1689 Clouds 21 1019 43 10000 3 90 19:29 16.08.2021
1690 Clouds 21 1019 46 10000 5 130 18:26 16.08.2021
1691 Clouds 21 1019 46 10000 5 130 18:26 16.08.2021
1692 Clouds 21 1019 46 10000 5 130 18:26 16.08.2021
1693 Clouds 21 1018 46 10000 6 140 17:54 16.08.2021
1694 Clouds 21 1018 43 10000 6 140 16:29 16.08.2021
1695 Clouds 22 1018 40 10000 5 140 15:22 16.08.2021
1696 Clouds 22 1018 43 10000 4 130 13:55 16.08.2021
1697 Clouds 27 1018 29 10000 4 130 12:59 16.08.2021
1698 Clouds 27 1018 29 10000 4 130 12:59 16.08.2021
1699 Clouds 28 1017 28 10000 5 150 11:31 16.08.2021
1700 Clouds 28 1018 28 10000 4 170 09:33 16.08.2021
1701 Clouds 28 1018 30 10000 4 130 08:42 16.08.2021
1702 Clouds 26 1019 34 10000 5 180 07:30 16.08.2021
1703 Clouds 25 1019 38 10000 5 140 05:56 16.08.2021
1704 Clear 15 1020 72 10000 1 0 01:21 16.08.2021
1705 Clear 14 1019 77 10000 1 0 21:34 15.08.2021
1706 Clouds 18 1018 59 10000 2 0 19:35 15.08.2021
1707 Clouds 18 1018 59 10000 1 0 18:41 15.08.2021
1708 Clouds 20 1018 49 10000 3 130 17:48 15.08.2021
1709 Clouds 20 1017 52 10000 6 130 16:39 15.08.2021
1710 Clouds 20 1016 49 10000 5 140 15:35 15.08.2021
1711 Clouds 20 1016 49 10000 5 140 15:35 15.08.2021
1712 Clouds 21 1016 52 10000 4 130 14:36 15.08.2021
1713 Clouds 23 1015 46 10000 3 130 13:34 15.08.2021
1714 Clouds 26 1016 34 10000 4 150 10:41 15.08.2021
1715 Clouds 24 1016 43 10000 5 130 06:55 15.08.2021
1716 Clear 11 1016 93 10000 0 0 01:22 15.08.2021
1717 Clear 10 1016 87 10000 1 0 00:32 15.08.2021
1718 Clear 12 1015 94 10000 1 0 21:26 14.08.2021
1719 Clear 13 1015 82 10000 2 0 20:21 14.08.2021
1720 Clear 14 1015 82 10000 2 0 19:31 14.08.2021
1721 Clear 14 1014 77 10000 2 0 17:35 14.08.2021
1722 Clear 14 1014 82 10000 0 0 16:39 14.08.2021
1723 Clear 15 1013 77 10000 1 0 15:34 14.08.2021
1724 Rain 20 1012 56 10000 2 0 13:35 14.08.2021
1725 Rain 21 1012 49 10000 2 0 10:57 14.08.2021
1726 Clouds 21 1012 49 10000 3 40 08:53 14.08.2021
1727 Clouds 8 1013 93 10000 1 0 00:21 14.08.2021
1728 Clouds 9 1013 93 10000 1 0 23:49 13.08.2021
1729 Clouds 11 1013 87 10000 1 0 21:50 13.08.2021
1730 Clear 10 1013 93 10000 1 0 19:29 13.08.2021
1731 Clear 11 1013 82 10000 1 0 18:45 13.08.2021
1732 Clouds 12 1013 82 10000 0 0 17:18 13.08.2021
1733 Clouds 15 1012 77 10000 2 0 15:53 13.08.2021
1734 Clouds 18 1011 63 10000 6 40 11:43 13.08.2021
1735 Clouds 17 1011 72 10000 6 50 11:18 13.08.2021
1736 Thunderstorm 18 1012 52 10000 5 140 08:39 13.08.2021
1737 Thunderstorm 23 1011 40 10000 5 170 07:48 13.08.2021
1738 Clouds 22 1012 46 10000 2 0 06:32 13.08.2021
1739 Clouds 10 1012 87 10000 1 0 00:27 13.08.2021
1740 Clouds 14 1012 77 10000 2 0 21:48 12.08.2021
1741 Clouds 16 1012 72 10000 2 0 20:27 12.08.2021
1742 Clouds 20 1013 42 10000 5 210 19:50 12.08.2021
1743 Clouds 17 1012 55 10000 1 0 18:29 12.08.2021
1744 Clouds 21 1012 40 10000 2 0 16:50 12.08.2021
1745 Clouds 21 1012 40 10000 2 0 16:50 12.08.2021
1746 Clouds 22 1012 33 10000 4 160 15:39 12.08.2021
1747 Clouds 22 1011 35 10000 5 150 13:51 12.08.2021
1748 Clouds 28 1011 21 10000 4 150 11:37 12.08.2021
1749 Clouds 27 1012 26 10000 2 0 08:57 12.08.2021
1750 Clear 26 1013 29 10000 2 0 07:30 12.08.2021
1751 Clear 7 1015 81 10000 2 0 23:21 11.08.2021
1752 Clear 9 1015 81 10000 1 0 21:44 11.08.2021
1753 Clear 11 1015 82 10000 1 0 18:55 11.08.2021
1754 Clear 13 1015 76 10000 1 0 18:24 11.08.2021
1755 Clouds 16 1014 67 10000 1 0 15:22 11.08.2021
1756 Clouds 22 1014 46 10000 3 10 14:54 11.08.2021
1757 Clouds 25 1013 27 8000 2 0 12:47 11.08.2021
1758 Clouds 25 1013 27 8000 2 0 12:29 11.08.2021
1759 Clouds 26 1013 25 8000 4 300 11:40 11.08.2021
1760 Clouds 27 1013 24 8000 2 0 11:21 11.08.2021
1761 Clouds 26 1014 27 6000 2 0 08:53 11.08.2021
1762 Clouds 17 1017 51 6000 3 100 03:29 11.08.2021
1763 Clouds 12 1014 61 10000 2.2 91 22:33 10.08.2021
1764 Clouds 7 1016 87 6000 0 0 21:44 10.08.2021
1765 Clouds 7 1016 81 6000 1 0 20:51 10.08.2021
1766 Clear 7 1016 87 6000 1 0 19:25 10.08.2021
1767 Smoke 11 1015 71 4000 0 0 17:30 10.08.2021
1768 Smoke 15 1015 51 4000 1 0 15:22 10.08.2021
1769 Smoke 15 1014 58 4000 3 160 14:39 10.08.2021
1770 Smoke 22 1014 28 4000 1 0 10:47 10.08.2021
1771 Smoke 21 1015 32 3600 2 0 08:41 10.08.2021
1772 Smoke 15 1016 55 3000 0 0 05:27 10.08.2021
1773 Smoke 3 1016 93 3000 0 0 00:38 10.08.2021
1774 Smoke 3 1016 93 3200 1 0 23:25 09.08.2021
1775 Smoke 5 1015 87 3200 1 0 21:53 09.08.2021
1776 Smoke 5 1015 87 3200 1 0 21:19 09.08.2021
1777 Smoke 6 1015 87 3200 2 0 17:57 09.08.2021
1778 Smoke 13 1014 67 3200 2 0 15:35 09.08.2021
1779 Smoke 15 1014 51 3200 2 0 14:37 09.08.2021
1780 Smoke 17 1013 45 3200 3 350 13:29 09.08.2021
1781 Smoke 19 1013 39 3200 4 360 11:48 09.08.2021
1782 Smoke 20 1013 32 3200 5 340 09:27 09.08.2021
1783 Smoke 18 1014 36 3200 5 320 07:59 09.08.2021
1784 Clouds 9 1015 87 10000 3 300 21:32 08.08.2021
1785 Clouds 11 1015 82 10000 2 0 20:36 08.08.2021
1786 Clouds 13 1014 76 10000 1 0 17:36 08.08.2021
1787 Clouds 14 1013 67 10000 5 350 15:46 08.08.2021
1788 Clouds 16 1013 63 10000 5 330 14:34 08.08.2021
1789 Clouds 17 1012 59 10000 5 340 12:47 08.08.2021
1790 Clouds 17 1012 59 10000 6 350 10:36 08.08.2021
1791 Clouds 17 1011 59 6000 7 320 06:41 08.08.2021
1792 Clouds 13 1010 82 4000 4 330 00:53 08.08.2021
1793 Clouds 13 1010 82 8000 4 330 00:24 08.08.2021
1794 Clouds 14 1009 77 10000 3 340 21:47 07.08.2021
1795 Clouds 14 1009 77 10000 3 340 21:19 07.08.2021
1796 Clouds 13 1008 82 10000 1 0 18:21 07.08.2021
1797 Clouds 15 1007 72 10000 2 0 16:51 07.08.2021
1798 Clouds 16 1007 67 10000 2 330 15:36 07.08.2021
1799 Clouds 19 1005 52 10000 6 310 13:34 07.08.2021
1800 Clouds 22 1004 33 10000 7 270 10:37 07.08.2021
1801 Clouds 23 1004 33 10000 4 240 07:44 07.08.2021
1802 Clear 17 1003 67 10000 1 0 02:38 07.08.2021
1803 Clouds 12 1002 82 10000 3 160 22:23 06.08.2021
1804 Clouds 16 1003 67 10000 3 320 20:36 06.08.2021
1805 Clouds 18 1003 59 10000 3 70 19:59 06.08.2021
1806 Clouds 18 1003 59 10000 3 70 19:22 06.08.2021
1807 Clouds 20 1002 49 10000 3 330 17:34 06.08.2021
1808 Clouds 27 1003 26 10000 4 230 12:23 06.08.2021
1809 Clouds 27 1004 24 10000 4 250 09:57 06.08.2021
1810 Clouds 26 1005 31 10000 4 240 08:22 06.08.2021
1811 Clear 9 1008 87 10000 1 0 23:35 05.08.2021
1812 Clear 9 1008 87 10000 0 0 22:30 05.08.2021
1813 Clear 11 1008 87 10000 1 0 20:47 05.08.2021
1814 Clear 12 1009 87 10000 1 0 19:29 05.08.2021
1815 Clear 14 1009 82 10000 2 0 17:43 05.08.2021
1816 Clouds 23 1009 40 10000 2 0 14:49 05.08.2021
1817 Clouds 25 1009 44 10000 1 0 11:38 05.08.2021
1818 Clouds 23 1010 40 10000 1 0 08:51 05.08.2021
1819 Smoke 19 1012 59 4000 2 0 05:35 05.08.2021
1820 Smoke 8 1013 93 3600 0 0 00:54 05.08.2021
1821 Clouds 8 1012 93 6000 1 0 21:49 04.08.2021
1822 Clouds 8 1012 93 6000 1 0 21:21 04.08.2021
1823 Clouds 9 1013 87 6000 1 0 18:56 04.08.2021
1824 Clouds 11 1013 87 6000 1 0 16:42 04.08.2021
1825 Smoke 14 1013 77 3600 2 0 14:44 04.08.2021
1826 Smoke 17 1012 63 3600 5 330 11:49 04.08.2021
1827 Clouds 15 1012 67 8000 6 340 04:55 04.08.2021
1828 Clouds 13 1010 82 10000 5 320 20:41 03.08.2021
1829 Clouds 13 1010 82 10000 5 320 19:59 03.08.2021
1830 Clouds 13 1009 82 10000 7 330 17:50 03.08.2021
1831 Clouds 13 1010 88 10000 5 330 16:27 03.08.2021
1832 Clouds 17 1007 72 10000 4 10 12:52 03.08.2021
1833 Thunderstorm 13 1007 88 8000 4 100 10:40 03.08.2021
1834 Thunderstorm 16 1005 82 10000 3 140 07:40 03.08.2021
1835 Clouds 13 1003 76 10000 1 0 17:48 02.08.2021
1836 Clouds 16 1003 63 10000 4 130 16:38 02.08.2021
1837 Clouds 15 1004 77 10000 6 80 15:30 02.08.2021
1838 Clouds 20 1003 42 10000 7 140 11:59 02.08.2021
1839 Clouds 20 1003 42 10000 7 140 11:36 02.08.2021
1840 Clouds 20 1005 52 10000 12 130 09:49 02.08.2021
1841 Rain 20 1007 37 10000 8 180 22:45 01.08.2021
1842 Clouds 15 1009 63 10000 1 0 18:19 01.08.2021
1843 Clouds 16 1009 67 10000 3 140 15:29 01.08.2021
1844 Clouds 25 1010 27 10000 2 0 11:38 01.08.2021
1845 Clouds 24 1011 25 10000 2 0 09:25 01.08.2021
1846 Clear 16 1016 67 10000 1 0 03:48 01.08.2021
1847 Clear 8 1015 87 10000 1 0 22:52 31.07.2021
1848 Clear 11 1016 87 10000 0 0 20:52 31.07.2021
1849 Clear 15 1016 77 10000 2 0 17:49 31.07.2021
1850 Clouds 16 1016 72 10000 5 20 16:36 31.07.2021
1851 Clouds 20 1014 56 10000 7 350 12:38 31.07.2021
1852 Clouds 21 1013 46 10000 8 340 08:34 31.07.2021
1853 Clouds 13 1013 82 10000 5 330 01:39 31.07.2021
1854 Clouds 13 1011 82 10000 5 330 20:31 30.07.2021
1855 Clouds 13 1011 82 10000 5 340 19:23 30.07.2021
1856 Clouds 18 1007 63 10000 8 340 07:50 30.07.2021
1857 Clouds 15 1005 63 10000 3 180 16:53 29.07.2021
1858 Clouds 22 1005 56 10000 5 240 05:49 29.07.2021
1859 Clouds 23 1005 49 10000 3 200 04:29 29.07.2021
1860 Clouds 18 1006 63 9998 1 0 21:21 28.07.2021
1861 Clouds 19 1006 52 10000 2 0 17:22 28.07.2021
1862 Clouds 21 1005 49 10000 4 140 14:49 28.07.2021
1863 Clouds 26 1006 34 10000 4 190 07:44 28.07.2021
1864 Clear 10 1008 81 10000 1 0 22:53 27.07.2021
1865 Clear 10 1008 87 10000 1 0 21:27 27.07.2021
1866 Clouds 22 1007 43 10000 4 330 14:52 27.07.2021
1867 Clouds 25 1007 29 10000 4 230 10:46 27.07.2021
1868 Clouds 24 1008 31 10000 2 0 07:59 27.07.2021
1869 Clouds 19 1010 55 10000 1 0 15:48 26.07.2021
1870 Clouds 22 1009 43 10000 5 350 14:48 26.07.2021
1871 Clouds 20 1011 60 10000 2 0 04:51 26.07.2021
1872 Rain 16 1010 77 10000 1 0 20:55 25.07.2021
1873 Clouds 18 1010 68 10000 2 0 18:23 25.07.2021
1874 Clouds 19 1009 63 10000 4 330 15:45 25.07.2021
1875 Clouds 23 1008 43 10000 5 340 10:55 25.07.2021
1876 Clouds 23 1009 38 10000 3 290 08:19 25.07.2021
1877 Clear 13 1011 76 10000 0 0 20:24 24.07.2021
1878 Clear 12 1011 82 10000 2 0 19:55 24.07.2021
1879 Clear 24 1011 31 10000 5 340 13:38 24.07.2021
1880 Clouds 11 1013 87 10000 1 0 21:47 23.07.2021
1881 Clouds 22 1012 53 10000 2 0 14:36 23.07.2021
1882 Clouds 24 1012 46 10000 2 0 12:41 23.07.2021
1883 Clear 20 1015 60 10000 1 0 04:48 23.07.2021
1884 Clear 15 1013 82 10000 1 0 17:44 22.07.2021
1885 Clouds 22 1011 49 10000 6 320 11:21 22.07.2021
1886 Clouds 21 1011 56 10000 4 310 08:34 22.07.2021
1887 Clouds 16 1012 72 10000 4 310 02:28 22.07.2021
1888 Clouds 16 1010 88 10000 3 310 21:43 21.07.2021
1889 Clouds 16 1010 88 10000 3 310 21:23 21.07.2021
1890 Clouds 19 1011 77 10000 1 0 11:54 21.07.2021
1891 Clouds 21 1011 68 10000 4 300 09:20 21.07.2021
1892 Clouds 20 1011 73 10000 7 300 06:50 21.07.2021
1893 Rain 17 1010 82 10000 2 0 23:24 20.07.2021
1894 Clouds 19 1013 77 10000 1 0 16:37 20.07.2021
1895 Rain 19 1013 82 10000 0 0 15:28 20.07.2021
1896 Rain 21 1014 64 10000 1 0 12:58 20.07.2021
1897 Clouds 21 1014 60 10000 1 0 10:21 20.07.2021
1898 Clouds 17 1016 77 10000 2 0 03:45 20.07.2021
1899 Clear 14 1015 94 10000 1 0 21:29 19.07.2021
1900 Clouds 21 1011 73 10000 1 0 12:52 19.07.2021
1901 Rain 22 1012 64 10000 5 300 10:28 19.07.2021
1902 Clouds 22 1011 49 10000 4 140 18:30 18.07.2021
1903 Clouds 28 1011 34 10000 2 0 10:55 18.07.2021
1904 Clear 18 1014 77 10000 1 0 03:21 18.07.2021
1905 Clear 13 1014 88 10000 0 0 22:22 17.07.2021
1906 Clear 15 1014 88 10000 1 0 21:43 17.07.2021
1907 Clear 14 1013 88 10000 1 0 20:28 17.07.2021
1908 Clouds 25 1012 47 10000 3 310 11:34 17.07.2021
1909 Clouds 23 1015 49 10000 2 0 07:19 17.07.2021
1910 Rain 15 1016 94 10000 2 300 20:29 16.07.2021
1911 Clouds 18 1016 82 10000 1 0 13:21 16.07.2021
1912 Rain 26 1015 36 10000 8 160 07:32 16.07.2021
1913 Clouds 17 1015 67 10000 1 0 00:36 16.07.2021
1914 Clouds 26 1013 41 10000 2 0 13:52 15.07.2021
1915 Clouds 27 1013 36 10000 2 0 10:31 15.07.2021
1916 Clear 11 1014 93 10000 1 0 00:33 15.07.2021
1917 Clear 12 1012 94 10000 1 0 19:22 14.07.2021
1918 Clouds 20 1010 60 10000 2 280 14:57 14.07.2021
1919 Clouds 19 1008 59 10000 3 230 07:48 14.07.2021
1920 Clouds 15 1005 82 10000 0 0 21:44 13.07.2021
1921 Clouds 15 1004 88 10000 2 0 19:55 13.07.2021
1922 Clear 14 1004 88 10000 2 0 19:27 13.07.2021
1923 Clear 13 1004 88 10000 2 0 18:45 13.07.2021
1924 Clear 13 1004 88 10000 2 0 18:27 13.07.2021
1925 Clear 13 1004 88 10000 2 0 17:56 13.07.2021
1926 Clouds 21 1001 68 10000 6 280 12:52 13.07.2021
1927 Thunderstorm 26 997 50 10000 8 120 08:49 13.07.2021
1928 Clear 14 1003 88 10000 1 0 19:59 12.07.2021
1929 Clouds 18 1004 77 10000 2 310 16:45 12.07.2021
1930 Clouds 25 1004 50 10000 7 340 09:59 12.07.2021
1931 Clouds 18 1004 82 10000 3 260 21:59 11.07.2021
1932 Clear 19 1004 72 10000 1 0 19:48 11.07.2021
1933 Clouds 28 1005 42 10000 2 0 09:19 11.07.2021
1934 Rain 17 1006 82 10000 2 0 22:30 10.07.2021
1935 Clouds 27 1006 29 10000 2 0 11:37 10.07.2021
1936 Clouds 23 1010 35 10000 3 300 07:24 10.07.2021
1937 Clouds 9 1012 93 10000 1 0 22:39 09.07.2021
1938 Clouds 13 1012 82 10000 3 330 18:20 09.07.2021
1939 Clouds 16 1010 72 10000 6 340 14:48 09.07.2021
1940 Clouds 19 1010 68 10000 5 350 07:36 09.07.2021
1941 Clouds 19 1009 72 10000 3 340 23:48 08.07.2021
1942 Thunderstorm 19 1008 63 10000 5 290 22:18 08.07.2021
1943 Clear 18 1007 59 10000 3 300 18:56 08.07.2021
1944 Clear 19 1007 48 10000 3 160 15:45 08.07.2021
1945 Clouds 31 1006 16 10000 2 0 13:31 08.07.2021
1946 Clouds 31 1006 14 10000 3 300 12:40 08.07.2021
1947 Clouds 31 1007 14 10000 2 0 11:29 08.07.2021
1948 Clouds 31 1008 19 10000 2 0 09:51 08.07.2021
1949 Clear 25 1010 44 10000 1 0 04:42 08.07.2021
1950 Clear 11 1011 87 10000 1 0 23:50 07.07.2021
1951 Clear 11 1011 87 10000 0 0 22:21 07.07.2021
1952 Clear 12 1011 87 10000 1 0 21:47 07.07.2021
1953 Clear 12 1011 87 10000 1 0 21:27 07.07.2021
1954 Clear 12 1011 87 10000 1 0 20:42 07.07.2021
1955 Clear 14 1011 82 10000 0 0 19:55 07.07.2021
1956 Clear 14 1011 82 10000 0 0 19:27 07.07.2021
1957 Clear 17 1010 67 10000 2 0 16:35 07.07.2021
1958 Clouds 21 1010 52 10000 2 0 15:25 07.07.2021
1959 Clouds 29 1009 20 10000 4 340 12:24 07.07.2021
1960 Clouds 27 1011 29 10000 3 310 07:37 07.07.2021
1961 Clouds 25 1012 33 10000 1 0 05:57 07.07.2021
1962 Clouds 23 1012 43 10000 2 0 04:39 07.07.2021
1963 Clear 13 1012 82 10000 0 0 20:55 06.07.2021
1964 Clear 13 1012 82 10000 1 0 19:18 06.07.2021
1965 Clear 14 1012 77 10000 2 170 18:45 06.07.2021
1966 Clear 14 1012 77 10000 2 170 18:22 06.07.2021
1967 Clouds 25 1011 33 10000 3 350 13:44 06.07.2021
1968 Clouds 25 1010 31 10000 4 280 10:28 06.07.2021
1969 Clouds 25 1011 31 10000 4 320 09:39 06.07.2021
1970 Clouds 25 1011 41 10000 4 310 08:32 06.07.2021
1971 Rain 21 1013 56 10000 1 0 04:50 06.07.2021
1972 Clear 10 1013 87 10000 0 0 23:59 05.07.2021
1973 Clear 11 1014 82 10000 1 0 21:59 05.07.2021
1974 Clear 14 1013 88 10000 2 180 17:22 05.07.2021
1975 Rain 24 1012 33 10000 2 340 14:29 05.07.2021
1976 Clouds 23 1013 46 10000 3 270 06:27 05.07.2021
1977 Clouds 22 1014 53 10000 2 0 05:43 05.07.2021
1978 Clouds 21 1014 52 10000 2 0 04:25 05.07.2021
1979 Clouds 13 1014 88 10000 1 0 22:56 04.07.2021
1980 Clouds 15 1014 77 10000 1 0 18:51 04.07.2021
1981 Clouds 19 1013 59 10000 1 0 15:50 04.07.2021
1982 Clouds 24 1011 43 10000 4 10 11:48 04.07.2021
1983 Clouds 22 1012 43 10000 5 40 09:23 04.07.2021
1984 Clear 9 1013 87 10000 0 0 23:32 03.07.2021
1985 Clear 10 1012 87 10000 1 0 22:34 03.07.2021
1986 Clouds 19 1010 59 10000 2 0 14:19 03.07.2021
1987 Clouds 21 1010 46 10000 6 140 12:38 03.07.2021
1988 Clouds 22 1010 46 10000 2 0 09:29 03.07.2021
1989 Clouds 21 1010 46 10000 2 0 08:46 03.07.2021
1990 Clouds 14 1011 77 10000 0 0 02:46 03.07.2021
1991 Clouds 18 1007 59 10000 5 350 12:51 02.07.2021
1992 Clouds 16 1007 67 10000 2 0 07:40 02.07.2021
1993 Clouds 13 1008 82 8000 3 300 04:38 02.07.2021
1994 Clouds 11 1007 87 10000 2 0 22:33 01.07.2021
1995 Clouds 11 1008 87 10000 2 310 21:51 01.07.2021
1996 Clouds 11 1008 82 10000 3 310 20:45 01.07.2021
1997 Clouds 11 1008 87 10000 2 0 19:21 01.07.2021
1998 Clouds 12 1008 82 10000 2 0 18:49 01.07.2021
1999 Clouds 12 1008 76 10000 3 350 17:48 01.07.2021
2000 Clouds 12 1008 76 10000 2 0 17:18 01.07.2021
2001 Clouds 13 1008 71 10000 5 340 15:25 01.07.2021
2002 Clouds 13 1007 71 10000 3 10 14:23 01.07.2021
2003 Clouds 14 1007 67 10000 5 340 10:55 01.07.2021
2004 Clouds 14 1007 67 10000 5 340 10:55 01.07.2021
2005 Rain 12 1008 76 10000 4 340 05:47 01.07.2021
2006 Clouds 10 1008 87 10000 3 330 23:21 30.06.2021
2007 Clouds 10 1008 87 10000 5 320 22:20 30.06.2021
2008 Rain 11 1008 82 10000 5 340 21:22 30.06.2021
2009 Clouds 11 1008 82 10000 4 330 20:27 30.06.2021
2010 Clouds 10 1008 87 10000 5 330 18:54 30.06.2021
2011 Clouds 10 1008 87 10000 6 320 14:26 30.06.2021
2012 Clouds 11 1008 76 10000 7 340 13:21 30.06.2021
2013 Clouds 12 1007 71 10000 7 330 08:18 30.06.2021
2014 Clouds 9 1006 87 10000 3 320 21:29 29.06.2021
2015 Clouds 10 1006 81 10000 4 330 18:36 29.06.2021
2016 Clouds 10 1006 87 10000 5 320 17:43 29.06.2021
2017 Clouds 10 1007 81 10000 7 330 16:36 29.06.2021
2018 Rain 10 1006 81 10000 9 340 15:38 29.06.2021
2019 Rain 11 1005 82 10000 8 340 13:31 29.06.2021
2020 Clouds 12 1005 76 10000 9 340 12:43 29.06.2021
2021 Clouds 12 1003 87 10000 5 300 00:41 29.06.2021
2022 Rain 13 1003 88 10000 5 320 21:47 28.06.2021
2023 Clouds 14 1003 88 10000 4 320 19:48 28.06.2021
2024 Clouds 15 1003 82 10000 6 300 17:29 28.06.2021
2025 Clouds 17 1003 77 10000 4 50 15:22 28.06.2021
2026 Clouds 17 1004 82 10000 3 350 12:59 28.06.2021
2027 Clouds 19 1002 59 8000 11 140 08:59 28.06.2021
2028 Clouds 13 1007 82 10000 1 0 23:45 27.06.2021
2029 Clouds 17 1007 67 10000 1 0 21:51 27.06.2021
2030 Clouds 20 1008 56 10000 7 30 19:40 27.06.2021
2031 Clouds 21 1010 56 10000 5 340 16:51 27.06.2021
2032 Clouds 26 1006 38 10000 1 0 13:31 27.06.2021
2033 Clouds 32 1008 18 10000 5 160 07:38 27.06.2021
2034 Clouds 11 1011 82 10000 2 0 23:27 26.06.2021
2035 Clouds 11 1011 82 10000 1 0 21:19 26.06.2021
2036 Clouds 13 1011 71 10000 1 0 20:40 26.06.2021
2037 Clouds 16 1011 59 10000 2 0 19:25 26.06.2021
2038 Clear 20 1010 56 10000 1 0 15:29 26.06.2021
2039 Clouds 28 1008 28 10000 2 0 12:28 26.06.2021
2040 Clouds 28 1009 24 10000 2 0 09:29 26.06.2021
2041 Clouds 22 1011 46 10000 2 0 04:35 26.06.2021
2042 Clear 10 1010 87 10000 1 0 21:21 25.06.2021
2043 Clear 12 1010 76 10000 1 0 19:44 25.06.2021
2044 Clouds 12 1010 82 10000 1 0 17:53 25.06.2021
2045 Clouds 17 1010 63 10000 3 40 16:50 25.06.2021
2046 Clouds 19 1008 52 10000 5 30 14:59 25.06.2021
2047 Rain 20 1007 45 10000 4 50 13:18 25.06.2021
2048 Clouds 23 1007 40 10000 3 40 09:28 25.06.2021
2049 Clouds 22 1007 46 10000 3 20 07:20 25.06.2021
2050 Clouds 16 1007 72 10000 4 330 03:54 25.06.2021
2051 Clouds 13 1006 82 10000 2 0 22:48 24.06.2021
2052 Clear 13 1006 82 10000 1 0 21:47 24.06.2021
2053 Clear 12 1006 82 10000 4 280 20:41 24.06.2021
2054 Clouds 15 1006 63 10000 4 40 18:50 24.06.2021
2055 Clouds 15 1007 63 10000 5 300 16:37 24.06.2021
2056 Clouds 18 1005 52 10000 13 300 15:22 24.06.2021
2057 Clouds 20 1004 45 10000 10 300 14:49 24.06.2021
2058 Rain 24 1004 33 10000 2 0 11:51 24.06.2021
2059 Clouds 25 1003 31 10000 2 0 09:35 24.06.2021
2060 Clouds 29 1005 18 10000 5 180 08:24 24.06.2021
2061 Clouds 23 1007 43 10000 3 60 04:36 24.06.2021
2062 Clouds 11 1008 82 10000 1 0 23:28 23.06.2021
2063 Clouds 10 1008 87 10000 0 0 21:46 23.06.2021
2064 Clouds 11 1008 82 10000 2.5 92 20:48 23.06.2021
2065 Clear 13 1009 76 10000 1 0 18:38 23.06.2021
2066 Clear 18 1009 55 10000 1 0 17:40 23.06.2021
2067 Clear 17 1009 63 10000 1 0 16:34 23.06.2021
2068 Clear 25 1008 27 10000 1 0 14:29 23.06.2021
2069 Clouds 26 1008 27 10000 2 0 11:59 23.06.2021
2070 Clouds 26 1009 29 10000 2 0 10:39 23.06.2021
2071 Clouds 24 1010 33 10000 3 160 08:52 23.06.2021
2072 Clouds 24 1010 33 10000 3 160 08:25 23.06.2021
2073 Clouds 24 1010 33 10000 3 230 07:47 23.06.2021
2074 Clouds 21 1011 43 10000 3 190 04:34 23.06.2021
2075 Clouds 10 1011 87 10000 1 0 00:45 23.06.2021
2076 Clouds 9 1011 93 10000 1 0 23:56 22.06.2021
2077 Clouds 8 1011 93 10000 0 0 22:46 22.06.2021
2078 Clouds 10 1011 87 10000 1 0 22:25 22.06.2021
2079 Clouds 11 1011 87 10000 1 0 21:39 22.06.2021
2080 Clouds 12 1011 87 10000 1 0 19:47 22.06.2021
2081 Clouds 12 1011 87 10000 2 0 18:57 22.06.2021
2082 Clouds 12 1011 87 10000 2 0 18:26 22.06.2021
2083 Clouds 12 1011 87 10000 1 0 17:22 22.06.2021
2084 Clouds 13 1011 82 10000 2 150 16:32 22.06.2021
2085 Rain 17 1011 72 10000 3 210 14:40 22.06.2021
2086 Rain 16 1010 72 10000 3 100 14:21 22.06.2021
2087 Clouds 21 1008 46 10000 3 210 12:56 22.06.2021
2088 Clouds 23 1008 40 10000 7 130 11:33 22.06.2021
2089 Clouds 24 1008 33 10000 5 150 10:24 22.06.2021
2090 Rain 16 1010 63 10000 11 110 06:52 22.06.2021
2091 Rain 16 1010 59 10000 8 140 00:50 22.06.2021
2092 Clouds 18 1010 42 10000 10 140 23:27 21.06.2021
2093 Clouds 19 1009 37 10000 12 130 22:22 21.06.2021
2094 Clouds 19 1009 37 10000 11 140 21:18 21.06.2021
2095 Clouds 20 1009 34 10000 12 130 20:31 21.06.2021
2096 Clouds 20 1009 34 10000 11 130 19:53 21.06.2021
2097 Clouds 20 1009 34 10000 11 130 18:57 21.06.2021
2098 Rain 19 1010 45 10000 4 100 17:24 21.06.2021
2099 Clouds 19 1010 45 10000 7 120 16:41 21.06.2021
2100 Clouds 18 1010 59 10000 6 130 16:23 21.06.2021
2101 Clouds 20 1010 49 10000 6 70 15:43 21.06.2021
2102 Clouds 23 1008 28 10000 7 130 13:59 21.06.2021
2103 Clouds 24 1008 27 10000 7 130 13:33 21.06.2021
2104 Clouds 25 1008 27 10000 7 150 12:36 21.06.2021
2105 Clouds 26 1008 22 10000 5 160 11:46 21.06.2021
2106 Clouds 26 1008 24 10000 6 170 10:29 21.06.2021
2107 Clouds 26 1009 24 10000 7 150 09:19 21.06.2021
2108 Clouds 25 1009 25 10000 9 150 08:20 21.06.2021
2109 Clouds 24 1010 29 10000 9 140 06:45 21.06.2021
2110 Clouds 16 1011 51 10000 1 0 23:59 20.06.2021
2111 Clouds 16 1011 48 10000 3 160 23:35 20.06.2021
2112 Clear 15 1010 55 10000 1 0 22:57 20.06.2021
2113 Clear 13 1010 62 10000 4 300 21:57 20.06.2021
2114 Clear 12 1010 71 10000 1 0 20:30 20.06.2021
2115 Rain 15 1009 58 10000 1 0 19:41 20.06.2021
2116 Clouds 15 1009 58 10000 1 0 19:20 20.06.2021
2117 Clouds 17 1009 51 10000 1 0 17:47 20.06.2021
2118 Clouds 17 1009 45 10000 2 180 16:46 20.06.2021
2119 Clouds 16 1008 59 10000 2 180 15:48 20.06.2021
2120 Clouds 16 1008 59 10000 2 180 15:27 20.06.2021
2121 Clouds 23 1008 31 10000 2 60 14:43 20.06.2021
2122 Clouds 25 1007 22 10000 4 30 13:35 20.06.2021
2123 Clouds 25 1007 25 10000 3 330 12:39 20.06.2021
2124 Clouds 25 1007 20 10000 2 0 11:45 20.06.2021
2125 Clouds 25 1007 22 10000 3 310 10:23 20.06.2021
2126 Clouds 25 1007 23 10000 2 0 09:43 20.06.2021
2127 Clouds 24 1008 27 10000 1 0 06:56 20.06.2021
2128 Clouds 7 1008 81 10000 1 0 23:37 19.06.2021
2129 Clouds 8 1009 81 10000 0 0 22:58 19.06.2021
2130 Clear 8 1008 81 10000 1 0 21:51 19.06.2021
2131 Clear 9 1009 76 10000 1 0 21:22 19.06.2021
2132 Clear 8 1008 81 10000 1 0 18:55 19.06.2021
2133 Clear 11 1008 66 10000 1 0 18:22 19.06.2021
2134 Clear 11 1008 71 10000 2 190 17:26 19.06.2021
2135 Clouds 11 1008 76 10000 1 0 16:41 19.06.2021
2136 Clouds 16 1008 51 10000 2 340 15:40 19.06.2021
2137 Clouds 22 1007 26 10000 5 340 12:54 19.06.2021
2138 Clouds 22 1007 28 10000 6 350 11:54 19.06.2021
2139 Clouds 22 1008 28 10000 5 340 10:46 19.06.2021
2140 Clouds 23 1008 27 10000 5 330 10:26 19.06.2021
2141 Clouds 23 1008 27 10000 5 350 09:48 19.06.2021
2142 Clear 20 1009 32 10000 3 350 07:50 19.06.2021
2143 Clear 20 1010 30 10000 3 310 06:34 19.06.2021
2144 Clear 14 1011 54 10000 1 0 02:28 19.06.2021
2145 Clear 4 1011 87 10000 1 0 00:20 19.06.2021
2146 Clear 4 1011 81 10000 1 0 23:33 18.06.2021
2147 Clouds 3 1010 81 10000 1 0 22:53 18.06.2021
2148 Clear 4 1010 81 10000 0 0 22:27 18.06.2021
2149 Clear 3 1010 87 10000 3 170 21:44 18.06.2021
2150 Clear 5 1010 81 10000 3 180 21:22 18.06.2021
2151 Clear 4 1010 81 10000 2 150 20:23 18.06.2021
2152 Clear 6 1010 81 10000 2 170 18:29 18.06.2021
2153 Clear 6 1010 75 10000 0 0 17:40 18.06.2021
2154 Clear 9 1010 61 10000 1 0 16:33 18.06.2021
2155 Clear 13 1009 50 10000 3 330 15:46 18.06.2021
2156 Clear 16 1009 41 10000 3 320 14:34 18.06.2021
2157 Clouds 18 1009 36 10000 5 310 13:41 18.06.2021
2158 Clouds 18 1009 36 10000 8 300 12:52 18.06.2021
2159 Clouds 18 1009 34 10000 8 310 12:30 18.06.2021
2160 Clouds 19 1009 30 10000 8 310 11:30 18.06.2021
2161 Clouds 19 1008 27 10000 8 330 10:52 18.06.2021
2162 Clouds 19 1009 27 10000 8 340 10:23 18.06.2021
2163 Clouds 20 1009 26 10000 11 330 09:51 18.06.2021
2164 Clouds 19 1009 27 10000 10 330 08:56 18.06.2021
2165 Clouds 19 1009 26 10000 9 320 08:30 18.06.2021
2166 Clouds 18 1010 27 10000 9 310 07:33 18.06.2021
2167 Clouds 13 1012 54 10000 6 300 03:24 18.06.2021
2168 Clear 7 1012 87 10000 1 0 00:33 18.06.2021
2169 Clear 2 1012 93 10000 1 0 23:22 17.06.2021
2170 Clear 2 1013 87 10000 1 0 22:26 17.06.2021
2171 Clear 3 1013 87 10000 2 170 21:50 17.06.2021
2172 Clear 3 1013 87 10000 1 0 20:58 17.06.2021
2173 Clear 5 1013 81 10000 1 0 20:30 17.06.2021
2174 Clear 7 1013 76 10000 1 0 19:52 17.06.2021
2175 Clear 5 1013 81 10000 1 0 18:58 17.06.2021
2176 Clear 8 1013 71 10000 0 0 17:49 17.06.2021
2177 Clear 9 1013 66 10000 2 300 17:21 17.06.2021
2178 Clear 10 1013 66 10000 2 0 16:28 17.06.2021
2179 Clouds 10 1013 71 10000 5 310 15:51 17.06.2021
2180 Clouds 13 1013 58 10000 4 320 14:28 17.06.2021
2181 Clouds 15 1013 41 10000 8 320 13:20 17.06.2021
2182 Clouds 13 1013 54 10000 7 320 12:31 17.06.2021
2183 Clouds 16 1013 48 10000 7 310 11:23 17.06.2021
2184 Clouds 14 1013 54 10000 7 300 10:42 17.06.2021
2185 Clouds 14 1014 54 10000 8 300 10:23 17.06.2021
2186 Clouds 13 1014 58 10000 10 330 09:38 17.06.2021
2187 Clouds 13 1014 58 10000 5 310 08:32 17.06.2021
2188 Clouds 13 1014 58 10000 6 350 07:47 17.06.2021
2189 Clouds 9 1014 71 10000 8 340 04:36 17.06.2021
2190 Clouds 7 1013 76 10000 6 330 01:24 17.06.2021
2191 Rain 6 1013 81 10000 5 330 23:38 16.06.2021
2192 Rain 6 1012 81 10000 5 320 23:19 16.06.2021
2193 Clouds 7 1011 76 10000 7 340 22:18 16.06.2021
2194 Clouds 8 1011 66 10000 7 320 21:39 16.06.2021
2195 Clouds 8 1011 66 10000 7 320 21:18 16.06.2021
2196 Clouds 8 1011 66 10000 3 280 20:36 16.06.2021
2197 Clouds 9 1011 66 10000 1 0 19:49 16.06.2021
2198 Clouds 9 1011 66 10000 2 320 19:28 16.06.2021
2199 Clouds 9 1011 66 10000 2 320 18:49 16.06.2021
2200 Clouds 9 1011 61 10000 5 330 18:24 16.06.2021
2201 Clouds 9 1010 53 10000 1 0 17:28 16.06.2021
2202 Clouds 9 1010 57 10000 3 240 16:58 16.06.2021
2203 Clouds 9 1010 57 10000 3 240 16:40 16.06.2021
2204 Clouds 10 1010 62 10000 3 260 15:49 16.06.2021
2205 Clouds 11 1010 58 10000 3 250 15:28 16.06.2021
2206 Clouds 13 1010 47 10000 4 250 14:45 16.06.2021
2207 Clouds 13 1010 47 10000 5 270 14:26 16.06.2021
2208 Clouds 14 1010 47 10000 5 240 13:44 16.06.2021
2209 Clouds 14 1010 41 10000 5 270 13:22 16.06.2021
2210 Clouds 14 1010 44 10000 5 250 12:41 16.06.2021
2211 Clouds 13 1010 44 10000 5 270 12:18 16.06.2021
2212 Clouds 12 1011 43 10000 3 270 11:31 16.06.2021
2213 Clouds 13 1011 44 10000 4 280 10:44 16.06.2021
2214 Clouds 13 1011 38 10000 6 300 09:50 16.06.2021
2215 Clouds 12 1012 40 10000 7 310 09:26 16.06.2021
2216 Clouds 12 1012 40 10000 7 310 08:19 16.06.2021
2217 Clouds 11 1012 43 10000 6 330 07:41 16.06.2021
2218 Clouds 6 1012 70 10000 3 330 02:59 16.06.2021
2219 Clouds 5 1012 70 10000 6 340 01:43 16.06.2021
2220 Clouds 4 1011 81 10000 5 340 23:44 15.06.2021
2221 Clouds 5 1011 75 10000 4 320 23:20 15.06.2021
2222 Clouds 5 1011 81 10000 4 340 22:41 15.06.2021
2223 Clouds 5 1011 81 10000 5 330 21:57 15.06.2021
2224 Clouds 7 1010 76 10000 6 340 20:54 15.06.2021
2225 Clouds 7 1010 81 10000 6 340 19:58 15.06.2021
2226 Clouds 8 1010 81 10000 6 340 19:22 15.06.2021
2227 Clouds 9 1010 81 10000 3 350 17:41 15.06.2021
2228 Clouds 9 1010 81 7623 4 360 16:42 15.06.2021
2229 Clouds 10 1010 81 10000 3 330 15:42 15.06.2021
2230 Clouds 11 1010 76 10000 6 310 14:53 15.06.2021
2231 Clouds 12 1009 76 10000 1 0 14:23 15.06.2021
2232 Rain 12 1009 71 10000 1 0 13:36 15.06.2021
2233 Rain 12 1009 76 10000 1 0 12:50 15.06.2021
2234 Rain 12 1009 71 10000 1 0 11:57 15.06.2021
2235 Rain 11 1009 82 10000 3 290 11:21 15.06.2021
2236 Rain 12 1009 71 10000 1 0 10:56 15.06.2021
2237 Rain 12 1009 71 10000 1 0 10:36 15.06.2021
2238 Clouds 12 1009 66 10000 2 0 09:50 15.06.2021
2239 Rain 12 1009 71 10000 1 0 08:37 15.06.2021
2240 Clouds 12 1009 76 10000 1 0 08:18 15.06.2021
2241 Rain 12 1009 71 10000 1 0 06:54 15.06.2021
2242 Clouds 12 1009 71 10000 1 0 05:58 15.06.2021
2243 Clouds 11 1008 87 10000 2 360 01:32 15.06.2021
2244 Clouds 11 1008 87 10000 2 0 00:38 15.06.2021
2245 Clouds 11 1007 82 10000 4 350 23:32 14.06.2021
2246 Clouds 12 1007 76 10000 5 50 22:47 14.06.2021
2247 Clouds 12 1007 76 10000 3 20 22:21 14.06.2021
2248 Clouds 11 1008 87 10000 4 60 21:57 14.06.2021
2249 Clouds 11 1008 87 10000 4 60 21:26 14.06.2021
2250 Rain 11 1010 87 10000 3 310 20:55 14.06.2021
2251 Rain 11 1010 87 10000 3 310 20:34 14.06.2021
2252 Rain 11 1010 87 10000 3 310 20:34 14.06.2021
2253 Clouds 11 1008 82 10000 2 0 19:46 14.06.2021
2254 Clouds 11 1008 82 10000 2 0 19:27 14.06.2021
2255 Rain 12 1009 87 10000 3 30 18:44 14.06.2021
2256 Clouds 12 1010 87 10000 4 330 18:20 14.06.2021
2257 Clouds 13 1009 76 10000 2 0 17:36 14.06.2021
2258 Rain 13 1008 82 10000 4 50 16:47 14.06.2021
2259 Clouds 13 1010 88 8000 1 0 15:53 14.06.2021
2260 Clouds 13 1010 88 8000 1 0 15:34 14.06.2021
2261 Clouds 14 1008 77 10000 1 0 14:52 14.06.2021
2262 Clouds 15 1008 72 10000 3 320 13:46 14.06.2021
2263 Clouds 16 1008 59 10000 1 0 13:20 14.06.2021
2264 Clouds 16 1008 59 10000 3 40 12:45 14.06.2021
2265 Clouds 17 1008 55 10000 4 20 11:56 14.06.2021
2266 Clouds 17 1008 59 10000 2 0 11:27 14.06.2021
2267 Clouds 15 1009 67 10000 3 10 10:20 14.06.2021
2268 Clouds 23 1001 31 10000 2.61 215 09:25 14.06.2021
2269 Rain 15 1010 67 10000 7 310 08:43 14.06.2021
2270 Clouds 19 1008 42 10000 6 290 07:54 14.06.2021
2271 Clouds 21 1008 37 10000 2 0 07:19 14.06.2021
2272 Clouds 18 1009 59 10000 4 270 05:19 14.06.2021
2273 Clear 15 1009 67 10000 2 0 02:37 14.06.2021
2274 Clear 8 1009 93 10000 1 0 23:56 13.06.2021
2275 Clear 7 1009 93 10000 2 150 23:24 13.06.2021
2276 Clear 7 1009 87 10000 2 150 22:41 13.06.2021
2277 Clear 7 1009 87 10000 2 150 22:20 13.06.2021
2278 Clear 7 1009 87 10000 1 0 21:50 13.06.2021
2279 Clear 7 1009 87 10000 1 0 21:32 13.06.2021
2280 Clear 10 1008 81 10000 1 0 20:47 13.06.2021
2281 Clear 10 1008 81 10000 1 0 20:29 13.06.2021
2282 Clear 11 1009 82 10000 1 0 19:47 13.06.2021
2283 Clear 11 1009 82 10000 1 0 19:29 13.06.2021
2284 Clear 12 1008 82 10000 2 300 18:52 13.06.2021
2285 Clear 12 1008 82 10000 2 300 18:22 13.06.2021
2286 Clear 13 1008 71 10000 1 0 17:27 13.06.2021
2287 Clouds 15 1008 67 10000 2 0 16:38 13.06.2021
2288 Clouds 16 1008 63 10000 2 0 15:39 13.06.2021
2289 Clouds 18 1007 59 10000 5 330 14:46 13.06.2021
2290 Clouds 20 1007 49 10000 5 340 13:53 13.06.2021
2291 Clouds 20 1007 49 10000 5 340 13:25 13.06.2021
2292 Clouds 20 1007 49 10000 5 340 13:25 13.06.2021
2293 Clouds 20 1006 49 10000 5 340 12:51 13.06.2021
2294 Clouds 20 1006 49 10000 5 340 12:30 13.06.2021
2295 Clouds 22 1006 46 10000 4 340 11:45 13.06.2021
2296 Clouds 21 1006 46 10000 2 0 10:48 13.06.2021
2297 Rain 21 1006 46 10000 2 0 10:29 13.06.2021
2298 Rain 21 1006 49 10000 2 0 09:48 13.06.2021
2299 Clouds 21 1006 49 10000 2 0 09:26 13.06.2021
2300 Rain 20 1007 52 10000 1 0 08:51 13.06.2021
2301 Clouds 20 1007 52 10000 1 0 08:30 13.06.2021
2302 Clouds 19 1007 52 10000 1 0 07:26 13.06.2021
2303 Rain 15 1008 77 10000 2 330 04:19 13.06.2021
2304 Clouds 18 1007 48 10000 7 140 23:49 12.06.2021
2305 Clouds 20 1006 37 10000 9 130 22:49 12.06.2021
2306 Rain 20 1006 37 10000 9 130 22:23 12.06.2021
2307 Rain 21 1006 32 10000 8 130 21:43 12.06.2021
2308 Rain 21 1006 32 10000 9 130 20:49 12.06.2021
2309 Clouds 21 1006 32 10000 9 130 20:21 12.06.2021
2310 Rain 19 1007 42 10000 1 0 19:47 12.06.2021
2311 Clouds 21 1008 35 10000 5 140 18:51 12.06.2021
2312 Clouds 21 1008 35 10000 5 140 18:22 12.06.2021
2313 Clouds 21 1008 35 10000 7 130 17:31 12.06.2021
2314 Rain 20 1008 40 10000 6 130 16:45 12.06.2021
2315 Rain 20 1008 42 10000 3 80 15:39 12.06.2021
2316 Rain 20 1009 49 10000 2 160 14:49 12.06.2021
2317 Clouds 20 1009 49 10000 2 160 14:28 12.06.2021
2318 Clouds 20 1008 42 10000 7 150 13:26 12.06.2021
2319 Clouds 20 1008 45 10000 6 170 12:39 12.06.2021
2320 Clouds 24 1009 33 10000 7 200 12:21 12.06.2021
2321 Clouds 24 1009 33 10000 7 200 12:21 12.06.2021
2322 Clouds 25 1008 27 10000 2 0 11:29 12.06.2021
2323 Clouds 25 1008 29 10000 2 0 10:39 12.06.2021
2324 Clouds 24 1009 31 10000 2 60 10:20 12.06.2021
2325 Clouds 23 1009 31 10000 2 340 09:36 12.06.2021
2326 Clouds 23 1010 35 10000 1 0 08:25 12.06.2021
2327 Clouds 20 1011 40 10000 2 0 06:45 12.06.2021
2328 Clouds 14 1014 67 10000 1 0 03:24 12.06.2021
2329 Clear 7 1013 93 10000 1 0 23:29 11.06.2021
2330 Clear 8 1013 87 10000 0 0 22:25 11.06.2021
2331 Clear 9 1013 87 10000 1 0 21:49 11.06.2021
2332 Clear 9 1013 87 10000 1 0 21:29 11.06.2021
2333 Clear 9 1012 87 10000 2 0 20:43 11.06.2021
2334 Clear 9 1012 87 10000 1 0 19:56 11.06.2021
2335 Clear 11 1012 82 10000 1 0 18:54 11.06.2021
2336 Clear 11 1012 82 10000 1 0 18:25 11.06.2021
2337 Clear 13 1011 71 10000 4 350 17:18 11.06.2021
2338 Clear 15 1011 63 10000 2 0 16:31 11.06.2021
2339 Clear 15 1011 63 10000 2 0 16:31 11.06.2021
2340 Clouds 16 1010 63 10000 5 340 15:23 11.06.2021
2341 Clouds 18 1009 52 10000 5 350 14:32 11.06.2021
2342 Clouds 18 1009 52 10000 4 330 13:27 11.06.2021
2343 Rain 20 1008 42 10000 7 340 12:27 11.06.2021
2344 Clouds 20 1007 40 10000 8 350 11:33 11.06.2021
2345 Clouds 21 1007 43 10000 8 340 10:36 11.06.2021
2346 Clouds 20 1007 56 10000 3 30 09:31 11.06.2021
2347 Rain 19 1006 52 10000 5 340 08:35 11.06.2021
2348 Rain 21 1006 46 10000 3 260 07:36 11.06.2021
2349 Clouds 18 1006 52 10000 2 0 03:35 11.06.2021
2350 Clouds 14 1005 67 10000 1 0 23:33 10.06.2021
2351 Clouds 15 1005 58 10000 3 130 22:42 10.06.2021
2352 Clouds 16 1005 55 10000 4 140 21:52 10.06.2021
2353 Clouds 16 1005 55 10000 4 140 21:20 10.06.2021
2354 Clouds 15 1005 58 10000 1 0 20:44 10.06.2021
2355 Rain 16 1005 55 10000 5 140 19:31 10.06.2021
2356 Rain 17 1005 51 10000 8 140 18:54 10.06.2021
2357 Rain 17 1005 51 10000 6 140 18:28 10.06.2021
2358 Rain 16 1006 55 10000 6 140 17:34 10.06.2021
2359 Clouds 17 1006 48 10000 3 140 16:47 10.06.2021
2360 Clouds 17 1006 48 10000 1.87 163 15:58 10.06.2021
2361 Clouds 18 1006 52 10000 4.73 192 14:24 10.06.2021
2362 Clouds 19 1006 48 10000 6.08 207 12:54 10.06.2021
2363 Clouds 18 1006 48 10000 5.21 163 12:23 10.06.2021
2364 Clouds 23 1006 27 10000 6.86 173 11:22 10.06.2021
2365 Clouds 22 1006 23 10000 6.48 142 09:42 10.06.2021
2366 Clouds 22 1008 26 10000 5.06 122 05:53 10.06.2021
2367 Clear 5 1010 87 10000 2.26 98 00:25 10.06.2021
2368 Clear 5 1010 87 10000 2.26 98 23:30 09.06.2021
2369 Clear 5 1010 81 10000 1.92 95 22:27 09.06.2021
2370 Clear 4 1010 93 10000 2.2 90 21:34 09.06.2021
2371 Clear 6 1010 87 10000 1.64 94 20:56 09.06.2021
2372 Clear 6 1010 87 10000 1.64 94 20:30 09.06.2021
2373 Clear 7 1010 81 10000 1.86 98 19:48 09.06.2021
2374 Clear 9 1011 76 10000 1.74 94 18:39 09.06.2021
2375 Clear 12 1011 71 10000 1.64 67 15:48 09.06.2021
2376 Clear 12 1011 71 10000 1.73 47 15:29 09.06.2021
2377 Clear 19 1010 30 10000 1.49 1 14:27 09.06.2021
2378 Clouds 20 1010 26 10000 1.49 1 13:32 09.06.2021
2379 Clouds 21 1010 28 10000 2.24 324 12:46 09.06.2021
2380 Clouds 21 1010 28 10000 3.9 308 12:28 09.06.2021
2381 Clouds 21 1011 30 10000 4.87 295 10:26 09.06.2021
2382 Clouds 20 1012 32 10000 4.99 294 08:55 09.06.2021
2383 Clouds 19 1012 42 10000 3.46 296 07:53 09.06.2021
2384 Clouds 17 1013 48 10000 3.02 270 06:23 09.06.2021
2385 Clouds 4 1014 93 10000 1.42 286 23:25 08.06.2021
2386 Clear 5 1014 93 10000 1.42 286 22:47 08.06.2021
2387 Clear 5 1014 93 10000 1.75 283 22:18 08.06.2021
2388 Clouds 7 1014 81 10000 1.44 297 20:39 08.06.2021
2389 Clouds 8 1014 76 10000 2.21 286 18:20 08.06.2021
2390 Clouds 8 1014 76 10000 2.21 286 17:49 08.06.2021
2391 Clouds 8 1014 76 10000 2.21 286 17:49 08.06.2021
2392 Clouds 9 1014 71 10000 2.51 305 16:29 08.06.2021
2393 Clouds 10 1013 76 10000 2.89 308 14:36 08.06.2021
2394 Clouds 10 1013 76 10000 4.2 319 12:41 08.06.2021
2395 Clouds 8 1013 81 10000 5.94 322 10:48 08.06.2021
2396 Clouds 7 1011 76 10000 5.41 313 05:44 08.06.2021
2397 Rain 4 1010 87 10000 3.56 289 01:56 08.06.2021
2398 Clouds 4 1009 81 10000 3.25 286 22:30 07.06.2021
2399 Rain 2 1010 87 10000 3.32 290 20:20 07.06.2021
2400 Clouds 3 1010 87 10000 3.32 291 18:30 07.06.2021
2401 Clouds 4 1009 87 6000 2.85 306 14:38 07.06.2021
2402 Clouds 6 1008 75 10000 3.01 306 12:39 07.06.2021
2403 Clouds 7 1007 65 10000 3.07 304 11:37 07.06.2021
2404 Clouds 8 1007 66 10000 3.86 317 10:21 07.06.2021
2405 Clouds 8 1008 66 10000 3.86 317 09:33 07.06.2021
2406 Clouds 9 1008 61 10000 4.74 328 08:19 07.06.2021
2407 Clouds 7 1008 70 10000 4.56 338 05:32 07.06.2021
2408 Rain 7 1006 76 10000 4.35 346 21:30 06.06.2021
2409 Clouds 8 1006 76 10000 4.3 345 19:57 06.06.2021
2410 Rain 7 1007 87 10000 3.88 333 18:20 06.06.2021
2411 Rain 10 1003 81 10000 4.03 344 16:38 06.06.2021
2412 Clouds 16 999 55 10000 3.28 354 13:47 06.06.2021
2413 Rain 18 998 52 10000 4.17 120 12:26 06.06.2021
2414 Clouds 29 995 17 10000 7.48 119 10:48 06.06.2021
2415 Clouds 29 995 15 10000 6.51 131 10:23 06.06.2021
2416 Clouds 29 995 15 10000 7.62 120 09:28 06.06.2021
2417 Clouds 29 995 14 10000 7.62 120 08:55 06.06.2021
2418 Clouds 28 996 17 10000 7.53 145 06:49 06.06.2021
2419 Clouds 28 996 17 10000 7.53 145 06:49 06.06.2021
2420 Clouds 21 996 24 10000 3.03 120 00:34 06.06.2021
2421 Clouds 20 997 26 10000 2.47 128 23:18 05.06.2021
2422 Clouds 20 998 26 10000 2.78 130 21:49 05.06.2021
2423 Clouds 21 998 24 10000 2.92 134 20:23 05.06.2021
2424 Clouds 20 999 34 10000 2.9 126 18:45 05.06.2021
2425 Clouds 22 998 15 10000 2.35 106 16:50 05.06.2021
2426 Clouds 23 998 15 10000 2.41 128 15:52 05.06.2021
2427 Clouds 26 998 13 10000 2.91 164 13:20 05.06.2021
2428 Clouds 27 999 11 10000 3 186 11:42 05.06.2021
2429 Clouds 28 1000 12 10000 2.99 189 09:32 05.06.2021
2430 Clouds 27 1001 12 10000 3.13 181 08:45 05.06.2021
2431 Clear 19 1005 32 10000 1.87 173 04:26 05.06.2021
2432 Clear 3 1006 81 10000 1.25 80 22:25 04.06.2021
2433 Clear 5 1006 70 10000 1.25 80 21:53 04.06.2021
2434 Clear 5 1006 75 10000 1.4 78 20:53 04.06.2021
2435 Clear 10 1006 53 10000 1.27 75 18:55 04.06.2021
2436 Clear 7 1006 65 10000 1.42 69 18:24 04.06.2021
2437 Clear 9 1006 61 10000 1.54 54 16:23 04.06.2021
2438 Clear 22 1006 18 10000 3.8 355 12:57 04.06.2021
2439 Clouds 23 1006 16 10000 5.33 339 11:32 04.06.2021
2440 Clouds 23 1008 20 10000 5.76 328 08:56 04.06.2021
2441 Clouds 22 1008 21 10000 5.49 329 07:22 04.06.2021
2442 Clear 12 1011 58 10000 0.94 309 02:29 04.06.2021
2443 Clear 4 1011 81 10000 0.68 46 22:41 03.06.2021
2444 Clear 6 1011 75 10000 1.39 16 20:40 03.06.2021
2445 Clear 6 1011 70 10000 1.3 23 19:54 03.06.2021
2446 Clear 8 1011 66 10000 1.41 25 19:18 03.06.2021
2447 Clear 9 1011 61 10000 1.54 29 17:35 03.06.2021
2448 Clear 16 1011 33 10000 2.34 1 15:21 03.06.2021
2449 Clouds 20 1010 30 10000 3.18 355 13:34 03.06.2021
2450 Clouds 21 1010 26 10000 6.61 334 11:24 03.06.2021
2451 Clouds 21 1011 23 10000 6.59 333 09:51 03.06.2021
2452 Clouds 20 1008 28 10000 6.37 330 08:57 03.06.2021
2453 Clouds 6 1017 93 10000 1.97 328 00:43 03.06.2021
2454 Clouds 6 1019 87 10000 1.72 319 22:57 02.06.2021
2455 Clear 4 1019 87 10000 1.7 307 21:44 02.06.2021
2456 Clear 4 1019 93 10000 1.74 328 20:56 02.06.2021
2457 Clear 4 1019 93 10000 1.43 330 20:25 02.06.2021
2458 Clouds 8 1019 76 10000 1.67 6 18:41 02.06.2021
2459 Rain 9 1020 71 10000 2.2 342 16:37 02.06.2021
2460 Clouds 11 1020 62 10000 2.39 330 14:34 02.06.2021
2461 Clouds 12 1018 54 10000 3.44 340 12:50 02.06.2021
2462 Clouds 11 1017 54 10000 4.58 340 11:18 02.06.2021
2463 Clouds 12 1017 54 10000 4.58 340 10:40 02.06.2021
2464 Clouds 11 1015 54 10000 5.48 339 09:49 02.06.2021
2465 Clouds 11 1015 54 10000 5.65 339 08:56 02.06.2021
2466 Clouds 10 1014 57 10000 6.06 341 08:18 02.06.2021
2467 Clouds 5 1014 70 10000 4.97 339 04:43 02.06.2021
2468 Clouds 3 1014 81 10000 4.23 340 03:33 02.06.2021
2469 Clouds 1 1013 86 10000 1.84 299 22:29 01.06.2021
2470 Clouds 4 1013 60 10000 2.46 302 20:51 01.06.2021
2471 Clouds 4 1011 56 10000 4.38 298 19:50 01.06.2021
2472 Clouds 4 1012 56 10000 1.59 275 17:30 01.06.2021
2473 Clouds 4 1013 52 10000 1.79 329 16:22 01.06.2021
2474 Clouds 7 1011 33 10000 4.44 337 14:20 01.06.2021
2475 Clouds 8 1011 29 10000 5.9 334 12:40 01.06.2021
2476 Clouds 8 1010 29 10000 6.69 334 11:45 01.06.2021
2477 Clouds 8 1011 31 10000 7.62 335 11:21 01.06.2021
2478 Clouds 9 1010 31 10000 8.01 330 10:22 01.06.2021
2479 Clouds 9 1010 27 10000 7.98 330 09:26 01.06.2021
2480 Clouds 9 1011 29 10000 7 350 08:25 01.06.2021
2481 Clouds 7 1013 31 10000 5.56 335 05:24 01.06.2021
2482 Clear 0 1017 69 10000 2.44 360 23:42 31.05.2021
2483 Clear -1 1017 74 10000 2.72 6 23:22 31.05.2021
2484 Clear -3 1017 86 10000 2.72 6 22:35 31.05.2021
2485 Clear -2 1017 80 10000 2.21 6 21:24 31.05.2021
2486 Clear 0 1017 74 10000 2.54 18 20:24 31.05.2021
2487 Clear 0 1017 74 10000 2.54 18 20:24 31.05.2021
2488 Clear 0 1017 74 10000 2.36 12 19:23 31.05.2021
2489 Clear 1 1017 69 10000 2.03 16 17:58 31.05.2021
2490 Clear 2 1016 60 10000 2.36 19 16:56 31.05.2021
2491 Clear 4 1016 52 10000 2.48 6 16:19 31.05.2021
2492 Clouds 8 1012 36 10000 2.72 15 13:54 31.05.2021
2493 Clouds 8 1011 31 10000 4.12 3 13:22 31.05.2021
2494 Clouds 9 1011 29 10000 4.12 3 12:35 31.05.2021
2495 Clouds 9 1010 29 10000 4.67 356 11:48 31.05.2021
2496 Clouds 10 1010 29 10000 5.01 358 10:41 31.05.2021
2497 Clouds 9 1011 31 10000 5.18 352 09:40 31.05.2021
2498 Clouds 9 1011 31 10000 4.95 345 08:30 31.05.2021
2499 Clouds 9 1011 34 10000 5.68 331 07:53 31.05.2021
2500 Clouds 9 1011 34 10000 5.68 331 07:34 31.05.2021
2501 Clouds 2 1016 75 10000 2.54 350 00:51 31.05.2021
2502 Clouds 1 1016 80 10000 2.54 6 23:23 30.05.2021
2503 Clouds 1 1016 80 10000 2.54 6 22:35 30.05.2021
2504 Clear 2 1016 75 10000 2.62 359 21:49 30.05.2021
2505 Clear 2 1016 75 10000 2.62 359 21:30 30.05.2021
2506 Clear 2 1016 75 10000 2.53 340 20:56 30.05.2021
2507 Clear 2 1016 75 10000 2.53 340 20:36 30.05.2021
2508 Clear 2 1015 75 10000 2.61 346 19:51 30.05.2021
2509 Clear 2 1015 75 10000 2.35 352 18:57 30.05.2021
2510 Clear 3 1015 75 10000 2.46 10 18:19 30.05.2021
2511 Clear 2 1015 80 10000 2.55 1 16:57 30.05.2021
2512 Clouds 3 1015 75 10000 2.55 1 16:34 30.05.2021
2513 Clouds 4 1014 75 10000 2.67 347 15:52 30.05.2021
2514 Clouds 5 1013 70 10000 3.29 359 14:59 30.05.2021
2515 Clouds 7 1011 61 10000 4.52 355 13:36 30.05.2021
2516 Clouds 8 1011 61 10000 3.78 352 12:19 30.05.2021
2517 Clouds 7 1010 65 10000 3.88 346 11:18 30.05.2021
2518 Rain 6 1010 70 10000 3.88 346 10:38 30.05.2021
2519 Clouds 6 1011 70 10000 3.35 340 09:58 30.05.2021
2520 Clouds 7 1011 70 10000 3.35 340 09:39 30.05.2021
2521 Clouds 7 1011 76 10000 3.51 327 09:18 30.05.2021
2522 Rain 6 1009 87 10000 3.31 331 07:46 30.05.2021
2523 Clouds 5 1010 87 10000 1.42 157 04:23 30.05.2021
2524 Rain 5 1008 70 10000 2.34 117 00:51 30.05.2021
2525 Clouds 4 1010 75 10000 2.02 108 23:37 29.05.2021
2526 Clouds 5 1010 70 10000 2.36 102 22:25 29.05.2021
2527 Clear 3 1010 75 10000 2.36 102 21:53 29.05.2021
2528 Clear 3 1010 75 10000 2.21 107 21:18 29.05.2021
2529 Clear 3 1010 75 10000 2.21 107 21:18 29.05.2021
2530 Clear 3 1010 75 10000 1.72 123 20:42 29.05.2021
2531 Clear 3 1010 75 10000 1.8 114 20:23 29.05.2021
2532 Clear 4 1010 75 10000 1.8 114 19:39 29.05.2021
2533 Clear 5 1010 65 10000 2.56 87 18:18 29.05.2021
2534 Clear 3 1012 75 10000 2.05 101 16:58 29.05.2021
2535 Clear 4 1013 75 10000 0.66 59 15:53 29.05.2021
2536 Clear 10 1013 50 10000 0.94 8 14:50 29.05.2021
2537 Clouds 10 1011 53 10000 1.22 10 13:52 29.05.2021
2538 Clouds 10 1011 53 10000 2.91 354 12:48 29.05.2021
2539 Clouds 10 1011 53 10000 4.14 349 12:28 29.05.2021
2540 Clouds 10 1011 53 10000 4.14 349 11:51 29.05.2021
2541 Clouds 9 1011 61 10000 5.51 349 11:24 29.05.2021
2542 Clouds 8 1011 66 10000 5.51 349 10:48 29.05.2021
2543 Clouds 9 1011 66 10000 6.44 344 10:25 29.05.2021
2544 Clouds 9 1011 66 10000 6.86 339 09:22 29.05.2021
2545 Clouds 9 1011 66 10000 6.86 339 08:50 29.05.2021
2546 Clouds 9 1011 71 10000 7 340 07:39 29.05.2021
2547 Clouds 9 1011 71 10000 6.58 339 06:48 29.05.2021
2548 Clouds 8 1007 71 10000 2.23 164 00:35 29.05.2021
2549 Clouds 7 1006 70 10000 2.44 154 23:49 28.05.2021
2550 Clouds 9 1006 66 10000 1.74 167 21:50 28.05.2021
2551 Clouds 9 1006 66 10000 1.74 167 21:31 28.05.2021
2552 Clouds 10 1004 53 10000 1.69 107 20:27 28.05.2021
2553 Clouds 10 1004 53 10000 1.69 107 19:48 28.05.2021
2554 Clouds 10 1004 53 10000 3.65 119 19:29 28.05.2021
2555 Clouds 10 1004 57 10000 3.65 119 18:42 28.05.2021
2556 Clouds 12 1005 50 10000 2.66 140 18:23 28.05.2021
2557 Clouds 12 1004 50 10000 1.76 126 17:24 28.05.2021
2558 Clouds 11 1004 62 10000 1.76 126 16:33 28.05.2021
2559 Clear 12 1003 58 10000 1.97 115 15:42 28.05.2021
2560 Clear 15 1002 47 10000 1.34 110 14:59 28.05.2021
2561 Clouds 14 1002 54 10000 1.34 110 14:36 28.05.2021
2562 Clouds 17 1001 39 10000 1.33 43 13:45 28.05.2021
2563 Clouds 18 1000 34 10000 2.79 22 12:57 28.05.2021
2564 Clouds 18 1000 34 10000 4.41 354 12:25 28.05.2021
2565 Clouds 18 1000 34 10000 4.41 354 11:32 28.05.2021
2566 Clouds 18 1001 34 10000 5.46 356 10:52 28.05.2021
2567 Clouds 18 1001 34 10000 6.77 359 10:24 28.05.2021
2568 Clouds 20 1000 32 10000 7.86 351 09:29 28.05.2021
2569 Clouds 20 1000 34 10000 7.86 351 08:47 28.05.2021
2570 Clouds 20 999 32 10000 7.85 325 08:23 28.05.2021
2571 Clouds 19 999 32 10000 7.85 325 07:38 28.05.2021
2572 Clouds 19 999 34 10000 7.08 317 06:50 28.05.2021
2573 Clouds 19 1000 34 10000 5.6 310 05:57 28.05.2021
2574 Clouds 14 1002 41 10000 3.56 309 03:32 28.05.2021
2575 Clouds 3 1006 81 10000 1.59 136 23:42 27.05.2021
2576 Clouds 5 1006 75 10000 1.51 141 22:45 27.05.2021
2577 Clouds 6 1007 70 10000 1.65 131 22:20 27.05.2021
2578 Clouds 6 1007 70 10000 1.65 131 21:43 27.05.2021
2579 Clouds 6 1008 70 10000 1.94 149 21:24 27.05.2021
2580 Clouds 6 1008 70 10000 1.94 149 20:42 27.05.2021
2581 Clouds 6 1008 75 10000 2.1 155 20:18 27.05.2021
2582 Clouds 6 1008 75 10000 2.1 155 19:30 27.05.2021
2583 Clouds 5 1009 70 10000 1.69 165 18:40 27.05.2021
2584 Clouds 5 1009 70 10000 1.69 165 18:40 27.05.2021
2585 Clouds 5 1009 70 10000 1.49 163 18:20 27.05.2021
2586 Clouds 7 1009 57 10000 1.39 153 17:25 27.05.2021
2587 Clouds 5 1009 70 10000 1.39 153 16:48 27.05.2021
2588 Clouds 6 1009 70 10000 1.63 173 16:27 27.05.2021
2589 Clouds 11 1010 40 10000 0.24 175 15:23 27.05.2021
2590 Clouds 11 1010 43 10000 0.24 175 14:58 27.05.2021
2591 Clouds 11 1009 43 10000 0.97 238 14:31 27.05.2021
2592 Clouds 12 1009 37 10000 1.79 310 13:54 27.05.2021
2593 Clouds 13 1009 28 10000 4.21 321 13:21 27.05.2021
2594 Clouds 13 1009 28 10000 4.21 321 12:58 27.05.2021
2595 Clouds 13 1009 28 10000 4.21 321 12:40 27.05.2021
2596 Clouds 13 1008 28 10000 6.42 332 12:21 27.05.2021
2597 Clouds 13 1009 30 10000 7.6 335 11:29 27.05.2021
2598 Clouds 13 1009 28 10000 7.6 335 10:54 27.05.2021
2599 Clouds 13 1009 28 10000 8.59 334 10:26 27.05.2021
2600 Clouds 12 1009 30 10000 8.59 334 09:53 27.05.2021
2601 Clouds 11 1009 32 10000 9.4 332 08:52 27.05.2021
2602 Clouds 11 1009 35 10000 9.96 333 08:26 27.05.2021
2603 Clouds 10 1009 40 10000 9.21 336 06:31 27.05.2021
2604 Clouds 5 1010 75 10000 6.43 339 01:54 27.05.2021
2605 Clouds 5 1010 75 10000 6.09 337 00:34 27.05.2021
2606 Clouds 5 1009 75 10000 5.38 338 23:29 26.05.2021
2607 Clouds 5 1009 70 10000 5.38 338 22:50 26.05.2021
2608 Clouds 5 1009 70 10000 5.38 338 22:31 26.05.2021
2609 Clouds 5 1008 70 10000 5.74 336 21:42 26.05.2021
2610 Clouds 5 1007 75 10000 6 336 21:23 26.05.2021
2611 Clouds 5 1007 75 10000 6 336 20:58 26.05.2021
2612 Clouds 5 1006 75 10000 9 340 20:39 26.05.2021
2613 Rain 6 1005 75 10000 6.38 338 20:20 26.05.2021
2614 Clouds 6 1005 75 10000 6.38 338 19:43 26.05.2021
2615 Clouds 6 1004 81 10000 5.47 338 19:19 26.05.2021
2616 Clouds 7 1004 81 10000 5.47 338 18:31 26.05.2021
2617 Rain 6 1004 87 10000 3.94 337 17:36 26.05.2021
2618 Clouds 6 1003 87 10000 3.3 337 16:50 26.05.2021
2619 Clouds 7 1002 81 10000 2.56 343 16:23 26.05.2021
2620 Rain 7 1002 76 10000 2.56 343 15:57 26.05.2021
2621 Clouds 7 1002 76 10000 2.56 343 15:36 26.05.2021
2622 Rain 7 1002 81 10000 1.59 41 15:18 26.05.2021
2623 Clouds 7 1002 87 8000 1.59 41 14:41 26.05.2021
2624 Rain 8 1001 81 8000 4.87 330 14:19 26.05.2021
2625 Rain 9 1001 71 8000 4.87 330 13:41 26.05.2021
2626 Rain 9 999 71 10000 5.35 290 12:34 26.05.2021
2627 Clouds 15 999 36 10000 6.11 303 11:56 26.05.2021
2628 Clouds 15 999 33 10000 6.11 303 11:31 26.05.2021
2629 Clouds 15 999 33 10000 5.71 284 10:58 26.05.2021
2630 Clouds 15 999 33 10000 5.71 284 10:36 26.05.2021
2631 Clouds 15 999 36 10000 6.64 284 09:57 26.05.2021
2632 Rain 15 999 36 10000 6.64 284 09:39 26.05.2021
2633 Clouds 13 1000 38 10000 6.47 285 08:58 26.05.2021
2634 Clouds 13 1001 38 10000 6.64 290 08:18 26.05.2021
2635 Clouds 14 1001 35 10000 6.64 290 07:34 26.05.2021
2636 Clouds 11 1003 50 10000 6.65 294 05:50 26.05.2021
2637 Clouds 4 1009 75 10000 1.44 252 01:40 26.05.2021
2638 Clouds 0 1010 93 10000 1.4 307 23:48 25.05.2021
2639 Clouds 3 1010 87 10000 2.09 309 22:54 25.05.2021
2640 Clouds 3 1010 87 10000 2.5 320 22:21 25.05.2021
2641 Clouds 3 1010 87 10000 2.5 320 21:43 25.05.2021
2642 Clouds 3 1010 87 10000 3.16 317 21:24 25.05.2021
2643 Clouds 3 1010 87 10000 3.16 317 20:37 25.05.2021
2644 Clouds 3 1011 90 10000 2.27 316 19:53 25.05.2021
2645 Clouds 3 1011 90 10000 2.27 316 19:34 25.05.2021
2646 Clouds 6 1010 70 10000 3.28 329 18:56 25.05.2021
2647 Clouds 6 1010 70 10000 3.28 329 18:37 25.05.2021
2648 Clouds 6 1010 70 10000 4.31 331 17:52 25.05.2021
2649 Clouds 6 1010 65 10000 4.74 331 16:50 25.05.2021
2650 Clouds 6 1010 65 10000 4.74 331 16:32 25.05.2021
2651 Clouds 7 1009 61 10000 5.52 334 15:57 25.05.2021
2652 Clouds 8 1009 61 10000 6.59 324 15:28 25.05.2021
2653 Clouds 9 1009 57 10000 6.59 324 14:56 25.05.2021
2654 Clouds 9 1008 57 10000 6.56 325 14:36 25.05.2021
2655 Clouds 11 1004 40 10000 2.72 325 13:54 25.05.2021
2656 Clouds 11 1004 40 10000 2.72 325 13:32 25.05.2021
2657 Clouds 12 1003 37 10000 4.04 340 12:47 25.05.2021
2658 Clouds 13 1002 35 10000 5.41 358 12:27 25.05.2021
2659 Clouds 13 1002 38 10000 5.41 358 11:42 25.05.2021
2660 Clouds 12 1002 43 10000 6.98 353 11:21 25.05.2021
2661 Clouds 13 1002 41 10000 6.98 353 10:42 25.05.2021
2662 Rain 14 1002 38 10000 7.24 354 09:54 25.05.2021
2663 Clouds 12 1002 47 10000 7.56 351 09:26 25.05.2021
2664 Rain 13 1003 38 10000 7.08 348 07:57 25.05.2021
2665 Clouds 13 1003 71 10000 5.98 335 06:50 25.05.2021
2666 Clouds 9 1002 67 10000 6.06 326 03:41 25.05.2021
2667 Clouds 6 1003 83 10000 2.26 316 00:47 25.05.2021
2668 Clouds 6 1003 91 10000 2.02 311 23:38 24.05.2021
2669 Rain 7 1002 92 10000 2.26 323 22:59 24.05.2021
2670 Clouds 7 1002 92 10000 2.26 323 22:36 24.05.2021
2671 Clouds 6 1002 89 10000 1.87 307 21:58 24.05.2021
2672 Clouds 6 1001 93 10000 2.48 331 21:22 24.05.2021
2673 Clouds 7 1001 84 10000 2.52 329 20:51 24.05.2021
2674 Clouds 7 1000 89 10000 2.72 331 20:23 24.05.2021
2675 Clouds 7 1000 89 10000 2.72 331 19:50 24.05.2021
2676 Clouds 7 1000 89 10000 2.72 331 19:31 24.05.2021
2677 Clouds 7 1000 92 10000 1.59 336 18:58 24.05.2021
2678 Clouds 7 1000 92 10000 1.59 336 18:32 24.05.2021
2679 Clouds 8 1000 89 10000 1.52 289 17:54 24.05.2021
2680 Rain 9 1000 77 10000 1.37 230 17:24 24.05.2021
2681 Clouds 11 1000 77 10000 1.37 230 16:47 24.05.2021
2682 Clouds 11 1000 65 10000 1.54 252 15:54 24.05.2021
2683 Clouds 10 1001 58 10000 1.85 236 15:24 24.05.2021
2684 Rain 11 1003 43 10000 4 270 14:42 24.05.2021
2685 Rain 11 1001 52 10000 1.53 310 13:58 24.05.2021
2686 Clouds 11 1001 52 10000 1.53 310 13:40 24.05.2021
2687 Clouds 11 1002 46 10000 4.47 306 13:18 24.05.2021
2688 Clouds 11 1002 43 10000 6.59 298 12:29 24.05.2021
2689 Clouds 10 1002 43 10000 6.59 298 11:50 24.05.2021
2690 Clouds 10 1004 37 10000 8.21 294 11:24 24.05.2021
2691 Clouds 9 1004 37 10000 8.21 294 10:53 24.05.2021
2692 Clouds 9 1004 29 10000 7.42 304 10:20 24.05.2021
2693 Clouds 9 1004 29 10000 7.42 304 09:41 24.05.2021
2694 Clouds 10 1006 30 10000 8.02 311 09:18 24.05.2021
2695 Clouds 8 1006 30 10000 8.02 311 08:36 24.05.2021
2696 Clouds 7 1009 26 10000 7.55 312 06:57 24.05.2021
2697 Clouds 3 1013 38 10000 5.77 319 04:27 24.05.2021
2698 Clouds 3 1013 38 10000 5.77 319 03:30 24.05.2021
2699 Clouds -1 1016 69 10000 3.07 316 00:44 24.05.2021
2700 Clouds -2 1017 83 10000 2.04 314 23:46 23.05.2021
2701 Clouds -2 1017 86 10000 2.2 317 23:21 23.05.2021
2702 Clouds 0 1017 86 10000 2.2 317 22:35 23.05.2021
2703 Clouds -2 1017 82 10000 2.15 317 21:56 23.05.2021
2704 Clouds -1 1017 74 10000 2.31 320 21:22 23.05.2021
2705 Clouds -1 1017 78 10000 2.6 318 20:56 23.05.2021
2706 Clouds -1 1017 78 10000 2.6 318 20:34 23.05.2021
2707 Clear 0 1017 73 10000 2.12 320 19:54 23.05.2021
2708 Clear 0 1017 73 10000 2.12 320 19:36 23.05.2021
2709 Clear -1 1017 70 10000 1.82 314 18:38 23.05.2021
2710 Clear -1 1017 68 10000 1.8 310 17:52 23.05.2021
2711 Clear -1 1017 68 10000 1.8 310 17:34 23.05.2021
2712 Clouds 1 1017 68 10000 1.58 323 16:54 23.05.2021
2713 Clouds 1 1017 66 10000 1.78 323 16:26 23.05.2021
2714 Clouds 1 1017 66 10000 1.78 323 15:59 23.05.2021
2715 Clouds 1 1017 66 10000 1.78 323 15:41 23.05.2021
2716 Clouds 2 1016 62 10000 1.81 356 15:22 23.05.2021
2717 Clouds 4 1016 54 10000 2.15 332 14:49 23.05.2021
2718 Clouds 4 1015 47 10000 3.39 330 14:24 23.05.2021
2719 Clouds 5 1015 47 10000 3.39 330 13:30 23.05.2021
2720 Clouds 5 1015 47 10000 3.39 330 13:30 23.05.2021
2721 Clouds 5 1014 42 10000 6.35 321 12:35 23.05.2021
2722 Clouds 5 1014 38 10000 6.02 330 11:59 23.05.2021
2723 Clouds 6 1013 26 10000 7.15 331 11:26 23.05.2021
2724 Clouds 8 1013 26 10000 7.15 331 10:43 23.05.2021
2725 Clouds 8 1013 27 10000 7.28 325 10:24 23.05.2021
2726 Clouds 7 1013 27 10000 7.28 325 09:43 23.05.2021
2727 Clouds 8 1014 38 10000 7.76 319 08:36 23.05.2021
2728 Clouds 6 1015 39 10000 8.17 319 07:47 23.05.2021
2729 Clouds 6 1015 40 10000 8.22 319 07:28 23.05.2021
2730 Clouds 4 1016 42 10000 8.04 318 05:42 23.05.2021
2731 Clouds 0 1018 54 10000 5.99 320 01:39 23.05.2021
2732 Clouds 0 1018 54 10000 5.99 320 01:39 23.05.2021
2733 Clouds -2 1019 69 10000 3.27 297 23:48 22.05.2021
2734 Clouds -2 1019 76 10000 2.86 285 23:23 22.05.2021
2735 Clouds -2 1019 76 10000 2.86 285 22:48 22.05.2021
2736 Clouds -2 1019 72 10000 3.4 292 22:29 22.05.2021
2737 Clouds -1 1019 72 10000 3.4 292 21:48 22.05.2021
2738 Clouds -1 1019 68 10000 4.7 310 21:25 22.05.2021
2739 Clouds -1 1018 62 10000 4.89 309 20:53 22.05.2021
2740 Clouds -1 1018 61 10000 5.56 321 20:24 22.05.2021
2741 Clouds -1 1018 61 10000 5.56 321 19:41 22.05.2021
2742 Clouds 0 1017 62 10000 6.11 321 19:22 22.05.2021
2743 Clouds 0 1017 62 10000 6.11 321 18:42 22.05.2021
2744 Clouds 0 1017 62 10000 6.72 320 17:58 22.05.2021
2745 Clouds 0 1017 62 10000 6.72 320 17:31 22.05.2021
2746 Clouds 1 1016 65 10000 6.87 323 16:52 22.05.2021
2747 Clouds 2 1016 67 10000 7.61 338 15:58 22.05.2021
2748 Clouds 2 1016 67 10000 7.61 338 15:32 22.05.2021
2749 Clouds 2 1015 70 10000 8.24 332 14:46 22.05.2021
2750 Clouds 2 1013 75 10000 9.45 334 14:24 22.05.2021
2751 Clouds 2 1013 75 10000 9.45 334 13:48 22.05.2021
2752 Clouds 2 1011 78 10000 10.09 332 12:53 22.05.2021
2753 Rain 1 1010 82 10000 9.94 329 12:25 22.05.2021
2754 Rain 1 1010 82 10000 9.94 329 11:50 22.05.2021
2755 Snow 0 1008 79 3200 10.82 333 10:52 22.05.2021
2756 Snow 0 1007 78 2000 11.56 341 10:29 22.05.2021
2757 Snow 0 1007 78 3000 11.56 341 09:39 22.05.2021
2758 Clouds -1 1005 81 2000 11.52 344 08:34 22.05.2021
2759 Clouds -1 1003 83 3000 9.67 339 07:49 22.05.2021
2760 Snow -1 1002 75 3000 7.43 339 06:37 22.05.2021
2761 Clouds 2 1004 91 10000 3.44 304 03:25 22.05.2021
2762 Clouds 2 1003 92 10000 2.66 318 00:29 22.05.2021
2763 Clouds 2 1003 92 10000 3.23 339 23:25 21.05.2021
2764 Clouds 2 1003 92 10000 3.23 339 22:31 21.05.2021
2765 Clouds 2 1003 91 10000 3.37 330 21:51 21.05.2021
2766 Clouds 2 1001 87 10000 4.21 346 21:27 21.05.2021
2767 Clouds 2 1001 87 10000 4.21 346 21:27 21.05.2021
2768 Clouds 4 1001 87 10000 4.21 346 20:58 21.05.2021
2769 Clouds 4 1001 87 10000 3.04 312 20:39 21.05.2021
2770 Clouds 4 1000 84 10000 2.66 337 20:20 21.05.2021
2771 Clouds 7 1000 84 10000 2.66 337 19:31 21.05.2021
2772 Clouds 8 1000 84 10000 2.62 349 18:57 21.05.2021
2773 Clouds 8 1000 84 10000 2.62 349 18:30 21.05.2021
2774 Clouds 8 1000 81 10000 2.15 335 17:55 21.05.2021
2775 Clouds 10 1000 81 10000 2.15 335 17:32 21.05.2021
2776 Rain 10 999 79 10000 1.59 43 16:46 21.05.2021
2777 Rain 10 1000 76 10000 3.02 48 16:26 21.05.2021
2778 Clouds 12 1000 76 10000 3.02 48 15:46 21.05.2021
2779 Clouds 12 1000 81 10000 2.3 10 15:27 21.05.2021
2780 Clouds 12 998 64 10000 4.13 356 14:54 21.05.2021
2781 Clouds 12 998 64 10000 4.13 356 14:34 21.05.2021
2782 Clouds 13 997 55 10000 5.28 333 13:37 21.05.2021
2783 Clouds 14 996 48 10000 4.89 345 12:56 21.05.2021
2784 Clouds 14 995 43 10000 5.2 343 12:21 21.05.2021
2785 Rain 14 995 43 10000 5.2 343 11:36 21.05.2021
2786 Clouds 17 995 35 10000 4.86 341 10:53 21.05.2021
2787 Rain 18 995 35 10000 4.86 341 10:30 21.05.2021
2788 Clouds 19 995 32 10000 4.54 318 09:36 21.05.2021
2789 Clouds 18 995 31 10000 4.16 325 08:48 21.05.2021
2790 Clouds 18 996 32 10000 4.42 332 08:23 21.05.2021
2791 Clouds 17 996 35 10000 4.9 329 07:29 21.05.2021
2792 Clouds 16 997 43 10000 4.98 326 05:59 21.05.2021
2793 Clear 15 995 42 10000 2.75 287 01:34 21.05.2021
2794 Clouds 14 993 42 10000 2.83 238 00:24 21.05.2021
2795 Clouds 13 993 42 10000 2.83 238 23:41 20.05.2021
2796 Clouds 12 993 37 10000 3.18 228 23:19 20.05.2021
2797 Clear 15 993 37 10000 3.18 228 22:47 20.05.2021
2798 Clear 15 992 34 10000 2.73 205 22:29 20.05.2021
2799 Clear 14 992 34 10000 2.73 205 21:49 20.05.2021
2800 Clear 14 992 32 10000 2.68 208 21:20 20.05.2021
2801 Clouds 15 992 32 10000 2.68 208 20:40 20.05.2021
2802 Clouds 15 991 29 10000 3.34 210 20:21 20.05.2021
2803 Clouds 16 991 29 10000 3.34 210 19:48 20.05.2021
2804 Clouds 16 991 25 10000 3.71 225 19:25 20.05.2021
2805 Clouds 19 991 25 10000 3.71 225 18:41 20.05.2021
2806 Clouds 19 991 23 10000 3.82 213 18:19 20.05.2021
2807 Clouds 20 991 23 10000 3.82 213 17:42 20.05.2021
2808 Clouds 21 990 23 10000 3.14 181 17:20 20.05.2021
2809 Clouds 22 990 23 10000 3.14 181 16:32 20.05.2021
2810 Clouds 22 990 24 10000 2.66 175 15:48 20.05.2021
2811 Clouds 22 990 24 10000 2.69 209 15:27 20.05.2021
2812 Clouds 23 990 24 10000 2.69 209 14:48 20.05.2021
2813 Clouds 25 990 22 10000 5.04 239 14:22 20.05.2021
2814 Clouds 26 990 22 10000 5.04 239 13:43 20.05.2021
2815 Clouds 26 989 18 10000 8.35 232 12:58 20.05.2021
2816 Clouds 26 989 18 10000 8.35 232 12:37 20.05.2021
2817 Clouds 25 988 17 10000 8.43 230 12:18 20.05.2021
2818 Clouds 26 989 16 10000 8.92 220 11:22 20.05.2021
2819 Clouds 27 989 16 10000 8.92 220 10:58 20.05.2021
2820 Clouds 27 989 16 10000 8.92 220 10:37 20.05.2021
2821 Clouds 27 990 15 10000 9.82 228 10:19 20.05.2021
2822 Clouds 27 994 12 10000 6 240 09:42 20.05.2021
2823 Clouds 27 990 16 10000 8.78 226 09:24 20.05.2021
2824 Clouds 27 990 16 10000 8.78 226 08:54 20.05.2021
2825 Clouds 27 990 16 10000 8.78 226 08:34 20.05.2021
2826 Clouds 26 992 18 10000 7.11 233 07:52 20.05.2021
2827 Clouds 26 993 20 10000 6.92 228 07:28 20.05.2021
2828 Clouds 25 993 20 10000 6.92 228 06:47 20.05.2021
2829 Clear 24 994 23 10000 6.86 217 05:46 20.05.2021
2830 Clear 23 995 25 10000 5.48 207 04:35 20.05.2021
2831 Clear 10 998 46 10000 1.69 142 01:36 20.05.2021
2832 Clear 4 999 60 10000 1.64 144 00:20 20.05.2021
2833 Clear 3 999 60 10000 1.64 144 23:47 19.05.2021
2834 Clouds 3 999 60 10000 1.91 145 23:21 19.05.2021
2835 Clouds 5 999 60 10000 1.91 145 22:42 19.05.2021
2836 Clouds 4 999 59 10000 1.84 141 22:21 19.05.2021
2837 Clouds 6 999 59 10000 1.84 141 21:47 19.05.2021
2838 Clouds 6 999 58 10000 2.08 132 21:23 19.05.2021
2839 Clouds 6 999 59 10000 2.26 126 20:59 19.05.2021
2840 Clouds 6 999 59 10000 2.26 126 20:59 19.05.2021
2841 Clouds 6 999 58 10000 2.28 130 20:27 19.05.2021
2842 Clear 7 999 58 10000 2.28 130 19:55 19.05.2021
2843 Clear 7 1000 59 10000 2.06 138 19:27 19.05.2021
2844 Clear 9 1000 59 10000 2.06 138 18:54 19.05.2021
2845 Clear 9 1000 59 10000 2.06 138 18:34 19.05.2021
2846 Clear 10 1000 59 10000 1.86 128 17:59 19.05.2021
2847 Clear 10 1000 58 10000 1.94 111 17:24 19.05.2021
2848 Clouds 11 1000 58 10000 1.94 111 16:49 19.05.2021
2849 Clouds 11 1000 58 10000 1.94 111 16:30 19.05.2021
2850 Clouds 11 1001 57 10000 1.55 100 15:52 19.05.2021
2851 Clouds 15 1001 57 10000 1.55 100 15:31 19.05.2021
2852 Clouds 17 1000 52 10000 1.62 89 14:55 19.05.2021
2853 Clouds 17 999 50 10000 1.54 49 14:22 19.05.2021
2854 Clouds 18 999 50 10000 1.54 49 13:44 19.05.2021
2855 Clouds 18 999 43 10000 2.26 1 13:25 19.05.2021
2856 Clouds 19 999 43 10000 2.26 1 12:42 19.05.2021
2857 Clouds 19 998 37 10000 3.84 340 12:21 19.05.2021
2858 Clouds 19 998 37 10000 3.84 340 11:43 19.05.2021
2859 Clouds 19 998 35 10000 4.84 335 11:25 19.05.2021
2860 Clouds 19 998 35 10000 4.84 335 10:58 19.05.2021
2861 Clouds 19 998 35 10000 4.84 335 10:37 19.05.2021
2862 Clouds 20 998 35 10000 5.68 323 09:57 19.05.2021
2863 Clouds 20 998 36 10000 5.95 311 09:25 19.05.2021
2864 Clouds 19 998 35 10000 6.21 307 08:55 19.05.2021
2865 Clouds 19 998 35 10000 6.21 307 08:35 19.05.2021
2866 Clouds 19 998 37 10000 6.58 306 07:55 19.05.2021
2867 Clouds 19 998 36 10000 7.31 305 06:51 19.05.2021
2868 Clouds 19 998 35 10000 7.94 305 06:26 19.05.2021
2869 Clouds 16 999 42 10000 7.25 291 03:57 19.05.2021
2870 Clouds 9 1000 51 10000 3.79 260 01:36 19.05.2021
2871 Clouds 5 1000 66 10000 1.91 230 00:31 19.05.2021
2872 Clouds 4 1000 71 10000 1.67 204 23:40 18.05.2021
2873 Clear 4 1001 72 10000 1.73 179 22:58 18.05.2021
2874 Clear 4 1001 72 10000 1.47 174 22:28 18.05.2021
2875 Clear 5 1001 72 10000 1.47 174 21:57 18.05.2021
2876 Clear 5 1002 74 10000 1.69 159 21:37 18.05.2021
2877 Clear 6 1003 75 10000 1.6 154 20:52 18.05.2021
2878 Clear 6 1003 77 10000 1.81 151 20:20 18.05.2021
2879 Clouds 5 1003 77 10000 1.81 151 19:59 18.05.2021
2880 Clouds 5 1003 77 10000 1.81 151 19:40 18.05.2021
2881 Clouds 8 1004 79 10000 1.67 131 19:18 18.05.2021
2882 Clouds 8 1004 79 10000 1.67 131 18:42 18.05.2021
2883 Clouds 8 1005 81 10000 1.54 126 18:23 18.05.2021
2884 Clouds 9 1005 81 10000 1.54 126 17:41 18.05.2021
2885 Clear 11 1005 82 10000 1.34 125 16:57 18.05.2021
2886 Clear 11 1006 83 10000 0.96 119 16:29 18.05.2021
2887 Clear 10 1006 83 10000 0.96 119 15:54 18.05.2021
2888 Clear 10 1006 83 10000 0.96 119 15:54 18.05.2021
2889 Clear 9 1005 71 10000 1.11 206 15:31 18.05.2021
2890 Clear 16 1004 68 10000 1.13 185 14:48 18.05.2021
2891 Clear 17 1004 64 10000 0.17 95 14:22 18.05.2021
2892 Clear 17 1003 59 10000 1.54 8 13:25 18.05.2021
2893 Clouds 18 1003 59 10000 1.54 8 12:31 18.05.2021
2894 Rain 17 1003 44 10000 5.33 320 11:50 18.05.2021
2895 Clouds 17 1003 44 10000 5.33 320 11:30 18.05.2021
2896 Clouds 18 1002 38 10000 4.16 336 10:50 18.05.2021
2897 Clouds 17 1003 37 10000 4.83 328 10:28 18.05.2021
2898 Clouds 17 1003 39 10000 5.12 337 09:52 18.05.2021
2899 Clouds 17 1003 39 10000 5.12 337 09:31 18.05.2021
2900 Clouds 16 1006 33 10000 4 320 08:26 18.05.2021
2901 Clouds 16 1006 33 10000 4 320 07:59 18.05.2021
2902 Clouds 16 1006 39 10000 5 310 07:37 18.05.2021
2903 Clouds 15 1007 44 10000 3 280 04:44 18.05.2021
2904 Clear 11 1007 58 10000 1 0 02:27 18.05.2021
2905 Clouds 10 1007 62 10000 1 0 01:46 18.05.2021
2906 Clear 3 1007 87 10000 2 190 00:29 18.05.2021
2907 Clear 6 1007 70 10000 1 0 23:59 17.05.2021
2908 Clear 7 1007 70 10000 2 290 23:23 17.05.2021
2909 Clouds 6 1007 75 10000 3 280 22:59 17.05.2021
2910 Clouds 6 1007 75 10000 3 280 22:39 17.05.2021
2911 Clear 7 1006 70 10000 2 310 22:20 17.05.2021
2912 Clear 9 1006 57 10000 1 0 21:47 17.05.2021
2913 Clear 9 1006 57 10000 1 0 21:19 17.05.2021
2914 Clear 9 1006 57 10000 2 0 20:39 17.05.2021
2915 Clouds 11 1006 54 10000 1 0 20:20 17.05.2021
2916 Clouds 12 1006 50 10000 1 0 19:41 17.05.2021
2917 Clouds 10 1006 57 10000 1 0 19:21 17.05.2021
2918 Clouds 12 1006 50 10000 1 0 18:46 17.05.2021
2919 Clouds 12 1006 50 10000 1 0 18:28 17.05.2021
2920 Clouds 14 1006 41 10000 6 320 17:45 17.05.2021
2921 Clouds 13 1004 41 10000 1 0 17:27 17.05.2021
2922 Clouds 13 1005 41 10000 1 0 16:46 17.05.2021
2923 Clouds 14 1004 38 10000 2 310 16:19 17.05.2021
2924 Clouds 16 1004 29 10000 2 250 15:27 17.05.2021
2925 Clouds 18 1003 25 10000 3 270 14:55 17.05.2021
2926 Clouds 18 1003 25 10000 3 270 14:36 17.05.2021
2927 Clouds 18 1003 25 10000 4 290 14:18 17.05.2021
2928 Clouds 21 1003 18 10000 6 270 13:28 17.05.2021
2929 Clouds 21 1003 18 10000 9 270 12:42 17.05.2021
2930 Clouds 22 1004 17 10000 7 270 12:21 17.05.2021
2931 Clouds 21 1004 19 10000 8 280 11:41 17.05.2021
2932 Clouds 22 1004 17 10000 7 280 11:21 17.05.2021
2933 Clouds 22 1005 18 10000 7 280 10:44 17.05.2021
2934 Clouds 22 1005 18 10000 8 280 10:24 17.05.2021
2935 Clouds 21 1006 21 10000 8 280 09:30 17.05.2021
2936 Clouds 21 1006 19 10000 9 280 08:33 17.05.2021
2937 Clouds 21 1007 19 10000 9 280 07:54 17.05.2021
2938 Clouds 21 1008 18 10000 8 270 07:23 17.05.2021
2939 Clouds 19 1009 22 10000 6 250 06:20 17.05.2021
2940 Clear 14 1010 28 10000 3 260 03:40 17.05.2021
2941 Clear 7 1011 57 10000 1 0 01:58 17.05.2021
2942 Clear 5 1011 60 10000 1 0 00:46 17.05.2021
2943 Clear 1 1011 69 10000 1.94 205 23:48 16.05.2021
2944 Clear -1 1011 80 10000 1 0 23:23 16.05.2021
2945 Clear 0 1011 74 10000 1.53 201 22:44 16.05.2021
2946 Clear 0 1011 74 10000 1.53 201 22:44 16.05.2021
2947 Clear 0 1011 74 10000 1.53 201 22:44 16.05.2021
2948 Clear 0 1011 74 10000 1.53 201 22:44 16.05.2021
2949 Clear 0 1011 74 10000 1.53 201 22:44 16.05.2021
2950 Clear 1 1011 69 10000 1.4 189 22:25 16.05.2021
2951 Clear 4 1012 56 10000 1.4 189 21:44 16.05.2021
2952 Clear 2 1012 64 10000 1.39 171 21:25 16.05.2021
2953 Clear 4 1012 56 10000 1 0 20:48 16.05.2021
2954 Clear 4 1012 56 10000 2 0 20:22 16.05.2021
2955 Clear 4 1012 56 10000 2 0 20:22 16.05.2021
2956 Clear 4 1012 56 10000 1 0 19:53 16.05.2021
2957 Clear 6 1012 49 10000 1.48 177 19:23 16.05.2021
2958 Clear 6 1012 49 10000 1 0 18:48 16.05.2021
2959 Clear 6 1012 49 10000 1 0 18:28 16.05.2021
2960 Clear 7 1012 45 10000 1 0 17:59 16.05.2021
2961 Clear 7 1012 45 10000 1 0 17:40 16.05.2021
2962 Clear 8 1012 42 10000 2 0 17:21 16.05.2021
2963 Clear 7 1012 45 10000 4 140 16:51 16.05.2021
2964 Clouds 7 1012 45 10000 3 150 16:25 16.05.2021
2965 Clouds 10 1012 34 10000 1 0 15:52 16.05.2021
2966 Clouds 11 1012 32 10000 1 0 15:27 16.05.2021
2967 Clouds 14 1011 26 10000 2 260 14:49 16.05.2021
2968 Clouds 16 1011 25 10000 3 280 14:21 16.05.2021
2969 Clouds 16 1011 25 10000 3 280 13:57 16.05.2021
2970 Clouds 18 1011 19 10000 6 270 13:37 16.05.2021
2971 Clear 18 1011 17 10000 6 280 13:18 16.05.2021
2972 Clear 19 1011 15 10000 6 280 12:48 16.05.2021
2973 Clear 18 1011 17 10000 5 270 12:26 16.05.2021
2974 Clear 19 1012 16 10000 5 280 11:45 16.05.2021
2975 Clear 19 1012 15 10000 5 300 11:18 16.05.2021
2976 Clear 19 1013 18 10000 5 280 10:37 16.05.2021
2977 Clear 19 1013 16 10000 6 260 10:19 16.05.2021
2978 Clear 18 1014 20 10000 5 280 09:43 16.05.2021
2979 Clear 18 1014 19 10000 6 280 09:22 16.05.2021
2980 Clear 17 1015 19 10000 5 280 08:36 16.05.2021
2981 Clear 17 1015 22 10000 6 290 08:18 16.05.2021
2982 Clear 17 1015 19 10000 6 270 07:26 16.05.2021
2983 Clear 15 1016 26 10000 2 0 05:38 16.05.2021
2984 Clear 1 1018 75 10000 0.08 191 00:53 16.05.2021
2985 Clear 0 1018 74 10000 0.29 0 00:19 16.05.2021
2986 Clear 0 1017 69 10000 1 0 23:23 15.05.2021
2987 Clear 1 1017 69 10000 0.65 350 22:59 15.05.2021
2988 Clear 1 1017 69 10000 1.02 348 22:28 15.05.2021
2989 Clear 2 1017 60 10000 1 0 21:43 15.05.2021
2990 Clear 2 1017 60 10000 1 0 21:23 15.05.2021
2991 Clear 2 1017 60 10000 2 170 20:45 15.05.2021
2992 Clear 2 1017 60 10000 2 170 20:21 15.05.2021
2993 Clear 4 1017 52 10000 2 150 19:44 15.05.2021
2994 Clear 3 1017 56 10000 2 0 18:50 15.05.2021
2995 Clear 4 1016 56 10000 4 180 18:21 15.05.2021
2996 Clear 4 1016 52 10000 2 150 17:42 15.05.2021
2997 Clear 10 1016 34 10000 1 0 16:51 15.05.2021
2998 Clouds 10 1016 32 10000 1 0 16:28 15.05.2021
2999 Clouds 9 1015 37 10000 2 0 15:59 15.05.2021
3000 Clouds 9 1015 40 10000 3 180 15:22 15.05.2021
3001 Clouds 10 1015 40 10000 2 0 14:46 15.05.2021
3002 Clouds 14 1015 26 10000 1 0 14:26 15.05.2021
3003 Clouds 14 1015 26 10000 1 0 14:26 15.05.2021
3004 Clouds 14 1015 26 10000 2 0 13:37 15.05.2021
3005 Clouds 15 1015 23 10000 5 280 12:51 15.05.2021
3006 Clouds 17 1015 17 10000 6 290 11:53 15.05.2021
3007 Clouds 15 1015 18 10000 5 260 10:59 15.05.2021
3008 Clouds 16 1016 18 10000 5 270 10:32 15.05.2021
3009 Clouds 15 1016 21 10000 5 270 09:45 15.05.2021
3010 Clouds 14 1017 19 10000 3 270 08:35 15.05.2021
3011 Clouds 13 1018 21 10000 5 230 07:53 15.05.2021
3012 Clouds 12 1019 20 10000 4 240 07:22 15.05.2021
3013 Clouds 12 1019 19 10000 5 250 06:51 15.05.2021
3014 Clear 10 1020 23 10000 5 240 05:37 15.05.2021
3015 Clear 7 1020 31 10000 2 0 04:18 15.05.2021
3016 Clear -6 1021 79 10000 1 0 00:20 15.05.2021
3017 Clear -6 1021 79 10000 2 150 23:29 14.05.2021
3018 Clear -6 1021 79 10000 2 180 22:28 14.05.2021
3019 Clear -6 1021 79 10000 2 180 21:56 14.05.2021
3020 Clear -5 1020 74 10000 2 190 21:28 14.05.2021
3021 Clear -5 1020 74 10000 1 0 20:49 14.05.2021
3022 Clear -5 1020 74 10000 1 0 20:26 14.05.2021
3023 Clear -4 1020 74 10000 2 0 19:42 14.05.2021
3024 Clear -4 1020 74 10000 2 0 19:22 14.05.2021
3025 Clear -5 1020 80 10000 1 0 18:46 14.05.2021
3026 Clear -5 1020 80 10000 1 0 18:22 14.05.2021
3027 Clear -1 1020 64 10000 2 180 17:39 14.05.2021
3028 Clear -1 1020 64 10000 2 180 17:19 14.05.2021
3029 Clear -1 1019 64 10000 1 0 16:43 14.05.2021
3030 Clear -1 1019 64 10000 1 0 16:25 14.05.2021
3031 Clear 3 1019 44 10000 2 260 15:25 14.05.2021
3032 Clear 6 1017 31 10000 4 340 14:41 14.05.2021
3033 Clear 7 1017 29 10000 6 340 13:54 14.05.2021
3034 Clouds 8 1016 27 10000 7 320 13:29 14.05.2021
3035 Clouds 9 1016 25 10000 7 330 12:47 14.05.2021
3036 Clouds 9 1016 25 10000 7 330 12:27 14.05.2021
3037 Clouds 9 1015 25 10000 7 340 11:33 14.05.2021
3038 Clouds 9 1015 23 10000 7 340 10:57 14.05.2021
3039 Clouds 9 1015 23 10000 7 340 10:37 14.05.2021
3040 Clouds 8 1015 25 10000 7 350 09:46 14.05.2021
3041 Clouds 8 1015 25 10000 7 350 09:27 14.05.2021
3042 Clouds 8 1016 25 10000 6 360 08:43 14.05.2021
3043 Clouds 7 1016 29 10000 6 350 07:51 14.05.2021
3044 Clouds 6 1016 28 10000 8 340 06:46 14.05.2021
3045 Clear 2 1016 48 10000 6 350 02:55 14.05.2021
3046 Clouds 1 1015 51 10000 7 350 01:36 14.05.2021
3047 Clouds 0 1014 55 10000 4 340 00:28 14.05.2021
3048 Clouds 0 1013 55 10000 3 360 23:47 13.05.2021
3049 Clouds 0 1013 55 10000 5 360 23:20 13.05.2021
3050 Clouds 3 1012 48 10000 3 360 22:46 13.05.2021
3051 Clouds 0 1012 59 10000 5 360 22:27 13.05.2021
3052 Clouds 21 1015 66 10000 3.95 354 21:45 13.05.2021
3053 Clouds 22 1014 72 10000 4.36 358 21:24 13.05.2021
3054 Clouds 22 1014 71 10000 4.26 355 20:49 13.05.2021
3055 Clouds 23 1013 81 10000 4.14 1 20:29 13.05.2021
3056 Clouds 23 1013 81 10000 4.14 1 19:40 13.05.2021
3057 Clouds 23 1012 83 10000 3.25 341 19:20 13.05.2021
3058 Clouds 23 1012 83 10000 3.25 341 18:51 13.05.2021
3059 Clouds 23 1011 89 10000 4.26 5 18:26 13.05.2021
3060 Clouds 23 1011 89 10000 4.26 5 17:56 13.05.2021
3061 Clouds 23 1011 89 10000 4.26 5 17:36 13.05.2021
3062 Clouds 23 1010 89 10000 4.82 353 17:18 13.05.2021
3063 Rain 24 1009 89 10000 4.11 7 16:21 13.05.2021
3064 Rain 25 1009 89 10000 4.11 7 15:57 13.05.2021
3065 Rain 25 1009 89 10000 4.11 7 15:38 13.05.2021
3066 Rain 26 1006 78 10000 3.68 8 15:20 13.05.2021
3067 Rain 26 1005 67 10000 3.58 3 14:43 13.05.2021
3068 Rain 6 1007 75 10000 6 340 14:43 13.05.2021
3069 Rain 27 1004 61 10000 2.95 1 14:23 13.05.2021
3070 Rain 28 1004 61 10000 2.95 1 13:46 13.05.2021
3071 Rain 29 1003 56 10000 4.13 6 13:28 13.05.2021
3072 Rain 30 1003 56 10000 4.13 6 12:48 13.05.2021
3073 Clouds 31 1003 55 10000 5.78 358 12:27 13.05.2021
3074 Rain 32 1003 55 10000 5.78 358 11:45 13.05.2021
3075 Clouds 34 1003 50 10000 7.2 346 11:22 13.05.2021
3076 Clouds 7 1003 50 10000 7.2 346 10:44 13.05.2021
3077 Clouds 7 1002 44 10000 6.78 341 10:26 13.05.2021
3078 Clouds 7 1002 44 10000 6.78 341 10:26 13.05.2021
3079 Clouds 16 1003 29 10000 6 320 09:31 13.05.2021
3080 Clouds 8 1002 44 10000 6.78 341 09:31 13.05.2021
3081 Clouds 8 1001 41 10000 5.81 320 08:49 13.05.2021
3082 Clouds 9 1002 39 10000 5.17 310 08:28 13.05.2021
3083 Clouds 7 1002 39 10000 5.17 310 07:50 13.05.2021
3084 Clouds 6 1003 39 10000 3.44 270 06:27 13.05.2021
3085 Clouds 4 1004 42 10000 2.87 268 05:25 13.05.2021
3086 Clouds -2 1005 48 10000 1.9 201 02:37 13.05.2021
3087 Clouds -9 1008 73 10000 1.52 116 23:58 12.05.2021
3088 Clouds -11 1008 76 10000 1.52 115 23:27 12.05.2021
3089 Clear -12 1008 76 10000 1.52 115 22:32 12.05.2021
3090 Clear -11 1008 75 10000 1.46 109 21:56 12.05.2021
3091 Clear -11 1008 75 10000 1.46 109 21:38 12.05.2021
3092 Clear -9 1007 65 10000 1.12 77 20:56 12.05.2021
3093 Clear -9 1007 63 10000 1.1 70 20:21 12.05.2021
3094 Clear -8 1007 63 10000 1.1 70 19:39 12.05.2021
3095 Clear -8 1007 63 10000 1.1 70 19:39 12.05.2021
3096 Clouds -4 1008 61 10000 1.44 77 18:47 12.05.2021
3097 Clouds -4 1008 57 10000 1.74 106 18:18 12.05.2021
3098 Clouds -1 1008 57 10000 1.74 106 17:43 12.05.2021
3099 Clouds -1 1008 50 10000 1.95 127 17:22 12.05.2021
3100 Clouds -1 1008 50 10000 1.95 127 16:37 12.05.2021
3101 Clouds 10 1009 34 10000 2 40 15:50 12.05.2021
3102 Clouds 10 1009 34 10000 2 40 15:30 12.05.2021
3103 Clouds 10 1009 34 10000 2 70 14:41 12.05.2021
3104 Clouds 10 1009 34 10000 3 80 14:22 12.05.2021
3105 Clouds 11 1009 32 10000 2 0 13:44 12.05.2021
3106 Clouds 11 1009 32 10000 1 0 12:51 12.05.2021
3107 Clouds 12 1009 30 10000 1 0 12:30 12.05.2021
3108 Clouds 11 1010 32 10000 5 220 11:41 12.05.2021
3109 Clouds 12 1009 24 10000 3 250 11:19 12.05.2021
3110 Clouds 12 1010 24 10000 2 0 10:43 12.05.2021
3111 Clouds 12 1010 26 10000 4 270 09:52 12.05.2021
3112 Clouds 12 1010 24 10000 3 330 09:29 12.05.2021
3113 Clouds 12 1011 24 10000 4 250 08:58 12.05.2021
3114 Clouds 12 1011 24 10000 4 250 08:38 12.05.2021
3115 Clouds 11 1011 22 10000 2 0 08:18 12.05.2021
3116 Clouds 11 1012 19 10000 2 0 06:34 12.05.2021
3117 Clear 5 1015 45 10000 1 0 02:41 12.05.2021
3118 Clouds -2 1015 74 10000 0.77 71 00:40 12.05.2021
3119 Clouds -3 1015 80 10000 0.42 172 23:56 11.05.2021
3120 Clouds -4 1015 80 10000 2 190 23:29 11.05.2021
3121 Clear -6 1015 79 10000 1 0 22:59 11.05.2021
3122 Clear -6 1015 79 10000 1 0 22:41 11.05.2021
3123 Clear -6 1015 79 10000 1 0 22:18 11.05.2021
3124 Clear -6 1015 79 10000 1 0 22:18 11.05.2021
3125 Clear -1 1015 64 10000 1 0 21:48 11.05.2021
3126 Clear -1 1015 64 10000 1 0 21:29 11.05.2021
3127 Clear 0 1015 64 10000 2 170 20:47 11.05.2021
3128 Clear 0 1015 64 10000 2 170 20:26 11.05.2021
3129 Clear -3 1015 74 10000 3 170 19:46 11.05.2021
3130 Clear -3 1015 74 10000 3 170 19:23 11.05.2021
3131 Clear -3 1015 74 10000 3 170 18:56 11.05.2021
3132 Clear -3 1015 74 10000 3 170 18:28 11.05.2021
3133 Clear -3 1015 74 10000 2 170 17:45 11.05.2021
3134 Clear -3 1015 74 10000 2 170 17:23 11.05.2021
3135 Clear 1 1015 55 10000 2 260 16:59 11.05.2021
3136 Clear 4 1015 45 10000 2 340 16:28 11.05.2021
3137 Clear 3 1015 48 10000 2 340 15:45 11.05.2021
3138 Clear 4 1015 45 10000 3 330 15:20 11.05.2021
3139 Clear 6 1015 36 10000 6 330 14:44 11.05.2021
3140 Clouds 7 1014 33 10000 8 320 14:25 11.05.2021
3141 Clouds 8 1014 31 10000 9 330 13:58 11.05.2021
3142 Clouds 8 1014 31 10000 9 330 13:36 11.05.2021
3143 Clouds 9 1014 29 10000 8 340 13:18 11.05.2021
3144 Clouds 10 1014 32 10000 9 320 12:45 11.05.2021
3145 Clouds 10 1014 32 10000 9 320 11:56 11.05.2021
3146 Clouds 10 1014 32 10000 9 320 11:37 11.05.2021
3147 Clouds 9 1013 31 10000 9 330 10:59 11.05.2021
3148 Clouds 9 1013 31 10000 8 330 10:39 11.05.2021
3149 Clouds 8 1013 36 10000 8 340 10:19 11.05.2021
3150 Clouds 8 1014 42 10000 9 340 09:47 11.05.2021
3151 Clouds 8 1014 36 10000 10 340 09:26 11.05.2021
3152 Clouds 8 1014 39 10000 6 350 08:50 11.05.2021
3153 Clouds 8 1014 39 10000 6 350 08:32 11.05.2021
3154 Clouds 6 1014 49 10000 7 350 07:55 11.05.2021
3155 Clouds 6 1014 49 10000 7 350 07:30 11.05.2021
3156 Clouds 5 1014 52 10000 8 340 06:21 11.05.2021
3157 Clouds 1 1012 69 10000 6 340 01:26 11.05.2021
3158 Clouds 1 1012 64 10000 5 350 00:39 11.05.2021
3159 Clouds 1 1011 64 10000 6 340 23:49 10.05.2021
3160 Clouds 1 1011 64 10000 5 340 23:22 10.05.2021
3161 Clouds 1 1011 64 10000 4 360 22:50 10.05.2021
3162 Clouds 2 1010 64 10000 4 340 22:21 10.05.2021
3163 Clouds 2 1010 64 10000 5 360 21:50 10.05.2021
3164 Clouds 2 1010 69 10000 8 340 21:27 10.05.2021
3165 Clouds 3 1008 70 10000 8 350 20:45 10.05.2021
3166 Clouds 3 1008 70 10000 8 350 20:23 10.05.2021
3167 Clouds 3 1008 75 10000 7 340 19:56 10.05.2021
3168 Clouds 3 1008 75 10000 7 340 19:25 10.05.2021
3169 Clouds 3 1008 75 10000 7 340 18:59 10.05.2021
3170 Clouds 3 1008 81 10000 7 350 18:40 10.05.2021
3171 Clouds 3 1008 81 10000 9 340 18:20 10.05.2021
3172 Clouds 4 1008 75 10000 6 320 17:38 10.05.2021
3173 Clouds 6 1008 65 10000 5 340 16:56 10.05.2021
3174 Clouds 6 1008 65 10000 5 40 16:28 10.05.2021
3175 Clouds 6 1008 70 10000 6 360 15:52 10.05.2021
3176 Clouds 6 1008 65 10000 7 10 15:30 10.05.2021
3177 Clouds 8 1006 57 10000 6 30 14:55 10.05.2021
3178 Rain 9 1006 49 10000 5 20 14:28 10.05.2021
3179 Rain 10 1005 43 10000 5 10 13:52 10.05.2021
3180 Clouds 12 1003 40 10000 5 20 12:56 10.05.2021
3181 Clouds 12 1003 40 10000 5 20 12:34 10.05.2021
3182 Clouds 12 1003 40 10000 9 350 11:58 10.05.2021
3183 Clouds 14 1003 35 10000 8 350 11:37 10.05.2021
3184 Rain 16 1002 23 10000 7 320 11:19 10.05.2021
3185 Clouds 18 1002 16 10000 6 270 10:45 10.05.2021
3186 Clouds 18 1003 16 10000 7 280 09:59 10.05.2021
3187 Clouds 18 1003 16 10000 7 280 09:37 10.05.2021
3188 Clouds 17 1004 15 10000 6 270 08:43 10.05.2021
3189 Clouds 18 1004 15 10000 7 280 08:20 10.05.2021
3190 Clouds 18 1004 15 10000 8 280 07:50 10.05.2021
3191 Clouds 17 1005 17 10000 5 260 07:30 10.05.2021
3192 Clouds 16 1005 23 10000 2 180 06:47 10.05.2021
3193 Clouds 11 1007 40 10000 1 0 03:54 10.05.2021
3194 Clouds -1 1008 80 10000 1 0 00:38 10.05.2021
3195 Clouds 0 1008 74 10000 1.51 131 23:22 09.05.2021
3196 Clear -1 1008 86 10000 1.51 131 22:38 09.05.2021
3197 Clear -1 1008 80 10000 1 0 22:18 09.05.2021
3198 Clear 0 1008 80 10000 1 0 21:41 09.05.2021
3199 Clear -1 1009 80 10000 1 0 20:55 09.05.2021
3200 Clear -1 1009 80 10000 1 0 20:35 09.05.2021
3201 Clear 2 1009 69 10000 1 0 19:53 09.05.2021
3202 Clear 2 1009 69 10000 1 0 19:28 09.05.2021
3203 Clear 3 1010 65 10000 1 0 18:52 09.05.2021
3204 Clear 3 1010 65 10000 1 0 18:29 09.05.2021
3205 Clear 4 1010 60 10000 2 320 17:51 09.05.2021
3206 Clear 6 1010 49 10000 2 170 16:45 09.05.2021
3207 Clear 7 1010 49 10000 3 170 16:26 09.05.2021
3208 Clear 7 1010 49 10000 4 170 15:58 09.05.2021
3209 Clear 7 1010 49 10000 4 170 15:20 09.05.2021
3210 Clear 7 1010 49 10000 3 170 14:37 09.05.2021
3211 Clouds 13 1010 30 10000 1.5 257 13:47 09.05.2021
3212 Clouds 13 1010 30 10000 3 340 13:21 09.05.2021
3213 Clouds 13 1010 30 10000 4 350 12:30 09.05.2021
3214 Clouds 13 1010 30 10000 4 350 11:45 09.05.2021
3215 Clouds 13 1010 28 10000 5 10 11:21 09.05.2021
3216 Clouds 13 1010 30 10000 5 350 10:43 09.05.2021
3217 Clouds 13 1010 28 10000 5 290 09:51 09.05.2021
3218 Clouds 12 1010 30 10000 2 0 09:33 09.05.2021
3219 Clouds 12 1010 30 10000 4 340 08:54 09.05.2021
3220 Clouds 13 1011 30 10000 5 300 08:32 09.05.2021
3221 Clouds 14 1011 28 10000 8 320 07:56 09.05.2021
3222 Clouds 11 1011 35 10000 4 320 07:24 09.05.2021
3223 Clouds 11 1011 35 10000 5 330 06:34 09.05.2021
3224 Clear 2 1012 75 10000 3 330 00:52 09.05.2021
3225 Clouds 1 1012 80 10000 1.9 339 23:44 08.05.2021
3226 Clouds 1 1012 80 10000 2 270 23:26 08.05.2021
3227 Clouds 2 1012 75 10000 2.19 348 22:46 08.05.2021
3228 Clouds 2 1012 75 10000 2.11 360 22:19 08.05.2021
3229 Clouds 0 1011 86 10000 1 0 21:48 08.05.2021
3230 Clouds 0 1011 86 10000 1 0 21:18 08.05.2021
3231 Clouds 2 1011 75 10000 1 0 20:46 08.05.2021
3232 Clouds 2 1011 75 10000 1 0 20:19 08.05.2021
3233 Clear 3 1011 70 10000 3 350 19:24 08.05.2021
3234 Clear 1 1011 80 10000 1 0 18:53 08.05.2021
3235 Clear 1 1011 80 10000 1 0 18:35 08.05.2021
3236 Clear 3 1011 70 10000 2 360 17:51 08.05.2021
3237 Clear 3 1011 70 10000 2 360 17:21 08.05.2021
3238 Clouds 4 1011 70 10000 3 330 16:31 08.05.2021
3239 Clouds 3 1010 75 10000 2 0 15:51 08.05.2021
3240 Clouds 5 1010 65 10000 2 0 15:31 08.05.2021
3241 Clouds 6 1009 61 10000 5 10 14:49 08.05.2021
3242 Clouds 6 1009 61 10000 6 360 14:20 08.05.2021
3243 Clouds 7 1009 61 10000 4 360 13:46 08.05.2021
3244 Clouds 7 1008 61 10000 8 350 13:20 08.05.2021
3245 Clouds 8 1008 57 10000 6 340 12:30 08.05.2021
3246 Rain 8 1008 57 10000 6 320 11:42 08.05.2021
3247 Clouds 8 1008 53 10000 4 320 10:59 08.05.2021
3248 Clouds 8 1008 53 10000 4 320 10:41 08.05.2021
3249 Clouds 8 1008 53 10000 4 320 10:41 08.05.2021
3250 Clouds 8 1008 53 10000 5 340 10:20 08.05.2021
3251 Clouds 8 1008 49 10000 6 340 09:47 08.05.2021
3252 Clouds 10 1008 40 10000 4 330 09:27 08.05.2021
3253 Clouds 10 1009 32 10000 3 300 08:25 08.05.2021
3254 Clouds 10 1009 27 10000 2 0 07:41 08.05.2021
3255 Clouds 10 1009 27 10000 2 0 06:52 08.05.2021
3256 Clouds 8 1010 31 10000 1 0 05:25 08.05.2021
3257 Clouds 1 1011 55 10000 0.99 137 01:54 08.05.2021
3258 Clear -1 1012 69 10000 1 0 00:51 08.05.2021
3259 Clear -1 1012 69 10000 1 0 00:29 08.05.2021
3260 Clear -3 1011 74 10000 2 0 23:30 07.05.2021
3261 Clear -4 1011 74 10000 1 0 22:48 07.05.2021
3262 Clear -4 1011 74 10000 1 0 22:19 07.05.2021
3263 Clouds -2 1011 69 10000 1 0 21:38 07.05.2021
3264 Clouds -2 1011 69 10000 1 0 21:19 07.05.2021
3265 Clouds 2 1011 48 10000 2 0 20:41 07.05.2021
3266 Clouds 2 1011 48 10000 2 0 20:21 07.05.2021
3267 Clouds 3 1010 44 10000 5 330 19:43 07.05.2021
3268 Clouds 3 1010 44 10000 5 330 19:24 07.05.2021
3269 Clear 4 1010 41 10000 3 260 18:43 07.05.2021
3270 Clear 4 1010 41 10000 3 260 18:24 07.05.2021
3271 Clear 4 1009 45 10000 2 0 17:25 07.05.2021
3272 Clear 4 1009 45 10000 4 340 16:59 07.05.2021
3273 Clouds 5 1009 38 10000 6 360 16:37 07.05.2021
3274 Clouds 5 1009 42 10000 6 10 15:52 07.05.2021
3275 Clouds 5 1009 42 10000 6 10 15:33 07.05.2021
3276 Rain 6 1009 39 10000 6 20 14:59 07.05.2021
3277 Clouds 6 1009 39 10000 6 30 14:32 07.05.2021
3278 Clouds 7 1008 39 10000 4 30 13:54 07.05.2021
3279 Clouds 7 1008 39 10000 5 30 13:21 07.05.2021
3280 Clouds 7 1008 42 10000 8 20 12:44 07.05.2021
3281 Clouds 8 1007 46 10000 6 30 12:25 07.05.2021
3282 Clouds 8 1007 49 10000 6 10 11:51 07.05.2021
3283 Clouds 8 1007 49 10000 9 350 11:26 07.05.2021
3284 Clouds 8 1007 49 10000 9 350 11:26 07.05.2021
3285 Clouds 10 1006 50 10000 9 360 10:42 07.05.2021
3286 Clouds 11 1006 46 10000 9 10 10:22 07.05.2021
3287 Clouds 11 1006 46 10000 10 350 09:46 07.05.2021
3288 Clouds 14 1005 33 10000 11 350 08:55 07.05.2021
3289 Clouds 14 1005 33 10000 11 350 08:33 07.05.2021
3290 Clouds 14 1005 33 10000 10 350 07:19 07.05.2021
3291 Clouds 12 1005 35 10000 9 360 06:45 07.05.2021
3292 Clouds 11 1006 32 10000 4 240 03:39 07.05.2021
3293 Clear -4 1008 80 10000 1 0 23:49 06.05.2021
3294 Clear -4 1008 80 10000 1 0 22:52 06.05.2021
3295 Clear -2 1008 74 10000 1 0 22:22 06.05.2021
3296 Clear -2 1008 74 10000 0.72 152 21:39 06.05.2021
3297 Clouds -3 1009 80 10000 2 160 20:44 06.05.2021
3298 Clouds -2 1010 74 10000 2 160 20:21 06.05.2021
3299 Clouds 0 1010 64 10000 1 0 19:50 06.05.2021
3300 Clouds 1 1010 60 10000 1 0 19:23 06.05.2021
3301 Clouds 1 1010 60 10000 1 0 18:56 06.05.2021
3302 Clouds 1 1011 64 10000 2 0 18:34 06.05.2021
3303 Clouds 2 1011 60 10000 1 0 17:50 06.05.2021
3304 Clouds 3 1012 44 10000 1 0 17:23 06.05.2021
3305 Clouds 3 1012 44 10000 1 0 16:56 06.05.2021
3306 Clouds 3 1013 41 10000 1 0 16:33 06.05.2021
3307 Clouds 2 1013 51 10000 1 0 15:56 06.05.2021
3308 Clouds 2 1013 51 10000 1 0 15:38 06.05.2021
3309 Clouds 2 1013 55 10000 2 150 14:59 06.05.2021
3310 Clouds 5 1013 28 10000 2 0 14:23 06.05.2021
3311 Clouds 5 1013 28 10000 2 360 13:46 06.05.2021
3312 Clouds 5 1013 30 10000 2 0 13:20 06.05.2021
3313 Clouds 5 1013 30 10000 2 0 13:20 06.05.2021
3314 Clear 6 1013 26 10000 5 310 12:37 06.05.2021
3315 Clear 6 1013 24 10000 5 280 12:19 06.05.2021
3316 Clear 5 1014 30 10000 5 310 11:42 06.05.2021
3317 Clear 5 1014 30 10000 6 320 11:19 06.05.2021
3318 Clear 5 1014 30 10000 6 310 10:44 06.05.2021
3319 Clear 6 1014 26 10000 6 310 10:23 06.05.2021
3320 Clouds 4 1014 33 10000 5 340 09:42 06.05.2021
3321 Clouds 4 1015 38 10000 2 0 09:22 06.05.2021
3322 Clouds 4 1015 33 10000 5 320 08:34 06.05.2021
3323 Clouds 3 1015 41 10000 5 350 07:58 06.05.2021
3324 Clouds 2 1015 44 10000 6 340 07:38 06.05.2021
3325 Clouds 1 1016 47 10000 8 340 06:42 06.05.2021
3326 Clouds 1 1016 47 10000 8 340 06:24 06.05.2021
3327 Clouds 0 1016 55 10000 7 340 05:42 06.05.2021
3328 Clouds -1 1015 59 10000 8 360 04:29 06.05.2021
3329 Clouds -3 1013 68 10000 8 340 00:59 06.05.2021
3330 Snow -4 1010 80 6000 10 340 23:25 05.05.2021
3331 Snow -4 1009 80 6000 10 330 22:30 05.05.2021
3332 Snow -4 1009 80 8000 9 330 21:57 05.05.2021
3333 Snow -4 1009 80 8000 9 330 21:35 05.05.2021
3334 Snow -4 1009 80 8000 9 330 21:35 05.05.2021
3335 Snow -4 1009 86 6000 9 320 20:57 05.05.2021
3336 Snow -4 1009 86 6000 9 320 20:57 05.05.2021
3337 Snow -4 1009 86 6000 9 320 20:26 05.05.2021
3338 Snow -4 1009 86 4000 9 330 19:42 05.05.2021
3339 Snow -4 1009 86 4000 9 330 19:23 05.05.2021
3340 Snow -4 1008 86 4000 12 340 18:26 05.05.2021
3341 Snow -4 1008 86 4000 12 340 17:59 05.05.2021
3342 Snow -4 1008 86 4000 12 340 17:38 05.05.2021
3343 Snow -4 1008 86 4000 11 340 17:19 05.05.2021
3344 Snow -4 1008 86 4000 12 330 16:47 05.05.2021
3345 Snow -4 1007 86 4000 12 340 16:28 05.05.2021
3346 Snow -4 1007 86 5000 10 340 15:39 05.05.2021
3347 Snow -4 1007 86 4000 10 330 15:19 05.05.2021
3348 Snow -4 1007 86 4000 9 330 14:41 05.05.2021
3349 Snow -3 1006 80 4000 11 340 14:23 05.05.2021
3350 Snow -2 1004 69 8000 13 340 13:31 05.05.2021
3351 Snow -1 1005 74 10000 9 330 12:48 05.05.2021
3352 Clouds -1 1004 80 10000 11 340 12:26 05.05.2021
3353 Clouds -1 1004 86 10000 11 320 11:47 05.05.2021
3354 Snow -1 1003 86 6000 11 330 11:25 05.05.2021
3355 Clouds 2 1003 64 10000 12 320 10:51 05.05.2021
3356 Clouds 4 1002 60 10000 11 320 10:21 05.05.2021
3357 Rain 7 1001 57 10000 9 320 09:44 05.05.2021
3358 Clouds 9 1001 46 10000 8 310 08:50 05.05.2021
3359 Clouds 10 1001 37 10000 11 280 08:31 05.05.2021
3360 Clouds 12 1000 30 10000 11 300 07:55 05.05.2021
3361 Clouds 12 1000 30 10000 11 300 07:36 05.05.2021
3362 Clouds 14 999 18 10000 7 260 06:43 05.05.2021
3363 Clouds 10 1002 27 10000 4 230 04:55 05.05.2021
3364 Clouds 0 1003 69 10000 2 0 01:39 05.05.2021
3365 Clear -5 1004 86 10000 1 0 23:46 04.05.2021
3366 Clear -4 1005 80 10000 1.74 115 23:20 04.05.2021
3367 Clear -4 1006 80 10000 1 0 22:42 04.05.2021
3368 Clear -4 1006 80 10000 1 0 22:19 04.05.2021
3369 Clear -6 1007 86 10000 1 0 21:48 04.05.2021
3370 Clear -6 1007 86 10000 1 0 21:27 04.05.2021
3371 Clear -2 1008 69 10000 1.41 130 20:48 04.05.2021
3372 Clear -2 1008 69 10000 1.37 131 20:27 04.05.2021
3373 Clear -4 1008 74 10000 1.37 131 19:56 04.05.2021
3374 Clear -4 1008 74 10000 1.37 131 19:38 04.05.2021
3375 Clear -4 1008 74 10000 1.2 151 19:19 04.05.2021
3376 Clear -1 1009 64 10000 1.2 151 18:40 04.05.2021
3377 Clear 0 1009 55 10000 1 0 17:52 04.05.2021
3378 Clear 0 1009 55 10000 1 0 17:33 04.05.2021
3379 Clear 1 1010 51 10000 1 0 16:52 04.05.2021
3380 Clear 1 1010 51 10000 1 0 16:26 04.05.2021
3381 Clear 0 1010 55 10000 3 170 15:59 04.05.2021
3382 Clear 5 1010 36 10000 1.06 5 15:23 04.05.2021
3383 Clear 5 1010 36 10000 1.06 5 15:23 04.05.2021
3384 Clear 7 1011 31 10000 2 350 14:34 04.05.2021
3385 Clear 9 1011 27 10000 5 330 13:43 04.05.2021
3386 Clear 9 1011 27 10000 6 320 13:22 04.05.2021
3387 Clear 9 1011 27 10000 6 320 13:22 04.05.2021
3388 Clear 9 1011 27 10000 6 320 12:56 04.05.2021
3389 Clear 10 1011 25 10000 6 320 12:29 04.05.2021
3390 Clouds 10 1012 25 10000 7 320 11:47 04.05.2021
3391 Clouds 10 1012 25 10000 8 320 11:27 04.05.2021
3392 Clouds 10 1012 25 10000 8 330 10:47 04.05.2021
3393 Clouds 10 1012 27 10000 9 330 10:25 04.05.2021
3394 Clouds 9 1013 27 10000 8 330 09:44 04.05.2021
3395 Clouds 9 1013 29 10000 9 330 09:21 04.05.2021
3396 Clouds 8 1014 29 10000 8 330 08:49 04.05.2021
3397 Clouds 8 1014 29 10000 9 320 08:20 04.05.2021
3398 Clouds 7 1015 33 10000 8 330 07:48 04.05.2021
3399 Clouds 6 1015 31 10000 9 320 07:24 04.05.2021
3400 Clouds 5 1016 36 10000 7 330 06:22 04.05.2021
3401 Clouds 2 1018 44 10000 9 330 03:58 04.05.2021
3402 Clouds 1 1018 51 10000 7 310 02:28 04.05.2021
3403 Clouds -3 1018 74 10000 3 320 00:28 04.05.2021
3404 Clouds -3 1018 74 10000 2 0 23:36 03.05.2021
3405 Clouds -3 1019 74 10000 2 0 22:47 03.05.2021
3406 Clouds -3 1019 80 10000 4 290 22:28 03.05.2021
3407 Clouds -2 1019 69 10000 5 310 21:48 03.05.2021
3408 Clouds -2 1019 69 10000 5 310 21:30 03.05.2021
3409 Snow -4 1019 74 10000 3 310 20:57 03.05.2021
3410 Snow -4 1019 74 10000 3 310 20:39 03.05.2021
3411 Clear -3 1019 80 10000 4 310 19:56 03.05.2021
3412 Clear -3 1019 80 10000 4 310 19:35 03.05.2021
3413 Clear -2 1020 74 10000 5 300 18:47 03.05.2021
3414 Clear -2 1019 74 10000 3 310 18:25 03.05.2021
3415 Clear -3 1019 80 10000 2 320 17:35 03.05.2021
3416 Clouds -1 1020 69 10000 4 320 16:54 03.05.2021
3417 Clouds -1 1020 69 10000 4 320 16:33 03.05.2021
3418 Clouds 1 1019 47 10000 7 330 15:51 03.05.2021
3419 Clouds 1 1019 47 10000 5 320 15:32 03.05.2021
3420 Clouds 2 1019 41 10000 6 320 14:42 03.05.2021
3421 Clouds 2 1018 41 10000 6 330 14:19 03.05.2021
3422 Clouds 3 1018 38 10000 8 320 13:41 03.05.2021
3423 Clouds 3 1018 44 10000 7 340 13:22 03.05.2021
3424 Clouds 3 1018 48 10000 8 340 12:39 03.05.2021
3425 Clouds 4 1017 45 10000 10 340 12:19 03.05.2021
3426 Clouds 4 1018 48 10000 9 330 11:38 03.05.2021
3427 Clouds 4 1017 41 10000 12 320 11:19 03.05.2021
3428 Clouds 6 1017 31 10000 10 340 10:42 03.05.2021
3429 Clouds 6 1016 36 10000 8 330 10:20 03.05.2021
3430 Clouds 5 1017 52 10000 6 340 09:42 03.05.2021
3431 Clouds 2 1018 69 6000 12 340 08:52 03.05.2021
3432 Clouds 5 1017 45 10000 8 320 08:24 03.05.2021
3433 Clouds 5 1017 45 10000 12 340 07:55 03.05.2021
3434 Clouds 4 1017 56 10000 11 340 06:41 03.05.2021
3435 Clouds 4 1017 56 10000 12 340 06:19 03.05.2021
3436 Clouds 3 1017 65 10000 10 330 05:43 03.05.2021
3437 Snow 0 1014 74 10000 9 330 00:46 03.05.2021
3438 Snow 0 1013 74 10000 8 330 23:57 02.05.2021
3439 Snow 0 1013 80 10000 7 340 23:21 02.05.2021
3440 Snow -1 1012 93 10000 7 330 22:41 02.05.2021
3441 Snow -1 1012 93 10000 7 330 22:18 02.05.2021
3442 Snow 0 1011 69 10000 9 330 21:44 02.05.2021
3443 Clouds 0 1011 69 10000 9 330 21:24 02.05.2021
3444 Clouds 1 1011 64 10000 8 330 20:26 02.05.2021
3445 Clouds 1 1010 64 10000 9 330 19:50 02.05.2021
3446 Clouds 1 1010 64 10000 9 330 19:23 02.05.2021
3447 Clouds 1 1010 64 10000 9 330 18:55 02.05.2021
3448 Clouds 1 1009 64 10000 9 340 18:37 02.05.2021
3449 Clouds 1 1009 64 10000 9 340 18:18 02.05.2021
3450 Clouds 1 1009 69 10000 7 340 17:41 02.05.2021
3451 Clouds 1 1009 69 10000 8 330 17:22 02.05.2021
3452 Clouds 2 1008 64 10000 7 330 16:45 02.05.2021
3453 Clouds 2 1008 69 10000 8 350 16:26 02.05.2021
3454 Clouds 3 1007 65 10000 6 340 15:44 02.05.2021
3455 Clouds 3 1007 65 10000 6 340 15:23 02.05.2021
3456 Clouds 4 1006 60 10000 5 330 14:43 02.05.2021
3457 Clouds 4 1006 60 10000 5 330 14:43 02.05.2021
3458 Clouds 4 1005 65 10000 7 350 14:25 02.05.2021
3459 Clouds 5 1004 60 10000 7 350 13:46 02.05.2021
3460 Clouds 5 1004 60 10000 7 350 13:23 02.05.2021
3461 Clouds 5 1004 60 10000 7 350 13:23 02.05.2021
3462 Clouds 8 1003 53 10000 10 340 12:48 02.05.2021
3463 Clouds 8 1003 53 10000 10 340 12:26 02.05.2021
3464 Clouds 10 1002 43 10000 10 330 11:56 02.05.2021
3465 Clouds 10 1002 43 10000 10 330 11:38 02.05.2021
3466 Clouds 12 1002 32 10000 8 340 10:58 02.05.2021
3467 Clouds 12 1002 35 10000 9 350 10:22 02.05.2021
3468 Clouds 13 1003 30 10000 9 330 09:49 02.05.2021
3469 Clouds 13 1003 30 10000 9 330 09:29 02.05.2021
3470 Dust 13 1003 38 10000 9 320 08:55 02.05.2021
3471 Dust 13 1003 38 10000 9 320 08:33 02.05.2021
3472 Dust 14 1002 30 8000 11 300 07:54 02.05.2021
3473 Clouds 13 1002 30 10000 9 320 07:21 02.05.2021
3474 Clouds 13 1002 21 10000 4 310 05:28 02.05.2021
3475 Clouds 7 1001 26 10000 4 40 01:56 02.05.2021
3476 Clouds 8 1001 23 10000 7 130 23:50 01.05.2021
3477 Clouds 8 1001 23 10000 7 130 23:29 01.05.2021
3478 Clouds 9 1002 18 10000 10 130 22:59 01.05.2021
3479 Clouds 9 1002 18 10000 10 130 22:35 01.05.2021
3480 Clouds 9 1003 18 10000 9 130 21:57 01.05.2021
3481 Clouds 8 1003 19 10000 11 130 21:39 01.05.2021
3482 Clouds 8 1003 19 10000 11 130 21:39 01.05.2021
3483 Clouds 8 1003 19 10000 12 140 21:21 01.05.2021
3484 Clouds 8 1004 19 10000 11 130 20:45 01.05.2021
3485 Clouds 8 1004 19 10000 11 130 20:26 01.05.2021
3486 Clouds 9 1004 18 10000 13 140 19:52 01.05.2021
3487 Clouds 9 1004 18 10000 13 140 19:30 01.05.2021
3488 Clouds 9 1005 20 10000 16 140 18:51 01.05.2021
3489 Clouds 9 1005 20 10000 16 140 18:30 01.05.2021
3490 Clouds 10 1004 18 10000 18 150 17:46 01.05.2021
3491 Clouds 10 1004 18 10000 18 150 17:27 01.05.2021
3492 Clouds 12 1006 19 10000 17 150 16:45 01.05.2021
3493 Clouds 12 1006 19 10000 17 150 16:25 01.05.2021
3494 Clouds 12 1006 20 10000 15 150 15:29 01.05.2021
3495 Clouds 14 1006 18 10000 15 140 14:20 01.05.2021
3496 Clouds 14 1006 18 10000 15 140 14:20 01.05.2021
3497 Clouds 14 1006 19 10000 14 150 13:27 01.05.2021
3498 Clouds 15 1006 18 10000 14 140 12:58 01.05.2021
3499 Clouds 15 1007 18 10000 13 160 12:27 01.05.2021
3500 Clouds 15 1007 18 10000 13 160 11:58 01.05.2021
3501 Clouds 16 1007 17 10000 11 160 11:40 01.05.2021
3502 Clouds 15 1008 18 10000 12 160 11:21 01.05.2021
3503 Clouds 15 1008 18 10000 11 160 10:42 01.05.2021
3504 Clouds 15 1009 18 10000 10 160 09:52 01.05.2021
3505 Clouds 15 1010 18 10000 10 170 09:26 01.05.2021
3506 Clouds 15 1010 18 10000 10 170 09:26 01.05.2021
3507 Clouds 15 1010 20 10000 9 170 08:44 01.05.2021
3508 Clouds 13 1011 21 10000 9 170 07:42 01.05.2021
3509 Clouds 11 1012 24 10000 9 160 06:47 01.05.2021
3510 Clouds 11 1012 22 10000 10 150 05:25 01.05.2021
3511 Clouds 2 1014 44 10000 1 0 00:38 01.05.2021
3512 Clouds 3 1013 44 10000 2 0 00:19 01.05.2021
3513 Clouds 3 1014 44 10000 2 170 23:25 30.04.2021
3514 Clouds 0 1014 74 10000 1 0 22:38 30.04.2021
3515 Clouds 0 1014 74 10000 1 0 22:19 30.04.2021
3516 Clouds 0 1013 74 10000 1 0 21:45 30.04.2021
3517 Clouds 0 1013 74 10000 1 0 21:23 30.04.2021
3518 Clouds 0 1013 74 10000 1 0 21:23 30.04.2021
3519 Clouds -1 1013 80 10000 1.88 111 20:45 30.04.2021
3520 Snow -2 1013 80 10000 1 0 19:59 30.04.2021
3521 Clouds -2 1013 80 10000 1 0 19:39 30.04.2021
3522 Clouds -1 1013 74 10000 1 0 18:47 30.04.2021
3523 Clouds -1 1013 74 10000 1 0 18:27 30.04.2021
3524 Clouds 1 1013 64 10000 1 0 17:53 30.04.2021
3525 Clouds 0 1013 74 10000 2 190 17:28 30.04.2021
3526 Clouds 0 1013 74 10000 2 190 17:28 30.04.2021
3527 Clouds 1 1013 69 10000 2 190 16:53 30.04.2021
3528 Clear -1 1013 74 10000 2 180 16:31 30.04.2021
3529 Clear 0 1012 69 10000 1 0 15:42 30.04.2021
3530 Clear 2 1012 60 10000 2 340 15:21 30.04.2021
3531 Clear 4 1012 48 10000 3 340 14:50 30.04.2021
3532 Clear 6 1011 39 10000 4 350 14:28 30.04.2021
3533 Clouds 7 1011 33 10000 5 360 13:54 30.04.2021
3534 Clouds 7 1011 33 10000 5 360 13:36 30.04.2021
3535 Clouds 7 1011 39 10000 5 350 12:47 30.04.2021
3536 Clouds 7 1011 39 10000 5 350 12:26 30.04.2021
3537 Clouds 8 1011 36 10000 6 340 11:44 30.04.2021
3538 Clouds 8 1011 36 10000 7 330 11:21 30.04.2021
3539 Clouds 8 1011 31 10000 8 320 10:43 30.04.2021
3540 Clouds 7 1011 39 10000 6 340 10:24 30.04.2021
3541 Clouds 7 1011 39 10000 6 350 09:36 30.04.2021
3542 Clouds 6 1011 42 10000 6 330 08:57 30.04.2021
3543 Clouds 6 1011 42 10000 7 350 08:23 30.04.2021
3544 Clouds 5 1012 45 10000 8 340 07:33 30.04.2021
3545 Clouds 5 1012 48 10000 8 330 06:53 30.04.2021
3546 Clouds 5 1012 48 10000 8 330 06:26 30.04.2021
3547 Clouds 4 1012 48 10000 8 330 05:40 30.04.2021
3548 Clouds 0 1012 64 10000 6 320 02:58 30.04.2021
3549 Clouds 0 1012 64 10000 5 340 01:45 30.04.2021
3550 Clouds -1 1011 74 10000 5 330 00:26 30.04.2021
3551 Clouds -1 1011 80 10000 5 340 23:26 29.04.2021
3552 Clouds -2 1014 85 10000 3.26 306 22:44 29.04.2021
3553 Clouds 0 1010 80 10000 6 330 22:23 29.04.2021
3554 Clouds 0 1010 80 10000 6 330 21:45 29.04.2021
3555 Clouds 0 1010 80 10000 6 330 21:25 29.04.2021
3556 Snow 1 1010 75 10000 5 340 20:55 29.04.2021
3557 Snow 1 1010 75 10000 5 340 20:36 29.04.2021
3558 Snow 1 1010 75 10000 5 340 20:18 29.04.2021
3559 Clouds 1 1010 69 10000 4 350 19:41 29.04.2021
3560 Clouds 1 1010 69 10000 4 350 19:20 29.04.2021
3561 Clouds 1 1010 69 10000 6 340 18:42 29.04.2021
3562 Clouds 1 1010 69 10000 6 340 18:20 29.04.2021
3563 Clouds 2 1009 69 10000 8 350 17:45 29.04.2021
3564 Clouds 2 1009 69 10000 8 350 17:19 29.04.2021
3565 Clouds 2 1008 69 10000 7 350 16:43 29.04.2021
3566 Clouds 2 1007 69 10000 7 350 16:22 29.04.2021
3567 Clouds 3 1007 65 10000 8 350 15:43 29.04.2021
3568 Clouds 3 1006 70 10000 6 350 15:23 29.04.2021
3569 Clouds 3 1006 70 10000 7 350 14:45 29.04.2021
3570 Clouds 3 1005 70 10000 7 340 14:22 29.04.2021
3571 Clouds 4 1004 70 10000 6 340 13:44 29.04.2021
3572 Clouds 4 1003 70 10000 6 340 13:21 29.04.2021
3573 Clouds 5 1003 65 10000 5 350 12:43 29.04.2021
3574 Rain 4 1003 70 10000 3 40 12:20 29.04.2021
3575 Clouds 4 1002 70 10000 3 50 11:47 29.04.2021
3576 Rain 5 1002 65 10000 5 40 11:22 29.04.2021
3577 Clouds 4 1002 75 10000 7 40 10:45 29.04.2021
3578 Clouds 6 1002 52 10000 3 30 10:26 29.04.2021
3579 Clouds 6 1002 52 10000 2 0 09:42 29.04.2021
3580 Clouds 6 1003 49 10000 3 220 09:22 29.04.2021
3581 Clouds 6 1003 49 10000 3 220 09:22 29.04.2021
3582 Clouds 4 1003 56 10000 4 210 08:45 29.04.2021
3583 Clouds 3 1004 56 10000 4 200 08:26 29.04.2021
3584 Clouds 2 1005 60 10000 3 190 07:35 29.04.2021
3585 Clouds 2 1006 60 10000 3 230 06:42 29.04.2021
3586 Clouds 2 1008 48 10000 4 240 05:27 29.04.2021
3587 Clear -6 1009 73 10000 2 150 00:49 29.04.2021
3588 Clear -8 1010 79 10000 1 0 23:24 28.04.2021
3589 Clear -5 1010 68 10000 1.69 309 22:59 28.04.2021
3590 Clear -5 1010 68 10000 1.97 309 22:28 28.04.2021
3591 Clear -5 1010 68 10000 1.97 309 22:28 28.04.2021
3592 Clear -5 1010 74 10000 1 0 21:55 28.04.2021
3593 Clear -5 1010 74 10000 1 0 21:37 28.04.2021
3594 Clear -5 1010 74 10000 1 0 21:18 28.04.2021
3595 Clear -3 1010 63 10000 2.42 301 20:39 28.04.2021
3596 Clear -3 1010 63 10000 2.44 304 20:21 28.04.2021
3597 Clear -4 1010 68 10000 2 0 19:40 28.04.2021
3598 Clear -4 1010 68 10000 2 0 19:22 28.04.2021
3599 Clouds -3 1010 59 10000 2 340 18:46 28.04.2021
3600 Clouds -1 1010 51 10000 2 340 18:21 28.04.2021
3601 Clouds -2 1010 54 10000 3 320 17:47 28.04.2021
3602 Clouds 0 1010 51 10000 3 300 17:25 28.04.2021
3603 Clouds 0 1010 59 10000 1 0 16:22 28.04.2021
3604 Clouds 0 1010 59 10000 2 0 15:49 28.04.2021
3605 Clouds 0 1010 59 10000 2 0 15:31 28.04.2021
3606 Clouds 2 1009 48 10000 5 300 14:44 28.04.2021
3607 Clouds 3 1009 41 10000 5 330 14:22 28.04.2021
3608 Clouds 3 1009 38 10000 8 320 13:59 28.04.2021
3609 Clouds 4 1008 35 10000 11 320 13:27 28.04.2021
3610 Clouds 5 1008 33 10000 9 320 12:56 28.04.2021
3611 Clouds 5 1008 33 10000 9 320 12:30 28.04.2021
3612 Clouds 4 1008 52 10000 9 320 11:49 28.04.2021
3613 Clouds 3 1008 56 10000 13 300 11:26 28.04.2021
3614 Clouds 5 1008 42 10000 9 340 10:43 28.04.2021
3615 Clouds 5 1008 56 10000 10 350 10:21 28.04.2021
3616 Clouds 6 1008 45 10000 10 340 09:57 28.04.2021
3617 Clouds 6 1008 45 10000 10 340 09:57 28.04.2021
3618 Clouds 6 1008 45 10000 10 340 09:34 28.04.2021
3619 Clouds 7 1008 33 10000 11 320 08:55 28.04.2021
3620 Clouds 5 1009 45 10000 9 350 07:54 28.04.2021
3621 Clouds 6 1009 36 10000 9 330 07:28 28.04.2021
3622 Clouds 5 1010 38 10000 7 330 05:49 28.04.2021
3623 Clouds 1 1011 64 10000 1 0 03:47 28.04.2021
3624 Clouds 0 1012 74 10000 1 0 02:34 28.04.2021
3625 Clear -5 1012 86 10000 2 170 00:49 28.04.2021
3626 Clear -4 1012 86 10000 1 0 23:52 27.04.2021
3627 Clear -4 1012 86 10000 1 0 23:34 27.04.2021
3628 Clear -3 1013 80 10000 2 320 22:50 27.04.2021
3629 Clear -3 1013 80 10000 2 320 22:30 27.04.2021
3630 Clear -1 1014 74 10000 3 30 21:48 27.04.2021
3631 Clear -1 1014 74 10000 3 30 21:29 27.04.2021
3632 Clouds -1 1014 74 10000 3 10 20:58 27.04.2021
3633 Clouds -1 1014 74 10000 3 10 20:39 27.04.2021
3634 Clouds -1 1014 74 10000 2 90 19:51 27.04.2021
3635 Clear -2 1014 80 10000 1 0 19:26 27.04.2021
3636 Clear -4 1015 86 10000 2 170 18:57 27.04.2021
3637 Clear -4 1015 86 10000 2 170 18:39 27.04.2021
3638 Clear -4 1015 86 10000 2 180 18:21 27.04.2021
3639 Clear -2 1015 80 10000 1 0 17:30 27.04.2021
3640 Clear -2 1015 80 10000 1 0 16:49 27.04.2021
3641 Clear -1 1016 74 10000 1 0 16:31 27.04.2021
3642 Clouds 1 1016 60 10000 1 0 15:57 27.04.2021
3643 Clouds 1 1016 60 10000 1 0 15:37 27.04.2021
3644 Clouds 1 1015 55 10000 1 0 15:19 27.04.2021
3645 Clouds 2 1015 48 10000 1 0 14:41 27.04.2021
3646 Clouds 3 1015 44 10000 1 0 14:20 27.04.2021
3647 Clouds 4 1015 41 10000 3 360 13:42 27.04.2021
3648 Clouds 4 1016 41 10000 4 330 13:20 27.04.2021
3649 Clouds 5 1015 33 10000 8 330 12:27 27.04.2021
3650 Clouds 5 1015 38 10000 7 330 11:55 27.04.2021
3651 Clouds 4 1015 41 10000 8 330 11:26 27.04.2021
3652 Clouds 4 1015 41 10000 8 340 10:47 27.04.2021
3653 Clouds 4 1016 41 10000 8 340 10:22 27.04.2021
3654 Clouds 5 1016 33 10000 10 330 09:45 27.04.2021
3655 Clouds 5 1016 36 10000 12 310 08:53 27.04.2021
3656 Clouds 5 1016 33 10000 11 320 08:19 27.04.2021
3657 Clouds 3 1016 38 10000 10 320 07:38 27.04.2021
3658 Clouds 4 1016 38 10000 11 320 06:49 27.04.2021
3659 Clouds 4 1017 45 10000 12 300 06:19 27.04.2021
3660 Clouds 1 1017 51 10000 10 310 04:30 27.04.2021
3661 Clouds -1 1017 69 10000 6 290 01:53 27.04.2021
3662 Clouds -4 1017 86 10000 3 320 00:23 27.04.2021
3663 Clouds -3 1017 80 10000 4 330 23:36 26.04.2021
3664 Clouds -3 1017 80 10000 3 340 23:18 26.04.2021
3665 Clouds -3 1017 74 10000 4 290 22:48 26.04.2021
3666 Clear -3 1017 74 10000 2 0 21:58 26.04.2021
3667 Clear -3 1017 74 10000 2 0 21:39 26.04.2021
3668 Clear -4 1016 74 10000 2 320 21:20 26.04.2021
3669 Clear -3 1016 68 10000 5 300 20:40 26.04.2021
3670 Clear -3 1016 68 10000 6 310 20:21 26.04.2021
3671 Clouds -3 1016 74 10000 5 310 19:40 26.04.2021
3672 Clouds -3 1016 74 10000 5 310 19:20 26.04.2021
3673 Clouds -3 1016 74 10000 3 330 18:42 26.04.2021
3674 Clouds -2 1016 64 10000 3 350 18:19 26.04.2021
3675 Clouds -2 1016 64 10000 4 340 17:45 26.04.2021
3676 Clouds -2 1016 69 10000 4 340 17:20 26.04.2021
3677 Clouds -2 1016 69 10000 4 340 17:20 26.04.2021
3678 Clouds -1 1016 64 10000 4 340 16:45 26.04.2021
3679 Clouds -2 1016 74 10000 2 320 16:24 26.04.2021
3680 Clouds -1 1015 69 10000 4 330 15:44 26.04.2021
3681 Snow -1 1015 69 10000 4 330 15:21 26.04.2021
3682 Clouds 0 1015 59 10000 6 340 14:49 26.04.2021
3683 Snow 0 1014 59 10000 3 340 14:31 26.04.2021
3684 Clouds 0 1014 59 10000 5 350 13:49 26.04.2021
3685 Clouds 1 1014 55 10000 8 340 13:25 26.04.2021
3686 Clouds 2 1014 55 10000 10 330 12:46 26.04.2021
3687 Clouds 1 1013 60 10000 9 340 11:50 26.04.2021
3688 Clouds 1 1012 60 10000 11 350 11:31 26.04.2021
3689 Snow 1 1012 64 10000 11 340 10:48 26.04.2021
3690 Clouds 0 1011 74 10000 12 330 10:22 26.04.2021
3691 Clouds 0 1011 69 10000 11 330 09:47 26.04.2021
3692 Clouds 0 1011 64 10000 11 340 09:24 26.04.2021
3693 Snow 0 1010 69 10000 13 340 08:52 26.04.2021
3694 Snow -1 1010 74 10000 14 340 08:21 26.04.2021
3695 Clouds 0 1009 69 10000 13 340 07:52 26.04.2021
3696 Snow -1 1009 74 10000 12 340 07:21 26.04.2021
3697 Snow -1 1008 74 3600 14 340 06:36 26.04.2021
3698 Snow -1 1005 74 10000 15 330 04:58 26.04.2021
3699 Snow -1 1005 74 10000 15 330 04:36 26.04.2021
3700 Snow -2 1004 86 8000 7 320 02:36 26.04.2021
3701 Snow -1 1002 80 10000 5 350 00:59 26.04.2021
3702 Snow -1 1002 80 10000 5 350 00:36 26.04.2021
3703 Snow -1 1003 80 10000 4 360 23:45 25.04.2021
3704 Snow -1 1003 80 10000 5 360 23:25 25.04.2021
3705 Snow -1 1003 80 10000 6 340 22:47 25.04.2021
3706 Snow 0 1003 80 10000 6 340 22:22 25.04.2021
3707 Snow 0 1004 80 10000 4 360 21:49 25.04.2021
3708 Clouds 0 1004 80 10000 6 350 21:28 25.04.2021
3709 Clouds -1 1004 86 10000 5 340 20:59 25.04.2021
3710 Clouds -1 1004 86 10000 5 340 20:40 25.04.2021
3711 Clouds 0 1005 80 10000 5 350 20:20 25.04.2021
3712 Clouds 0 1005 80 10000 4 350 19:39 25.04.2021
3713 Clouds 0 1006 86 10000 3 360 19:21 25.04.2021
3714 Clouds 0 1007 86 10000 3 340 18:46 25.04.2021
3715 Clouds 0 1008 86 10000 4 330 18:25 25.04.2021
3716 Clouds 0 1008 86 10000 4 290 17:44 25.04.2021
3717 Clouds 0 1008 86 10000 4 270 17:22 25.04.2021
3718 Clouds 0 1008 86 10000 3 270 16:46 25.04.2021
3719 Clouds 1 1008 80 10000 2 340 16:27 25.04.2021
3720 Clouds 1 1009 86 10000 3 330 15:54 25.04.2021
3721 Clouds 1 1010 86 10000 3 290 15:24 25.04.2021
3722 Snow 1 1010 86 10000 6 320 14:38 25.04.2021
3723 Snow 1 1010 86 10000 4 270 14:18 25.04.2021
3724 Snow 1 1010 86 10000 4 270 13:27 25.04.2021
3725 Snow 1 1010 93 10000 1 0 12:59 25.04.2021
3726 Clouds 1 1010 93 10000 1 0 12:40 25.04.2021
3727 Snow 1 1010 93 3600 2.32 282 12:20 25.04.2021
3728 Snow 0 1011 93 1200 1 0 11:38 25.04.2021
3729 Snow 0 1011 93 1200 1 0 10:53 25.04.2021
3730 Snow 0 1012 93 1200 1.46 316 10:24 25.04.2021
3731 Snow 0 1012 93 1200 1 0 09:52 25.04.2021
3732 Snow 0 1012 93 1200 2 320 09:27 25.04.2021
3733 Snow 0 1013 93 1200 1 0 08:56 25.04.2021
3734 Snow 1 1014 86 3600 1 0 07:51 25.04.2021
3735 Snow 2 1015 87 3600 1 0 07:22 25.04.2021
3736 Snow 2 1015 87 3600 1 0 07:22 25.04.2021
3737 Snow 2 1015 87 6000 2 280 06:59 25.04.2021
3738 Clouds 2 1015 87 8000 3 340 06:19 25.04.2021
3739 Clouds 2 1015 87 8000 3 340 06:19 25.04.2021
3740 Clouds 4 1016 70 10000 9 120 04:45 25.04.2021
3741 Clouds 6 1015 65 10000 10 140 02:47 25.04.2021
3742 Rain 8 1015 49 10000 8 140 01:38 25.04.2021
3743 Rain 9 1016 29 10000 10 120 00:34 25.04.2021
3744 Rain 10 1016 32 10000 8 130 23:50 24.04.2021
3745 Rain 10 1017 32 10000 10 120 23:27 24.04.2021
3746 Rain 10 1018 23 10000 10 130 22:48 24.04.2021
3747 Rain 10 1018 25 10000 10 130 22:30 24.04.2021
3748 Rain 10 1018 23 10000 16 130 21:43 24.04.2021
3749 Rain 10 1018 22 10000 13 130 21:22 24.04.2021
3750 Rain 11 1019 22 10000 12 130 20:43 24.04.2021
3751 Rain 11 1019 22 10000 12 130 20:43 24.04.2021
3752 Rain 11 1019 22 10000 12 130 20:25 24.04.2021
3753 Clouds 12 1020 30 10000 8 130 19:39 24.04.2021
3754 Rain 12 1020 30 10000 8 130 19:21 24.04.2021
3755 Clouds 12 1021 22 10000 12 140 18:45 24.04.2021
3756 Rain 12 1021 22 10000 12 140 18:26 24.04.2021
3757 Clouds 12 1021 22 10000 10 130 17:44 24.04.2021
3758 Rain 12 1021 22 10000 10 130 17:18 24.04.2021
3759 Clouds 12 1021 20 10000 11 130 16:42 24.04.2021
3760 Rain 12 1021 20 10000 11 130 16:23 24.04.2021
3761 Rain 12 1021 26 10000 11 130 15:33 24.04.2021
3762 Rain 10 1022 40 10000 10 130 14:39 24.04.2021
3763 Rain 11 1023 25 10000 11 140 13:59 24.04.2021
3764 Clouds 11 1023 25 10000 11 140 13:38 24.04.2021
3765 Clouds 11 1023 37 10000 11 150 12:59 24.04.2021
3766 Rain 9 1023 43 10000 15 150 12:19 24.04.2021
3767 Rain 11 1023 30 10000 15 140 11:49 24.04.2021
3768 Rain 11 1023 25 10000 12 130 11:21 24.04.2021
3769 Rain 12 1022 24 10000 12 120 10:46 24.04.2021
3770 Dust 14 1022 19 10000 11 120 10:19 24.04.2021
3771 Clouds 15 1022 20 10000 9 110 09:42 24.04.2021
3772 Clouds 12 1024 22 10000 6 50 08:27 24.04.2021
3773 Dust 11 1023 22 10000 8 30 07:36 24.04.2021
3774 Dust 9 1025 25 10000 10 40 05:47 24.04.2021
3775 Clouds 5 1028 33 10000 5 30 01:35 24.04.2021
3776 Clouds 4 1028 35 10000 2 0 00:28 24.04.2021
3777 Clouds 3 1028 41 10000 1 0 22:55 23.04.2021
3778 Clouds 3 1028 44 10000 4.62 101 22:23 23.04.2021
3779 Clouds 3 1028 44 10000 4.62 101 21:55 23.04.2021
3780 Clouds 2 1028 55 10000 2 0 21:28 23.04.2021
3781 Clouds 2 1028 51 10000 5.03 102 20:47 23.04.2021
3782 Clouds 2 1028 51 10000 5.44 103 20:26 23.04.2021
3783 Clouds 3 1028 48 10000 2 0 19:59 23.04.2021
3784 Clouds 3 1028 48 10000 2 0 19:40 23.04.2021
3785 Clouds 3 1028 48 10000 2 0 19:21 23.04.2021
3786 Clear 4 1028 41 10000 3 250 18:43 23.04.2021
3787 Clear 4 1028 41 10000 3 250 18:24 23.04.2021
3788 Clear 4 1028 38 10000 3 250 17:43 23.04.2021
3789 Clear 4 1028 38 10000 2 0 17:21 23.04.2021
3790 Clouds 4 1028 38 10000 3 250 16:49 23.04.2021
3791 Clouds 4 1028 38 10000 3 250 16:30 23.04.2021
3792 Clouds 6 1028 31 10000 2 0 15:43 23.04.2021
3793 Clouds 8 1027 27 10000 1 0 14:57 23.04.2021
3794 Clouds 10 1027 23 10000 4 110 13:44 23.04.2021
3795 Clouds 11 1026 22 10000 5 110 13:26 23.04.2021
3796 Clouds 10 1026 32 10000 3 310 12:39 23.04.2021
3797 Clouds 10 1026 32 10000 3 40 11:59 23.04.2021
3798 Clouds 9 1026 37 10000 5 320 11:41 23.04.2021
3799 Clouds 9 1026 37 10000 6 330 11:21 23.04.2021
3800 Clouds 10 1026 34 10000 5 310 10:38 23.04.2021
3801 Clouds 10 1027 34 10000 4 330 10:20 23.04.2021
3802 Clouds 9 1027 37 10000 2 0 09:29 23.04.2021
3803 Rain 8 1027 39 10000 2 0 08:46 23.04.2021
3804 Clouds 7 1027 42 10000 2 0 07:56 23.04.2021
3805 Clouds 7 1027 42 10000 2 0 07:29 23.04.2021
3806 Clouds 5 1028 45 10000 2 0 06:30 23.04.2021
3807 Rain 2 1028 55 10000 3 20 04:33 23.04.2021
3808 Clouds -1 1028 69 10000 4 20 02:51 23.04.2021
3809 Clouds -2 1026 74 10000 3 360 00:35 23.04.2021
3810 Clouds -2 1025 69 10000 3 10 23:26 22.04.2021
3811 Clouds -2 1024 69 10000 4 10 22:42 22.04.2021
3812 Clouds -2 1024 69 10000 5 30 22:19 22.04.2021
3813 Clouds -2 1024 69 10000 3.21 344 21:45 22.04.2021
3814 Clouds -1 1024 64 10000 2 0 21:27 22.04.2021
3815 Clouds -1 1023 64 10000 1 0 20:55 22.04.2021
3816 Clouds 0 1023 59 10000 3 330 20:29 22.04.2021
3817 Snow 1 1023 47 10000 4 30 19:54 22.04.2021
3818 Snow 1 1023 47 10000 4 30 19:54 22.04.2021
3819 Clouds 1 1023 47 10000 4 30 19:34 22.04.2021
3820 Clouds 1 1023 47 10000 4 10 18:52 22.04.2021
3821 Clouds 1 1022 44 10000 5 360 18:22 22.04.2021
3822 Clouds 1 1022 44 10000 6 330 17:53 22.04.2021
3823 Clouds 2 1020 41 10000 6 10 17:22 22.04.2021
3824 Clouds 2 1020 41 10000 6 10 17:22 22.04.2021
3825 Clouds 2 1020 41 10000 5 360 16:56 22.04.2021
3826 Clouds 2 1020 41 10000 5 360 16:37 22.04.2021
3827 Clouds 3 1020 38 10000 4 10 16:18 22.04.2021
3828 Clouds 3 1020 38 10000 6 340 15:40 22.04.2021
3829 Clouds 4 1018 38 10000 5 360 15:19 22.04.2021
3830 Clouds 5 1017 36 10000 5 350 14:33 22.04.2021
3831 Clouds 7 1017 31 10000 8 330 13:58 22.04.2021
3832 Clouds 7 1017 31 10000 8 330 13:40 22.04.2021
3833 Clouds 9 1016 31 10000 8 350 13:20 22.04.2021
3834 Clouds 12 1015 28 10000 7 320 12:45 22.04.2021
3835 Clouds 13 1014 28 10000 6 320 12:20 22.04.2021
3836 Clouds 13 1014 28 10000 3 310 11:45 22.04.2021
3837 Clouds 13 1013 28 10000 2 0 11:23 22.04.2021
3838 Clouds 13 1013 28 10000 2 0 10:45 22.04.2021
3839 Clouds 13 1013 28 10000 1 0 10:24 22.04.2021
3840 Clouds 12 1014 30 10000 3 320 09:45 22.04.2021
3841 Clear 12 1014 28 10000 2 0 09:20 22.04.2021
3842 Clear 11 1014 30 10000 3 280 08:39 22.04.2021
3843 Clear 10 1014 32 10000 2 0 08:19 22.04.2021
3844 Clear 9 1014 34 10000 3 270 07:44 22.04.2021
3845 Clear 9 1015 34 10000 3 260 07:20 22.04.2021
3846 Clear 7 1015 39 10000 3 310 06:27 22.04.2021
3847 Clear 7 1015 39 10000 3 310 06:27 22.04.2021
3848 Clear 4 1015 45 10000 2 0 05:26 22.04.2021
3849 Clear 3 1015 48 10000 2 0 04:29 22.04.2021
3850 Clear -5 1013 74 10000 1 0 00:55 22.04.2021
3851 Clear -3 1012 68 10000 4 350 23:47 21.04.2021
3852 Clear -3 1012 68 10000 4 350 23:26 21.04.2021
3853 Clear -3 1012 74 10000 2 0 22:42 21.04.2021
3854 Clear -3 1011 74 10000 1 0 22:24 21.04.2021
3855 Clear -3 1011 74 10000 2 0 21:46 21.04.2021
3856 Clear -3 1011 74 10000 2 0 21:24 21.04.2021
3857 Clear -2 1010 69 10000 1 0 20:43 21.04.2021
3858 Clear -1 1010 64 10000 4 280 20:20 21.04.2021
3859 Clear -1 1009 64 10000 4 290 19:43 21.04.2021
3860 Clear 0 1009 64 10000 2 310 19:23 21.04.2021
3861 Clear 0 1008 59 10000 3 300 18:46 21.04.2021
3862 Clear 1 1008 55 10000 2 0 18:26 21.04.2021
3863 Clear 2 1008 55 10000 3 300 17:48 21.04.2021
3864 Clear 4 1008 48 10000 5 10 17:24 21.04.2021
3865 Clouds 4 1007 48 10000 7 20 16:49 21.04.2021
3866 Clouds 5 1006 45 10000 3 340 15:59 21.04.2021
3867 Clouds 5 1006 45 10000 3 340 15:40 21.04.2021
3868 Clouds 7 1005 42 10000 5 340 14:55 21.04.2021
3869 Clouds 7 1005 42 10000 5 340 14:36 21.04.2021
3870 Clear 9 1004 37 10000 6 360 14:18 21.04.2021
3871 Clear 9 1004 34 10000 6 10 13:40 21.04.2021
3872 Clear 11 1004 30 10000 6 10 13:20 21.04.2021
3873 Clear 12 1003 28 10000 6 350 12:30 21.04.2021
3874 Clear 14 1002 26 10000 6 10 11:50 21.04.2021
3875 Clear 15 1002 25 10000 7 360 11:29 21.04.2021
3876 Clear 17 1001 20 10000 6 360 10:51 21.04.2021
3877 Clear 17 1001 20 10000 6 360 10:33 21.04.2021
3878 Clear 18 1001 19 10000 9 340 09:44 21.04.2021
3879 Clear 21 1001 11 10000 5 240 08:56 21.04.2021
3880 Clear 21 1001 11 10000 5 240 08:38 21.04.2021
3881 Clear 21 1001 12 10000 6 260 08:19 21.04.2021
3882 Clear 20 1002 12 10000 3 260 07:31 21.04.2021
3883 Clear 20 1002 11 10000 4 230 06:56 21.04.2021
3884 Clear 16 1003 20 10000 1 0 05:20 21.04.2021
3885 Clear 0 1004 64 10000 1.77 168 00:58 21.04.2021
3886 Clear -3 1003 68 10000 1 0 23:50 20.04.2021
3887 Clear -3 1003 68 10000 1 0 23:24 20.04.2021
3888 Clear -1 1004 64 10000 1.6 160 22:41 20.04.2021
3889 Clear -1 1004 64 10000 1.76 154 22:19 20.04.2021
3890 Clear -1 1004 64 10000 1 0 21:47 20.04.2021
3891 Clear -1 1004 64 10000 1 0 21:25 20.04.2021
3892 Clear 2 1004 48 10000 1 0 20:43 20.04.2021
3893 Clear 2 1004 48 10000 1 0 20:23 20.04.2021
3894 Clear 2 1004 48 10000 1 0 19:55 20.04.2021
3895 Clear 2 1004 48 10000 1 0 19:36 20.04.2021
3896 Clear 2 1004 48 10000 1 0 19:18 20.04.2021
3897 Clear 4 1004 41 10000 1 0 18:35 20.04.2021
3898 Clear 4 1004 38 10000 1 0 17:46 20.04.2021
3899 Clear 5 1004 36 10000 1.79 114 17:25 20.04.2021
3900 Clear 3 1004 38 10000 1 0 16:44 20.04.2021
3901 Clear 10 1004 22 10000 1 0 15:51 20.04.2021
3902 Clear 10 1004 22 10000 1 0 15:28 20.04.2021
3903 Clear 9 1004 25 10000 3 160 14:57 20.04.2021
3904 Clear 9 1004 25 10000 4 160 14:33 20.04.2021
3905 Clear 16 1003 13 10000 1 0 13:44 20.04.2021
3906 Clear 18 1004 11 10000 2 290 13:18 20.04.2021
3907 Clear 19 1004 10 10000 4 280 12:41 20.04.2021
3908 Clear 19 1004 9 10000 5 280 12:20 20.04.2021
3909 Clear 19 1004 8 10000 5 280 11:41 20.04.2021
3910 Clouds 19 1004 8 10000 6 290 11:21 20.04.2021
3911 Clouds 19 1004 8 10000 6 300 10:43 20.04.2021
3912 Clouds 19 1004 8 10000 8 300 10:23 20.04.2021
3913 Clouds 20 1004 8 10000 7 310 09:23 20.04.2021
3914 Clouds 20 1004 10 10000 2 0 08:55 20.04.2021
3915 Clouds 19 1004 11 10000 3 310 08:20 20.04.2021
3916 Clouds 18 1005 11 10000 3 310 07:39 20.04.2021
3917 Clouds 17 1006 12 10000 3 240 06:36 20.04.2021
3918 Clouds 15 1007 13 10000 2 0 05:37 20.04.2021
3919 Clouds 15 1008 12 10000 2 0 04:41 20.04.2021
3920 Clouds 7 1008 24 10000 3 180 00:53 20.04.2021
3921 Clouds 6 1008 26 10000 5 150 00:27 20.04.2021
3922 Clear 6 1008 28 10000 3 330 23:34 19.04.2021
3923 Clear 9 1008 23 10000 9 160 22:51 19.04.2021
3924 Clear 9 1008 23 10000 11 150 22:29 19.04.2021
3925 Clear 9 1008 23 10000 11 150 21:47 19.04.2021
3926 Clear 9 1009 23 10000 10 150 21:25 19.04.2021
3927 Clear 9 1009 23 10000 10 150 20:42 19.04.2021
3928 Clear 9 1009 23 10000 10 150 20:22 19.04.2021
3929 Clear 9 1009 25 10000 10 150 19:50 19.04.2021
3930 Clear 9 1009 25 10000 10 150 19:28 19.04.2021
3931 Clear 10 1009 23 10000 10 140 18:59 19.04.2021
3932 Clear 10 1010 27 10000 6 150 18:41 19.04.2021
3933 Clear 10 1010 27 10000 6 150 18:21 19.04.2021
3934 Clear 9 1010 29 10000 5 170 17:46 19.04.2021
3935 Clear 9 1010 29 10000 5 170 17:24 19.04.2021
3936 Clear 8 1010 31 10000 2 170 16:45 19.04.2021
3937 Clouds 8 1010 31 10000 4 170 16:25 19.04.2021
3938 Clouds 8 1010 31 10000 4 190 15:43 19.04.2021
3939 Clouds 7 1010 33 10000 3 180 15:24 19.04.2021
3940 Clouds 10 1010 27 10000 5 200 14:52 19.04.2021
3941 Clouds 12 1010 24 10000 4 200 14:31 19.04.2021
3942 Clouds 14 1010 17 10000 6 230 13:52 19.04.2021
3943 Clouds 14 1010 17 10000 6 230 13:28 19.04.2021
3944 Clouds 16 1010 18 10000 7 190 12:48 19.04.2021
3945 Clouds 16 1010 18 10000 7 190 12:27 19.04.2021
3946 Clouds 17 1010 15 10000 6 250 11:59 19.04.2021
3947 Clouds 16 1010 16 10000 8 240 11:27 19.04.2021
3948 Clouds 16 1011 14 10000 6 220 10:55 19.04.2021
3949 Clouds 16 1011 14 10000 6 220 10:36 19.04.2021
3950 Clouds 16 1011 16 10000 6 230 10:18 19.04.2021
3951 Clouds 16 1011 17 10000 7 250 09:39 19.04.2021
3952 Clouds 16 1012 18 10000 5 230 09:21 19.04.2021
3953 Clouds 14 1013 21 10000 7 200 08:32 19.04.2021
3954 Clouds 15 1013 21 10000 6 230 07:49 19.04.2021
3955 Clouds 14 1013 23 10000 7 190 07:21 19.04.2021
3956 Clouds 14 1014 23 10000 7 210 06:45 19.04.2021
3957 Clouds 5 1016 48 10000 1 0 02:41 19.04.2021
3958 Clouds 1 1015 69 10000 1 0 01:49 19.04.2021
3959 Clouds -1 1015 74 10000 1 0 00:33 19.04.2021
3960 Clouds -1 1014 74 10000 1 0 23:20 18.04.2021
3961 Clear -1 1015 74 10000 1 0 22:56 18.04.2021
3962 Clear -1 1014 80 10000 1 0 22:31 18.04.2021
3963 Clear -2 1014 80 10000 1 0 21:49 18.04.2021
3964 Clear -2 1014 80 10000 1 0 21:27 18.04.2021
3965 Clear -3 1013 80 10000 1 0 20:43 18.04.2021
3966 Clear -3 1013 74 10000 1 0 20:24 18.04.2021
3967 Clear -1 1013 69 10000 0.27 59 19:56 18.04.2021
3968 Clear -1 1013 69 10000 0.27 59 19:36 18.04.2021
3969 Clear -1 1013 69 10000 1 0 18:59 18.04.2021
3970 Clear -1 1013 69 10000 1 0 18:38 18.04.2021
3971 Clear -1 1013 69 10000 1 0 18:20 18.04.2021
3972 Clear 0 1013 64 10000 1 0 17:42 18.04.2021
3973 Clear -2 1013 69 10000 2 180 17:24 18.04.2021
3974 Clear -1 1012 69 10000 2 180 16:45 18.04.2021
3975 Clear 1 1012 60 10000 1 0 16:19 18.04.2021
3976 Clear 0 1012 64 10000 3 180 15:41 18.04.2021
3977 Clear 2 1012 51 10000 1 0 15:23 18.04.2021
3978 Clear 7 1012 36 10000 2 350 14:42 18.04.2021
3979 Clear 8 1011 34 10000 2 0 14:20 18.04.2021
3980 Clear 8 1011 31 10000 3 330 13:54 18.04.2021
3981 Clear 10 1011 27 10000 5 330 13:31 18.04.2021
3982 Clear 11 1011 25 10000 4 330 12:44 18.04.2021
3983 Clear 11 1011 25 10000 4 330 12:44 18.04.2021
3984 Clear 11 1011 25 10000 4 340 12:23 18.04.2021
3985 Clear 11 1011 28 10000 5 340 11:41 18.04.2021
3986 Clear 11 1010 25 10000 5 340 11:20 18.04.2021
3987 Clear 12 1010 26 10000 6 330 10:46 18.04.2021
3988 Clear 12 1010 24 10000 6 340 10:21 18.04.2021
3989 Clear 11 1010 28 10000 8 330 09:44 18.04.2021
3990 Clear 11 1010 25 10000 7 330 09:26 18.04.2021
3991 Clear 11 1010 28 10000 7 330 08:48 18.04.2021
3992 Clear 11 1010 28 10000 6 340 08:29 18.04.2021
3993 Clear 11 1010 30 10000 7 350 07:41 18.04.2021
3994 Clear 10 1010 34 10000 8 320 06:56 18.04.2021
3995 Clear 10 1010 27 10000 5 320 05:27 18.04.2021
3996 Clear 10 1009 25 10000 7 320 04:53 18.04.2021
3997 Clear 2 1008 55 10000 1 0 02:23 18.04.2021
3998 Clear -2 1007 74 10000 1 0 00:58 18.04.2021
3999 Clear -4 1006 74 10000 0.69 192 23:58 17.04.2021
4000 Clouds -3 1006 68 10000 1 0 23:26 17.04.2021
4001 Clouds -1 1006 64 10000 1 0 22:44 17.04.2021
4002 Clouds -1 1006 64 10000 1 0 22:25 17.04.2021
4003 Clear -2 1006 69 10000 1 0 21:45 17.04.2021
4004 Clear -2 1006 69 10000 1 0 21:24 17.04.2021
4005 Clear -2 1006 69 10000 3 150 20:41 17.04.2021
4006 Clear -2 1006 69 10000 3 150 20:23 17.04.2021
4007 Clear 0 1006 51 10000 1 0 19:42 17.04.2021
4008 Clear 0 1006 51 10000 1 0 19:20 17.04.2021
4009 Clear 4 1006 38 10000 1 0 18:49 17.04.2021
4010 Clear 4 1006 38 10000 1 0 18:23 17.04.2021
4011 Clear 7 1006 26 10000 1 0 17:42 17.04.2021
4012 Clear 9 1007 21 10000 4 190 16:58 17.04.2021
4013 Clear 9 1007 21 10000 4 190 16:39 17.04.2021
4014 Clear 9 1007 21 10000 5 190 16:19 17.04.2021
4015 Clear 8 1007 25 10000 4 190 15:22 17.04.2021
4016 Clear 7 1007 26 10000 4 180 14:43 17.04.2021
4017 Clear 10 1007 20 10000 4 200 14:19 17.04.2021
4018 Clear 14 1007 13 10000 4 250 13:42 17.04.2021
4019 Clear 15 1008 12 10000 6 250 12:48 17.04.2021
4020 Clear 16 1008 11 10000 7 260 12:23 17.04.2021
4021 Clear 16 1008 11 10000 6 260 11:51 17.04.2021
4022 Clear 16 1008 11 10000 6 260 11:32 17.04.2021
4023 Clear 16 1009 11 10000 7 270 10:48 17.04.2021
4024 Clear 16 1009 11 10000 7 270 10:29 17.04.2021
4025 Clear 15 1010 13 10000 5 260 09:46 17.04.2021
4026 Clear 14 1011 13 10000 6 230 08:46 17.04.2021
4027 Clear 14 1011 13 10000 6 230 08:26 17.04.2021
4028 Clear 13 1012 15 10000 7 240 07:42 17.04.2021
4029 Clear 3 1016 41 10000 1 0 03:59 17.04.2021
4030 Clear 1 1016 51 10000 1 0 03:39 17.04.2021
4031 Clear -8 1017 86 10000 1 0 00:51 17.04.2021
4032 Clear -7 1017 79 10000 1 0 00:29 17.04.2021
4033 Clear -9 1017 79 10000 1.89 116 23:52 16.04.2021
4034 Clear -8 1017 79 10000 1 0 23:29 16.04.2021
4035 Clear -8 1017 79 10000 1 0 22:51 16.04.2021
4036 Clear -8 1017 79 10000 1 0 22:22 16.04.2021
4037 Clear -6 1018 73 10000 1.6 126 21:54 16.04.2021
4038 Clear -6 1018 73 10000 1.6 126 21:35 16.04.2021
4039 Clear -6 1018 73 10000 1.45 126 20:50 16.04.2021
4040 Clear -6 1018 73 10000 1.42 118 20:27 16.04.2021
4041 Clear -6 1018 79 10000 1.42 118 19:55 16.04.2021
4042 Clear -6 1018 79 10000 1.42 118 19:30 16.04.2021
4043 Clear -5 1018 68 10000 1.33 104 18:46 16.04.2021
4044 Clear -4 1019 68 10000 1 0 18:21 16.04.2021
4045 Clear -5 1019 74 10000 1 0 17:45 16.04.2021
4046 Clear -4 1019 63 10000 1.19 96 17:19 16.04.2021
4047 Clear -2 1019 54 10000 1.19 96 16:43 16.04.2021
4048 Clear -2 1019 59 10000 1 0 16:24 16.04.2021
4049 Clear -4 1019 68 10000 2 0 15:48 16.04.2021
4050 Clear -3 1019 63 10000 3 160 15:21 16.04.2021
4051 Clear -1 1019 51 10000 2 0 14:42 16.04.2021
4052 Clear 3 1019 30 10000 2 0 14:19 16.04.2021
4053 Clear 3 1019 30 10000 2 350 13:46 16.04.2021
4054 Clear 4 1019 28 10000 4 340 13:20 16.04.2021
4055 Clear 5 1019 24 10000 6 320 12:48 16.04.2021
4056 Clear 5 1020 24 10000 6 320 12:27 16.04.2021
4057 Clear 5 1020 24 10000 5 320 11:54 16.04.2021
4058 Clear 4 1020 24 10000 4 300 11:27 16.04.2021
4059 Clear 4 1021 26 10000 6 320 10:53 16.04.2021
4060 Clear 4 1021 26 10000 6 320 10:34 16.04.2021
4061 Clear 4 1021 26 10000 6 320 10:34 16.04.2021
4062 Clear 3 1021 23 10000 6 290 09:53 16.04.2021
4063 Clear 3 1021 23 10000 6 290 09:24 16.04.2021
4064 Clear 3 1021 23 10000 7 310 08:47 16.04.2021
4065 Clear 2 1021 27 10000 6 310 08:28 16.04.2021
4066 Clouds 2 1022 27 10000 5 290 07:53 16.04.2021
4067 Clouds 2 1022 27 10000 5 290 07:34 16.04.2021
4068 Clouds 0 1022 37 10000 3 330 06:56 16.04.2021
4069 Clouds -1 1022 43 10000 5 330 05:33 16.04.2021
4070 Clouds -3 1022 54 10000 3 330 04:19 16.04.2021
4071 Clouds -6 1020 68 10000 5 320 00:55 16.04.2021
4072 Clouds -7 1020 73 10000 3 330 00:36 16.04.2021
4073 Clouds -7 1020 73 10000 4 330 00:18 16.04.2021
4074 Clouds -7 1019 73 10000 5 320 23:36 15.04.2021
4075 Clear -6 1018 68 10000 5 340 22:54 15.04.2021
4076 Clear -6 1018 68 10000 5 340 22:33 15.04.2021
4077 Clear -5 1018 63 10000 7 340 21:59 15.04.2021
4078 Clear -5 1018 63 10000 7 340 21:40 15.04.2021
4079 Clear -5 1018 63 10000 7 340 21:19 15.04.2021
4080 Clear -5 1017 68 10000 6 330 20:40 15.04.2021
4081 Clear -4 1017 68 10000 6 330 20:21 15.04.2021
4082 Clouds -4 1017 80 10000 4 310 19:43 15.04.2021
4083 Clouds -4 1017 80 10000 4 310 19:24 15.04.2021
4084 Clouds -4 1016 80 10000 6 330 18:42 15.04.2021
4085 Clouds -3 1016 74 10000 7 340 18:20 15.04.2021
4086 Clouds -4 1015 68 10000 2 0 17:54 15.04.2021
4087 Clouds -4 1015 68 10000 2 0 17:36 15.04.2021
4088 Clouds -5 1015 68 10000 2 0 16:57 15.04.2021
4089 Clouds -5 1015 68 10000 2 0 16:39 15.04.2021
4090 Clouds -4 1014 68 10000 1 0 16:20 15.04.2021
4091 Clouds -4 1014 68 10000 1 0 15:44 15.04.2021
4092 Clouds -4 1014 68 10000 1 0 15:25 15.04.2021
4093 Clouds -2 1013 54 10000 3 340 14:39 15.04.2021
4094 Clouds -1 1012 51 10000 4 340 14:21 15.04.2021
4095 Clouds -1 1012 51 10000 3 340 13:41 15.04.2021
4096 Clouds 0 1011 40 10000 3 340 13:18 15.04.2021
4097 Clouds 0 1011 40 10000 7 330 12:39 15.04.2021
4098 Clouds 1 1011 34 10000 5 340 12:20 15.04.2021
4099 Snow 0 1011 40 10000 5 320 11:44 15.04.2021
4100 Clouds 1 1010 34 10000 7 340 11:22 15.04.2021
4101 Clouds 1 1010 34 10000 7 340 11:22 15.04.2021
4102 Clouds 0 1010 34 10000 7 320 10:49 15.04.2021
4103 Clouds 0 1010 34 10000 7 320 10:49 15.04.2021
4104 Clouds 0 1010 34 10000 7 320 10:27 15.04.2021
4105 Clouds 0 1010 37 10000 7 300 09:45 15.04.2021
4106 Clouds 0 1010 40 10000 7 290 09:18 15.04.2021
4107 Clouds 0 1010 40 10000 8 290 08:41 15.04.2021
4108 Clouds 0 1010 47 10000 6 280 07:50 15.04.2021
4109 Clouds -1 1010 51 10000 7 280 07:22 15.04.2021
4110 Clouds -1 1010 51 10000 7 280 07:22 15.04.2021
4111 Clouds -1 1010 51 10000 7 280 07:22 15.04.2021
4112 Clouds -1 1010 43 10000 6 290 06:38 15.04.2021
4113 Clouds -2 1010 54 10000 6 290 06:20 15.04.2021
4114 Clouds -4 1010 63 10000 5 340 04:50 15.04.2021
4115 Clouds -6 1009 73 10000 7 330 00:43 15.04.2021
4116 Clouds -6 1008 73 10000 8 330 23:39 14.04.2021
4117 Clouds -5 1008 68 10000 9 330 23:19 14.04.2021
4118 Clouds -5 1008 68 10000 9 330 22:43 14.04.2021
4119 Clouds -5 1008 74 10000 9 340 22:23 14.04.2021
4120 Clouds -5 1008 74 10000 9 340 21:43 14.04.2021
4121 Clouds -5 1007 74 10000 11 340 21:23 14.04.2021
4122 Clouds -5 1007 74 10000 10 350 20:55 14.04.2021
4123 Snow -5 1007 86 8000 9 340 20:32 14.04.2021
4124 Snow -5 1007 86 4000 11 340 19:51 14.04.2021
4125 Snow -5 1007 86 6000 11 340 19:20 14.04.2021
4126 Snow -5 1007 86 6000 10 340 18:56 14.04.2021
4127 Snow -4 1007 80 8000 10 340 18:21 14.04.2021
4128 Snow -4 1007 80 8000 10 340 17:58 14.04.2021
4129 Snow -4 1007 86 8000 9 340 17:25 14.04.2021
4130 Snow -4 1006 86 6000 6 350 16:54 14.04.2021
4131 Snow -4 1006 93 4000 6 360 16:25 14.04.2021
4132 Snow -4 1006 93 2000 6 10 15:42 14.04.2021
4133 Snow -4 1006 93 3000 10 350 15:24 14.04.2021
4134 Snow -4 1005 93 3000 9 350 14:49 14.04.2021
4135 Snow -3 1005 86 3200 7 330 14:25 14.04.2021
4136 Snow -3 1005 86 3200 7 330 14:25 14.04.2021
4137 Snow -1 1003 74 3600 9 350 13:57 14.04.2021
4138 Snow -1 1003 74 3600 9 350 13:37 14.04.2021
4139 Snow 1 1002 69 10000 7 360 12:39 14.04.2021
4140 Clouds 4 1002 56 10000 8 350 11:44 14.04.2021
4141 Clouds 4 1002 56 10000 8 350 11:25 14.04.2021
4142 Clouds 5 1002 52 10000 7 360 10:55 14.04.2021
4143 Rain 5 1002 52 10000 7 360 10:33 14.04.2021
4144 Clouds 7 1003 45 10000 7 330 09:42 14.04.2021
4145 Rain 8 1003 46 10000 6 340 09:21 14.04.2021
4146 Clouds 9 1003 43 10000 7 330 08:46 14.04.2021
4147 Rain 9 1004 40 10000 6 320 08:22 14.04.2021
4148 Clouds 9 1004 40 10000 3 310 07:25 14.04.2021
4149 Clouds 7 1006 42 10000 2 0 06:26 14.04.2021
4150 Clouds 7 1007 42 10000 2 0 05:20 14.04.2021
4151 Clouds -3 1009 80 10000 1 0 01:54 14.04.2021
4152 Clouds -5 1009 80 10000 1 0 00:46 14.04.2021
4153 Clouds -6 1009 79 10000 1 0 23:59 13.04.2021
4154 Clouds -6 1009 86 10000 1 0 23:30 13.04.2021
4155 Clouds -6 1010 86 10000 1 0 22:44 13.04.2021
4156 Clouds -6 1010 86 10000 1 0 22:19 13.04.2021
4157 Clear -5 1010 80 10000 1.54 116 21:47 13.04.2021
4158 Clear -5 1010 80 10000 1.43 115 21:29 13.04.2021
4159 Clear -7 1011 86 10000 1.43 115 20:43 13.04.2021
4160 Clear -7 1011 86 10000 1.51 119 20:24 13.04.2021
4161 Clouds -3 1011 68 10000 1.51 119 19:50 13.04.2021
4162 Clouds -3 1011 68 10000 1.52 116 19:25 13.04.2021
4163 Clouds -3 1011 68 10000 1.52 116 19:25 13.04.2021
4164 Clouds -3 1012 74 10000 1 0 18:44 13.04.2021
4165 Clouds -3 1012 74 10000 1 0 18:25 13.04.2021
4166 Clouds -4 1012 74 10000 1 0 17:40 13.04.2021
4167 Clouds -2 1012 69 10000 1 0 17:18 13.04.2021
4168 Clouds -2 1013 69 10000 1 0 16:44 13.04.2021
4169 Clouds 0 1013 59 10000 1 0 16:23 13.04.2021
4170 Clouds -2 1013 69 10000 3 170 15:53 13.04.2021
4171 Clouds -2 1013 69 10000 3 170 15:34 13.04.2021
4172 Clouds 1 1013 47 10000 1.02 95 14:47 13.04.2021
4173 Clear 4 1012 35 10000 2 360 14:22 13.04.2021
4174 Clear 5 1012 30 10000 2 360 13:45 13.04.2021
4175 Clear 5 1012 30 10000 2 360 13:25 13.04.2021
4176 Clear 6 1012 28 10000 3 350 12:58 13.04.2021
4177 Clear 7 1013 24 10000 5 300 12:30 13.04.2021
4178 Clear 7 1013 23 10000 6 270 11:58 13.04.2021
4179 Clear 7 1013 24 10000 6 300 11:30 13.04.2021
4180 Clear 7 1014 24 10000 6 290 10:55 13.04.2021
4181 Clear 6 1014 24 10000 4 300 10:21 13.04.2021
4182 Clear 6 1015 24 10000 6 290 09:59 13.04.2021
4183 Clear 6 1015 24 10000 6 290 09:39 13.04.2021
4184 Clear 5 1016 24 10000 7 300 08:57 13.04.2021
4185 Clear 5 1016 24 10000 7 300 08:38 13.04.2021
4186 Clear 5 1017 24 10000 7 320 08:20 13.04.2021
4187 Clear 5 1017 24 10000 8 290 07:36 13.04.2021
4188 Clear 3 1018 30 10000 5 340 06:31 13.04.2021
4189 Clear 1 1019 32 10000 3 280 04:50 13.04.2021
4190 Clear -4 1019 58 10000 1 0 02:37 13.04.2021
4191 Clear -11 1019 85 10000 2 170 00:33 13.04.2021
4192 Clear -11 1019 79 10000 1 0 23:49 12.04.2021
4193 Clear -9 1019 79 10000 1.56 29 23:26 12.04.2021
4194 Clear -10 1019 79 10000 1.56 29 22:39 12.04.2021
4195 Clear -10 1019 79 10000 1.18 76 22:18 12.04.2021
4196 Clear -10 1020 73 10000 1 0 21:45 12.04.2021
4197 Clear -10 1020 73 10000 1 0 21:19 12.04.2021
4198 Clear -8 1020 73 10000 2 160 20:41 12.04.2021
4199 Clear -8 1020 73 10000 2 160 20:22 12.04.2021
4200 Clouds -7 1021 73 10000 1 0 19:55 12.04.2021
4201 Clouds -7 1021 73 10000 1 0 19:36 12.04.2021
4202 Clouds -7 1021 73 10000 1 0 19:18 12.04.2021
4203 Clouds -5 1021 58 10000 1 0 18:42 12.04.2021
4204 Clouds -5 1021 68 10000 2 270 18:24 12.04.2021
4205 Clouds -5 1021 63 10000 1 0 17:43 12.04.2021
4206 Clouds -6 1022 73 10000 2 180 17:23 12.04.2021
4207 Clear -6 1022 68 10000 1 0 16:47 12.04.2021
4208 Clear -6 1022 68 10000 1 0 16:27 12.04.2021
4209 Clear -5 1022 58 10000 1 0 15:48 12.04.2021
4210 Clear -6 1022 68 10000 2 160 15:27 12.04.2021
4211 Clear -2 1022 34 10000 2 0 14:50 12.04.2021
4212 Clear -1 1022 29 10000 2 350 14:30 12.04.2021
4213 Clear -1 1022 29 10000 2 350 14:30 12.04.2021
4214 Clear 0 1022 29 10000 2 0 13:46 12.04.2021
4215 Clear 0 1022 25 10000 3 10 13:27 12.04.2021
4216 Clear 1 1023 23 10000 5 320 12:48 12.04.2021
4217 Clear 1 1023 21 10000 4 330 12:26 12.04.2021
4218 Clear 1 1023 21 10000 5 310 11:59 12.04.2021
4219 Clear 1 1024 19 10000 6 310 11:20 12.04.2021
4220 Clear 1 1024 21 10000 5 310 10:43 12.04.2021
4221 Clear 0 1025 25 10000 5 320 10:23 12.04.2021
4222 Clear 0 1025 32 10000 5 320 09:46 12.04.2021
4223 Clear -1 1026 34 10000 5 320 09:18 12.04.2021
4224 Clear -1 1026 37 10000 5 290 08:36 12.04.2021
4225 Clear -2 1027 40 10000 5 320 07:40 12.04.2021
4226 Clear -3 1028 36 10000 4 290 07:20 12.04.2021
4227 Clear -5 1029 50 10000 3 290 05:52 12.04.2021
4228 Clear -6 1030 42 10000 3 310 04:48 12.04.2021
4229 Clear -15 1030 66 10000 1 0 01:23 12.04.2021
4230 Clear -16 1029 66 10000 1 0 00:25 12.04.2021
4231 Clear -14 1029 66 10000 2 0 23:48 11.04.2021
4232 Clear -13 1029 66 10000 2 240 23:29 11.04.2021
4233 Clear -14 1029 66 10000 2 30 22:46 11.04.2021
4234 Clear -14 1029 66 10000 2 30 22:25 11.04.2021
4235 Clear -12 1029 67 10000 2 300 21:49 11.04.2021
4236 Clear -12 1029 67 10000 2 330 21:30 11.04.2021
4237 Clear -12 1029 67 10000 2 330 21:30 11.04.2021
4238 Clear -12 1029 67 10000 3 320 20:58 11.04.2021
4239 Clear -12 1029 67 10000 3 310 20:31 11.04.2021
4240 Clear -8 1028 49 10000 4 350 19:58 11.04.2021
4241 Clear -8 1028 49 10000 4 350 19:38 11.04.2021
4242 Clear -8 1028 49 10000 4 350 19:19 11.04.2021
4243 Clear -8 1028 49 10000 4 350 19:19 11.04.2021
4244 Clear -8 1028 49 10000 4 350 19:19 11.04.2021
4245 Clear -7 1028 45 10000 5 360 18:45 11.04.2021
4246 Clear -7 1028 45 10000 5 360 18:25 11.04.2021
4247 Clear -7 1027 49 10000 6 350 17:48 11.04.2021
4248 Clear -6 1027 42 10000 6 360 17:28 11.04.2021
4249 Clouds -6 1027 49 10000 6 350 16:52 11.04.2021
4250 Clouds -6 1026 53 10000 5 350 16:25 11.04.2021
4251 Clouds -6 1026 53 10000 5 350 15:57 11.04.2021
4252 Clouds -5 1026 50 10000 6 350 15:38 11.04.2021
4253 Clouds -5 1026 50 10000 6 350 15:19 11.04.2021
4254 Clouds -5 1025 50 10000 6 350 14:46 11.04.2021
4255 Clouds -5 1024 54 10000 6 340 14:18 11.04.2021
4256 Clouds -4 1024 54 10000 8 350 13:36 11.04.2021
4257 Clouds -4 1023 58 10000 9 350 13:18 11.04.2021
4258 Clouds -4 1022 63 10000 9 350 12:23 11.04.2021
4259 Clouds -4 1022 68 10000 10 340 11:53 11.04.2021
4260 Clouds -4 1021 68 10000 10 350 11:31 11.04.2021
4261 Clouds -4 1021 74 10000 10 340 10:56 11.04.2021
4262 Clouds -4 1021 74 10000 10 340 10:38 11.04.2021
4263 Snow -4 1020 74 10000 11 340 10:19 11.04.2021
4264 Snow -4 1020 74 8000 11 350 09:37 11.04.2021
4265 Snow -4 1020 74 8000 10 350 09:19 11.04.2021
4266 Snow -3 1019 74 6000 9 340 08:31 11.04.2021
4267 Snow -3 1018 74 8000 8 350 07:25 11.04.2021
4268 Snow -3 1018 80 3200 9 350 06:56 11.04.2021
4269 Snow -3 1018 80 2000 4 360 05:44 11.04.2021
4270 Snow -4 1018 86 2000 7 350 05:21 11.04.2021
4271 Snow -4 1018 86 1000 6 360 04:35 11.04.2021
4272 Snow -3 1016 80 8000 7 340 02:56 11.04.2021
4273 Snow -2 1015 86 10000 3 360 00:40 11.04.2021
4274 Snow -2 1015 86 10000 3 360 00:40 11.04.2021
4275 Snow -1 1015 86 10000 3 20 23:51 10.04.2021
4276 Snow -1 1015 86 10000 3 20 23:27 10.04.2021
4277 Snow -1 1015 93 10000 2 0 22:45 10.04.2021
4278 Snow -1 1016 93 10000 1 0 22:24 10.04.2021
4279 Snow -1 1016 93 10000 2 0 21:51 10.04.2021
4280 Snow -1 1016 93 6000 3 10 21:23 10.04.2021
4281 Snow -1 1016 93 6000 3 10 20:48 10.04.2021
4282 Snow 0 1016 86 6000 5 30 20:29 10.04.2021
4283 Snow 1 1016 86 8000 4 110 19:45 10.04.2021
4284 Snow 1 1016 86 10000 6 150 19:27 10.04.2021
4285 Snow 1 1016 86 10000 6 150 18:54 10.04.2021
4286 Snow 5 1015 48 10000 8 140 18:34 10.04.2021
4287 Clouds 6 1015 28 10000 7 130 17:44 10.04.2021
4288 Clouds 6 1015 28 10000 7 130 17:23 10.04.2021
4289 Clouds 6 1015 28 10000 8 140 16:31 10.04.2021
4290 Clouds 6 1015 28 10000 8 140 15:56 10.04.2021
4291 Clouds 6 1015 28 10000 6 140 15:34 10.04.2021
4292 Clouds 6 1015 33 10000 5 130 14:47 10.04.2021
4293 Rain 5 1015 38 10000 4 130 14:23 10.04.2021
4294 Clouds 8 1015 31 10000 2 90 13:46 10.04.2021
4295 Clouds 8 1015 31 10000 2 90 13:28 10.04.2021
4296 Clouds 9 1015 29 10000 1 0 12:37 10.04.2021
4297 Clouds 9 1015 27 10000 2 0 11:52 10.04.2021
4298 Clouds 9 1015 27 10000 2 0 11:28 10.04.2021
4299 Clouds 9 1016 27 10000 3 170 10:57 10.04.2021
4300 Clouds 9 1016 27 10000 3 210 10:39 10.04.2021
4301 Clouds 10 1016 27 10000 1 0 10:21 10.04.2021
4302 Clouds 8 1017 29 10000 3 310 09:29 10.04.2021
4303 Clouds 8 1017 29 10000 3 310 08:58 10.04.2021
4304 Clouds 9 1017 27 10000 2 0 08:30 10.04.2021
4305 Clouds 8 1018 27 10000 2 0 07:52 10.04.2021
4306 Clouds 8 1018 27 10000 2 0 07:25 10.04.2021
4307 Clouds 7 1018 33 10000 2 0 06:27 10.04.2021
4308 Clouds 4 1020 45 10000 1 0 04:42 10.04.2021
4309 Clouds 2 1019 55 10000 2 0 02:57 10.04.2021
4310 Clouds 2 1019 55 10000 3 350 02:35 10.04.2021
4311 Clouds 1 1018 60 10000 4 30 00:53 10.04.2021
4312 Clouds 1 1018 60 10000 4 20 00:29 10.04.2021
4313 Clouds 0 1018 64 10000 2 0 23:44 09.04.2021
4314 Snow 0 1018 64 10000 2 0 23:19 09.04.2021
4315 Clouds -1 1018 74 10000 1.71 6 22:42 09.04.2021
4316 Clouds -1 1018 74 10000 1.75 23 22:24 09.04.2021
4317 Clouds 0 1018 69 10000 2 270 21:39 09.04.2021
4318 Clouds -1 1018 69 10000 2.19 10 21:19 09.04.2021
4319 Clouds -1 1018 74 10000 2 0 20:45 09.04.2021
4320 Clouds -2 1018 74 10000 2 0 20:23 09.04.2021
4321 Clouds 0 1018 64 10000 3 360 19:57 09.04.2021
4322 Clouds 0 1018 64 10000 3 360 19:38 09.04.2021
4323 Clouds -1 1018 74 10000 3 300 19:20 09.04.2021
4324 Clouds 0 1017 64 10000 2 300 18:41 09.04.2021
4325 Clouds 1 1017 64 10000 2 330 18:19 09.04.2021
4326 Clouds 2 1017 60 10000 2.59 353 17:41 09.04.2021
4327 Clouds 1 1017 64 10000 3 320 16:57 09.04.2021
4328 Clouds 2 1017 60 10000 3 330 16:38 09.04.2021
4329 Clouds 2 1017 60 10000 4 330 15:57 09.04.2021
4330 Clouds 4 1017 52 10000 4 360 15:38 09.04.2021
4331 Clear 5 1017 48 10000 4 350 15:19 09.04.2021
4332 Clear 5 1017 48 10000 4 350 14:41 09.04.2021
4333 Clear 6 1016 45 10000 6 350 13:54 09.04.2021
4334 Clear 7 1016 42 10000 8 330 13:26 09.04.2021
4335 Clear 8 1015 36 10000 8 340 12:58 09.04.2021
4336 Clear 9 1015 34 10000 9 330 12:38 09.04.2021
4337 Clear 11 1014 30 10000 10 330 11:47 09.04.2021
4338 Clear 11 1014 30 10000 10 330 11:23 09.04.2021
4339 Clear 12 1014 28 10000 7 330 10:49 09.04.2021
4340 Clear 12 1014 28 10000 7 330 10:30 09.04.2021
4341 Clear 12 1014 24 10000 7 330 09:51 09.04.2021
4342 Clear 12 1014 24 10000 7 330 09:25 09.04.2021
4343 Clear 12 1014 24 10000 7 330 08:53 09.04.2021
4344 Clouds 12 1014 24 10000 7 320 08:18 09.04.2021
4345 Clouds 12 1015 22 10000 5 350 07:18 09.04.2021
4346 Clouds 12 1015 19 10000 2 0 06:21 09.04.2021
4347 Clear 7 1015 29 10000 1 0 03:54 09.04.2021
4348 Clear 0 1015 51 10000 1.22 102 02:18 09.04.2021
4349 Clear -7 1015 73 10000 1 0 00:38 09.04.2021
4350 Clear -6 1015 68 10000 1.61 100 00:19 09.04.2021
4351 Clear -5 1015 63 10000 1.8 106 23:29 08.04.2021
4352 Clear -5 1015 68 10000 1.8 106 22:45 08.04.2021
4353 Clear -5 1015 63 10000 1.81 104 22:25 08.04.2021
4354 Clear -5 1015 63 10000 1.81 104 21:56 08.04.2021
4355 Clear -6 1015 68 10000 1.81 104 21:37 08.04.2021
4356 Clear -4 1015 63 10000 1 0 21:19 08.04.2021
4357 Clear -5 1015 63 10000 1.92 97 20:52 08.04.2021
4358 Clear -1 1015 51 10000 1.5 101 20:31 08.04.2021
4359 Clear -3 1016 54 10000 2 180 19:49 08.04.2021
4360 Clear -3 1016 54 10000 2 180 19:20 08.04.2021
4361 Clear 2 1016 35 10000 1.55 108 18:51 08.04.2021
4362 Clear 2 1016 35 10000 1.45 109 18:21 08.04.2021
4363 Clear 1 1015 37 10000 1.45 109 17:50 08.04.2021
4364 Clear 1 1015 37 10000 1.12 138 17:26 08.04.2021
4365 Clear 2 1015 30 10000 2 130 16:54 08.04.2021
4366 Clear 2 1015 30 10000 2 130 16:34 08.04.2021
4367 Clear 7 1015 21 10000 1 0 15:49 08.04.2021
4368 Clear 7 1015 21 10000 1 0 15:29 08.04.2021
4369 Clear 3 1015 28 10000 2 0 14:58 08.04.2021
4370 Clear 5 1015 24 10000 4 150 14:36 08.04.2021
4371 Clear 5 1015 22 10000 2 160 14:18 08.04.2021
4372 Clouds 10 1014 17 10000 2 230 13:43 08.04.2021
4373 Clouds 14 1014 10 10000 1 0 13:22 08.04.2021
4374 Clouds 16 1014 9 10000 1 0 12:43 08.04.2021
4375 Clouds 16 1014 9 10000 1 0 12:24 08.04.2021
4376 Clouds 16 1014 8 10000 2 0 11:43 08.04.2021
4377 Clouds 16 1015 9 10000 2 0 10:59 08.04.2021
4378 Clouds 16 1015 9 10000 2 0 10:40 08.04.2021
4379 Clouds 16 1015 9 10000 2 0 10:18 08.04.2021
4380 Clouds 15 1016 10 10000 4 210 09:43 08.04.2021
4381 Clouds 16 1017 10 10000 5 210 08:47 08.04.2021
4382 Clouds 16 1017 10 10000 5 210 08:47 08.04.2021
4383 Clouds 16 1017 11 10000 5 180 08:28 08.04.2021
4384 Clear 16 1018 10 10000 6 190 07:58 08.04.2021
4385 Clear 16 1018 10 10000 6 190 07:35 08.04.2021
4386 Clouds 8 1021 25 10000 1 0 04:18 08.04.2021
4387 Clear -4 1022 68 10000 2.28 114 01:20 08.04.2021
4388 Clear -6 1021 73 10000 1 0 00:21 08.04.2021
4389 Clear -6 1021 73 10000 2.23 113 23:42 07.04.2021
4390 Clear -6 1021 73 10000 1 0 23:22 07.04.2021
4391 Clear -6 1021 68 10000 2.17 113 22:50 07.04.2021
4392 Clear -6 1021 68 10000 2.17 113 22:32 07.04.2021
4393 Clear -4 1022 63 10000 2.02 111 21:47 07.04.2021
4394 Clear -4 1022 63 10000 1.9 107 21:26 07.04.2021
4395 Clear -4 1022 63 10000 1 0 20:47 07.04.2021
4396 Clear -4 1022 63 10000 1 0 20:21 07.04.2021
4397 Clear -5 1022 63 10000 1.79 114 19:46 07.04.2021
4398 Clear -5 1022 63 10000 1.74 118 19:26 07.04.2021
4399 Clear -1 1022 51 10000 1.74 118 18:49 07.04.2021
4400 Clear -1 1022 51 10000 1.67 107 18:21 07.04.2021
4401 Clear -1 1022 47 10000 1 0 17:56 07.04.2021
4402 Clear -1 1022 47 10000 1 0 17:37 07.04.2021
4403 Clear -1 1022 47 10000 1 0 16:58 07.04.2021
4404 Clear 1 1022 37 10000 1 0 16:38 07.04.2021
4405 Clear 2 1022 32 10000 1 0 16:19 07.04.2021
4406 Clear 2 1022 32 10000 1 0 16:19 07.04.2021
4407 Clear 2 1022 35 10000 1 0 15:40 07.04.2021
4408 Clear 1 1022 37 10000 3 170 14:58 07.04.2021
4409 Clear 2 1022 35 10000 2 160 14:32 07.04.2021
4410 Clear 10 1021 18 10000 2 0 13:53 07.04.2021
4411 Clear 10 1021 18 10000 2 0 13:27 07.04.2021
4412 Clear 11 1021 17 10000 3 320 12:57 07.04.2021
4413 Clear 12 1021 14 10000 3 310 12:25 07.04.2021
4414 Clear 12 1021 14 10000 3 310 12:25 07.04.2021
4415 Clouds 13 1021 13 10000 2 0 11:57 07.04.2021
4416 Clouds 13 1021 13 10000 4 310 11:28 07.04.2021
4417 Clouds 13 1021 13 10000 5 300 10:59 07.04.2021
4418 Clouds 13 1021 13 10000 5 300 10:27 07.04.2021
4419 Clear 13 1022 13 10000 3 310 09:44 07.04.2021
4420 Clouds 13 1023 13 10000 3 310 09:25 07.04.2021
4421 Clouds 12 1023 15 10000 3 340 08:47 07.04.2021
4422 Clouds 12 1023 14 10000 3 340 08:22 07.04.2021
4423 Clear 12 1024 16 10000 2 0 07:43 07.04.2021
4424 Clear 12 1024 16 10000 2 0 07:24 07.04.2021
4425 Clear 10 1025 18 10000 2 0 06:32 07.04.2021
4426 Clear 6 1026 39 10000 2 0 04:23 07.04.2021
4427 Clear -8 1025 86 10000 2 160 00:22 07.04.2021
4428 Clear -7 1025 79 10000 1 0 23:47 06.04.2021
4429 Clear -7 1024 86 10000 2 180 23:21 06.04.2021
4430 Clear -6 1024 79 10000 1 0 22:48 06.04.2021
4431 Clear -6 1024 79 10000 1 0 22:19 06.04.2021
4432 Clear -4 1024 74 10000 1 0 21:42 06.04.2021
4433 Clear -4 1024 74 10000 1 0 21:22 06.04.2021
4434 Clear -4 1024 74 10000 2 150 20:54 06.04.2021
4435 Clear -4 1024 74 10000 2 150 20:24 06.04.2021
4436 Clear -4 1024 74 10000 2 150 19:56 06.04.2021
4437 Clear -4 1024 68 10000 2 140 19:34 06.04.2021
4438 Clear -5 1025 74 10000 1 0 18:57 06.04.2021
4439 Clear -5 1025 74 10000 1 0 18:38 06.04.2021
4440 Clear -5 1025 74 10000 1 0 18:18 06.04.2021
4441 Clear -3 1024 68 10000 2 180 17:40 06.04.2021
4442 Clear -3 1024 68 10000 2 180 17:18 06.04.2021
4443 Clear -1 1024 59 10000 1 0 16:42 06.04.2021
4444 Clear -1 1024 55 10000 2 170 15:53 06.04.2021
4445 Clear 1 1024 44 10000 1 0 15:25 06.04.2021
4446 Clear 5 1024 36 10000 1 0 14:43 06.04.2021
4447 Clear 5 1024 36 10000 1 0 14:24 06.04.2021
4448 Clouds 8 1023 27 10000 5 340 13:46 06.04.2021
4449 Clouds 10 1022 22 10000 6 320 13:25 06.04.2021
4450 Clouds 10 1022 22 10000 5 300 12:45 06.04.2021
4451 Clouds 10 1022 22 10000 5 300 12:26 06.04.2021
4452 Clouds 12 1022 14 10000 7 280 11:55 06.04.2021
4453 Clouds 12 1022 14 10000 7 280 11:36 06.04.2021
4454 Clouds 13 1022 14 10000 6 290 11:18 06.04.2021
4455 Clouds 13 1022 14 10000 7 280 10:39 06.04.2021
4456 Clouds 13 1022 18 10000 4 270 10:19 06.04.2021
4457 Clouds 11 1023 24 10000 4 210 09:43 06.04.2021
4458 Clouds 11 1023 22 10000 4 230 08:50 06.04.2021
4459 Clouds 10 1024 23 10000 4 250 08:19 06.04.2021
4460 Clouds 9 1025 23 10000 2 0 06:57 06.04.2021
4461 Clouds 9 1025 23 10000 2 0 06:24 06.04.2021
4462 Clear 1 1026 51 10000 2 0 03:54 06.04.2021
4463 Clear -7 1026 79 10000 1 0 00:48 06.04.2021
4464 Clear -7 1025 86 10000 0.43 109 00:22 06.04.2021
4465 Clear -8 1025 86 10000 2 0 23:50 05.04.2021
4466 Clear -6 1025 79 10000 1 0 23:28 05.04.2021
4467 Clear -6 1024 79 10000 1 0 22:53 05.04.2021
4468 Clear -6 1024 79 10000 1 0 22:33 05.04.2021
4469 Clear -6 1024 79 10000 2 130 21:47 05.04.2021
4470 Clear -7 1024 79 10000 3 150 21:23 05.04.2021
4471 Clear -6 1024 79 10000 2 160 20:49 05.04.2021
4472 Clear -6 1024 79 10000 2 170 20:30 05.04.2021
4473 Clear -5 1024 74 10000 1 0 19:45 05.04.2021
4474 Clear -5 1024 74 10000 1 0 19:25 05.04.2021
4475 Clear -6 1023 79 10000 1 0 18:57 05.04.2021
4476 Clear -5 1023 80 10000 2 180 18:38 05.04.2021
4477 Clear -4 1023 74 10000 2 180 18:19 05.04.2021
4478 Clear -4 1023 74 10000 1 0 17:46 05.04.2021
4479 Clear -1 1023 64 10000 2.07 5 17:21 05.04.2021
4480 Clear 1 1022 51 10000 2.07 5 16:44 05.04.2021
4481 Clear 0 1022 59 10000 2 0 16:21 05.04.2021
4482 Clear 0 1022 59 10000 2 0 15:56 05.04.2021
4483 Clear 2 1022 48 10000 2 0 15:30 05.04.2021
4484 Clear 2 1021 48 10000 3 320 14:58 05.04.2021
4485 Clear 3 1021 41 10000 2 310 14:35 05.04.2021
4486 Clear 7 1020 29 10000 4 330 13:40 05.04.2021
4487 Clear 7 1020 29 10000 4 330 13:40 05.04.2021
4488 Clear 8 1020 27 10000 5 340 13:22 05.04.2021
4489 Clear 9 1019 23 10000 5 350 12:45 05.04.2021
4490 Clouds 10 1019 23 10000 6 320 12:22 05.04.2021
4491 Clouds 10 1019 20 10000 5 330 11:45 05.04.2021
4492 Clouds 10 1019 20 10000 5 330 11:27 05.04.2021
4493 Clouds 11 1019 20 10000 7 350 10:46 05.04.2021
4494 Clouds 11 1019 17 10000 6 300 10:28 05.04.2021
4495 Clouds 11 1019 22 10000 5 340 09:48 05.04.2021
4496 Clouds 11 1019 22 10000 5 340 09:25 05.04.2021
4497 Clouds 11 1019 20 10000 5 340 08:45 05.04.2021
4498 Clouds 11 1019 20 10000 5 340 08:26 05.04.2021
4499 Clouds 10 1020 20 10000 3 290 07:38 05.04.2021
4500 Clouds 9 1020 21 10000 2 0 06:40 05.04.2021
4501 Clear -2 1020 64 10000 0.68 23 02:32 05.04.2021
4502 Clear -8 1020 79 10000 1.14 88 00:52 05.04.2021
4503 Clear -8 1019 79 10000 1.17 95 23:52 04.04.2021
4504 Clear -6 1019 73 10000 1.16 88 23:29 04.04.2021
4505 Clear -6 1019 73 10000 1.16 88 22:53 04.04.2021
4506 Clear -8 1019 79 10000 1.16 88 22:30 04.04.2021
4507 Clear -6 1019 73 10000 1 0 21:43 04.04.2021
4508 Clear -6 1019 73 10000 1 0 21:19 04.04.2021
4509 Clear -6 1020 73 10000 1 0 20:31 04.04.2021
4510 Clear -6 1020 73 10000 1 0 19:58 04.04.2021
4511 Clear -6 1020 79 10000 1 0 19:38 04.04.2021
4512 Clear -6 1020 79 10000 1 0 19:19 04.04.2021
4513 Clear -4 1020 63 10000 2 170 18:45 04.04.2021
4514 Clear -4 1020 63 10000 2 170 18:24 04.04.2021
4515 Clear -5 1020 68 10000 1 0 17:45 04.04.2021
4516 Clear -5 1020 68 10000 1 0 17:24 04.04.2021
4517 Clear -4 1020 68 10000 2 170 16:52 04.04.2021
4518 Clear -3 1020 63 10000 2 170 16:21 04.04.2021
4519 Clear -4 1020 63 10000 2 170 15:36 04.04.2021
4520 Clear 3 1019 35 10000 1 0 14:50 04.04.2021
4521 Clear 3 1019 32 10000 1 0 14:28 04.04.2021
4522 Clear 4 1018 33 10000 2 300 13:53 04.04.2021
4523 Clear 4 1018 33 10000 2 300 13:25 04.04.2021
4524 Clear 8 1018 21 10000 5 300 12:50 04.04.2021
4525 Clear 8 1018 21 10000 5 300 12:27 04.04.2021
4526 Clear 9 1018 17 10000 5 300 11:43 04.04.2021
4527 Clear 9 1018 17 10000 5 300 11:25 04.04.2021
4528 Clear 9 1019 15 10000 5 270 10:46 04.04.2021
4529 Clear 9 1019 17 10000 5 270 09:59 04.04.2021
4530 Clear 9 1019 17 10000 5 290 09:27 04.04.2021
4531 Clear 9 1019 17 10000 5 290 08:55 04.04.2021
4532 Clear 8 1020 17 10000 6 300 08:37 04.04.2021
4533 Clear 8 1020 15 10000 5 260 08:19 04.04.2021
4534 Clear 6 1022 24 10000 3 260 06:39 04.04.2021
4535 Clear 4 1023 30 10000 2 0 05:33 04.04.2021
4536 Clear -7 1023 79 10000 1.07 199 01:47 04.04.2021
4537 Clear -10 1022 85 10000 1 0 00:25 04.04.2021
4538 Clear -9 1022 92 10000 0.92 181 23:52 03.04.2021
4539 Clear -9 1022 92 10000 0.92 181 23:33 03.04.2021
4540 Clear -8 1023 86 10000 1 0 22:53 03.04.2021
4541 Clear -8 1023 86 10000 1 0 22:23 03.04.2021
4542 Clear -6 1023 79 10000 1.29 189 21:56 03.04.2021
4543 Clear -6 1023 79 10000 1.29 189 21:38 03.04.2021
4544 Clear -6 1023 79 10000 1.11 184 21:18 03.04.2021
4545 Clear -5 1023 74 10000 1.2 177 20:29 03.04.2021
4546 Clear -6 1023 73 10000 2 140 19:51 03.04.2021
4547 Clear -6 1023 73 10000 2 140 19:29 03.04.2021
4548 Clear -4 1024 63 10000 1 0 18:57 03.04.2021
4549 Clear -4 1024 63 10000 1 0 18:36 03.04.2021
4550 Clear -6 1024 73 10000 1 0 17:57 03.04.2021
4551 Clear -2 1024 59 10000 1 0 17:27 03.04.2021
4552 Clear -3 1024 63 10000 1 0 16:58 03.04.2021
4553 Clear -1 1024 55 10000 1.19 199 16:31 03.04.2021
4554 Clear 1 1023 47 10000 1 0 15:53 03.04.2021
4555 Clear 1 1023 47 10000 1 0 15:53 03.04.2021
4556 Clear -2 1023 64 10000 2 0 15:32 03.04.2021
4557 Clear -1 1023 59 10000 3 160 14:54 03.04.2021
4558 Clear 1 1023 47 10000 4 140 14:27 03.04.2021
4559 Clouds 2 1023 48 10000 3 190 13:59 03.04.2021
4560 Clouds 2 1023 48 10000 3 190 13:36 03.04.2021
4561 Clouds 4 1023 38 10000 3 150 13:18 03.04.2021
4562 Clouds 4 1023 41 10000 3 140 12:35 03.04.2021
4563 Clouds 4 1023 33 10000 3 310 11:57 03.04.2021
4564 Clouds 5 1023 33 10000 6 330 11:32 03.04.2021
4565 Clouds 6 1022 24 10000 6 230 10:49 03.04.2021
4566 Clouds 6 1023 28 10000 5 220 10:29 03.04.2021
4567 Clouds 6 1023 31 10000 3 250 09:47 03.04.2021
4568 Clouds 6 1024 31 10000 5 280 09:25 03.04.2021
4569 Clouds 7 1024 26 10000 5 240 08:38 03.04.2021
4570 Clouds 7 1025 26 10000 5 220 08:19 03.04.2021
4571 Clouds 6 1025 31 10000 5 220 07:27 03.04.2021
4572 Clouds 1 1028 44 10000 2.02 161 04:27 03.04.2021
4573 Clouds -2 1028 64 10000 1 0 02:58 03.04.2021
4574 Clouds -2 1028 64 10000 1 0 02:34 03.04.2021
4575 Clouds -6 1028 86 10000 1.63 113 01:31 03.04.2021
4576 Clouds -6 1028 79 10000 1.92 81 00:19 03.04.2021
4577 Clouds -6 1028 79 10000 1 0 23:46 02.04.2021
4578 Clear -7 1028 86 10000 1 0 23:19 02.04.2021
4579 Clear -7 1028 86 10000 1.56 87 22:45 02.04.2021
4580 Clear -7 1028 86 10000 1.38 87 22:26 02.04.2021
4581 Clear -8 1028 86 10000 1.38 87 21:42 02.04.2021
4582 Clear -8 1028 86 10000 1.26 89 21:19 02.04.2021
4583 Clear -7 1028 79 10000 1.26 89 20:47 02.04.2021
4584 Clear -8 1028 79 10000 1.54 85 20:25 02.04.2021
4585 Clear -6 1029 79 10000 1 0 19:43 02.04.2021
4586 Clear -6 1029 79 10000 1 0 19:24 02.04.2021
4587 Clear -6 1029 79 10000 1 0 18:56 02.04.2021
4588 Clear -6 1029 79 10000 1 0 18:38 02.04.2021
4589 Clear -6 1029 79 10000 1.46 89 18:19 02.04.2021
4590 Clear -6 1029 73 10000 1 0 17:36 02.04.2021
4591 Clear -6 1029 73 10000 2 150 16:44 02.04.2021
4592 Clear -5 1028 74 10000 3 160 15:51 02.04.2021
4593 Clear -4 1028 74 10000 3 170 15:32 02.04.2021
4594 Clear -4 1027 68 10000 2 160 14:42 02.04.2021
4595 Clear -4 1027 74 10000 3 150 14:21 02.04.2021
4596 Clouds 1 1027 47 10000 1 0 13:39 02.04.2021
4597 Clouds 2 1027 38 10000 2 180 13:19 02.04.2021
4598 Clouds 3 1027 32 10000 1.2 28 12:39 02.04.2021
4599 Clouds 2 1027 38 10000 2 0 12:19 02.04.2021
4600 Clouds 3 1027 35 10000 4 270 11:48 02.04.2021
4601 Clouds 3 1027 32 10000 5 240 11:19 02.04.2021
4602 Clouds 3 1026 30 10000 5 260 10:44 02.04.2021
4603 Clouds 2 1027 32 10000 6 280 10:24 02.04.2021
4604 Clouds 3 1027 30 10000 5 300 09:52 02.04.2021
4605 Clouds 3 1026 30 10000 5 280 09:26 02.04.2021
4606 Clouds 3 1027 30 10000 4 290 08:46 02.04.2021
4607 Clouds 2 1027 32 10000 4 330 08:27 02.04.2021
4608 Clouds 2 1027 30 10000 3 290 07:22 02.04.2021
4609 Clouds 1 1028 29 10000 2 0 06:40 02.04.2021
4610 Clear -3 1028 59 10000 1 0 03:54 02.04.2021
4611 Clear -6 1026 73 10000 1 0 02:19 02.04.2021
4612 Clear -10 1025 79 10000 3 170 00:44 02.04.2021
4613 Clear -10 1024 79 10000 2 180 23:58 01.04.2021
4614 Clear -10 1024 85 10000 1 0 23:27 01.04.2021
4615 Clear -9 1023 79 10000 1.79 352 22:51 01.04.2021
4616 Clear -9 1023 79 10000 1.67 350 22:18 01.04.2021
4617 Clear -9 1022 79 10000 1 0 21:45 01.04.2021
4618 Clear -9 1022 79 10000 1 0 21:24 01.04.2021
4619 Clear -6 1022 73 10000 1.89 356 20:42 01.04.2021
4620 Clear -6 1022 73 10000 2.1 10 20:22 01.04.2021
4621 Clear -5 1021 74 10000 1 0 19:46 01.04.2021
4622 Clear -5 1021 74 10000 1 0 19:27 01.04.2021
4623 Clear -5 1021 74 10000 2 0 18:45 01.04.2021
4624 Clear -5 1021 74 10000 2 0 18:18 01.04.2021
4625 Clear -4 1020 80 10000 2 340 17:47 01.04.2021
4626 Clear -4 1020 80 10000 2 340 17:24 01.04.2021
4627 Clear -4 1020 80 10000 2 340 17:24 01.04.2021
4628 Clear -4 1020 74 10000 3 310 16:50 01.04.2021
4629 Clear -4 1020 74 10000 3 310 16:24 01.04.2021
4630 Clear -2 1019 69 10000 3 340 15:40 01.04.2021
4631 Clouds -3 1019 74 10000 3 330 15:19 01.04.2021
4632 Clouds -2 1018 74 10000 4 340 14:40 01.04.2021
4633 Clouds -2 1018 74 10000 4 340 14:40 01.04.2021
4634 Clouds -2 1018 74 10000 4 340 14:40 01.04.2021
4635 Clouds -1 1018 64 10000 5 350 14:21 01.04.2021
4636 Clouds 0 1017 64 10000 7 330 13:50 01.04.2021
4637 Clouds 0 1017 64 10000 8 330 13:30 01.04.2021
4638 Clouds 0 1017 64 10000 8 330 12:47 01.04.2021
4639 Clouds 0 1017 64 10000 8 330 12:29 01.04.2021
4640 Clouds 1 1016 64 10000 9 340 11:45 01.04.2021
4641 Clouds 1 1016 64 10000 9 340 11:24 01.04.2021
4642 Clouds 1 1015 64 10000 8 340 10:53 01.04.2021
4643 Clouds 1 1015 64 10000 8 340 10:33 01.04.2021
4644 Clouds 1 1015 69 10000 7 350 09:53 01.04.2021
4645 Clouds 1 1015 69 10000 8 340 09:24 01.04.2021
4646 Clouds 0 1015 80 10000 10 330 08:33 01.04.2021
4647 Clouds 0 1014 80 10000 8 330 07:52 01.04.2021
4648 Snow 0 1014 80 10000 7 330 07:18 01.04.2021
4649 Snow 0 1014 80 10000 6 320 06:42 01.04.2021
4650 Snow -1 1014 93 1200 1 0 03:30 01.04.2021
4651 Clouds 2 1012 60 10000 5 230 00:49 01.04.2021
4652 Rain 4 1011 35 10000 7 150 23:44 31.03.2021
4653 Rain 4 1011 35 10000 9 150 23:18 31.03.2021
4654 Clouds 4 1012 35 10000 8 150 22:41 31.03.2021
4655 Rain 5 1012 33 10000 9 150 22:20 31.03.2021
4656 Rain 5 1012 33 10000 9 150 21:45 31.03.2021
4657 Clouds 5 1012 33 10000 9 150 21:23 31.03.2021
4658 Rain 5 1013 33 10000 7 160 20:44 31.03.2021
4659 Rain 5 1013 33 10000 7 160 20:24 31.03.2021
4660 Clouds 5 1013 33 10000 6 160 19:59 31.03.2021
4661 Rain 5 1013 33 10000 6 160 19:36 31.03.2021
4662 Clouds 3 1013 41 10000 2 170 19:18 31.03.2021
4663 Clouds 4 1013 38 10000 2 170 18:43 31.03.2021
4664 Rain 4 1013 35 10000 3 150 17:57 31.03.2021
4665 Clouds 2 1013 60 10000 1 0 17:36 31.03.2021
4666 Clouds 3 1014 56 10000 1 0 17:18 31.03.2021
4667 Clouds 4 1014 52 10000 2 0 16:42 31.03.2021
4668 Rain 5 1014 48 10000 3 10 16:22 31.03.2021
4669 Clouds 5 1014 48 10000 3 10 15:50 31.03.2021
4670 Clouds 5 1014 48 10000 4 20 15:19 31.03.2021
4671 Clouds 6 1014 45 10000 6 30 14:44 31.03.2021
4672 Clouds 6 1014 42 10000 3 40 14:22 31.03.2021
4673 Clouds 6 1014 36 10000 3 360 13:42 31.03.2021
4674 Clouds 9 1013 27 10000 4 340 12:42 31.03.2021
4675 Clouds 9 1013 27 10000 2 0 12:21 31.03.2021
4676 Clouds 9 1013 27 10000 2 0 12:21 31.03.2021
4677 Clouds 9 1013 27 10000 2 0 12:21 31.03.2021
4678 Clouds 9 1013 27 10000 2 0 11:59 31.03.2021
4679 Clouds 10 1013 25 10000 4 340 11:21 31.03.2021
4680 Clouds 10 1013 20 10000 3 240 10:47 31.03.2021
4681 Clouds 10 1013 20 10000 3 240 10:26 31.03.2021
4682 Clouds 10 1014 20 10000 4 240 09:43 31.03.2021
4683 Clouds 9 1014 21 10000 3 230 09:18 31.03.2021
4684 Clouds 10 1014 22 10000 4 250 08:39 31.03.2021
4685 Clouds 10 1015 22 10000 4 280 07:53 31.03.2021
4686 Clouds 9 1015 25 10000 3 260 06:49 31.03.2021
4687 Clouds 4 1017 38 10000 1 0 03:52 31.03.2021
4688 Clouds -4 1016 68 10000 1.6 137 01:43 31.03.2021
4689 Clouds -4 1015 68 10000 1 0 00:49 31.03.2021
4690 Clouds 6 1015 31 10000 2.12 120 00:21 31.03.2021
4691 Clouds -5 1015 74 10000 1 0 23:41 30.03.2021
4692 Clear -4 1015 68 10000 2.02 125 22:59 30.03.2021
4693 Clear -4 1015 68 10000 2.02 125 22:40 30.03.2021
4694 Clear -4 1015 68 10000 2.02 125 22:40 30.03.2021
4695 Clouds -4 1015 68 10000 1.89 126 22:21 30.03.2021
4696 Clouds -5 1015 68 10000 1 0 21:49 30.03.2021
4697 Clouds -3 1015 63 10000 1.85 126 21:21 30.03.2021
4698 Clouds -5 1015 68 10000 1 0 20:53 30.03.2021
4699 Clouds -5 1015 68 10000 1 0 20:53 30.03.2021
4700 Clouds -5 1015 68 10000 1 0 20:28 30.03.2021
4701 Clear -6 1015 68 10000 1 0 19:51 30.03.2021
4702 Clear -6 1015 68 10000 1 0 19:27 30.03.2021
4703 Clear -6 1015 68 10000 1 0 19:27 30.03.2021
4704 Clear -6 1015 63 10000 2 190 18:40 30.03.2021
4705 Clear -4 1015 58 10000 1.49 126 17:58 30.03.2021
4706 Clear -3 1015 50 10000 1 0 17:39 30.03.2021
4707 Clear -3 1014 54 10000 1 0 17:20 30.03.2021
4708 Clear -2 1014 50 10000 2 160 16:45 30.03.2021
4709 Clear -2 1014 50 10000 2 160 16:23 30.03.2021
4710 Clear -3 1013 50 10000 3 170 15:21 30.03.2021
4711 Clear -3 1013 50 10000 3 170 14:57 30.03.2021
4712 Clear 3 1012 30 10000 1.43 21 14:22 30.03.2021
4713 Clear 3 1012 30 10000 1.43 21 13:59 30.03.2021
4714 Clear 3 1012 30 10000 4 300 13:37 30.03.2021
4715 Clear 8 1011 23 10000 5 310 12:49 30.03.2021
4716 Clear 8 1011 23 10000 5 310 12:28 30.03.2021
4717 Clear 8 1010 25 10000 5 320 11:56 30.03.2021
4718 Clear 9 1009 23 10000 6 350 11:23 30.03.2021
4719 Clear 9 1009 25 10000 6 350 10:46 30.03.2021
4720 Clear 9 1009 25 10000 6 340 10:26 30.03.2021
4721 Clear 8 1009 27 10000 7 340 09:50 30.03.2021
4722 Clear 8 1009 27 10000 7 340 09:50 30.03.2021
4723 Clear 8 1009 27 10000 7 340 09:31 30.03.2021
4724 Clear 8 1009 27 10000 8 330 08:56 30.03.2021
4725 Clear 9 1009 25 10000 8 340 08:37 30.03.2021
4726 Clear 8 1009 25 10000 7 350 07:51 30.03.2021
4727 Clear 7 1009 26 10000 8 340 07:22 30.03.2021
4728 Clouds 6 1008 26 10000 9 330 05:40 30.03.2021
4729 Clouds 6 1008 28 10000 8 330 05:19 30.03.2021
4730 Clouds 1 1003 44 10000 3 360 00:33 30.03.2021
4731 Clouds 2 1002 41 10000 1 0 23:34 29.03.2021
4732 Clouds 4 1001 33 10000 3 330 22:51 29.03.2021
4733 Clouds 4 1001 33 10000 3 330 22:26 29.03.2021
4734 Clouds 2 1000 44 10000 1 0 21:47 29.03.2021
4735 Clouds 2 1000 44 10000 1 0 21:27 29.03.2021
4736 Clouds 1 999 47 10000 3 180 20:48 29.03.2021
4737 Clouds 0 999 51 10000 2 160 20:27 29.03.2021
4738 Clouds -1 999 55 10000 1 0 19:49 29.03.2021
4739 Clouds -1 999 55 10000 1 0 19:22 29.03.2021
4740 Clouds 2 998 41 10000 2 180 18:43 29.03.2021
4741 Clouds 2 998 41 10000 2 180 18:23 29.03.2021
4742 Clouds 6 998 31 10000 2 0 17:46 29.03.2021
4743 Clouds 6 998 31 10000 2 0 17:18 29.03.2021
4744 Clouds 6 999 31 10000 2 0 16:38 29.03.2021
4745 Clouds 7 998 26 10000 3 360 16:20 29.03.2021
4746 Clouds 6 998 26 10000 2 0 15:35 29.03.2021
4747 Clouds 4 998 33 10000 2 0 14:57 29.03.2021
4748 Clouds 5 998 30 10000 2 170 14:38 29.03.2021
4749 Clouds 7 998 24 10000 1 0 13:54 29.03.2021
4750 Clouds 5 997 28 10000 3 140 13:30 29.03.2021
4751 Clouds 11 997 17 10000 2 230 12:53 29.03.2021
4752 Clouds 11 997 17 10000 2 230 12:35 29.03.2021
4753 Clouds 13 997 13 10000 5 240 11:43 29.03.2021
4754 Clouds 13 997 13 10000 5 240 11:24 29.03.2021
4755 Clouds 13 998 13 10000 7 200 10:41 29.03.2021
4756 Clouds 13 999 13 10000 7 190 09:56 29.03.2021
4757 Clear 14 999 13 10000 7 210 09:23 29.03.2021
4758 Clear 12 1000 12 10000 6 200 08:30 29.03.2021
4759 Clear 12 1000 12 10000 6 200 08:30 29.03.2021
4760 Clouds 11 1002 12 10000 5 140 07:52 29.03.2021
4761 Clouds 9 1002 13 10000 4 150 06:53 29.03.2021
4762 Clouds 4 1004 24 10000 1 0 05:19 29.03.2021
4763 Clear -8 1006 73 10000 1 0 02:27 29.03.2021
4764 Clear -11 1006 79 10000 2.73 107 00:26 29.03.2021
4765 Clear -10 1006 73 10000 2.73 107 23:55 28.03.2021
4766 Clear -11 1006 79 10000 1 0 23:24 28.03.2021
4767 Clear -10 1007 79 10000 2 240 22:42 28.03.2021
4768 Clear -10 1007 79 10000 2 240 22:24 28.03.2021
4769 Clear -10 1007 79 10000 2 240 22:24 28.03.2021
4770 Clear -11 1007 79 10000 1 0 21:46 28.03.2021
4771 Clear -11 1007 79 10000 1 0 21:24 28.03.2021
4772 Clear -10 1008 73 10000 1 0 20:51 28.03.2021
4773 Clear -10 1008 73 10000 1 0 20:33 28.03.2021
4774 Clear -10 1008 73 10000 1 0 19:55 28.03.2021
4775 Clear -9 1008 67 10000 1 0 19:37 28.03.2021
4776 Clear -9 1008 67 10000 1 0 19:18 28.03.2021
4777 Clear -7 1008 63 10000 2.03 108 18:37 28.03.2021
4778 Clear -7 1008 63 10000 1.87 103 17:59 28.03.2021
4779 Clear -7 1009 63 10000 1 0 17:36 28.03.2021
4780 Clear -7 1009 63 10000 1 0 16:55 28.03.2021
4781 Clear -5 1009 54 10000 1 0 16:27 28.03.2021
4782 Clear -4 1009 50 10000 1 0 15:49 28.03.2021
4783 Clear -4 1009 50 10000 1 0 15:24 28.03.2021
4784 Clear -6 1009 58 10000 4 170 14:40 28.03.2021
4785 Clear -4 1009 46 10000 0.73 9 13:59 28.03.2021
4786 Clear 1 1009 27 10000 2 0 13:34 28.03.2021
4787 Clear 2 1009 25 10000 3 330 12:55 28.03.2021
4788 Clear 3 1009 23 10000 3 290 12:34 28.03.2021
4789 Clear 3 1009 25 10000 2 0 11:50 28.03.2021
4790 Clear 3 1009 25 10000 4 300 11:32 28.03.2021
4791 Clear 2 1010 27 10000 2 0 10:47 28.03.2021
4792 Clear 2 1010 27 10000 2 0 10:28 28.03.2021
4793 Clear 2 1010 30 10000 3 250 09:50 28.03.2021
4794 Clear 2 1010 30 10000 3 250 09:27 28.03.2021
4795 Clear 1 1011 29 10000 4 290 08:48 28.03.2021
4796 Clear 0 1011 34 10000 2 0 08:23 28.03.2021
4797 Clear 0 1011 34 10000 3 300 07:38 28.03.2021
4798 Clear -3 1012 46 10000 5 330 05:33 28.03.2021
4799 Clear -6 1013 68 10000 3 320 03:26 28.03.2021
4800 Clear -12 1012 79 10000 2 0 00:34 28.03.2021
4801 Clear -11 1011 73 10000 3 320 23:50 27.03.2021
4802 Clear -11 1011 73 10000 3 320 23:32 27.03.2021
4803 Clear -11 1011 79 10000 2 0 22:40 27.03.2021
4804 Clear -10 1011 67 10000 2 0 22:20 27.03.2021
4805 Clear -10 1011 73 10000 3 260 21:41 27.03.2021
4806 Clear -10 1011 73 10000 3 260 21:41 27.03.2021
4807 Clear -10 1011 73 10000 3 260 21:20 27.03.2021
4808 Clear -8 1011 73 10000 1 0 20:55 27.03.2021
4809 Clear -8 1011 73 10000 1 0 20:55 27.03.2021
4810 Clear -8 1011 73 10000 1 0 20:36 27.03.2021
4811 Clear -7 1011 68 10000 2 360 19:45 27.03.2021
4812 Clear -7 1011 68 10000 2 360 19:24 27.03.2021
4813 Clear -8 1011 73 10000 3 330 18:56 27.03.2021
4814 Clear -8 1011 73 10000 3 330 18:37 27.03.2021
4815 Clear -8 1011 73 10000 3 330 18:18 27.03.2021
4816 Clear -8 1011 67 10000 2 310 17:28 27.03.2021
4817 Clear -8 1011 67 10000 2 310 17:28 27.03.2021
4818 Clear -7 1011 68 10000 3 320 16:54 27.03.2021
4819 Clear -7 1010 68 10000 2 0 16:36 27.03.2021
4820 Clear -7 1010 68 10000 1 0 16:18 27.03.2021
4821 Clear -6 1010 63 10000 2 0 15:36 27.03.2021
4822 Clouds -5 1010 63 10000 2 0 14:55 27.03.2021
4823 Clouds -5 1010 68 10000 5 340 14:22 27.03.2021
4824 Clouds -5 1009 68 10000 8 340 13:36 27.03.2021
4825 Clouds -5 1008 68 10000 10 330 13:18 27.03.2021
4826 Clouds -5 1008 68 10000 10 330 12:35 27.03.2021
4827 Clouds -4 1007 74 10000 12 330 11:47 27.03.2021
4828 Snow -4 1007 74 10000 12 330 11:28 27.03.2021
4829 Snow -4 1005 74 3600 12 320 10:48 27.03.2021
4830 Snow -4 1005 80 3600 12 330 10:28 27.03.2021
4831 Snow -4 1003 80 3200 14 340 09:41 27.03.2021
4832 Snow -4 1002 80 3600 14 330 09:18 27.03.2021
4833 Snow -4 1001 80 3600 14 330 08:33 27.03.2021
4834 Snow -4 999 86 3000 15 340 07:41 27.03.2021
4835 Snow -4 997 86 3000 14 330 06:58 27.03.2021
4836 Snow -4 997 86 3000 14 330 06:37 27.03.2021
4837 Snow 0 994 59 10000 9 300 04:41 27.03.2021
4838 Dust 1 994 34 8000 9 270 01:28 27.03.2021
4839 Dust 3 992 41 6000 7 250 00:32 27.03.2021
4840 Clouds 3 991 60 10000 4 290 23:58 26.03.2021
4841 Clouds 5 991 42 10000 5 280 23:22 26.03.2021
4842 Clouds 5 991 30 10000 2 0 22:36 26.03.2021
4843 Clouds 4 991 22 10000 3 250 21:41 26.03.2021
4844 Clouds 0 991 37 10000 4 290 21:22 26.03.2021
4845 Clouds 3 990 20 10000 3 170 20:49 26.03.2021
4846 Clouds 4 991 19 10000 1 0 20:30 26.03.2021
4847 Clouds 4 991 19 10000 1 0 20:30 26.03.2021
4848 Clouds 4 991 19 10000 1 0 20:30 26.03.2021
4849 Clouds 5 991 16 10000 1 0 19:50 26.03.2021
4850 Clouds 5 991 16 10000 1 0 19:30 26.03.2021
4851 Clear 5 992 17 10000 1 0 18:46 26.03.2021
4852 Clear 5 992 17 10000 1 0 18:27 26.03.2021
4853 Clouds 8 993 11 10000 5 180 17:49 26.03.2021
4854 Clouds 8 994 12 10000 5 160 17:18 26.03.2021
4855 Clouds 8 995 12 10000 6 160 16:33 26.03.2021
4856 Clouds 9 996 12 10000 7 140 15:58 26.03.2021
4857 Clouds 9 996 12 10000 7 140 15:58 26.03.2021
4858 Clouds 9 996 12 10000 7 140 15:24 26.03.2021
4859 Clouds 8 997 13 10000 7 140 14:34 26.03.2021
4860 Clouds 7 998 14 10000 3 170 13:43 26.03.2021
4861 Clouds 6 999 16 10000 2 170 13:21 26.03.2021
4862 Clouds 7 999 16 10000 3 200 12:34 26.03.2021
4863 Clouds 8 1000 18 10000 3 140 11:40 26.03.2021
4864 Clouds 10 1001 14 10000 3 160 11:19 26.03.2021
4865 Clouds 10 1001 13 10000 5 190 10:41 26.03.2021
4866 Clouds 9 1003 14 10000 6 210 09:58 26.03.2021
4867 Clouds 9 1003 14 10000 6 210 09:40 26.03.2021
4868 Clouds 10 1003 17 10000 5 210 08:45 26.03.2021
4869 Clouds 9 1004 18 10000 4 210 08:24 26.03.2021
4870 Clouds 7 1005 23 10000 5 220 07:42 26.03.2021
4871 Clouds 6 1006 26 10000 3 220 07:20 26.03.2021
4872 Clouds 6 1007 31 10000 3 210 06:54 26.03.2021
4873 Clouds 5 1008 36 10000 2 0 05:31 26.03.2021
4874 Clear 0 1011 64 10000 1 0 02:32 26.03.2021
4875 Clouds -6 1011 86 10000 1 0 00:32 26.03.2021
4876 Clear -9 1010 92 10000 2 170 23:46 25.03.2021
4877 Clear -6 1010 86 10000 2.08 308 23:21 25.03.2021
4878 Clear -7 1010 79 10000 2.08 308 22:37 25.03.2021
4879 Clear -4 1010 80 10000 2 0 21:53 25.03.2021
4880 Clear -3 1010 68 10000 1 0 21:34 25.03.2021
4881 Clear -3 1010 74 10000 1 0 20:47 25.03.2021
4882 Clear -3 1010 74 10000 1 0 20:27 25.03.2021
4883 Clear -3 1010 68 10000 1 0 19:50 25.03.2021
4884 Clear -3 1010 68 10000 1 0 19:31 25.03.2021
4885 Clear -3 1010 68 10000 1 0 19:31 25.03.2021
4886 Clear -3 1010 68 10000 1 0 18:57 25.03.2021
4887 Clear -2 1010 64 10000 3.42 311 18:39 25.03.2021
4888 Clear -1 1010 59 10000 2 0 18:18 25.03.2021
4889 Clear -1 1009 59 10000 4 320 17:37 25.03.2021
4890 Clear 0 1009 55 10000 5 320 16:56 25.03.2021
4891 Clear 1 1009 47 10000 2 0 16:33 25.03.2021
4892 Clear 2 1008 41 10000 1 0 15:49 25.03.2021
4893 Clear 2 1008 41 10000 1 0 15:25 25.03.2021
4894 Clear 4 1007 30 10000 3 30 14:49 25.03.2021
4895 Clear 4 1007 30 10000 3 30 14:29 25.03.2021
4896 Clouds 7 1005 24 10000 2 0 13:26 25.03.2021
4897 Clouds 7 1006 24 10000 4 290 12:46 25.03.2021
4898 Clouds 7 1005 21 10000 5.52 340 12:22 25.03.2021
4899 Clouds 7 1005 21 10000 5.52 340 12:22 25.03.2021
4900 Clouds 10 1004 17 10000 6 300 11:57 25.03.2021
4901 Clouds 10 1004 17 10000 6 300 11:39 25.03.2021
4902 Clear 11 1004 13 10000 9 290 11:21 25.03.2021
4903 Clear 12 1003 13 10000 8 290 10:45 25.03.2021
4904 Clouds 13 1003 11 10000 4 280 10:19 25.03.2021
4905 Clouds 13 1003 11 10000 3 290 09:47 25.03.2021
4906 Clouds 13 1003 11 10000 3 290 09:29 25.03.2021
4907 Clouds 13 1003 11 10000 4 210 08:36 25.03.2021
4908 Dust 11 1004 12 10000 8 140 07:43 25.03.2021
4909 Clouds 10 1005 14 10000 11 130 06:43 25.03.2021
4910 Clouds 10 1005 14 10000 11 130 06:23 25.03.2021
4911 Clouds 8 1007 17 10000 8 120 04:52 25.03.2021
4912 Clouds 5 1008 24 8000 1 0 02:28 25.03.2021
4913 Clear -1 1009 47 10000 2 0 00:20 25.03.2021
4914 Clear -2 1009 50 10000 2 0 23:40 24.03.2021
4915 Clouds -3 1009 59 10000 2 0 23:20 24.03.2021
4916 Clouds -2 1010 54 10000 3 310 22:40 24.03.2021
4917 Clouds -3 1010 54 10000 2 270 21:57 24.03.2021
4918 Clouds -3 1010 54 10000 2 270 21:39 24.03.2021
4919 Clouds -3 1010 54 10000 2 270 21:19 24.03.2021
4920 Clouds -4 1011 63 10000 2.8 103 20:41 24.03.2021
4921 Clouds -4 1011 63 10000 2.64 96 20:18 24.03.2021
4922 Clear -5 1011 63 10000 1 0 19:34 24.03.2021
4923 Clear -4 1012 58 10000 2.36 96 18:56 24.03.2021
4924 Clear -4 1012 58 10000 2.36 96 18:37 24.03.2021
4925 Clear -4 1012 58 10000 2.06 97 18:19 24.03.2021
4926 Clear -4 1012 58 10000 1 0 17:33 24.03.2021
4927 Clear -2 1011 50 10000 1 0 16:59 24.03.2021
4928 Clear -2 1011 50 10000 1 0 16:40 24.03.2021
4929 Clear -2 1011 50 10000 1 0 16:19 24.03.2021
4930 Clear -3 1011 50 10000 1 0 15:41 24.03.2021
4931 Clear -1 1011 43 10000 2.21 61 15:20 24.03.2021
4932 Clear -1 1011 40 10000 1 0 14:30 24.03.2021
4933 Clear -2 1011 43 10000 3 150 13:59 24.03.2021
4934 Clear -1 1011 40 10000 2 180 13:28 24.03.2021
4935 Clear -1 1011 40 10000 2 180 13:28 24.03.2021
4936 Clouds 9 1011 17 10000 2 10 12:52 24.03.2021
4937 Clouds 9 1010 15 10000 1 0 12:32 24.03.2021
4938 Clouds 9 1010 15 10000 1 0 11:57 24.03.2021
4939 Clouds 10 1010 14 10000 2 30 11:39 24.03.2021
4940 Clouds 11 1010 13 10000 4 330 10:49 24.03.2021
4941 Clouds 11 1010 15 10000 4 330 10:31 24.03.2021
4942 Clouds 11 1010 13 10000 5 340 09:55 24.03.2021
4943 Clouds 11 1010 13 10000 5 340 09:31 24.03.2021
4944 Clouds 12 1011 13 10000 7 310 08:57 24.03.2021
4945 Clouds 12 1011 13 10000 7 310 08:38 24.03.2021
4946 Clouds 10 1012 14 10000 4 280 07:49 24.03.2021
4947 Clouds 10 1012 17 10000 6 240 07:19 24.03.2021
4948 Clouds 9 1013 18 10000 3 200 06:43 24.03.2021
4949 Clouds -2 1013 59 10000 1 0 02:29 24.03.2021
4950 Clouds -6 1013 79 10000 1 0 00:42 24.03.2021
4951 Clouds -7 1013 79 10000 1 0 23:52 23.03.2021
4952 Clear -6 1013 73 10000 0.72 157 23:19 23.03.2021
4953 Clear -7 1013 79 10000 0.72 157 22:50 23.03.2021
4954 Clear -7 1013 79 10000 0.46 145 22:24 23.03.2021
4955 Clear -8 1014 73 10000 1 0 21:45 23.03.2021
4956 Clear -8 1014 73 10000 1 0 21:26 23.03.2021
4957 Clear -7 1014 73 10000 1.11 137 20:45 23.03.2021
4958 Clear -7 1014 73 10000 1.24 145 20:25 23.03.2021
4959 Clear -7 1014 73 10000 1.24 145 19:47 23.03.2021
4960 Clear -7 1014 73 10000 1.13 140 19:26 23.03.2021
4961 Clear -8 1014 73 10000 1 0 18:44 23.03.2021
4962 Clear -6 1015 68 10000 2 0 18:22 23.03.2021
4963 Clear -6 1015 68 10000 2 0 17:46 23.03.2021
4964 Clear -6 1015 68 10000 2 0 17:21 23.03.2021
4965 Clear -5 1015 63 10000 2 170 16:42 23.03.2021
4966 Clear -5 1015 63 10000 2 170 16:24 23.03.2021
4967 Clear -4 1015 58 10000 2 160 15:46 23.03.2021
4968 Clear -4 1015 58 10000 2 0 14:57 23.03.2021
4969 Clear -4 1015 58 10000 2 0 14:37 23.03.2021
4970 Clear -4 1015 58 10000 3 180 14:18 23.03.2021
4971 Clear -4 1015 54 10000 3 150 13:41 23.03.2021
4972 Clear 0 1015 34 10000 1 0 13:20 23.03.2021
4973 Clear 2 1015 30 10000 2 300 12:43 23.03.2021
4974 Clear 4 1014 26 10000 3 290 12:20 23.03.2021
4975 Clear 7 1014 21 10000 5 290 11:45 23.03.2021
4976 Clouds 8 1013 18 10000 6 300 10:45 23.03.2021
4977 Clouds 8 1013 19 10000 3 0 10:26 23.03.2021
4978 Clouds 8 1013 19 10000 3 0 09:58 23.03.2021
4979 Clouds 7 1013 23 10000 4 330 09:39 23.03.2021
4980 Clouds 8 1013 21 10000 3 350 09:19 23.03.2021
4981 Clouds 8 1013 21 10000 5 310 08:40 23.03.2021
4982 Clouds 8 1013 21 10000 4 340 08:22 23.03.2021
4983 Clouds 9 1014 18 10000 4 300 07:28 23.03.2021
4984 Clouds 8 1014 18 10000 4 320 06:59 23.03.2021
4985 Clouds 8 1014 18 10000 4 320 06:33 23.03.2021
4986 Clouds 1 1014 40 10000 1 0 03:23 23.03.2021
4987 Clouds -2 1014 54 10000 0.67 9 02:18 23.03.2021
4988 Clouds -6 1012 68 10000 1.59 30 23:43 22.03.2021
4989 Clouds -5 1011 63 10000 1.87 13 22:56 22.03.2021
4990 Clouds -5 1011 63 10000 1.87 13 22:37 22.03.2021
4991 Clouds -5 1011 63 10000 1.87 13 22:37 22.03.2021
4992 Clear -6 1010 68 10000 1 0 22:18 22.03.2021
4993 Clouds -6 1010 68 10000 1 0 21:40 22.03.2021
4994 Clouds -6 1010 68 10000 1 0 21:40 22.03.2021
4995 Clear -7 1010 73 10000 1 0 21:21 22.03.2021
4996 Clear -7 1010 73 10000 1 0 20:41 22.03.2021
4997 Clear -7 1010 68 10000 2 140 20:21 22.03.2021
4998 Clear -5 1010 63 10000 2 160 19:53 22.03.2021
4999 Clear -5 1010 63 10000 2 160 19:31 22.03.2021
5000 Clear -4 1010 58 10000 1 0 18:47 22.03.2021
5001 Clear -4 1010 58 10000 1 0 18:29 22.03.2021
5002 Clear -5 1010 63 10000 2 0 17:59 22.03.2021
5003 Clear -4 1009 63 10000 2 180 17:41 22.03.2021
5004 Clouds -5 1010 63 10000 1 0 17:19 22.03.2021
5005 Clouds -4 1010 58 10000 1 0 16:44 22.03.2021
5006 Clouds -2 1010 50 10000 1 0 16:18 22.03.2021
5007 Clouds -1 1009 47 10000 2 0 15:38 22.03.2021
5008 Clear -3 1009 54 10000 2 0 15:18 22.03.2021
5009 Clear -4 1010 58 10000 3 170 14:51 22.03.2021
5010 Clear -4 1010 58 10000 3 170 14:32 22.03.2021
5011 Clouds 1 1009 32 10000 3 270 13:47 22.03.2021
5012 Clouds 1 1009 32 10000 3 270 13:26 22.03.2021
5013 Clouds 6 1008 21 10000 1 0 12:54 22.03.2021
5014 Clouds 6 1008 21 10000 1 0 12:24 22.03.2021
5015 Clouds 8 1008 14 10000 4 270 11:49 22.03.2021
5016 Clouds 8 1008 14 10000 4 270 11:26 22.03.2021
5017 Clouds 8 1008 13 10000 5 270 10:44 22.03.2021
5018 Clouds 8 1008 13 10000 5 270 10:24 22.03.2021
5019 Clouds 8 1008 14 10000 1 0 09:46 22.03.2021
5020 Clouds 8 1008 14 10000 1 0 09:26 22.03.2021
5021 Clouds 9 1009 13 10000 2 0 08:45 22.03.2021
5022 Clouds 9 1009 13 10000 2 0 08:26 22.03.2021
5023 Clouds 8 1009 13 10000 3 330 07:47 22.03.2021
5024 Clouds 8 1010 13 10000 2 0 06:59 22.03.2021
5025 Clouds 8 1010 13 10000 2 0 06:36 22.03.2021
5026 Clouds -3 1011 46 10000 1 0 02:47 22.03.2021
5027 Clouds -10 1011 67 10000 1 0 00:33 22.03.2021
5028 Clear -11 1012 67 10000 2 160 23:54 21.03.2021
5029 Clear -12 1011 72 10000 1 0 23:20 21.03.2021
5030 Clear -10 1011 62 10000 1 0 22:56 21.03.2021
5031 Clear -10 1011 62 10000 1 0 22:29 21.03.2021
5032 Clear -12 1012 72 10000 1 0 21:41 21.03.2021
5033 Clear -12 1012 72 10000 1 0 21:23 21.03.2021
5034 Clear -10 1012 67 10000 1 0 20:46 21.03.2021
5035 Clear -10 1012 67 10000 1 0 20:27 21.03.2021
5036 Clear -10 1012 67 10000 1 0 19:57 21.03.2021
5037 Clear -9 1013 62 10000 2 170 19:23 21.03.2021
5038 Clear -9 1013 62 10000 1 0 18:55 21.03.2021
5039 Clear -9 1013 62 10000 1 0 18:31 21.03.2021
5040 Clear -9 1013 62 10000 1 0 17:54 21.03.2021
5041 Clear -5 1014 42 10000 1.26 153 17:36 21.03.2021
5042 Clear -5 1014 42 10000 1.2 157 17:18 21.03.2021
5043 Clear -8 1014 49 10000 1.2 157 16:41 21.03.2021
5044 Clear -5 1015 39 10000 1.03 153 16:22 21.03.2021
5045 Clear -5 1015 36 10000 1.03 153 15:42 21.03.2021
5046 Clear -2 1015 26 10000 2 220 15:20 21.03.2021
5047 Clear -3 1015 31 10000 3 170 14:46 21.03.2021
5048 Clear -3 1015 31 10000 3 170 14:27 21.03.2021
5049 Clear -4 1015 33 10000 2 0 13:55 21.03.2021
5050 Clear -4 1015 33 10000 2 0 13:33 21.03.2021
5051 Clear -2 1015 31 10000 4 180 12:42 21.03.2021
5052 Clear -2 1015 31 10000 4 180 12:24 21.03.2021
5053 Clear 5 1015 11 10000 3 210 11:41 21.03.2021
5054 Clear 6 1015 10 10000 3 220 11:20 21.03.2021
5055 Clear 5 1015 12 10000 2 0 10:43 21.03.2021
5056 Clear 5 1015 12 10000 2 0 10:25 21.03.2021
5057 Clear 4 1016 13 10000 2 0 09:47 21.03.2021
5058 Clear 4 1016 13 10000 2 0 09:29 21.03.2021
5059 Clear 4 1016 16 10000 3 0 08:47 21.03.2021
5060 Clear 4 1016 16 10000 3 0 08:26 21.03.2021
5061 Clear 2 1018 20 10000 3 260 07:39 21.03.2021
5062 Clear 2 1018 20 10000 2 0 07:19 21.03.2021
5063 Clear 0 1019 25 10000 3 220 05:55 21.03.2021
5064 Clear -8 1021 57 10000 0.96 229 02:46 21.03.2021
5065 Clear -17 1020 78 10000 1 0 00:55 21.03.2021
5066 Clear -17 1020 78 10000 1 0 00:36 21.03.2021
5067 Clear -15 1021 72 10000 1 0 00:18 21.03.2021
5068 Clear -17 1021 71 10000 1 0 23:37 20.03.2021
5069 Clear -15 1021 78 10000 1 0 22:57 20.03.2021
5070 Clear -15 1021 78 10000 1 0 22:24 20.03.2021
5071 Clear -13 1021 72 10000 0.63 228 21:47 20.03.2021
5072 Clear -13 1021 72 10000 0.72 224 21:25 20.03.2021
5073 Clear -13 1022 66 10000 0.72 224 20:48 20.03.2021
5074 Clear -13 1022 66 10000 0.47 248 20:23 20.03.2021
5075 Clear -15 1022 66 10000 1 0 19:51 20.03.2021
5076 Clear -15 1022 66 10000 1 0 19:29 20.03.2021
5077 Clear -13 1023 66 10000 0.43 248 18:51 20.03.2021
5078 Clear -13 1023 66 10000 0.46 257 18:28 20.03.2021
5079 Clear -13 1023 66 10000 0.46 257 17:58 20.03.2021
5080 Clear -11 1023 62 10000 0.46 257 17:39 20.03.2021
5081 Clear -11 1023 62 10000 0.49 271 17:19 20.03.2021
5082 Clear -11 1023 62 10000 0.49 271 16:38 20.03.2021
5083 Clear -12 1023 67 10000 1 0 16:18 20.03.2021
5084 Clear -11 1024 67 10000 1 0 15:40 20.03.2021
5085 Clear -11 1024 67 10000 1 0 15:40 20.03.2021
5086 Clear -13 1024 72 10000 3 180 15:21 20.03.2021
5087 Clear -12 1024 72 10000 3 170 14:31 20.03.2021
5088 Clear -12 1024 67 10000 2 150 13:56 20.03.2021
5089 Clear -11 1024 62 10000 1 0 13:29 20.03.2021
5090 Clouds -5 1024 46 10000 4 310 12:30 20.03.2021
5091 Clouds -5 1024 46 10000 4 310 11:58 20.03.2021
5092 Clouds -5 1024 42 10000 6 310 11:39 20.03.2021
5093 Clouds -4 1024 36 10000 6 320 11:20 20.03.2021
5094 Clouds -4 1024 36 10000 6 330 10:39 20.03.2021
5095 Clouds -4 1024 36 10000 5 310 10:19 20.03.2021
5096 Clouds -4 1024 36 10000 6 310 09:43 20.03.2021
5097 Clouds -5 1024 36 10000 7 310 09:21 20.03.2021
5098 Clouds -4 1024 33 10000 8 310 08:49 20.03.2021
5099 Clouds -4 1024 30 10000 8 320 07:58 20.03.2021
5100 Clouds -4 1025 33 10000 7 320 07:39 20.03.2021
5101 Clouds -4 1025 33 10000 7 310 07:20 20.03.2021
5102 Clouds -5 1025 33 10000 6 320 06:34 20.03.2021
5103 Clouds -7 1026 42 10000 7 320 04:44 20.03.2021
5104 Clouds -8 1027 45 10000 3 360 03:43 20.03.2021
5105 Clear -16 1026 78 10000 2.44 327 00:43 20.03.2021
5106 Clear -17 1025 78 10000 1 0 23:45 19.03.2021
5107 Clear -16 1025 72 10000 1 0 23:18 19.03.2021
5108 Clear -16 1025 78 10000 1 0 22:42 19.03.2021
5109 Clear -15 1025 72 10000 1 0 22:22 19.03.2021
5110 Clear -14 1025 72 10000 1 0 21:38 19.03.2021
5111 Clear -14 1025 72 10000 1 0 21:38 19.03.2021
5112 Clear -13 1025 72 10000 1 0 21:19 19.03.2021
5113 Clouds 11 1025 12 10000 3 360 20:44 19.03.2021
5114 Clouds 11 1025 12 10000 3 360 20:26 19.03.2021
5115 Clear -12 1025 67 10000 5 350 19:47 19.03.2021
5116 Clear -12 1025 67 10000 5 350 19:22 19.03.2021
5117 Clouds -11 1025 62 10000 3 350 18:49 19.03.2021
5118 Clouds -11 1025 62 10000 3 350 18:21 19.03.2021
5119 Clouds -11 1025 62 10000 3 350 17:56 19.03.2021
5120 Clouds -10 1025 57 10000 4 350 17:37 19.03.2021
5121 Clouds -10 1025 57 10000 4 350 16:59 19.03.2021
5122 Clouds -10 1025 57 10000 4 350 16:40 19.03.2021
5123 Clouds -11 1024 62 10000 3 330 16:21 19.03.2021
5124 Clouds -10 1024 57 10000 4 330 15:33 19.03.2021
5125 Clouds -10 1024 57 10000 4 320 14:51 19.03.2021
5126 Clouds -10 1024 57 10000 4 320 14:32 19.03.2021
5127 Clouds -8 1023 53 10000 4 330 13:48 19.03.2021
5128 Clouds -8 1023 57 10000 4 330 13:18 19.03.2021
5129 Clouds -8 1023 57 10000 6 340 12:40 19.03.2021
5130 Clouds -7 1022 58 10000 6 340 11:55 19.03.2021
5131 Clouds -6 1022 42 10000 7 350 11:22 19.03.2021
5132 Clouds -7 1022 42 10000 7 350 10:42 19.03.2021
5133 Clouds -7 1022 42 10000 8 360 10:21 19.03.2021
5134 Clouds -6 1022 38 10000 8 350 09:43 19.03.2021
5135 Clouds -6 1022 38 10000 7 350 09:22 19.03.2021
5136 Clouds -6 1022 42 10000 8 340 08:51 19.03.2021
5137 Clouds -6 1022 42 10000 8 340 08:26 19.03.2021
5138 Clouds -6 1022 45 10000 8 340 07:43 19.03.2021
5139 Clouds -6 1022 45 10000 7 350 06:59 19.03.2021
5140 Clouds -8 1022 57 10000 3 360 05:26 19.03.2021
5141 Clouds -11 1022 67 10000 3 350 00:59 19.03.2021
5142 Clouds -11 1022 73 10000 3 350 23:54 18.03.2021
5143 Clouds -11 1022 73 10000 3 320 23:28 18.03.2021
5144 Clouds -11 1022 73 10000 3 330 22:44 18.03.2021
5145 Clouds -11 1022 73 10000 3 330 22:25 18.03.2021
5146 Clouds -11 1022 73 10000 1 0 21:43 18.03.2021
5147 Clouds -11 1022 73 10000 1 0 21:25 18.03.2021
5148 Clouds -10 1023 67 10000 3 340 20:39 18.03.2021
5149 Clouds -10 1023 67 10000 3 340 20:20 18.03.2021
5150 Clouds -11 1023 79 10000 4 330 19:42 18.03.2021
5151 Clouds -11 1023 79 10000 4 330 19:22 18.03.2021
5152 Clouds -10 1023 73 10000 5 340 18:41 18.03.2021
5153 Clouds -10 1023 73 10000 5 340 17:55 18.03.2021
5154 Clouds -10 1023 73 10000 4 350 17:27 18.03.2021
5155 Clouds -10 1023 73 10000 4 350 16:54 18.03.2021
5156 Clouds -9 1022 67 10000 3 360 16:35 18.03.2021
5157 Clear -9 1023 73 10000 5 320 15:59 18.03.2021
5158 Clear -9 1023 73 10000 5 320 15:41 18.03.2021
5159 Clear -9 1022 73 10000 4 330 15:18 18.03.2021
5160 Clear -9 1022 73 10000 5 330 14:42 18.03.2021
5161 Clear -9 1022 73 10000 6 330 14:19 18.03.2021
5162 Clear -9 1022 73 10000 6 320 13:37 18.03.2021
5163 Clear -9 1022 73 10000 5 320 13:19 18.03.2021
5164 Clear -8 1021 67 10000 6 320 12:37 18.03.2021
5165 Clear -8 1021 67 10000 6 320 12:37 18.03.2021
5166 Clouds -8 1021 67 10000 7 330 12:19 18.03.2021
5167 Clouds -7 1020 63 10000 8 330 11:44 18.03.2021
5168 Clouds -7 1020 63 10000 9 320 11:20 18.03.2021
5169 Clouds -6 1020 58 10000 8 320 10:41 18.03.2021
5170 Clouds -5 1019 58 10000 7 340 10:23 18.03.2021
5171 Clouds -6 1019 63 10000 7 330 09:45 18.03.2021
5172 Clouds -5 1019 58 10000 7 340 09:26 18.03.2021
5173 Clouds -5 1018 58 10000 9 330 08:45 18.03.2021
5174 Clouds -4 1018 50 10000 9 330 08:23 18.03.2021
5175 Clouds -5 1019 58 10000 8 330 07:45 18.03.2021
5176 Clouds -5 1018 58 10000 6 330 06:49 18.03.2021
5177 Clouds -5 1019 58 10000 5 320 06:25 18.03.2021
5178 Clouds -5 1019 58 10000 4 330 05:26 18.03.2021
5179 Clouds -4 1015 63 10000 7 290 00:48 18.03.2021
5180 Clouds -2 1014 40 10000 8 150 23:37 17.03.2021
5181 Clouds -2 1013 40 10000 11 140 22:42 17.03.2021
5182 Clouds -2 1013 40 10000 11 140 22:23 17.03.2021
5183 Clouds -2 1014 43 10000 7 190 21:51 17.03.2021
5184 Clouds -2 1014 43 10000 7 190 21:32 17.03.2021
5185 Clouds -1 1013 40 10000 11 130 20:54 17.03.2021
5186 Clouds -1 1013 40 10000 11 130 20:54 17.03.2021
5187 Snow -1 1013 40 10000 11 130 20:36 17.03.2021
5188 Clouds -1 1013 40 10000 11 130 20:18 17.03.2021
5189 Snow -2 1014 54 10000 10 140 19:40 17.03.2021
5190 Clouds -2 1014 54 10000 10 140 19:19 17.03.2021
5191 Snow -2 1016 59 10000 8 140 18:50 17.03.2021
5192 Snow -2 1016 59 10000 8 140 18:32 17.03.2021
5193 Snow -3 1017 80 6000 9 140 17:42 17.03.2021
5194 Snow -3 1017 80 6000 9 140 17:22 17.03.2021
5195 Snow 0 1017 40 10000 11 150 16:43 17.03.2021
5196 Snow 0 1017 40 10000 11 150 16:21 17.03.2021
5197 Snow 0 1016 32 10000 12 140 15:46 17.03.2021
5198 Snow 0 1016 32 10000 12 140 15:28 17.03.2021
5199 Snow 0 1016 32 10000 11 130 14:40 17.03.2021
5200 Clouds 0 1017 34 10000 9 130 14:20 17.03.2021
5201 Clouds 0 1017 34 10000 9 130 13:55 17.03.2021
5202 Clouds 0 1017 34 10000 9 140 13:25 17.03.2021
5203 Clouds 0 1017 37 10000 6 140 12:48 17.03.2021
5204 Clouds 0 1017 37 10000 6 140 12:27 17.03.2021
5205 Clouds 1 1018 32 10000 6 170 11:42 17.03.2021
5206 Clouds 2 1018 30 10000 6 170 11:23 17.03.2021
5207 Clouds 2 1018 30 10000 6 170 10:53 17.03.2021
5208 Clouds 2 1018 27 10000 6 160 10:24 17.03.2021
5209 Clouds 3 1018 25 10000 5 160 09:46 17.03.2021
5210 Clouds 3 1018 28 10000 6 170 09:20 17.03.2021
5211 Clouds 3 1018 28 10000 6 170 08:53 17.03.2021
5212 Clouds 2 1019 30 10000 5 170 08:33 17.03.2021
5213 Clouds 2 1019 30 10000 6 170 07:46 17.03.2021
5214 Clouds 2 1020 30 10000 6 150 07:19 17.03.2021
5215 Clouds 1 1020 32 10000 7 150 06:36 17.03.2021
5216 Clouds -1 1021 34 10000 7 140 04:19 17.03.2021
5217 Clouds -6 1022 68 10000 1.95 127 02:44 17.03.2021
5218 Clear -10 1022 79 10000 1 0 00:39 17.03.2021
5219 Clouds -10 1022 79 10000 1 0 23:27 16.03.2021
5220 Clouds -10 1021 79 10000 1.62 90 22:47 16.03.2021
5221 Clouds -11 1021 85 10000 1 0 22:28 16.03.2021
5222 Clouds -9 1021 79 10000 1 0 21:45 16.03.2021
5223 Clouds -9 1021 79 10000 1 0 21:27 16.03.2021
5224 Clouds -9 1022 79 10000 1 0 20:58 16.03.2021
5225 Clouds -9 1022 79 10000 1 0 20:20 16.03.2021
5226 Clouds -11 1021 79 10000 2 170 19:54 16.03.2021
5227 Clouds -11 1021 79 10000 2 170 19:36 16.03.2021
5228 Clear -12 1021 85 10000 2 190 18:59 16.03.2021
5229 Clear -12 1021 85 10000 2 190 18:40 16.03.2021
5230 Clear -12 1021 85 10000 2 190 18:20 16.03.2021
5231 Clear -8 1021 73 10000 1 0 17:45 16.03.2021
5232 Clear -8 1021 73 10000 1 0 17:24 16.03.2021
5233 Clear -10 1021 85 10000 1 0 16:50 16.03.2021
5234 Clear -10 1021 85 10000 1 0 16:26 16.03.2021
5235 Clear -7 1021 73 10000 2 0 15:46 16.03.2021
5236 Clear -7 1021 73 10000 2 330 15:21 16.03.2021
5237 Clear -7 1021 73 10000 2 300 14:57 16.03.2021
5238 Clear -7 1021 73 10000 2 300 14:39 16.03.2021
5239 Clear -7 1020 73 10000 2 250 14:19 16.03.2021
5240 Clear -6 1020 68 10000 3 340 13:46 16.03.2021
5241 Clear -6 1020 68 10000 3 340 13:23 16.03.2021
5242 Clouds -6 1019 68 10000 3 340 12:50 16.03.2021
5243 Clouds -5 1019 63 10000 4 350 12:31 16.03.2021
5244 Clouds -4 1019 58 10000 5 350 11:41 16.03.2021
5245 Clouds -4 1018 58 10000 6 350 11:21 16.03.2021
5246 Clouds -3 1017 50 10000 8 340 10:27 16.03.2021
5247 Clouds -2 1017 54 10000 7 350 09:49 16.03.2021
5248 Clouds -2 1017 54 10000 7 350 09:29 16.03.2021
5249 Clouds -2 1017 54 10000 6 300 08:59 16.03.2021
5250 Clouds -2 1017 54 10000 6 300 08:40 16.03.2021
5251 Clouds -2 1017 54 10000 5 320 08:19 16.03.2021
5252 Clouds -2 1017 54 10000 6 310 07:35 16.03.2021
5253 Clouds -3 1017 63 10000 4 290 06:39 16.03.2021
5254 Clouds -3 1017 59 10000 4 300 05:52 16.03.2021
5255 Clouds -3 1017 59 10000 4 300 05:34 16.03.2021
5256 Clouds -8 1017 86 10000 1 0 02:45 16.03.2021
5257 Clouds -9 1017 86 10000 2 280 02:23 16.03.2021
5258 Clouds -8 1017 86 10000 2 70 23:57 15.03.2021
5259 Clouds -8 1017 86 10000 1 0 23:28 15.03.2021
5260 Clouds -8 1017 86 10000 2.36 104 22:51 15.03.2021
5261 Snow -8 1017 86 8000 1 0 22:33 15.03.2021
5262 Snow -8 1017 86 8000 1 0 22:33 15.03.2021
5263 Snow -8 1017 86 8000 3 170 21:55 15.03.2021
5264 Snow -8 1017 86 8000 3 170 21:34 15.03.2021
5265 Clouds -7 1018 53 10000 2 230 20:58 15.03.2021
5266 Clouds -7 1018 53 10000 2 230 20:40 15.03.2021
5267 Clouds -8 1018 57 10000 1 0 20:21 15.03.2021
5268 Clouds -8 1018 53 10000 1 0 19:50 15.03.2021
5269 Clouds -8 1018 53 10000 1 0 19:50 15.03.2021
5270 Clouds -7 1018 49 10000 2 50 19:31 15.03.2021
5271 Clouds -7 1019 49 10000 3 60 18:57 15.03.2021
5272 Clouds -7 1020 49 10000 1 0 18:28 15.03.2021
5273 Clouds -7 1020 49 10000 1 0 17:56 15.03.2021
5274 Clouds -7 1020 49 10000 2 190 17:32 15.03.2021
5275 Clouds -8 1020 53 10000 1 0 16:52 15.03.2021
5276 Clouds -8 1020 53 10000 1 0 16:34 15.03.2021
5277 Snow -8 1021 53 10000 2 250 15:47 15.03.2021
5278 Clouds -8 1021 53 10000 2 250 15:26 15.03.2021
5279 Clouds -7 1022 45 10000 1 0 14:45 15.03.2021
5280 Clouds -7 1022 45 10000 1 0 14:23 15.03.2021
5281 Clouds -7 1022 42 10000 2 230 13:49 15.03.2021
5282 Clouds -7 1022 42 10000 2 0 13:27 15.03.2021
5283 Clouds -8 1022 45 10000 2 240 12:50 15.03.2021
5284 Clouds -7 1021 42 10000 2 230 12:20 15.03.2021
5285 Clouds -7 1021 42 10000 2 230 11:56 15.03.2021
5286 Clouds -7 1021 42 10000 1 0 11:37 15.03.2021
5287 Clouds -7 1022 38 10000 3 310 10:56 15.03.2021
5288 Clouds -7 1022 38 10000 3 310 10:32 15.03.2021
5289 Clouds -7 1022 38 10000 4 320 09:54 15.03.2021
5290 Clouds -7 1023 42 10000 4 310 09:35 15.03.2021
5291 Clouds -7 1023 35 10000 6 320 08:59 15.03.2021
5292 Clouds -7 1023 35 10000 6 320 08:40 15.03.2021
5293 Clouds -7 1023 35 10000 6 320 07:56 15.03.2021
5294 Clouds -7 1023 38 10000 5 310 07:32 15.03.2021
5295 Clouds -8 1023 38 10000 5 350 06:41 15.03.2021
5296 Clouds -10 1023 48 10000 6 320 05:33 15.03.2021
5297 Clear -13 1023 47 10000 5 360 01:47 15.03.2021
5298 Clear -16 1022 60 10000 4 340 23:59 14.03.2021
5299 Clear -15 1022 56 10000 3 350 23:21 14.03.2021
5300 Clear -14 1022 47 10000 4 360 22:47 14.03.2021
5301 Clear -13 1022 43 10000 6 350 22:23 14.03.2021
5302 Clear -13 1022 43 10000 6 350 22:23 14.03.2021
5303 Clear -14 1021 47 10000 4 350 21:49 14.03.2021
5304 Clear -14 1021 47 10000 4 350 21:20 14.03.2021
5305 Clear -14 1021 47 10000 3 360 20:50 14.03.2021
5306 Clear -14 1021 47 10000 3 360 20:50 14.03.2021
5307 Clear -15 1020 51 10000 2 0 20:27 14.03.2021
5308 Clear -14 1019 51 10000 5 330 19:50 14.03.2021
5309 Clear -14 1019 51 10000 5 330 19:24 14.03.2021
5310 Clear -14 1018 51 10000 9 330 18:58 14.03.2021
5311 Clear -14 1018 51 10000 9 330 18:28 14.03.2021
5312 Clear -14 1017 51 10000 8 340 17:41 14.03.2021
5313 Clear -14 1017 51 10000 8 340 17:23 14.03.2021
5314 Clear -14 1017 51 10000 10 330 16:52 14.03.2021
5315 Clear -14 1016 56 10000 7 330 16:32 14.03.2021
5316 Clouds -13 1016 52 10000 8 320 15:57 14.03.2021
5317 Clouds -13 1016 52 10000 8 320 15:39 14.03.2021
5318 Clouds -13 1014 56 10000 9 330 14:42 14.03.2021
5319 Clouds -13 1014 56 10000 9 330 14:42 14.03.2021
5320 Clouds -13 1014 61 10000 9 340 14:23 14.03.2021
5321 Clouds -13 1012 56 10000 12 340 13:50 14.03.2021
5322 Snow -13 1012 56 10000 12 340 13:29 14.03.2021
5323 Snow -13 1011 61 10000 13 330 12:47 14.03.2021
5324 Snow -13 1010 61 10000 12 330 12:29 14.03.2021
5325 Snow -13 1008 66 10000 14 330 11:58 14.03.2021
5326 Snow -13 1008 66 10000 14 330 11:36 14.03.2021
5327 Snow -12 1006 67 8000 15 330 10:58 14.03.2021
5328 Snow -12 1006 67 8000 15 330 10:37 14.03.2021
5329 Snow -12 1005 79 3600 13 330 10:19 14.03.2021
5330 Snow -11 1003 73 8000 15 330 09:44 14.03.2021
5331 Snow -10 1001 79 8000 12 340 09:23 14.03.2021
5332 Snow -8 1000 73 8000 12 320 08:49 14.03.2021
5333 Snow -6 998 79 6000 7 320 08:31 14.03.2021
5334 Snow -6 998 86 3000 5 350 07:47 14.03.2021
5335 Snow -4 998 80 3000 4 290 07:19 14.03.2021
5336 Rain 8 989 23 10000 5 220 05:33 14.03.2021
5337 Clouds -2 992 64 10000 1 0 00:53 14.03.2021
5338 Clouds -2 993 64 10000 1 0 00:20 14.03.2021
5339 Clouds -2 993 64 10000 1 0 23:53 13.03.2021
5340 Clouds -2 993 64 10000 1 0 23:53 13.03.2021
5341 Clouds 1 993 44 10000 1 0 23:35 13.03.2021
5342 Clouds 1 993 44 10000 1 0 22:54 13.03.2021
5343 Clouds 3 995 35 10000 1 0 22:32 13.03.2021
5344 Clouds 4 994 30 10000 1 0 21:49 13.03.2021
5345 Clouds 4 994 30 10000 1 0 21:27 13.03.2021
5346 Clouds 4 996 30 10000 3 160 20:53 13.03.2021
5347 Clouds 4 996 30 10000 3 160 20:31 13.03.2021
5348 Clouds 5 997 30 10000 5 180 19:54 13.03.2021
5349 Clouds 7 997 24 10000 7 190 19:31 13.03.2021
5350 Clouds 6 998 26 10000 6 190 18:58 13.03.2021
5351 Clouds 6 998 26 10000 6 190 18:39 13.03.2021
5352 Clouds 7 998 24 10000 5 170 18:18 13.03.2021
5353 Clouds 6 998 26 10000 4 190 17:42 13.03.2021
5354 Clouds 6 998 26 10000 4 190 17:24 13.03.2021
5355 Clouds 5 999 33 10000 2 0 16:44 13.03.2021
5356 Clouds 8 999 23 10000 6 150 16:24 13.03.2021
5357 Clear 5 1001 30 10000 1 0 15:39 13.03.2021
5358 Clear 8 1002 25 10000 5 170 14:51 13.03.2021
5359 Clear 8 1002 25 10000 5 170 14:28 13.03.2021
5360 Clear 7 1002 26 10000 5 170 13:47 13.03.2021
5361 Clear 7 1002 26 10000 5 170 13:24 13.03.2021
5362 Clear 5 1003 33 10000 4 160 12:43 13.03.2021
5363 Clouds 6 1003 33 10000 4 170 12:20 13.03.2021
5364 Clouds 9 1004 29 10000 3 170 11:49 13.03.2021
5365 Clouds 12 1004 22 10000 2 190 11:28 13.03.2021
5366 Clouds 13 1004 18 10000 2 190 10:50 13.03.2021
5367 Clouds 13 1005 16 10000 3 180 10:29 13.03.2021
5368 Clouds 13 1005 18 10000 3 210 09:47 13.03.2021
5369 Clouds 13 1007 16 10000 4 220 08:59 13.03.2021
5370 Clouds 13 1007 16 10000 4 220 08:41 13.03.2021
5371 Clouds 13 1007 16 10000 4 220 08:19 13.03.2021
5372 Clouds 13 1008 18 10000 4 240 07:46 13.03.2021
5373 Clear 10 1010 23 10000 1 0 06:18 13.03.2021
5374 Clear 0 1013 59 10000 1 0 02:54 13.03.2021
5375 Clear -8 1014 86 10000 1 0 00:51 13.03.2021
5376 Clear -8 1014 79 10000 1 0 23:54 12.03.2021
5377 Clear -8 1014 86 10000 1.66 104 23:32 12.03.2021
5378 Clear -7 1014 79 10000 1.47 113 22:43 12.03.2021
5379 Clear -8 1014 79 10000 1 0 22:23 12.03.2021
5380 Clear -6 1014 79 10000 1.23 110 21:44 12.03.2021
5381 Clear -6 1014 79 10000 1.23 110 21:44 12.03.2021
5382 Clear -6 1014 79 10000 1.09 98 21:25 12.03.2021
5383 Clear -7 1015 79 10000 1.09 98 20:55 12.03.2021
5384 Clear -6 1015 79 10000 1.09 98 20:32 12.03.2021
5385 Clear -6 1015 79 10000 1 0 19:58 12.03.2021
5386 Clear -6 1015 79 10000 1 0 19:39 12.03.2021
5387 Clear -5 1015 80 10000 0.53 70 19:18 12.03.2021
5388 Clear -4 1015 68 10000 1 0 18:35 12.03.2021
5389 Clear -3 1015 68 10000 1 0 17:49 12.03.2021
5390 Clear -3 1015 68 10000 1 0 17:30 12.03.2021
5391 Clear -2 1016 64 10000 1 0 16:59 12.03.2021
5392 Clear -3 1016 74 10000 2 0 16:36 12.03.2021
5393 Clear -1 1016 64 10000 1 0 15:52 12.03.2021
5394 Clear -1 1016 64 10000 1 0 15:28 12.03.2021
5395 Clouds 2 1015 51 10000 4 160 14:48 12.03.2021
5396 Clouds 2 1016 51 10000 2 0 14:21 12.03.2021
5397 Clouds 3 1016 44 10000 1 0 13:44 12.03.2021
5398 Clouds 4 1015 41 10000 3 260 13:21 12.03.2021
5399 Clouds 5 1015 38 10000 4 200 12:57 12.03.2021
5400 Clouds 5 1015 38 10000 4 200 12:38 12.03.2021
5401 Clouds 4 1015 48 10000 3 190 12:19 12.03.2021
5402 Clouds 7 1015 33 10000 4 160 11:49 12.03.2021
5403 Clouds 8 1015 29 10000 4 170 11:21 12.03.2021
5404 Clouds 9 1015 27 10000 3 200 10:48 12.03.2021
5405 Clouds 10 1015 25 10000 4 210 10:24 12.03.2021
5406 Clouds 10 1015 22 10000 7 230 09:49 12.03.2021
5407 Clouds 11 1016 22 10000 8 220 09:20 12.03.2021
5408 Clouds 10 1016 23 10000 8 210 08:43 12.03.2021
5409 Clouds 11 1016 22 10000 8 220 07:56 12.03.2021
5410 Clouds 11 1017 24 10000 11 200 07:31 12.03.2021
5411 Clouds 9 1018 34 10000 10 180 06:46 12.03.2021
5412 Clouds 9 1018 31 10000 10 180 05:57 12.03.2021
5413 Clear 3 1020 38 10000 4 150 02:20 12.03.2021
5414 Clear -6 1020 73 10000 1 0 00:18 12.03.2021
5415 Clear -5 1020 68 10000 2 0 23:19 11.03.2021
5416 Clear 0 1020 47 10000 5 140 22:42 11.03.2021
5417 Clear -3 1020 63 10000 1 0 22:22 11.03.2021
5418 Clear 0 1021 47 10000 3 180 21:46 11.03.2021
5419 Clear 0 1021 47 10000 3 180 21:26 11.03.2021
5420 Clear -2 1021 64 10000 3 180 20:49 11.03.2021
5421 Clear -2 1021 64 10000 3 180 20:27 11.03.2021
5422 Clear -2 1021 64 10000 3 180 19:57 11.03.2021
5423 Clear 1 1021 44 10000 1 0 19:38 11.03.2021
5424 Clear 1 1021 40 10000 2.27 108 18:56 11.03.2021
5425 Clear 1 1021 40 10000 2.08 107 18:37 11.03.2021
5426 Clear 1 1021 40 10000 2.13 106 18:18 11.03.2021
5427 Clear 2 1020 35 10000 1 0 17:40 11.03.2021
5428 Clear -1 1020 55 10000 1 0 16:43 11.03.2021
5429 Clear -1 1020 55 10000 1 0 16:24 11.03.2021
5430 Clear 1 1020 47 10000 2 0 15:44 11.03.2021
5431 Clear 2 1020 41 10000 1 0 15:21 11.03.2021
5432 Clear 2 1020 41 10000 2 0 14:45 11.03.2021
5433 Clear 2 1020 41 10000 2 0 14:45 11.03.2021
5434 Clear 1 1020 44 10000 2 0 14:19 11.03.2021
5435 Clear 3 1020 41 10000 3 170 13:46 11.03.2021
5436 Clear 3 1020 41 10000 3 170 13:23 11.03.2021
5437 Clear 3 1019 38 10000 4 180 12:57 11.03.2021
5438 Clear 3 1019 38 10000 4 180 12:36 11.03.2021
5439 Clear 2 1019 48 10000 3 170 12:18 11.03.2021
5440 Clear 5 1018 36 10000 3 180 11:42 11.03.2021
5441 Clear 8 1018 25 10000 4 200 11:19 11.03.2021
5442 Clear 8 1019 25 10000 4 210 10:28 11.03.2021
5443 Clear 9 1018 21 10000 4 220 09:53 11.03.2021
5444 Clear 9 1018 21 10000 5 210 09:34 11.03.2021
5445 Clear 9 1018 23 10000 6 170 08:59 11.03.2021
5446 Clear 9 1018 23 10000 6 170 08:40 11.03.2021
5447 Clear 9 1019 20 10000 6 160 07:59 11.03.2021
5448 Clear 8 1019 23 10000 6 170 07:21 11.03.2021
5449 Clear 7 1020 24 10000 5 160 06:48 11.03.2021
5450 Clear 7 1020 24 10000 5 160 06:23 11.03.2021
5451 Clouds 0 1021 55 10000 2 109 02:48 11.03.2021
5452 Clear -4 1020 68 10000 1 0 00:45 11.03.2021
5453 Clear -3 1020 59 10000 2.15 104 23:25 10.03.2021
5454 Clear -3 1020 59 10000 2.15 104 23:25 10.03.2021
5455 Clear -4 1019 63 10000 1 0 22:43 10.03.2021
5456 Clear -2 1019 54 10000 1 0 22:23 10.03.2021
5457 Clouds -1 1019 55 10000 2 100 21:45 10.03.2021
5458 Clouds -1 1019 55 10000 2 100 21:44 10.03.2021
5459 Clouds -1 1019 55 10000 2 100 21:21 10.03.2021
5460 Clouds -2 1020 59 10000 2 0 20:45 10.03.2021
5461 Clouds -2 1020 59 10000 2 0 20:27 10.03.2021
5462 Clouds -2 1019 59 10000 2 0 19:42 10.03.2021
5463 Clouds -2 1019 59 10000 2 0 19:23 10.03.2021
5464 Clouds -3 1019 68 10000 3 300 18:44 10.03.2021
5465 Clouds -3 1019 68 10000 3 300 18:24 10.03.2021
5466 Clouds -3 1020 63 10000 2 0 17:55 10.03.2021
5467 Clouds -3 1020 63 10000 2 0 17:36 10.03.2021
5468 Clouds -3 1020 63 10000 2 0 17:36 10.03.2021
5469 Clouds -3 1020 63 10000 2 0 17:18 10.03.2021
5470 Clouds -4 1019 74 10000 2 150 16:41 10.03.2021
5471 Clear -4 1019 74 10000 2 0 16:21 10.03.2021
5472 Clear -3 1019 68 10000 2.3 112 15:41 10.03.2021
5473 Clear -3 1019 68 10000 2 0 15:22 10.03.2021
5474 Clear -1 1019 55 10000 2.49 107 14:46 10.03.2021
5475 Clear -1 1019 59 10000 1 0 14:19 10.03.2021
5476 Clear 0 1019 47 10000 2.56 106 13:50 10.03.2021
5477 Clear 0 1019 51 10000 2 150 13:27 10.03.2021
5478 Clear 1 1019 44 10000 1 0 12:45 10.03.2021
5479 Clear 1 1018 47 10000 2 220 12:19 10.03.2021
5480 Clear 4 1018 35 10000 2 240 11:32 10.03.2021
5481 Clear 7 1018 21 10000 3 250 10:59 10.03.2021
5482 Clear 7 1018 21 10000 3 250 10:41 10.03.2021
5483 Clear 7 1018 19 10000 3 280 10:23 10.03.2021
5484 Clear 7 1018 16 10000 3 250 09:45 10.03.2021
5485 Clear 8 1018 17 10000 2 0 09:24 10.03.2021
5486 Clear 8 1018 17 10000 2 0 08:57 10.03.2021
5487 Clear 7 1018 19 10000 2 0 08:38 10.03.2021
5488 Clear 7 1018 19 10000 2 0 08:20 10.03.2021
5489 Clear 7 1019 21 10000 2 0 07:30 10.03.2021
5490 Clear 7 1019 23 10000 1 0 06:56 10.03.2021
5491 Clear 6 1020 26 10000 1 0 06:32 10.03.2021
5492 Clear -4 1020 63 10000 1 0 02:41 10.03.2021
5493 Clear -8 1018 79 10000 1.87 34 23:52 09.03.2021
5494 Clear -8 1018 86 10000 2 16 23:20 09.03.2021
5495 Clear -11 1017 85 10000 1 0 22:39 09.03.2021
5496 Clear -8 1017 79 10000 1 0 22:21 09.03.2021
5497 Clear -8 1017 79 10000 1 0 21:46 09.03.2021
5498 Clear -8 1017 79 10000 1 0 21:25 09.03.2021
5499 Clouds -5 1017 74 10000 1 0 20:58 09.03.2021
5500 Clouds -5 1017 74 10000 1 0 20:39 09.03.2021
5501 Clouds -5 1017 74 10000 1 0 20:20 09.03.2021
5502 Clouds -5 1016 80 10000 1.51 5 19:46 09.03.2021
5503 Clouds -5 1016 80 10000 1.88 3 19:26 09.03.2021
5504 Clear -4 1016 74 10000 1 0 18:48 09.03.2021
5505 Clear -4 1016 74 10000 1 0 18:25 09.03.2021
5506 Clear -3 1015 74 10000 1 0 17:51 09.03.2021
5507 Clear -3 1015 74 10000 1 0 17:29 09.03.2021
5508 Clear -2 1015 69 10000 1 0 16:47 09.03.2021
5509 Clear -2 1015 69 10000 1 0 16:26 09.03.2021
5510 Clouds -2 1015 69 10000 1 0 15:59 09.03.2021
5511 Clouds -2 1015 69 10000 1 0 15:36 09.03.2021
5512 Clouds -3 1015 74 10000 1 0 15:18 09.03.2021
5513 Clouds -3 1014 74 10000 1 0 14:28 09.03.2021
5514 Clouds -1 1014 64 10000 1 0 13:47 09.03.2021
5515 Clouds -1 1013 64 10000 2 0 13:22 09.03.2021
5516 Clouds 0 1013 55 10000 3 150 12:59 09.03.2021
5517 Clouds 0 1013 55 10000 3 150 12:38 09.03.2021
5518 Clear 1 1013 55 10000 4 160 11:59 09.03.2021
5519 Clear 2 1012 51 10000 2 190 11:39 09.03.2021
5520 Clear 7 1012 26 10000 3 210 11:20 09.03.2021
5521 Clear 8 1013 27 10000 4 200 10:41 09.03.2021
5522 Clear 8 1013 25 10000 3 200 10:23 09.03.2021
5523 Clear 8 1013 25 10000 3 200 09:58 09.03.2021
5524 Clear 8 1013 23 10000 5 200 09:39 09.03.2021
5525 Clear 8 1013 23 10000 7 200 09:21 09.03.2021
5526 Clear 8 1013 25 10000 6 180 08:35 09.03.2021
5527 Clear 8 1013 25 10000 6 180 08:35 09.03.2021
5528 Clear 7 1014 26 10000 7 190 07:50 09.03.2021
5529 Clear 7 1014 26 10000 7 190 07:31 09.03.2021
5530 Clear 7 1015 24 10000 7 180 06:59 09.03.2021
5531 Clear 7 1015 24 10000 7 180 06:59 09.03.2021
5532 Clear 5 1016 28 10000 5 160 05:54 09.03.2021
5533 Clear -10 1019 73 10000 1 0 02:27 09.03.2021
5534 Clear -12 1018 79 10000 1 0 00:18 09.03.2021
5535 Clear -12 1019 72 10000 1 0 23:39 08.03.2021
5536 Clear -12 1019 79 10000 2.03 107 23:21 08.03.2021
5537 Clear -13 1019 85 10000 2.03 107 22:43 08.03.2021
5538 Clear -13 1019 85 10000 1.96 106 22:25 08.03.2021
5539 Clear -12 1019 79 10000 1 0 21:50 08.03.2021
5540 Clear -11 1019 79 10000 1.96 106 21:30 08.03.2021
5541 Clear -13 1019 78 10000 1 0 20:45 08.03.2021
5542 Clear -9 1020 73 10000 1 0 20:24 08.03.2021
5543 Clear -9 1020 73 10000 1 0 19:54 08.03.2021
5544 Clear -11 1020 79 10000 2 210 19:27 08.03.2021
5545 Clear -9 1019 79 10000 1 0 18:38 08.03.2021
5546 Clear -8 1020 73 10000 1 0 18:20 08.03.2021
5547 Clear -8 1020 73 10000 1 0 17:49 08.03.2021
5548 Clear -8 1020 73 10000 1 0 17:24 08.03.2021
5549 Clear -6 1020 79 10000 1.21 90 16:45 08.03.2021
5550 Clear -5 1020 80 10000 1 0 16:26 08.03.2021
5551 Clear -5 1019 74 10000 1 0 15:48 08.03.2021
5552 Clear -5 1019 74 10000 1 0 15:25 08.03.2021
5553 Clouds -3 1019 63 10000 1 0 14:38 08.03.2021
5554 Clouds -3 1019 63 10000 1 0 14:19 08.03.2021
5555 Clouds -3 1019 68 10000 1 0 13:25 08.03.2021
5556 Clouds -4 1018 74 10000 2 160 12:59 08.03.2021
5557 Clouds -4 1018 74 10000 2 160 12:41 08.03.2021
5558 Clouds -3 1018 68 10000 2 160 12:20 08.03.2021
5559 Clouds 1 1018 51 10000 0.66 8 11:37 08.03.2021
5560 Clouds 2 1018 41 10000 2 270 11:18 08.03.2021
5561 Clouds 3 1018 32 10000 3 290 10:41 08.03.2021
5562 Clouds 3 1018 32 10000 3 290 10:19 08.03.2021
5563 Clouds 3 1017 30 10000 3 300 09:30 08.03.2021
5564 Clouds 3 1017 32 10000 3 290 08:54 08.03.2021
5565 Clouds 3 1017 32 10000 2 0 08:27 08.03.2021
5566 Clouds 3 1017 32 10000 2 0 07:23 08.03.2021
5567 Clear 2 1017 35 10000 2 0 06:38 08.03.2021
5568 Clear -6 1017 68 10000 1 0 03:37 08.03.2021
5569 Clear -14 1016 78 10000 0.47 124 00:43 08.03.2021
5570 Clear -14 1015 85 10000 0.31 130 23:54 07.03.2021
5571 Clear -14 1015 78 10000 0.48 131 23:28 07.03.2021
5572 Clear -13 1015 78 10000 1 0 22:59 07.03.2021
5573 Clear -13 1015 78 10000 1 0 22:40 07.03.2021
5574 Clear -15 1014 85 10000 1 0 22:20 07.03.2021
5575 Clear -13 1014 78 10000 1 0 21:42 07.03.2021
5576 Clear -13 1014 78 10000 1 0 21:23 07.03.2021
5577 Clear -13 1015 78 10000 2 0 20:43 07.03.2021
5578 Clear -13 1015 78 10000 2 0 20:24 07.03.2021
5579 Clear -10 1015 79 10000 1 0 19:56 07.03.2021
5580 Clear -10 1015 79 10000 1 0 19:37 07.03.2021
5581 Clear -10 1015 79 10000 1 0 19:19 07.03.2021
5582 Clear -8 1015 73 10000 1 0 18:40 07.03.2021
5583 Clear -8 1015 73 10000 1 0 18:19 07.03.2021
5584 Clear -9 1015 86 10000 1 0 17:39 07.03.2021
5585 Clear -9 1015 86 10000 1 0 17:20 07.03.2021
5586 Clear -9 1015 86 10000 1 0 16:54 07.03.2021
5587 Clear -7 1015 79 10000 1 0 16:36 07.03.2021
5588 Clear -7 1015 79 10000 1 0 16:36 07.03.2021
5589 Clear -7 1015 79 10000 1 0 16:18 07.03.2021
5590 Clear -6 1015 73 10000 0.78 110 15:41 07.03.2021
5591 Clear -5 1015 74 10000 0.6 123 15:20 07.03.2021
5592 Clear -3 1015 63 10000 1 0 14:30 07.03.2021
5593 Clear -3 1015 63 10000 1 0 14:30 07.03.2021
5594 Clear -3 1015 63 10000 3 160 13:57 07.03.2021
5595 Clear -3 1015 63 10000 3 160 13:38 07.03.2021
5596 Clear -4 1015 74 10000 3 170 13:18 07.03.2021
5597 Clear -3 1014 68 10000 3 170 12:40 07.03.2021
5598 Clear -1 1014 59 10000 3 180 12:21 07.03.2021
5599 Clear 1 1014 47 10000 2 190 11:24 07.03.2021
5600 Clear 4 1014 30 10000 2 0 10:59 07.03.2021
5601 Clear 4 1014 30 10000 2 0 10:38 07.03.2021
5602 Clear 4 1014 28 10000 3 240 09:58 07.03.2021
5603 Clear 4 1014 28 10000 3 240 09:39 07.03.2021
5604 Clear 4 1014 30 10000 3 220 09:19 07.03.2021
5605 Clear 4 1014 28 10000 2 0 08:45 07.03.2021
5606 Clear 4 1014 28 10000 3 210 08:22 07.03.2021
5607 Clear 3 1015 30 10000 2 0 07:23 07.03.2021
5608 Clear -11 1017 67 10000 1.81 105 02:40 07.03.2021
5609 Clear -16 1017 78 10000 1 0 00:35 07.03.2021
5610 Clear -17 1017 78 10000 1 0 23:41 06.03.2021
5611 Clear -16 1017 72 10000 1.91 103 23:20 06.03.2021
5612 Clear -17 1017 78 10000 1 0 22:46 06.03.2021
5613 Clear -17 1017 78 10000 1 0 22:24 06.03.2021
5614 Clear -15 1018 72 10000 1 0 21:49 06.03.2021
5615 Clear -15 1018 72 10000 1 0 21:21 06.03.2021
5616 Clear -15 1019 72 10000 1 0 20:44 06.03.2021
5617 Clear -15 1019 72 10000 1 0 20:19 06.03.2021
5618 Clear -15 1019 78 10000 1 0 19:40 06.03.2021
5619 Clear -15 1019 78 10000 1 0 19:18 06.03.2021
5620 Clear -13 1020 72 10000 1 0 18:42 06.03.2021
5621 Clear -13 1020 72 10000 1 0 18:22 06.03.2021
5622 Clear -13 1020 72 10000 1 0 17:55 06.03.2021
5623 Clear -13 1020 78 10000 1 0 17:33 06.03.2021
5624 Clear -13 1020 78 10000 1 0 16:59 06.03.2021
5625 Clear -11 1020 73 10000 1 0 16:37 06.03.2021
5626 Clear -12 1020 72 10000 1 0 16:18 06.03.2021
5627 Clear -11 1020 79 10000 1 0 15:39 06.03.2021
5628 Clear -8 1020 67 10000 1 0 15:21 06.03.2021
5629 Clear -9 1020 73 10000 1 0 14:33 06.03.2021
5630 Clear -6 1020 68 10000 2 0 13:56 06.03.2021
5631 Clear -6 1020 68 10000 2 0 13:37 06.03.2021
5632 Clear -7 1020 73 10000 3 160 13:19 06.03.2021
5633 Clear -6 1020 68 10000 2 170 12:42 06.03.2021
5634 Clear -5 1020 63 10000 3 150 12:19 06.03.2021
5635 Clear -2 1020 59 10000 2 200 11:44 06.03.2021
5636 Clear -1 1020 47 10000 3 180 11:20 06.03.2021
5637 Clear -1 1020 47 10000 3 210 10:44 06.03.2021
5638 Clear -1 1020 43 10000 2 0 09:58 06.03.2021
5639 Clear -1 1020 43 10000 2 0 09:26 06.03.2021
5640 Clear -1 1020 43 10000 2 0 08:58 06.03.2021
5641 Clear -2 1020 46 10000 1 0 08:31 06.03.2021
5642 Clear -2 1021 43 10000 2 0 07:56 06.03.2021
5643 Clear -3 1021 46 10000 3 210 07:22 06.03.2021
5644 Clear -3 1022 46 10000 2 0 06:42 06.03.2021
5645 Clouds -7 1023 49 10000 1 0 03:49 06.03.2021
5646 Clear -12 1022 61 10000 1 0 01:43 06.03.2021
5647 Clear -10 1022 67 10000 3 190 00:47 06.03.2021
5648 Clear -9 1022 62 10000 5 170 23:51 05.03.2021
5649 Clear -11 1022 67 10000 4 190 23:22 05.03.2021
5650 Clear -10 1022 62 10000 3 180 22:45 05.03.2021
5651 Clear -9 1022 57 10000 4 160 22:22 05.03.2021
5652 Clear -9 1022 48 10000 5 170 21:52 05.03.2021
5653 Clear -9 1022 48 10000 5 170 21:32 05.03.2021
5654 Clear -9 1023 48 10000 5 160 20:53 05.03.2021
5655 Clear -9 1023 48 10000 5 160 20:26 05.03.2021
5656 Clear -9 1024 41 10000 6 180 19:55 05.03.2021
5657 Clear -9 1024 41 10000 6 180 19:26 05.03.2021
5658 Clear -9 1024 41 10000 6 180 18:56 05.03.2021
5659 Clear -9 1024 41 10000 6 180 18:38 05.03.2021
5660 Clear -9 1024 41 10000 5 170 18:18 05.03.2021
5661 Clear -9 1024 38 10000 5 190 17:34 05.03.2021
5662 Clear -8 1024 35 10000 6 160 16:46 05.03.2021
5663 Clear -9 1025 41 10000 5 170 16:24 05.03.2021
5664 Clear -9 1024 41 10000 5 170 15:56 05.03.2021
5665 Clear -9 1024 41 10000 5 170 15:37 05.03.2021
5666 Clear -9 1025 45 10000 5 170 15:18 05.03.2021
5667 Clear -10 1025 48 10000 4 170 14:38 05.03.2021
5668 Clear -10 1025 48 10000 4 170 13:46 05.03.2021
5669 Clear -9 1025 48 10000 5 170 13:21 05.03.2021
5670 Clear -11 1025 57 10000 3 160 12:48 05.03.2021
5671 Clear -7 1025 49 10000 3 170 11:43 05.03.2021
5672 Clear -7 1025 49 10000 3 170 11:23 05.03.2021
5673 Clear -5 1025 36 10000 4 180 10:59 05.03.2021
5674 Clear -5 1025 36 10000 4 180 10:39 05.03.2021
5675 Clear -5 1025 33 10000 4 180 10:20 05.03.2021
5676 Clear -5 1025 33 10000 3 190 09:46 05.03.2021
5677 Clear -5 1026 36 10000 3 180 09:26 05.03.2021
5678 Clear -6 1026 38 10000 3 190 08:40 05.03.2021
5679 Clear -6 1026 35 10000 4 210 08:21 05.03.2021
5680 Clear -6 1026 33 10000 3 190 07:38 05.03.2021
5681 Clear -9 1028 41 10000 2 0 06:45 05.03.2021
5682 Clear -9 1028 41 10000 2 0 06:27 05.03.2021
5683 Clear -22 1028 71 8000 1 0 01:47 05.03.2021
5684 Clear -22 1028 71 8000 1 0 01:47 05.03.2021
5685 Clear -23 1027 70 10000 0.85 92 00:26 05.03.2021
5686 Clear -23 1027 64 10000 0.87 93 23:26 04.03.2021
5687 Clear -24 1026 70 10000 1 0 22:37 04.03.2021
5688 Clear -23 1026 70 10000 1 0 21:56 04.03.2021
5689 Clear -23 1026 70 10000 1 0 21:34 04.03.2021
5690 Clear -23 1026 70 10000 1 0 21:34 04.03.2021
5691 Clear -22 1026 64 10000 1 0 20:59 04.03.2021
5692 Clear -22 1026 64 10000 1 0 20:41 04.03.2021
5693 Clear -22 1026 64 10000 1 0 20:21 04.03.2021
5694 Clear -21 1025 65 10000 2 160 19:53 04.03.2021
5695 Clear -21 1025 65 10000 2 160 19:27 04.03.2021
5696 Clear -22 1025 71 10000 2 170 18:54 04.03.2021
5697 Clear -22 1025 71 10000 2 170 18:30 04.03.2021
5698 Clear -20 1025 71 10000 2 180 17:58 04.03.2021
5699 Clear -20 1025 71 10000 2 180 17:39 04.03.2021
5700 Clear -20 1025 71 10000 2 180 17:18 04.03.2021
5701 Clear -17 1024 55 10000 1 0 16:43 04.03.2021
5702 Clear -17 1024 55 10000 1 0 16:24 04.03.2021
5703 Clear -16 1024 55 10000 1 0 15:46 04.03.2021
5704 Clear -16 1023 55 10000 2 310 15:27 04.03.2021
5705 Clear -15 1022 56 10000 1 0 14:44 04.03.2021
5706 Clear -15 1022 61 10000 2 330 14:18 04.03.2021
5707 Clear -15 1022 61 10000 2 0 13:42 04.03.2021
5708 Clear -15 1021 56 10000 1 0 13:22 04.03.2021
5709 Clear -12 1021 40 10000 4 350 12:42 04.03.2021
5710 Clear -11 1019 37 10000 6 350 11:58 04.03.2021
5711 Clear -11 1019 37 10000 6 350 11:40 04.03.2021
5712 Clear -10 1019 37 10000 7 340 11:19 04.03.2021
5713 Clear -10 1018 37 10000 6 340 10:37 04.03.2021
5714 Clear -9 1017 45 10000 8 330 09:55 04.03.2021
5715 Clear -9 1017 45 10000 7 340 09:28 04.03.2021
5716 Clear -9 1016 48 10000 8 330 08:53 04.03.2021
5717 Clear -9 1015 48 10000 9 340 08:28 04.03.2021
5718 Clear -9 1015 53 10000 8 330 07:45 04.03.2021
5719 Clear -8 1015 49 10000 9 340 06:48 04.03.2021
5720 Clear -8 1014 57 10000 8 340 06:21 04.03.2021
5721 Clouds -9 1011 67 10000 4 10 02:39 04.03.2021
5722 Clouds -10 1008 85 10000 5 340 00:31 04.03.2021
5723 Clouds -8 1006 86 10000 6 330 22:39 03.03.2021
5724 Clouds -8 1005 86 10000 3 320 22:21 03.03.2021
5725 Clouds -8 1004 86 10000 1 0 21:41 03.03.2021
5726 Snow -8 1004 86 10000 1 0 21:23 03.03.2021
5727 Snow -7 1004 86 10000 1 0 20:55 03.03.2021
5728 Snow -7 1004 86 10000 1 0 20:36 03.03.2021
5729 Snow -7 1004 86 10000 1 0 20:36 03.03.2021
5730 Snow -7 1004 86 10000 1 0 20:36 03.03.2021
5731 Snow -8 1004 93 6000 3 160 19:54 03.03.2021
5732 Snow -8 1004 93 6000 3 160 19:36 03.03.2021
5733 Snow -8 1004 93 6000 3 160 19:18 03.03.2021
5734 Clouds -9 1003 86 10000 1.18 226 18:40 03.03.2021
5735 Clouds -8 1003 79 10000 1 0 17:58 03.03.2021
5736 Clouds -8 1003 79 10000 1 0 17:22 03.03.2021
5737 Clouds -8 1003 86 10000 1 0 16:58 03.03.2021
5738 Clouds -9 1003 86 10000 2 210 16:28 03.03.2021
5739 Clouds -10 1003 79 10000 1.03 204 15:59 03.03.2021
5740 Clouds -10 1003 79 10000 1.03 204 15:33 03.03.2021
5741 Clouds -8 1003 79 10000 1 0 14:51 03.03.2021
5742 Clouds -8 1003 79 10000 1 0 14:28 03.03.2021
5743 Clouds -8 1003 79 10000 2 0 13:48 03.03.2021
5744 Clouds -7 1003 79 10000 1 0 13:29 03.03.2021
5745 Clouds -8 1003 86 10000 2 0 12:43 03.03.2021
5746 Clouds -6 1002 79 10000 3 170 12:23 03.03.2021
5747 Clouds -2 1002 69 10000 1 0 11:46 03.03.2021
5748 Clouds -2 1002 69 10000 1 0 11:27 03.03.2021
5749 Clouds -2 1002 69 10000 2 0 10:46 03.03.2021
5750 Snow -2 1002 69 10000 2 0 10:23 03.03.2021
5751 Snow -2 1003 74 10000 2 0 09:45 03.03.2021
5752 Snow -2 1003 80 10000 3 340 08:57 03.03.2021
5753 Snow -2 1003 80 10000 3 340 08:39 03.03.2021
5754 Snow -3 1003 86 3200 5 330 08:18 03.03.2021
5755 Snow -2 1003 74 6000 5 320 07:39 03.03.2021
5756 Clouds 0 1003 40 10000 3 260 06:46 03.03.2021
5757 Clouds 0 1004 40 10000 3 210 05:45 03.03.2021
5758 Clouds -3 1004 54 10000 3 260 04:50 03.03.2021
5759 Clouds -3 1004 54 10000 3 260 04:24 03.03.2021
5760 Clouds -11 1004 79 10000 2 160 00:39 03.03.2021
5761 Clear -11 1003 79 10000 1 0 23:53 02.03.2021
5762 Clear -11 1003 73 10000 1 0 22:58 02.03.2021
5763 Clear -11 1003 73 10000 1 0 22:40 02.03.2021
5764 Clear -10 1003 73 10000 1 0 22:18 02.03.2021
5765 Clear -9 1004 67 10000 2 0 21:38 02.03.2021
5766 Clear -9 1004 67 10000 2 0 21:18 02.03.2021
5767 Clouds -8 1004 67 10000 1.73 250 20:44 02.03.2021
5768 Clouds -8 1004 67 10000 2.07 262 20:22 02.03.2021
5769 Clouds -9 1004 73 10000 2.07 262 19:50 02.03.2021
5770 Clouds -9 1004 73 10000 2.07 262 19:32 02.03.2021
5771 Clouds -9 1004 67 10000 2 140 18:58 02.03.2021
5772 Clouds -9 1004 67 10000 2 140 18:39 02.03.2021
5773 Clouds -9 1004 67 10000 2 140 18:19 02.03.2021
5774 Clouds -5 1005 58 10000 1 0 17:40 02.03.2021
5775 Snow -5 1005 58 10000 1 0 17:20 02.03.2021
5776 Snow -7 1003 68 10000 2 150 16:48 02.03.2021
5777 Snow -6 1004 63 10000 1 0 15:59 02.03.2021
5778 Snow -6 1004 63 10000 3 170 15:29 02.03.2021
5779 Snow -6 1004 68 10000 2 0 14:56 02.03.2021
5780 Clouds -7 1003 68 10000 2 160 14:21 02.03.2021
5781 Clouds -7 1004 68 10000 1 0 13:48 02.03.2021
5782 Clouds -6 1004 63 10000 2 170 13:26 02.03.2021
5783 Clouds -4 1004 50 10000 1 0 12:50 02.03.2021
5784 Clouds -4 1004 50 10000 1 0 12:26 02.03.2021
5785 Clouds -3 1004 46 10000 2 310 11:52 02.03.2021
5786 Clouds -3 1004 46 10000 2 310 11:25 02.03.2021
5787 Clouds -2 1005 46 10000 2 0 10:55 02.03.2021
5788 Clouds -2 1005 43 10000 2 0 10:31 02.03.2021
5789 Clouds -2 1006 37 10000 2 0 09:44 02.03.2021
5790 Clouds -2 1006 37 10000 2 0 09:24 02.03.2021
5791 Clouds -2 1006 40 10000 3 210 08:54 02.03.2021
5792 Clouds -2 1006 37 10000 3 200 08:33 02.03.2021
5793 Clouds -2 1006 40 10000 4 200 07:46 02.03.2021
5794 Clouds -4 1007 36 10000 3 240 06:37 02.03.2021
5795 Clouds -5 1008 36 10000 2 0 05:52 02.03.2021
5796 Clouds -5 1008 36 10000 2 0 05:32 02.03.2021
5797 Clouds -9 1008 48 8000 1 0 04:37 02.03.2021
5798 Clear -19 1009 71 10000 1 0 01:42 02.03.2021
5799 Clear -21 1009 71 10000 1 0 01:21 02.03.2021
5800 Clear -21 1009 71 10000 1 0 23:29 01.03.2021
5801 Clear -21 1009 71 10000 1 0 22:56 01.03.2021
5802 Clear -21 1009 71 10000 1 0 22:38 01.03.2021
5803 Clear -21 1009 71 10000 1 0 22:19 01.03.2021
5804 Clear -21 1009 71 10000 1 0 21:41 01.03.2021
5805 Clear -21 1009 77 10000 1.06 166 21:23 01.03.2021
5806 Clear -21 1009 77 10000 1.06 166 21:23 01.03.2021
5807 Clear -20 1010 77 10000 1.06 166 20:42 01.03.2021
5808 Clear -21 1010 71 10000 1 0 20:20 01.03.2021
5809 Clear -20 1011 71 10000 1.41 129 19:43 01.03.2021
5810 Clear -20 1011 71 10000 1.56 126 19:24 01.03.2021
5811 Clear -18 1011 71 10000 1 0 18:43 01.03.2021
5812 Clear -19 1012 71 10000 1 0 18:23 01.03.2021
5813 Clear -20 1012 71 10000 1 0 17:47 01.03.2021
5814 Clear -19 1012 71 10000 1 0 17:22 01.03.2021
5815 Clear -19 1013 71 10000 1 0 16:47 01.03.2021
5816 Clear -18 1013 71 10000 1 0 16:27 01.03.2021
5817 Clear -15 1013 66 10000 1.56 129 15:49 01.03.2021
5818 Clear -16 1013 66 10000 1 0 15:22 01.03.2021
5819 Clear -14 1014 56 10000 2 0 14:58 01.03.2021
5820 Clear -14 1014 56 10000 2 0 14:39 01.03.2021
5821 Clear -11 1015 40 10000 1 0 13:50 01.03.2021
5822 Clear -14 1015 56 10000 3 180 13:29 01.03.2021
5823 Clouds -14 1015 56 10000 3 170 12:59 01.03.2021
5824 Clouds -14 1015 56 10000 3 170 12:41 01.03.2021
5825 Clouds -14 1015 61 10000 3 160 12:21 01.03.2021
5826 Clouds -11 1014 52 10000 3 160 11:46 01.03.2021
5827 Clouds -9 1015 41 10000 4 180 11:00 01.03.2021
5828 Clouds -9 1015 41 10000 4 180 10:36 01.03.2021
5829 Clouds -9 1016 41 10000 4 190 10:18 01.03.2021
5830 Clear -9 1016 45 10000 4 180 09:46 01.03.2021
5831 Clear -9 1016 41 10000 4 200 09:25 01.03.2021
5832 Clear -9 1016 41 10000 4 200 08:55 01.03.2021
5833 Clear -9 1017 45 10000 3 220 08:22 01.03.2021
5834 Clear -9 1017 45 10000 3 220 08:22 01.03.2021
5835 Clear -11 1019 48 10000 4 200 06:54 01.03.2021
5836 Clear -11 1019 48 10000 4 200 06:24 01.03.2021
5837 Clear -20 1021 71 8000 1 0 02:38 01.03.2021
5838 Clear -26 1021 70 10000 1 0 23:41 28.02.2021
5839 Clear -25 1022 70 10000 1 0 22:56 28.02.2021
5840 Clear -25 1022 70 10000 1 0 22:26 28.02.2021
5841 Clear -25 1022 77 10000 1.25 121 21:55 28.02.2021
5842 Clear -25 1022 70 10000 1.25 121 21:32 28.02.2021
5843 Clear -24 1023 77 10000 1 0 20:58 28.02.2021
5844 Clear -24 1023 77 10000 1 0 20:38 28.02.2021
5845 Clear -24 1023 70 10000 1.22 103 19:57 28.02.2021
5846 Clear -24 1023 70 10000 1.22 103 19:38 28.02.2021
5847 Clear -24 1023 70 10000 1.17 107 19:20 28.02.2021
5848 Clear -22 1023 71 10000 2 150 18:43 28.02.2021
5849 Clear -22 1023 71 10000 2 150 18:25 28.02.2021
5850 Clear -22 1024 71 10000 2 170 17:50 28.02.2021
5851 Clear -22 1024 71 10000 2 170 17:28 28.02.2021
5852 Clear -19 1024 65 10000 1.28 104 16:56 28.02.2021
5853 Clear -19 1024 65 10000 1.28 104 16:38 28.02.2021
5854 Clear -21 1024 71 10000 1.22 90 16:18 28.02.2021
5855 Clear -20 1024 71 10000 1 0 15:40 28.02.2021
5856 Clear -19 1024 65 10000 2 0 15:22 28.02.2021
5857 Clear -18 1024 60 10000 1 0 14:52 28.02.2021
5858 Clear -19 1024 65 10000 3 180 14:28 28.02.2021
5859 Clear -17 1024 60 10000 2 150 13:52 28.02.2021
5860 Clear -18 1024 65 10000 3 170 13:21 28.02.2021
5861 Clear -18 1023 65 10000 3 150 12:56 28.02.2021
5862 Clear -18 1023 65 10000 3 150 12:38 28.02.2021
5863 Clear -17 1023 60 10000 1 0 12:19 28.02.2021
5864 Clear -12 1023 48 10000 1 0 11:44 28.02.2021
5865 Clear -11 1022 44 10000 3 300 11:25 28.02.2021
5866 Clear -10 1022 44 10000 3 230 10:55 28.02.2021
5867 Clear -10 1022 41 10000 3 210 10:29 28.02.2021
5868 Clear -10 1022 37 10000 3 200 09:52 28.02.2021
5869 Clear -10 1022 37 10000 3 200 09:33 28.02.2021
5870 Clear -10 1022 41 10000 2 0 08:50 28.02.2021
5871 Clear -10 1022 37 10000 2 0 08:31 28.02.2021
5872 Clear -10 1022 37 10000 2 0 07:57 28.02.2021
5873 Clear -10 1022 37 10000 3 230 07:37 28.02.2021
5874 Clear -11 1023 48 10000 2 0 06:55 28.02.2021
5875 Clear -14 1024 51 10000 2 0 05:25 28.02.2021
5876 Clear -17 1024 60 10000 1 0 03:44 28.02.2021
5877 Clouds -21 1023 71 10000 1 0 01:59 28.02.2021
5878 Clear -23 1022 70 10000 1.48 104 00:53 28.02.2021
5879 Clear -23 1022 70 10000 1.48 104 00:34 28.02.2021
5880 Clear -25 1022 77 10000 1 0 23:47 27.02.2021
5881 Clear -25 1022 70 10000 1 0 23:20 27.02.2021
5882 Clear -25 1021 70 10000 1 0 22:49 27.02.2021
5883 Clear -24 1021 70 10000 1 0 22:21 27.02.2021
5884 Clear -24 1021 70 10000 2 160 21:48 27.02.2021
5885 Clear -24 1021 70 10000 2 160 21:29 27.02.2021
5886 Clear -24 1021 77 10000 1 0 20:49 27.02.2021
5887 Clear -24 1021 77 10000 1 0 20:31 27.02.2021
5888 Clear -25 1021 70 10000 2 180 19:47 27.02.2021
5889 Clear -25 1021 70 10000 2 180 19:28 27.02.2021
5890 Clear -25 1021 70 10000 2 180 18:55 27.02.2021
5891 Clear -25 1021 70 10000 2 180 18:36 27.02.2021
5892 Clear -25 1021 70 10000 2 180 18:18 27.02.2021
5893 Clear -23 1021 64 10000 1 0 17:41 27.02.2021
5894 Clear -23 1021 64 10000 1 0 17:19 27.02.2021
5895 Clear -21 1021 71 10000 1 0 16:49 27.02.2021
5896 Clear -21 1021 71 10000 1 0 16:28 27.02.2021
5897 Clear -22 1020 71 10000 3 160 15:46 27.02.2021
5898 Clear -21 1021 71 10000 3 170 15:19 27.02.2021
5899 Clear -21 1020 71 10000 3 170 14:41 27.02.2021
5900 Clear -21 1020 71 10000 3 180 14:21 27.02.2021
5901 Clear -21 1020 65 10000 2 180 13:43 27.02.2021
5902 Clear -17 1019 60 10000 1.29 14 13:21 27.02.2021
5903 Clear -17 1019 60 10000 3 310 12:45 27.02.2021
5904 Clear -17 1019 66 10000 4 310 12:24 27.02.2021
5905 Clear -15 1018 56 10000 5 310 11:51 27.02.2021
5906 Clear -15 1018 56 10000 5 310 11:31 27.02.2021
5907 Clear -14 1017 56 10000 5 300 10:51 27.02.2021
5908 Clear -14 1017 56 10000 5 300 10:32 27.02.2021
5909 Clear -13 1017 56 10000 5 320 09:53 27.02.2021
5910 Clear -13 1017 56 10000 5 320 09:31 27.02.2021
5911 Clear -14 1017 61 10000 7 310 08:43 27.02.2021
5912 Clear -14 1017 56 10000 7 310 08:24 27.02.2021
5913 Clear -14 1017 61 10000 8 320 07:44 27.02.2021
5914 Clear -14 1017 61 10000 8 320 06:55 27.02.2021
5915 Clouds -16 1012 78 10000 4 330 01:22 27.02.2021
5916 Clouds -16 1012 78 10000 4 330 01:22 27.02.2021
5917 Clouds -14 1011 72 10000 5 340 00:30 27.02.2021
5918 Clouds -13 1010 72 10000 7 340 23:40 26.02.2021
5919 Clouds -13 1010 78 10000 5 310 23:21 26.02.2021
5920 Clouds -12 1010 79 10000 6 320 22:34 26.02.2021
5921 Clouds -9 1008 67 10000 3 330 21:54 26.02.2021
5922 Clouds -9 1008 67 10000 3 330 21:35 26.02.2021
5923 Clouds -9 1008 67 10000 3 330 20:55 26.02.2021
5924 Clouds -8 1006 86 10000 5 310 20:36 26.02.2021
5925 Clouds -8 1006 86 10000 5 310 20:18 26.02.2021
5926 Snow -6 1006 86 6000 3 310 19:26 26.02.2021
5927 Snow -6 1005 86 8000 4 330 18:52 26.02.2021
5928 Snow -6 1005 86 8000 4 330 18:24 26.02.2021
5929 Snow -5 1005 80 10000 4 320 17:56 26.02.2021
5930 Snow -5 1005 80 10000 4 320 17:36 26.02.2021
5931 Snow -5 1004 86 6000 4 350 16:58 26.02.2021
5932 Snow -5 1004 86 6000 4 350 16:40 26.02.2021
5933 Snow -5 1004 86 6000 4 350 16:40 26.02.2021
5934 Snow -5 1003 86 6000 5 340 16:22 26.02.2021
5935 Snow -4 1003 86 8000 6 310 15:43 26.02.2021
5936 Snow -4 1003 86 8000 6 310 15:23 26.02.2021
5937 Snow -4 1002 93 5000 3 320 14:52 26.02.2021
5938 Snow -4 1002 93 5000 3 320 14:34 26.02.2021
5939 Snow -2 1001 74 10000 3 340 13:49 26.02.2021
5940 Snow -2 1001 74 10000 3 340 13:30 26.02.2021
5941 Snow -1 1001 69 10000 5 330 12:48 26.02.2021
5942 Snow 0 1000 51 10000 3 360 12:26 26.02.2021
5943 Snow 0 1000 64 10000 2 0 11:40 26.02.2021
5944 Rain 2 999 55 10000 5 300 10:58 26.02.2021
5945 Rain 2 999 55 10000 5 300 10:25 26.02.2021
5946 Clouds 4 999 38 10000 2 180 09:47 26.02.2021
5947 Rain 5 999 38 10000 1 0 09:27 26.02.2021
5948 Rain 5 999 38 10000 1 0 08:35 26.02.2021
5949 Rain 5 999 42 10000 2 0 07:56 26.02.2021
5950 Rain 5 1000 38 10000 3 180 07:22 26.02.2021
5951 Clouds 5 1001 38 10000 4 190 06:31 26.02.2021
5952 Clouds 4 1002 35 10000 8 170 04:59 26.02.2021
5953 Clouds 1 1003 37 10000 6 160 02:38 26.02.2021
5954 Clouds 0 1003 43 10000 8 170 00:27 26.02.2021
5955 Clouds -1 1004 47 10000 8 180 23:39 25.02.2021
5956 Clouds 0 1004 40 10000 7 180 22:57 25.02.2021
5957 Clouds 0 1005 40 10000 6 180 22:37 25.02.2021
5958 Clouds 1 1005 37 10000 6 190 21:50 25.02.2021
5959 Clouds 1 1005 37 10000 6 190 21:31 25.02.2021
5960 Clouds 1 1006 37 10000 10 150 20:54 25.02.2021
5961 Clouds 1 1006 37 10000 10 150 20:36 25.02.2021
5962 Clouds 1 1006 37 10000 10 150 20:18 25.02.2021
5963 Clouds 1 1006 37 10000 10 150 20:18 25.02.2021
5964 Rain 2 1006 32 10000 11 150 19:46 25.02.2021
5965 Clouds 2 1006 32 10000 11 150 19:19 25.02.2021
5966 Clouds 2 1007 32 10000 10 150 18:39 25.02.2021
5967 Clouds 2 1007 32 10000 10 150 18:18 25.02.2021
5968 Clouds 2 1008 30 10000 10 160 17:33 25.02.2021
5969 Clouds 2 1008 30 10000 10 160 16:56 25.02.2021
5970 Clouds 2 1008 30 10000 9 150 16:33 25.02.2021
5971 Clouds 2 1009 30 10000 10 150 15:48 25.02.2021
5972 Clouds 1 1009 32 10000 9 160 15:28 25.02.2021
5973 Clouds 0 1011 47 10000 3 200 14:32 25.02.2021
5974 Clouds -3 1011 63 10000 2 0 13:59 25.02.2021
5975 Clouds -3 1011 63 10000 2 0 13:40 25.02.2021
5976 Clouds -3 1011 68 10000 1 0 13:20 25.02.2021
5977 Clouds -4 1012 74 10000 2 170 12:24 25.02.2021
5978 Clouds -2 1012 69 10000 1 0 11:57 25.02.2021
5979 Clouds -2 1012 69 10000 1 0 11:39 25.02.2021
5980 Clouds 0 1012 51 10000 2 270 10:51 25.02.2021
5981 Clouds 0 1012 51 10000 2 270 10:33 25.02.2021
5982 Clouds 2 1013 38 10000 4 230 09:45 25.02.2021
5983 Clouds 2 1013 38 10000 4 230 09:23 25.02.2021
5984 Clouds 0 1014 37 10000 3 270 08:32 25.02.2021
5985 Clear 0 1014 37 10000 2 0 07:59 25.02.2021
5986 Clear 0 1014 37 10000 2 0 07:38 25.02.2021
5987 Clouds -1 1015 40 10000 3 240 06:57 25.02.2021
5988 Clouds -4 1016 54 8000 1 0 05:24 25.02.2021
5989 Clouds -16 1017 78 10000 1 0 01:45 25.02.2021
5990 Clear -19 1017 78 10000 1.9 137 00:48 25.02.2021
5991 Clear -19 1016 84 10000 1 0 00:19 25.02.2021
5992 Clear -19 1017 78 10000 1 0 23:35 24.02.2021
5993 Clear -19 1017 78 10000 1.52 118 22:47 24.02.2021
5994 Clear -19 1017 78 10000 1.43 121 22:29 24.02.2021
5995 Clear -17 1017 78 10000 1.43 121 21:49 24.02.2021
5996 Clear -15 1017 78 10000 1.52 127 21:25 24.02.2021
5997 Clear -17 1017 85 10000 1 0 20:48 24.02.2021
5998 Clear -18 1018 85 10000 1.39 124 20:26 24.02.2021
5999 Clear -15 1018 78 10000 2 0 19:40 24.02.2021
6000 Clear -15 1018 85 10000 1 0 19:20 24.02.2021
6001 Clear -15 1018 85 10000 1 0 18:50 24.02.2021
6002 Clear -15 1018 85 10000 1 0 18:50 24.02.2021
6003 Clear -15 1018 85 10000 1 0 18:29 24.02.2021
6004 Clear -15 1018 78 10000 1 0 17:39 24.02.2021
6005 Clear -15 1018 78 10000 1 0 17:21 24.02.2021
6006 Clear -12 1018 72 10000 2 190 16:46 24.02.2021
6007 Clear -13 1018 78 10000 2 0 16:20 24.02.2021
6008 Clear -14 1018 78 10000 3 160 15:49 24.02.2021
6009 Clear -12 1017 72 10000 3 170 15:26 24.02.2021
6010 Clear -12 1017 79 10000 3 160 14:43 24.02.2021
6011 Clear -11 1017 79 10000 2 160 14:25 24.02.2021
6012 Clear -10 1017 73 10000 2 150 13:41 24.02.2021
6013 Clear -10 1017 79 10000 2 0 13:22 24.02.2021
6014 Clear -8 1016 67 10000 0.7 252 12:46 24.02.2021
6015 Clear -8 1016 67 10000 0.7 252 12:46 24.02.2021
6016 Clear -8 1016 67 10000 0.83 243 12:27 24.02.2021
6017 Clear -5 1016 58 10000 2 0 11:51 24.02.2021
6018 Clear -3 1015 50 10000 3 320 11:24 24.02.2021
6019 Clear -2 1015 43 10000 1 0 10:32 24.02.2021
6020 Clear -2 1015 43 10000 2 0 09:56 24.02.2021
6021 Clear -2 1015 40 10000 1 0 09:22 24.02.2021
6022 Clear -2 1015 40 10000 2 0 08:41 24.02.2021
6023 Clear -3 1015 50 10000 2 0 08:22 24.02.2021
6024 Clear -4 1016 54 10000 1 0 07:21 24.02.2021
6025 Clear -5 1016 54 10000 1 0 06:52 24.02.2021
6026 Clouds -11 1017 67 10000 0.98 159 04:23 24.02.2021
6027 Clear -18 1016 78 10000 0.71 104 00:43 24.02.2021
6028 Clear -18 1015 85 10000 0.81 40 23:29 23.02.2021
6029 Clear -18 1015 85 10000 0.81 40 22:40 23.02.2021
6030 Clear -18 1015 78 10000 2 170 22:20 23.02.2021
6031 Clear -17 1015 85 10000 2 150 21:46 23.02.2021
6032 Clear -17 1015 85 10000 2 150 21:24 23.02.2021
6033 Clear -17 1016 78 10000 2 0 20:49 23.02.2021
6034 Clear -17 1016 78 10000 2 0 20:30 23.02.2021
6035 Clear -17 1016 78 10000 2 0 20:30 23.02.2021
6036 Clear -17 1015 85 10000 1 0 19:49 23.02.2021
6037 Clear -17 1015 85 10000 1 0 19:29 23.02.2021
6038 Clear -14 1015 78 10000 2 170 18:59 23.02.2021
6039 Clear -14 1015 78 10000 2 170 18:40 23.02.2021
6040 Clear -14 1015 78 10000 2 170 18:20 23.02.2021
6041 Clear -13 1015 72 10000 3 180 17:39 23.02.2021
6042 Clear -13 1015 72 10000 3 180 16:58 23.02.2021
6043 Clear -14 1015 78 10000 2 160 16:39 23.02.2021
6044 Clear -14 1014 78 10000 2 0 16:20 23.02.2021
6045 Clear -13 1014 78 10000 2 180 15:41 23.02.2021
6046 Clear -13 1014 78 10000 2 170 15:21 23.02.2021
6047 Clear -11 1013 73 10000 1.81 353 14:45 23.02.2021
6048 Clear -11 1013 73 10000 2.37 347 14:26 23.02.2021
6049 Clear -11 1013 79 10000 3 160 13:47 23.02.2021
6050 Clear -11 1013 79 10000 3 160 13:26 23.02.2021
6051 Clear -9 1012 73 10000 2 130 12:52 23.02.2021
6052 Clear -7 1012 68 10000 1 0 12:22 23.02.2021
6053 Clear -6 1011 73 10000 3 170 11:50 23.02.2021
6054 Clear -6 1011 73 10000 3 170 11:23 23.02.2021
6055 Clear -1 1011 51 10000 2 230 10:52 23.02.2021
6056 Clear -1 1011 51 10000 2 230 10:34 23.02.2021
6057 Clear -2 1011 50 10000 2 0 09:45 23.02.2021
6058 Clear -2 1011 46 10000 3 210 09:25 23.02.2021
6059 Clear -2 1011 50 10000 3 180 08:54 23.02.2021
6060 Clear -3 1011 54 10000 4 200 08:25 23.02.2021
6061 Clear -3 1012 50 10000 5 220 07:58 23.02.2021
6062 Clouds -5 1013 50 10000 1 0 05:40 23.02.2021
6063 Clouds -9 1014 57 10000 1 0 04:58 23.02.2021
6064 Clouds -16 1016 66 8000 2.44 116 02:34 23.02.2021
6065 Clear -21 1016 77 10000 2.51 109 00:20 23.02.2021
6066 Clear -20 1016 77 10000 1 0 23:57 22.02.2021
6067 Clear -22 1016 77 10000 2.3 110 23:21 22.02.2021
6068 Clear -19 1017 71 10000 1 0 22:41 22.02.2021
6069 Clear -20 1017 71 10000 2.29 113 22:20 22.02.2021
6070 Clear -19 1018 71 10000 2.29 113 21:45 22.02.2021
6071 Clear -19 1018 71 10000 2.25 120 21:23 22.02.2021
6072 Clear -19 1019 78 10000 2.25 120 20:52 22.02.2021
6073 Clear -19 1019 78 10000 2.31 123 20:29 22.02.2021
6074 Clear -19 1019 78 10000 2.31 123 19:53 22.02.2021
6075 Clear -18 1020 71 10000 1 0 19:35 22.02.2021
6076 Clear -18 1020 71 10000 2.15 121 18:56 22.02.2021
6077 Clear -18 1020 71 10000 2.15 121 18:37 22.02.2021
6078 Clear -18 1020 71 10000 2.07 113 18:19 22.02.2021
6079 Clear -17 1020 66 10000 2.2 100 17:26 22.02.2021
6080 Clear -17 1021 71 10000 1 0 16:54 22.02.2021
6081 Clear -17 1021 71 10000 1 0 16:32 22.02.2021
6082 Clear -17 1021 71 10000 2 0 15:46 22.02.2021
6083 Clear -17 1021 71 10000 2 0 15:27 22.02.2021
6084 Clear -16 1021 72 10000 1 0 14:47 22.02.2021
6085 Clear -16 1021 72 10000 2 120 14:28 22.02.2021
6086 Clear -15 1021 72 10000 1.67 102 13:46 22.02.2021
6087 Clear -14 1021 66 10000 3 160 12:58 22.02.2021
6088 Clear -14 1021 66 10000 3 160 12:36 22.02.2021
6089 Clear -13 1021 66 10000 3 160 12:18 22.02.2021
6090 Clear -10 1020 67 10000 2 170 11:41 22.02.2021
6091 Clear -8 1020 57 10000 2 190 11:22 22.02.2021
6092 Clear -7 1020 53 10000 2 210 10:46 22.02.2021
6093 Clear -7 1020 49 10000 2 0 10:22 22.02.2021
6094 Clear -7 1021 45 10000 1 0 09:42 22.02.2021
6095 Clear -7 1021 49 10000 1 0 09:24 22.02.2021
6096 Clear -7 1021 49 10000 2 0 08:49 22.02.2021
6097 Clear -7 1021 49 10000 2 0 08:24 22.02.2021
6098 Clear -9 1022 62 10000 2 0 07:53 22.02.2021
6099 Clear -9 1022 62 10000 2 0 07:25 22.02.2021
6100 Clear -10 1023 62 10000 1 0 06:29 22.02.2021
6101 Clear -13 1023 56 10000 1 0 05:26 22.02.2021
6102 Clear -16 1024 66 10000 1 0 03:25 22.02.2021
6103 Clear -19 1024 71 10000 1 0 02:33 22.02.2021
6104 Clear -24 1023 77 10000 1 0 00:45 22.02.2021
6105 Clear -23 1023 77 10000 1 0 00:19 22.02.2021
6106 Clear -22 1023 77 10000 1 0 23:29 21.02.2021
6107 Clear -22 1023 71 10000 0.93 131 22:43 21.02.2021
6108 Clear -22 1023 77 10000 0.91 129 22:22 21.02.2021
6109 Clear -22 1023 77 10000 0.91 129 21:37 21.02.2021
6110 Clear -22 1023 71 10000 0.7 119 20:59 21.02.2021
6111 Clear -22 1023 77 10000 1 0 20:40 21.02.2021
6112 Clear -21 1023 71 10000 1 0 20:19 21.02.2021
6113 Clear -20 1023 71 10000 1 0 19:50 21.02.2021
6114 Clear -20 1023 71 10000 1 0 19:32 21.02.2021
6115 Clear -20 1023 71 10000 2 170 18:43 21.02.2021
6116 Clear -20 1023 71 10000 2 170 18:24 21.02.2021
6117 Clear -20 1023 71 10000 2 160 17:29 21.02.2021
6118 Clear -20 1022 71 10000 1 0 16:57 21.02.2021
6119 Clear -21 1022 77 10000 2 170 16:34 21.02.2021
6120 Clear -20 1022 77 10000 2 130 15:54 21.02.2021
6121 Clear -18 1021 71 10000 1 0 15:22 21.02.2021
6122 Clear -17 1021 71 10000 1 0 14:50 21.02.2021
6123 Clear -17 1021 71 10000 1 0 14:28 21.02.2021
6124 Clear -15 1021 66 10000 2 0 13:46 21.02.2021
6125 Clear -14 1021 61 10000 3 10 13:23 21.02.2021
6126 Clear -13 1021 61 10000 3 360 12:32 21.02.2021
6127 Clear -13 1020 61 10000 3 350 11:55 21.02.2021
6128 Clear -12 1020 56 10000 5 340 11:36 21.02.2021
6129 Clouds -11 1020 52 10000 5 330 10:26 21.02.2021
6130 Clouds -11 1020 52 10000 5 330 09:57 21.02.2021
6131 Clouds -11 1019 57 10000 4 320 09:39 21.02.2021
6132 Clouds -11 1019 57 10000 5 310 09:19 21.02.2021
6133 Clear -10 1019 52 10000 5 320 08:32 21.02.2021
6134 Clear -10 1018 62 10000 5 310 07:40 21.02.2021
6135 Clear -10 1018 62 10000 5 320 07:19 21.02.2021
6136 Clouds -11 1016 67 10000 7 310 04:54 21.02.2021
6137 Clouds -12 1014 72 10000 4 320 02:31 21.02.2021
6138 Clear -12 1012 79 10000 5 300 00:47 21.02.2021
6139 Clear -12 1011 79 10000 6 310 00:20 21.02.2021
6140 Clear -11 1011 79 10000 7 330 23:28 20.02.2021
6141 Clear -10 1009 79 10000 8 320 22:47 20.02.2021
6142 Clear -10 1009 79 10000 8 320 22:27 20.02.2021
6143 Clouds -8 1008 79 10000 8 330 21:45 20.02.2021
6144 Clouds -8 1008 79 10000 8 330 21:26 20.02.2021
6145 Clouds -7 1007 79 10000 7 340 20:49 20.02.2021
6146 Clouds -7 1007 79 10000 7 340 20:28 20.02.2021
6147 Clouds -4 1005 74 10000 7 340 19:53 20.02.2021
6148 Clouds -4 1005 74 10000 7 340 19:53 20.02.2021
6149 Clouds -4 1005 74 10000 7 340 19:31 20.02.2021
6150 Clouds -3 1003 80 10000 5 330 18:46 20.02.2021
6151 Clouds -3 1003 80 10000 5 330 18:27 20.02.2021
6152 Clouds -2 1001 74 10000 3 310 17:43 20.02.2021
6153 Clouds -2 1001 74 10000 3 310 17:25 20.02.2021
6154 Clouds 1 1000 64 10000 3 360 16:43 20.02.2021
6155 Clouds 1 1000 64 10000 3 360 16:22 20.02.2021
6156 Clouds 2 999 51 10000 3 30 15:37 20.02.2021
6157 Clouds -1 998 74 10000 2 0 14:49 20.02.2021
6158 Clear -1 997 69 10000 1 0 14:24 20.02.2021
6159 Clear -2 996 74 10000 2 0 13:51 20.02.2021
6160 Clear -2 996 74 10000 3 160 13:27 20.02.2021
6161 Clear 0 996 69 10000 2 0 12:52 20.02.2021
6162 Clear -1 995 74 10000 3 170 12:32 20.02.2021
6163 Clear 0 995 74 10000 3 170 11:48 20.02.2021
6164 Clouds 3 995 56 10000 2 160 11:30 20.02.2021
6165 Clouds 6 995 36 10000 1 0 10:50 20.02.2021
6166 Clouds 3 994 56 10000 3 180 09:59 20.02.2021
6167 Clouds 3 994 56 10000 3 180 09:40 20.02.2021
6168 Clouds 6 994 39 10000 1 0 08:49 20.02.2021
6169 Clouds 4 994 45 10000 1 0 08:19 20.02.2021
6170 Clouds -6 995 79 10000 1.8 224 03:40 20.02.2021
6171 Clouds -8 996 86 10000 1 0 02:30 20.02.2021
6172 Clouds -10 996 85 10000 0.68 226 01:50 20.02.2021
6173 Clear -12 996 85 10000 1 0 00:48 20.02.2021
6174 Clear -11 996 85 10000 0.93 274 00:23 20.02.2021
6175 Clear -10 996 85 10000 1 0 23:19 19.02.2021
6176 Clear -11 996 79 10000 2 170 22:28 19.02.2021
6177 Clear -11 996 85 10000 1 0 21:58 19.02.2021
6178 Clear -11 996 85 10000 1 0 21:32 19.02.2021
6179 Clear -9 997 86 10000 1 0 20:58 19.02.2021
6180 Clear -9 997 86 10000 1 0 20:40 19.02.2021
6181 Clear -9 997 86 10000 1 0 20:22 19.02.2021
6182 Clear -8 998 79 10000 1 0 19:41 19.02.2021
6183 Clear -8 998 79 10000 1 0 19:19 19.02.2021
6184 Snow -9 998 86 10000 3 170 18:42 19.02.2021
6185 Clouds -9 998 86 10000 3 170 18:23 19.02.2021
6186 Clouds -7 999 79 10000 1 0 17:24 19.02.2021
6187 Clouds -6 999 86 10000 2 0 16:39 19.02.2021
6188 Clouds -5 999 80 10000 1.33 206 16:20 19.02.2021
6189 Clear -6 1000 86 10000 1 0 15:47 19.02.2021
6190 Clear -6 1000 86 10000 1 0 15:27 19.02.2021
6191 Clear -5 1001 80 10000 2 150 14:41 19.02.2021
6192 Clear -5 1001 80 10000 2 150 14:23 19.02.2021
6193 Clear -5 1002 86 10000 1 0 13:44 19.02.2021
6194 Clear -5 1002 86 10000 1 0 13:24 19.02.2021
6195 Clear -3 1003 74 10000 1.17 148 12:44 19.02.2021
6196 Clouds -3 1003 74 10000 1 0 12:24 19.02.2021
6197 Clouds -2 1003 69 10000 1 0 11:51 19.02.2021
6198 Clouds -2 1003 69 10000 1 0 11:26 19.02.2021
6199 Clear 0 1004 64 10000 1 0 10:51 19.02.2021
6200 Clear 1 1004 55 10000 1 0 10:22 19.02.2021
6201 Clouds 0 1004 64 10000 2 250 09:48 19.02.2021
6202 Clouds 0 1004 64 10000 2 250 09:26 19.02.2021
6203 Clouds 0 1004 55 10000 2 240 08:53 19.02.2021
6204 Clouds 0 1004 55 10000 2 240 08:24 19.02.2021
6205 Clear 0 1006 55 10000 1 0 07:49 19.02.2021
6206 Clear 0 1006 55 10000 1 0 07:30 19.02.2021
6207 Clear 0 1007 55 10000 2.14 266 06:53 19.02.2021
6208 Clear -3 1008 68 10000 1 0 05:28 19.02.2021
6209 Clear -3 1007 63 10000 1.91 279 04:41 19.02.2021
6210 Clear -3 1007 63 10000 1.91 279 04:41 19.02.2021
6211 Clear -12 1008 85 10000 1 0 01:48 19.02.2021
6212 Clear -13 1008 85 10000 1 0 00:37 19.02.2021
6213 Clear -12 1007 85 10000 1 0 23:56 18.02.2021
6214 Clear -12 1007 85 10000 1 0 23:35 18.02.2021
6215 Clear -8 1006 73 10000 2 0 22:50 18.02.2021
6216 Clear -8 1006 73 10000 2 0 22:30 18.02.2021
6217 Clouds -4 1006 63 10000 2 350 21:51 18.02.2021
6218 Clouds -4 1006 63 10000 2 350 21:25 18.02.2021
6219 Clouds -3 1006 59 10000 2 250 20:44 18.02.2021
6220 Clouds -3 1006 59 10000 2 250 20:24 18.02.2021
6221 Clouds -2 1005 54 10000 5 220 19:47 18.02.2021
6222 Clouds -2 1005 54 10000 5 220 19:28 18.02.2021
6223 Clouds -7 1005 63 10000 3 140 18:54 18.02.2021
6224 Clouds -7 1005 63 10000 3 140 18:31 18.02.2021
6225 Clouds -8 1005 73 10000 1 0 17:53 18.02.2021
6226 Clouds -8 1005 73 10000 1 0 17:28 18.02.2021
6227 Clouds -8 1005 73 10000 1 0 16:59 18.02.2021
6228 Clouds -7 1005 73 10000 1 0 16:40 18.02.2021
6229 Clouds -7 1005 73 10000 1 0 16:19 18.02.2021
6230 Snow -8 1005 79 10000 1 0 15:38 18.02.2021
6231 Snow -7 1005 73 10000 1 0 15:20 18.02.2021
6232 Snow -6 1006 68 10000 1 0 14:48 18.02.2021
6233 Clouds -7 1006 73 10000 1 0 14:29 18.02.2021
6234 Snow -6 1007 68 10000 1 300 13:46 18.02.2021
6235 Clouds -6 1007 68 10000 1.27 237 13:19 18.02.2021
6236 Clouds -7 1007 73 10000 2 220 12:45 18.02.2021
6237 Clouds -6 1008 73 10000 2 160 12:22 18.02.2021
6238 Clear -5 1008 68 10000 1.41 250 11:46 18.02.2021
6239 Clear -4 1008 63 10000 1 0 11:26 18.02.2021
6240 Clear -3 1008 63 10000 1 0 10:47 18.02.2021
6241 Clear -3 1008 63 10000 1 0 10:29 18.02.2021
6242 Clear -1 1009 64 10000 1 0 09:49 18.02.2021
6243 Clear -2 1010 54 10000 2 260 09:24 18.02.2021
6244 Clear -3 1010 59 10000 2 280 08:47 18.02.2021
6245 Clear -4 1010 63 8000 3 310 08:25 18.02.2021
6246 Clear -4 1011 63 8000 1 0 07:34 18.02.2021
6247 Clouds -5 1012 54 6000 1.73 213 06:53 18.02.2021
6248 Clouds -17 1015 78 6000 1 0 02:54 18.02.2021
6249 Clear -21 1015 77 8000 0.73 192 23:55 17.02.2021
6250 Clear -20 1015 84 8000 1 0 23:24 17.02.2021
6251 Clear -20 1015 84 8000 2 120 22:53 17.02.2021
6252 Clear -20 1015 84 8000 2 120 22:27 17.02.2021
6253 Clear -21 1016 77 8000 1 0 21:56 17.02.2021
6254 Clear -21 1016 77 8000 1 0 21:22 17.02.2021
6255 Clear -21 1016 84 8000 1 0 20:49 17.02.2021
6256 Clear -21 1016 84 8000 1 0 20:31 17.02.2021
6257 Clear -21 1016 84 8000 1 0 19:50 17.02.2021
6258 Clear -21 1016 84 8000 1 0 19:32 17.02.2021
6259 Clear -20 1017 84 10000 1 0 18:46 17.02.2021
6260 Clear -20 1017 84 10000 1 0 18:26 17.02.2021
6261 Clear -20 1017 84 10000 0.63 146 17:42 17.02.2021
6262 Clear -20 1017 84 10000 0.87 142 17:20 17.02.2021
6263 Clear -19 1017 78 10000 0.87 142 16:47 17.02.2021
6264 Clear -19 1017 78 10000 1.08 133 16:28 17.02.2021
6265 Clear -19 1017 84 10000 2 0 15:45 17.02.2021
6266 Clear -19 1017 84 10000 2 0 15:27 17.02.2021
6267 Clear -18 1018 85 10000 2 170 14:50 17.02.2021
6268 Clear -18 1018 85 10000 2 170 14:29 17.02.2021
6269 Clear -16 1018 85 10000 2 150 13:50 17.02.2021
6270 Clear -16 1018 85 10000 2 180 13:32 17.02.2021
6271 Clear -15 1018 85 10000 2 140 12:50 17.02.2021
6272 Clear -15 1018 85 10000 2 140 12:25 17.02.2021
6273 Clear -8 1018 73 10000 1 0 11:46 17.02.2021
6274 Clear -13 1018 72 10000 1 0 11:28 17.02.2021
6275 Clouds -5 1018 68 10000 1.5 139 10:50 17.02.2021
6276 Clouds -5 1018 68 10000 1.5 139 10:31 17.02.2021
6277 Clouds -4 1019 58 10000 1 0 09:56 17.02.2021
6278 Clouds -4 1019 58 10000 1 0 09:36 17.02.2021
6279 Clouds -5 1019 58 10000 1 0 08:46 17.02.2021
6280 Clouds -5 1019 58 10000 1 0 08:23 17.02.2021
6281 Clouds -6 1020 58 8000 1 0 07:37 17.02.2021
6282 Clear -8 1021 62 8000 1 0 06:37 17.02.2021
6283 Clear -17 1022 71 8000 1 0 03:52 17.02.2021
6284 Clear -23 1022 77 8000 1 0 02:31 17.02.2021
6285 Clear -24 1022 84 8000 0.75 143 01:34 17.02.2021
6286 Clear -24 1022 77 10000 2 160 00:25 17.02.2021
6287 Clear -24 1022 77 10000 2 180 23:39 16.02.2021
6288 Clear -24 1022 77 10000 2 180 23:39 16.02.2021
6289 Clear -24 1022 77 10000 1 0 22:47 16.02.2021
6290 Clear -24 1022 77 10000 1 0 22:26 16.02.2021
6291 Clear -24 1022 77 10000 1 0 22:26 16.02.2021
6292 Clear -23 1022 77 10000 0.52 111 21:59 16.02.2021
6293 Clear -23 1022 77 10000 0.52 111 21:59 16.02.2021
6294 Clear -23 1022 77 10000 0.52 111 21:39 16.02.2021
6295 Clear -23 1022 77 10000 0.52 111 21:39 16.02.2021
6296 Clear -23 1022 77 10000 0.52 111 21:39 16.02.2021
6297 Clear -23 1022 77 10000 0.52 111 21:39 16.02.2021
6298 Clear -23 1022 77 10000 0.62 145 21:21 16.02.2021
6299 Clear -21 1022 77 10000 0.62 145 20:50 16.02.2021
6300 Clear -21 1022 77 10000 0.73 141 20:24 16.02.2021
6301 Clear -23 1022 77 10000 2 150 19:49 16.02.2021
6302 Clear -23 1022 77 10000 2 150 19:29 16.02.2021
6303 Clear -20 1022 84 10000 1 0 18:53 16.02.2021
6304 Clear -20 1022 84 10000 1 0 18:26 16.02.2021
6305 Clear -20 1022 84 10000 1 0 17:56 16.02.2021
6306 Clear -22 1022 84 10000 2 160 17:37 16.02.2021
6307 Clear -22 1022 84 10000 2 160 17:19 16.02.2021
6308 Clear -22 1022 77 10000 2 170 16:42 16.02.2021
6309 Clear -22 1022 77 10000 2 180 16:20 16.02.2021
6310 Clear -20 1022 77 10000 1 0 15:42 16.02.2021
6311 Clear -20 1022 77 10000 1 0 15:24 16.02.2021
6312 Clear -19 1022 78 10000 0.22 174 14:42 16.02.2021
6313 Clear -19 1022 78 10000 0.6 240 14:24 16.02.2021
6314 Clear -16 1022 78 10000 1 0 13:47 16.02.2021
6315 Clear -14 1022 66 10000 1 0 13:22 16.02.2021
6316 Clear -15 1022 72 10000 3 160 12:43 16.02.2021
6317 Clear -14 1022 66 10000 5 220 12:20 16.02.2021
6318 Clear -15 1021 72 10000 3 220 11:44 16.02.2021
6319 Clear -13 1021 61 10000 2 230 11:22 16.02.2021
6320 Clear -12 1021 56 10000 2 0 10:49 16.02.2021
6321 Clear -12 1021 56 10000 2 0 10:30 16.02.2021
6322 Clear -10 1021 52 10000 4 310 09:55 16.02.2021
6323 Clear -10 1021 52 10000 5 300 09:29 16.02.2021
6324 Clear -10 1021 52 10000 5 300 08:58 16.02.2021
6325 Clear -10 1020 57 10000 4 290 08:38 16.02.2021
6326 Clear -9 1020 48 10000 1 0 08:18 16.02.2021
6327 Clear -10 1021 57 10000 2 0 07:18 16.02.2021
6328 Clear -10 1021 57 10000 2 0 07:18 16.02.2021
6329 Clear -18 1021 65 10000 1 0 04:33 16.02.2021
6330 Clear -26 1020 70 10000 1.57 306 00:44 16.02.2021
6331 Clear -27 1020 69 10000 1 0 23:31 15.02.2021
6332 Clear -27 1020 69 10000 1 0 22:59 15.02.2021
6333 Clear -27 1020 63 10000 2 0 22:40 15.02.2021
6334 Clear -27 1020 63 10000 1 0 21:56 15.02.2021
6335 Clear -27 1020 63 10000 1 0 21:37 15.02.2021
6336 Clear -27 1021 63 10000 3 170 21:19 15.02.2021
6337 Clear -27 1021 69 10000 2 150 20:44 15.02.2021
6338 Clear -27 1021 63 10000 2 150 20:24 15.02.2021
6339 Clear -29 1021 63 10000 2 150 19:43 15.02.2021
6340 Clear -27 1021 69 10000 2 160 19:21 15.02.2021
6341 Clear -26 1021 58 10000 2.17 311 18:44 15.02.2021
6342 Clear -24 1021 64 10000 3 250 18:25 15.02.2021
6343 Clear -22 1021 59 10000 4 250 17:41 15.02.2021
6344 Clear -24 1021 64 10000 2 0 17:22 15.02.2021
6345 Clear -24 1021 64 10000 1 0 16:53 15.02.2021
6346 Clear -24 1021 64 10000 1 0 16:26 15.02.2021
6347 Clear -25 1021 64 10000 1 0 15:49 15.02.2021
6348 Clear -25 1021 64 10000 2 0 15:22 15.02.2021
6349 Clear -25 1021 64 10000 3 170 14:54 15.02.2021
6350 Clear -24 1021 64 10000 1 0 14:22 15.02.2021
6351 Clear -24 1021 64 10000 1 0 13:58 15.02.2021
6352 Clear -24 1021 64 10000 1 0 13:58 15.02.2021
6353 Clear -24 1021 64 10000 1 0 13:39 15.02.2021
6354 Clear -20 1021 59 10000 1 0 13:18 15.02.2021
6355 Clear -21 1020 65 10000 2 0 12:39 15.02.2021
6356 Clear -19 1020 60 10000 6 320 12:19 15.02.2021
6357 Clear -18 1020 55 10000 6 330 11:41 15.02.2021
6358 Clear -17 1019 55 10000 6 330 11:19 15.02.2021
6359 Clear -16 1019 55 10000 7 330 10:46 15.02.2021
6360 Clear -16 1018 55 10000 9 320 10:22 15.02.2021
6361 Clear -16 1018 55 10000 10 330 09:53 15.02.2021
6362 Clear -16 1018 55 10000 10 330 09:32 15.02.2021
6363 Clear -15 1017 51 10000 9 330 08:41 15.02.2021
6364 Clear -15 1017 56 10000 11 320 07:38 15.02.2021
6365 Clear -14 1016 56 10000 10 320 06:45 15.02.2021
6366 Clear -14 1016 51 10000 9 330 06:27 15.02.2021
6367 Snow -21 1013 77 6000 1 0 02:28 15.02.2021
6368 Snow -21 1011 77 6000 1 0 00:35 15.02.2021
6369 Snow -22 1011 77 8000 1 0 23:33 14.02.2021
6370 Snow -22 1011 77 8000 0.52 279 22:54 14.02.2021
6371 Snow -22 1011 71 8000 1 0 22:35 14.02.2021
6372 Clouds -24 1012 77 10000 0.36 230 21:58 14.02.2021
6373 Clouds -24 1012 77 10000 0.36 230 21:38 14.02.2021
6374 Clouds -24 1012 77 10000 0.32 202 21:18 14.02.2021
6375 Clouds -26 1013 70 10000 1 0 20:39 14.02.2021
6376 Clouds -26 1013 70 10000 1 0 20:20 14.02.2021
6377 Clouds -27 1013 69 10000 2 150 19:40 14.02.2021
6378 Clear -28 1014 69 10000 0.86 147 18:49 14.02.2021
6379 Clear -28 1014 69 10000 0.83 131 18:29 14.02.2021
6380 Clear -29 1015 76 10000 1 0 17:49 14.02.2021
6381 Clear -29 1015 76 10000 1 0 17:30 14.02.2021
6382 Clear -25 1016 77 10000 0.72 144 16:44 14.02.2021
6383 Clear -27 1017 76 10000 1 0 16:25 14.02.2021
6384 Clear -26 1017 70 10000 1 0 15:47 14.02.2021
6385 Clear -26 1017 70 10000 1 0 15:29 14.02.2021
6386 Clear -22 1018 77 10000 0.38 171 14:43 14.02.2021
6387 Clear -22 1018 77 10000 0.29 176 14:24 14.02.2021
6388 Clear -25 1018 70 10000 2 170 13:41 14.02.2021
6389 Clear -25 1019 70 10000 3 170 13:23 14.02.2021
6390 Clear -24 1019 70 10000 2 170 12:24 14.02.2021
6391 Clear -20 1019 71 10000 1 0 11:52 14.02.2021
6392 Clear -20 1019 71 10000 1 0 11:33 14.02.2021
6393 Clouds -20 1019 71 10000 3 200 10:59 14.02.2021
6394 Clouds -19 1019 71 10000 1 0 10:23 14.02.2021
6395 Clear -17 1019 66 10000 2 210 09:40 14.02.2021
6396 Clear -17 1020 66 10000 2 230 09:21 14.02.2021
6397 Clear -17 1020 66 10000 2 230 08:57 14.02.2021
6398 Clear -17 1020 71 10000 3 230 07:59 14.02.2021
6399 Clear -18 1020 71 10000 3 210 06:59 14.02.2021
6400 Clear -17 1021 71 10000 1.65 266 05:44 14.02.2021
6401 Clouds -20 1022 77 8000 1.05 276 03:57 14.02.2021
6402 Clouds -24 1022 70 6000 0.62 300 02:29 14.02.2021
6403 Clouds -25 1021 77 10000 0.73 302 00:57 14.02.2021
6404 Clouds -25 1021 77 10000 0.73 302 00:37 14.02.2021
6405 Clouds -25 1021 77 10000 0.85 296 23:49 13.02.2021
6406 Clouds -26 1021 76 10000 1 0 23:25 13.02.2021
6407 Clouds -26 1021 76 10000 1 0 22:50 13.02.2021
6408 Clouds -25 1021 77 10000 0.93 304 22:21 13.02.2021
6409 Clear -26 1021 76 10000 1 0 21:49 13.02.2021
6410 Clear -24 1021 77 10000 0.98 302 21:26 13.02.2021
6411 Clear -26 1021 76 10000 0.98 302 20:43 13.02.2021
6412 Clear -25 1021 77 10000 1 0 20:22 13.02.2021
6413 Clear -26 1021 76 10000 2 170 19:47 13.02.2021
6414 Clear -26 1021 76 10000 2 170 19:23 13.02.2021
6415 Clouds -25 1021 77 8000 1 0 18:49 13.02.2021
6416 Clouds -22 1021 77 8000 2 160 18:24 13.02.2021
6417 Clouds -23 1021 77 10000 0.88 325 17:43 13.02.2021
6418 Clouds -23 1021 77 10000 0.65 317 17:23 13.02.2021
6419 Clouds -22 1021 71 10000 1 0 16:48 13.02.2021
6420 Clouds -22 1021 71 10000 1 0 16:30 13.02.2021
6421 Clouds -21 1021 77 10000 1 0 15:42 13.02.2021
6422 Clouds -21 1021 77 10000 1 0 15:24 13.02.2021
6423 Clouds -20 1021 65 10000 0.6 307 14:33 13.02.2021
6424 Clear -21 1021 59 10000 2 140 13:48 13.02.2021
6425 Clear -21 1021 59 10000 2 140 13:26 13.02.2021
6426 Clear -18 1021 55 10000 1 0 12:52 13.02.2021
6427 Clear -17 1020 60 10000 1 0 12:20 13.02.2021
6428 Clouds -17 1020 66 10000 0.53 286 11:46 13.02.2021
6429 Clouds -16 1020 60 10000 1 0 11:21 13.02.2021
6430 Clouds -15 1020 61 10000 1 0 10:56 13.02.2021
6431 Clouds -15 1020 61 10000 1 0 10:38 13.02.2021
6432 Clouds -14 1020 56 10000 1 0 10:19 13.02.2021
6433 Clouds -14 1020 61 10000 2 250 09:45 13.02.2021
6434 Clouds -14 1020 61 10000 2 250 09:21 13.02.2021
6435 Clouds -14 1020 61 10000 2 250 08:41 13.02.2021
6436 Clouds -12 1020 52 10000 0.84 282 07:54 13.02.2021
6437 Clouds -16 1021 55 10000 1 0 06:42 13.02.2021
6438 Clouds -17 1021 60 10000 1 0 06:19 13.02.2021
6439 Clouds -23 1022 77 10000 1 0 04:19 13.02.2021
6440 Clear -31 1023 69 10000 1 0 01:54 13.02.2021
6441 Clear -29 1022 76 10000 0.94 100 00:51 13.02.2021
6442 Clear -28 1022 69 10000 1 0 23:55 12.02.2021
6443 Clear -31 1022 76 10000 1 0 23:31 12.02.2021
6444 Clear -30 1022 69 10000 2 160 22:58 12.02.2021
6445 Clear -30 1022 76 10000 2 180 22:29 12.02.2021
6446 Clear -28 1022 69 10000 1 0 21:50 12.02.2021
6447 Clear -28 1022 69 10000 1 0 21:29 12.02.2021
6448 Clear -26 1023 76 10000 1 0 20:55 12.02.2021
6449 Clear -26 1023 76 10000 1 0 20:37 12.02.2021
6450 Clear -26 1023 76 10000 1 0 20:18 12.02.2021
6451 Clear -28 1022 76 10000 2 180 19:43 12.02.2021
6452 Clear -28 1022 76 10000 2 180 19:25 12.02.2021
6453 Clear -27 1022 76 10000 3 170 18:30 12.02.2021
6454 Clear -26 1022 76 10000 4 170 17:48 12.02.2021
6455 Clear -26 1022 76 10000 4 170 17:25 12.02.2021
6456 Clear -26 1022 76 10000 1 0 16:36 12.02.2021
6457 Clear -24 1021 70 10000 1.89 1 15:47 12.02.2021
6458 Clear -24 1021 70 10000 1 0 15:21 12.02.2021
6459 Clear -19 1021 78 10000 1 0 14:43 12.02.2021
6460 Clear -20 1021 77 10000 2 0 14:24 12.02.2021
6461 Clear -18 1020 78 10000 1 0 13:41 12.02.2021
6462 Clear -18 1020 78 10000 2 0 13:22 12.02.2021
6463 Clear -16 1020 66 10000 2 340 12:49 12.02.2021
6464 Clear -17 1019 71 10000 2 320 12:30 12.02.2021
6465 Clear -16 1019 72 10000 4 320 11:42 12.02.2021
6466 Clear -15 1018 72 10000 4 310 11:20 12.02.2021
6467 Clear -14 1018 72 10000 4 300 10:44 12.02.2021
6468 Clouds -12 1017 67 10000 5 330 09:50 12.02.2021
6469 Clouds -12 1017 67 10000 5 310 09:29 12.02.2021
6470 Clouds -11 1017 67 10000 5 320 08:51 12.02.2021
6471 Clouds -11 1017 67 10000 5 320 08:29 12.02.2021
6472 Clouds -11 1017 67 10000 6 310 07:57 12.02.2021
6473 Clouds -11 1016 67 10000 7 300 07:35 12.02.2021
6474 Clouds -12 1017 67 8000 1 0 06:55 12.02.2021
6475 Clouds -14 1017 61 6000 1.53 326 05:48 12.02.2021
6476 Clouds -14 1017 61 6000 1.13 333 05:23 12.02.2021
6477 Clouds -14 1017 61 6000 1.13 333 05:23 12.02.2021
6478 Clouds -25 1016 70 8000 1 0 01:48 12.02.2021
6479 Clear -25 1015 77 10000 1 0 23:41 11.02.2021
6480 Clear -24 1015 77 10000 1 0 23:22 11.02.2021
6481 Snow -23 1015 77 10000 1 0 22:57 11.02.2021
6482 Snow -23 1015 77 10000 1 0 22:38 11.02.2021
6483 Snow -21 1015 71 10000 1 0 22:20 11.02.2021
6484 Snow -21 1015 77 10000 0.45 191 21:38 11.02.2021
6485 Clouds -21 1014 77 10000 1 0 21:19 11.02.2021
6486 Snow -24 1014 77 10000 1 0 20:42 11.02.2021
6487 Clear -24 1014 77 10000 1 0 20:22 11.02.2021
6488 Clear -25 1014 77 10000 2 160 19:48 11.02.2021
6489 Clear -25 1014 77 10000 2 160 19:29 11.02.2021
6490 Clear -21 1013 84 10000 1 0 18:55 11.02.2021
6491 Clear -21 1013 84 10000 1 0 18:29 11.02.2021
6492 Clear -21 1013 84 10000 1 0 17:54 11.02.2021
6493 Clear -20 1013 84 10000 1 0 17:22 11.02.2021
6494 Clear -20 1013 84 10000 1 0 17:22 11.02.2021
6495 Snow -20 1013 84 10000 1 0 16:58 11.02.2021
6496 Clear -20 1013 77 10000 2 190 16:40 11.02.2021
6497 Snow -21 1013 84 10000 4 160 16:21 11.02.2021
6498 Snow -22 1013 77 10000 3 160 15:42 11.02.2021
6499 Clear -22 1013 77 10000 3 160 15:24 11.02.2021
6500 Clear -19 1013 78 10000 2 0 14:44 11.02.2021
6501 Clear -18 1013 78 10000 2 270 14:25 11.02.2021
6502 Clear -15 1013 72 10000 1.29 339 13:41 11.02.2021
6503 Clear -14 1012 78 10000 1 0 13:19 11.02.2021
6504 Clear -13 1012 72 10000 1.75 332 12:47 11.02.2021
6505 Clear -13 1012 72 10000 1.93 321 12:23 11.02.2021
6506 Clear -13 1012 78 10000 2 0 11:45 11.02.2021
6507 Clouds -11 1011 67 10000 1 0 11:22 11.02.2021
6508 Clouds -11 1011 67 10000 2 0 10:44 11.02.2021
6509 Clouds -11 1011 67 10000 2 0 10:26 11.02.2021
6510 Clouds -10 1010 67 10000 4 290 09:53 11.02.2021
6511 Clouds -10 1010 67 10000 3 310 09:22 11.02.2021
6512 Clouds -9 1009 67 10000 2 0 08:51 11.02.2021
6513 Clouds -10 1009 73 10000 5 320 08:23 11.02.2021
6514 Clouds -10 1008 73 10000 4 300 06:58 11.02.2021
6515 Clouds -10 1008 67 10000 3 310 06:35 11.02.2021
6516 Snow -10 1007 67 10000 6 310 04:55 11.02.2021
6517 Snow -10 1004 79 8000 4 310 02:29 11.02.2021
6518 Snow -10 1003 85 6000 7 290 00:47 11.02.2021
6519 Clouds -10 1002 85 10000 6 290 00:19 11.02.2021
6520 Snow -9 1001 79 10000 3 280 23:39 10.02.2021
6521 Snow -9 1000 79 10000 5 300 22:52 10.02.2021
6522 Snow -9 1000 79 10000 5 300 22:28 10.02.2021
6523 Snow -9 1000 79 10000 3 320 21:57 10.02.2021
6524 Snow -9 1000 79 10000 3 320 21:38 10.02.2021
6525 Snow -8 1000 73 10000 3 340 21:19 10.02.2021
6526 Snow -8 1000 73 10000 6 340 20:40 10.02.2021
6527 Snow -8 1000 73 10000 6 340 20:40 10.02.2021
6528 Snow -8 1000 73 10000 5 330 20:22 10.02.2021
6529 Snow -8 1000 73 10000 7 290 19:44 10.02.2021
6530 Snow -9 1000 73 10000 1 0 19:23 10.02.2021
6531 Snow -11 1000 79 10000 3 270 18:40 10.02.2021
6532 Snow -12 999 79 10000 1 0 18:21 10.02.2021
6533 Clouds -13 1000 78 10000 2 120 17:50 10.02.2021
6534 Clouds -13 1000 85 10000 1 0 17:23 10.02.2021
6535 Snow -14 1001 78 10000 2 110 16:53 10.02.2021
6536 Clouds -14 1001 78 10000 2 110 16:29 10.02.2021
6537 Clouds -15 1001 78 10000 1 0 15:47 10.02.2021
6538 Clouds -15 1001 78 10000 1 0 15:23 10.02.2021
6539 Clouds -15 1002 78 10000 2 0 14:42 10.02.2021
6540 Clouds -12 1002 72 10000 1 0 14:21 10.02.2021
6541 Clouds -13 1002 78 10000 3 160 13:50 10.02.2021
6542 Clouds -13 1002 78 10000 3 160 13:27 10.02.2021
6543 Clouds -9 1003 79 10000 1 0 12:48 10.02.2021
6544 Clouds -9 1003 79 10000 1 0 12:29 10.02.2021
6545 Clouds -8 1002 73 10000 2 0 11:47 10.02.2021
6546 Clouds -8 1002 73 10000 2 0 11:29 10.02.2021
6547 Clouds -8 1002 73 10000 2 0 11:29 10.02.2021
6548 Clear -5 1003 68 10000 2 320 10:52 10.02.2021
6549 Clear -4 1002 63 10000 2 0 10:20 10.02.2021
6550 Clouds -4 1003 63 10000 3 250 09:44 10.02.2021
6551 Clouds -3 1003 59 10000 1 0 09:22 10.02.2021
6552 Clouds -4 1003 58 10000 1 0 08:50 10.02.2021
6553 Clouds -4 1003 58 10000 1 0 08:30 10.02.2021
6554 Clouds -5 1004 58 10000 1 0 07:22 10.02.2021
6555 Clouds -11 1007 67 8000 2 170 04:54 10.02.2021
6556 Clear -20 1008 77 10000 1 0 01:20 10.02.2021
6557 Clear -19 1008 78 10000 1 0 23:40 09.02.2021
6558 Clear -18 1008 78 10000 1 0 23:19 09.02.2021
6559 Clear -19 1008 78 10000 1 0 22:41 09.02.2021
6560 Clear -20 1008 77 10000 2 160 22:23 09.02.2021
6561 Clear -17 1008 71 10000 1 0 21:40 09.02.2021
6562 Clear -17 1008 71 10000 1 0 21:19 09.02.2021
6563 Clear -18 1009 78 10000 1 0 20:41 09.02.2021
6564 Clear -18 1009 78 10000 1 0 20:23 09.02.2021
6565 Clear -16 1009 78 10000 2 0 19:40 09.02.2021
6566 Clear -16 1009 78 10000 2 0 19:21 09.02.2021
6567 Clear -16 1010 78 10000 2.66 107 18:42 09.02.2021
6568 Clear -16 1010 78 10000 2.78 112 18:21 09.02.2021
6569 Clear -17 1010 78 10000 1 0 17:45 09.02.2021
6570 Clouds -16 1010 78 10000 1 0 17:25 09.02.2021
6571 Clouds -17 1010 78 10000 2.98 117 16:50 09.02.2021
6572 Clouds -16 1011 78 10000 1 0 16:19 09.02.2021
6573 Clouds -17 1011 71 10000 1 0 15:50 09.02.2021
6574 Clouds -15 1011 72 10000 1 0 15:28 09.02.2021
6575 Clouds -16 1011 78 10000 1 0 14:57 09.02.2021
6576 Clouds -15 1011 72 10000 2.8 113 14:30 09.02.2021
6577 Clouds -15 1012 72 10000 1 0 13:55 09.02.2021
6578 Clouds -16 1012 78 10000 2.89 113 13:29 09.02.2021
6579 Clouds -15 1012 78 8000 1 0 12:59 09.02.2021
6580 Clouds -15 1012 78 8000 1 0 12:40 09.02.2021
6581 Clouds -14 1012 78 8000 1 0 12:21 09.02.2021
6582 Clouds -14 1012 78 8000 1 0 11:43 09.02.2021
6583 Clouds -12 1012 72 8000 1 0 11:21 09.02.2021
6584 Clouds -12 1012 72 8000 1 0 11:21 09.02.2021
6585 Clouds -12 1012 72 8000 1 0 10:55 09.02.2021
6586 Clouds -10 1012 67 8000 1.67 120 10:20 09.02.2021
6587 Clouds -10 1012 67 8000 2 180 09:46 09.02.2021
6588 Clouds -10 1013 67 8000 1 0 09:26 09.02.2021
6589 Clouds -10 1013 67 8000 2 180 08:53 09.02.2021
6590 Clouds -10 1013 67 8000 1 0 08:28 09.02.2021
6591 Clouds -11 1014 67 8000 1.09 145 07:36 09.02.2021
6592 Smoke -17 1017 85 5000 0.9 185 04:59 09.02.2021
6593 Smoke -20 1017 84 5000 1 0 03:45 09.02.2021
6594 Clear -24 1017 77 6000 0.19 164 01:38 09.02.2021
6595 Clear -25 1017 77 8000 2 170 23:58 08.02.2021
6596 Clear -26 1017 76 8000 1 0 23:22 08.02.2021
6597 Clear -26 1017 76 8000 1 0 22:56 08.02.2021
6598 Clear -24 1017 77 8000 1 0 22:38 08.02.2021
6599 Clear -23 1017 77 8000 0.5 327 22:20 08.02.2021
6600 Clear -25 1017 77 10000 1 0 21:38 08.02.2021
6601 Clear -25 1017 77 10000 1 0 21:19 08.02.2021
6602 Clear -24 1017 77 10000 1 0 20:44 08.02.2021
6603 Clear -24 1017 77 10000 1 0 20:23 08.02.2021
6604 Clear -24 1018 77 10000 1 0 19:49 08.02.2021
6605 Clear -24 1018 77 10000 1 0 19:27 08.02.2021
6606 Clear -22 1018 77 10000 1 0 18:50 08.02.2021
6607 Clear -22 1018 77 10000 1 0 18:50 08.02.2021
6608 Clear -22 1018 77 10000 1 0 18:25 08.02.2021
6609 Clear -23 1018 77 10000 2 160 17:47 08.02.2021
6610 Clear -23 1018 77 10000 2 160 17:27 08.02.2021
6611 Clear -23 1018 70 10000 2 150 16:58 08.02.2021
6612 Clear -20 1018 84 10000 1 0 16:40 08.02.2021
6613 Clear -22 1018 77 10000 2 140 16:20 08.02.2021
6614 Clear -22 1019 84 10000 1 0 15:38 08.02.2021
6615 Clear -20 1019 77 10000 2 150 15:18 08.02.2021
6616 Clear -17 1019 78 10000 1 0 14:50 08.02.2021
6617 Clear -17 1019 78 10000 1 0 14:28 08.02.2021
6618 Clear -18 1018 71 10000 3 170 13:49 08.02.2021
6619 Clear -18 1019 71 10000 2 140 13:28 08.02.2021
6620 Clear -18 1018 71 10000 1 0 12:39 08.02.2021
6621 Clear -16 1018 72 10000 2 110 12:19 08.02.2021
6622 Clear -13 1018 72 10000 1 0 11:38 08.02.2021
6623 Clear -9 1018 67 10000 1 0 10:47 08.02.2021
6624 Clear -8 1018 67 10000 0.73 208 10:26 08.02.2021
6625 Clear -6 1019 63 10000 1 0 09:56 08.02.2021
6626 Clear -6 1019 63 10000 1 0 09:36 08.02.2021
6627 Clear -5 1019 54 8000 0.73 216 08:57 08.02.2021
6628 Clear -6 1019 58 8000 0.91 227 08:26 08.02.2021
6629 Clear -9 1019 62 6000 1 0 07:47 08.02.2021
6630 Clear -10 1020 57 6000 1 230 06:39 08.02.2021
6631 Clear -14 1021 61 6000 1 0 05:18 08.02.2021
6632 Clear -25 1022 77 8000 0.97 131 02:27 08.02.2021
6633 Clear -26 1021 76 8000 0.85 121 00:25 08.02.2021
6634 Clear -25 1021 77 8000 1 0 23:55 07.02.2021
6635 Clear -24 1022 77 8000 0.83 118 23:28 07.02.2021
6636 Clear -25 1022 77 10000 0.83 118 22:58 07.02.2021
6637 Clear -25 1022 77 10000 0.83 118 22:40 07.02.2021
6638 Clear -26 1022 70 8000 1 0 22:21 07.02.2021
6639 Clear -25 1022 77 8000 1 0 21:50 07.02.2021
6640 Clear -26 1022 76 8000 1 0 21:25 07.02.2021
6641 Clear -26 1022 76 8000 1 0 21:25 07.02.2021
6642 Clear -24 1023 77 8000 1 0 20:50 07.02.2021
6643 Clear -24 1023 77 8000 1 0 20:29 07.02.2021
6644 Clear -26 1023 76 8000 1 0 19:52 07.02.2021
6645 Clear -25 1023 77 8000 2 0 19:29 07.02.2021
6646 Clear -25 1023 77 8000 2 190 18:49 07.02.2021
6647 Clear -23 1023 77 10000 1 0 18:29 07.02.2021
6648 Clear -23 1023 77 10000 1 0 17:58 07.02.2021
6649 Clear -27 1023 76 10000 1 0 17:39 07.02.2021
6650 Clear -25 1024 77 10000 1 0 17:18 07.02.2021
6651 Clear -25 1024 77 10000 0.97 117 16:42 07.02.2021
6652 Clear -25 1024 77 10000 1 0 16:21 07.02.2021
6653 Clear -24 1024 84 10000 2 160 15:44 07.02.2021
6654 Clear -23 1024 77 10000 1 0 15:22 07.02.2021
6655 Clear -23 1024 70 10000 2 140 14:46 07.02.2021
6656 Clear -23 1024 70 10000 2 140 14:27 07.02.2021
6657 Clear -22 1024 71 10000 2 140 13:52 07.02.2021
6658 Clear -22 1024 71 10000 2 140 13:33 07.02.2021
6659 Clear -19 1024 71 10000 1 0 12:43 07.02.2021
6660 Clear -18 1024 71 10000 1 0 12:22 07.02.2021
6661 Clear -16 1024 66 10000 0.61 138 11:46 07.02.2021
6662 Clear -16 1024 66 10000 0.56 152 11:27 07.02.2021
6663 Clear -13 1024 66 10000 1 0 10:48 07.02.2021
6664 Clear -13 1024 66 10000 2 260 10:24 07.02.2021
6665 Clear -12 1024 61 10000 1 0 09:46 07.02.2021
6666 Clear -12 1024 61 10000 2 240 09:21 07.02.2021
6667 Clear -12 1024 61 10000 2 250 08:23 07.02.2021
6668 Clear -13 1025 56 6000 1.1 227 06:34 07.02.2021
6669 Smoke -16 1025 66 5000 1 0 05:57 07.02.2021
6670 Clear -23 1025 77 6000 1 0 03:50 07.02.2021
6671 Clear -28 1025 76 6000 1 0 01:27 07.02.2021
6672 Clear -30 1024 69 8000 1 0 00:35 07.02.2021
6673 Clear -29 1024 76 8000 1 0 23:44 06.02.2021
6674 Clear -29 1023 69 8000 1 0 22:40 06.02.2021
6675 Clear -27 1023 69 8000 1 0 21:40 06.02.2021
6676 Clear -27 1023 69 8000 1 0 21:21 06.02.2021
6677 Clear -27 1023 76 10000 1 0 20:51 06.02.2021
6678 Clear -27 1023 76 10000 1 0 20:25 06.02.2021
6679 Clear -27 1023 69 10000 3 170 19:57 06.02.2021
6680 Clear -27 1023 69 10000 3 170 19:31 06.02.2021
6681 Clear -26 1022 70 10000 1 0 18:49 06.02.2021
6682 Clear -26 1022 70 10000 1 0 18:31 06.02.2021
6683 Clear -28 1022 76 10000 1 0 17:48 06.02.2021
6684 Clear -28 1022 76 10000 1 0 17:22 06.02.2021
6685 Clear -28 1022 76 10000 1 0 16:59 06.02.2021
6686 Clear -23 1022 77 10000 1 0 16:40 06.02.2021
6687 Clear -23 1022 77 10000 1 0 16:22 06.02.2021
6688 Clear -25 1022 70 10000 1 0 15:45 06.02.2021
6689 Clear -24 1022 77 10000 1 0 15:21 06.02.2021
6690 Clear -22 1021 77 10000 1 0 14:45 06.02.2021
6691 Clear -22 1021 77 10000 1 0 14:25 06.02.2021
6692 Clear -21 1021 77 10000 1 0 13:49 06.02.2021
6693 Clear -21 1021 77 10000 1 0 13:49 06.02.2021
6694 Clear -20 1021 71 10000 3 190 13:21 06.02.2021
6695 Clear -18 1020 71 10000 3 180 12:22 06.02.2021
6696 Clear -19 1020 71 10000 3 170 11:48 06.02.2021
6697 Clear -18 1020 71 10000 3 160 11:22 06.02.2021
6698 Clear -18 1020 71 10000 3 160 10:57 06.02.2021
6699 Clear -14 1020 61 10000 1 0 10:39 06.02.2021
6700 Clear -13 1020 66 10000 2 210 09:59 06.02.2021
6701 Clear -12 1019 61 10000 2 230 09:37 06.02.2021
6702 Clear -12 1019 56 10000 3 220 09:18 06.02.2021
6703 Clear -12 1019 56 10000 3 220 09:18 06.02.2021
6704 Clear -12 1019 61 10000 3 210 08:33 06.02.2021
6705 Clear -12 1019 56 10000 3 220 08:00 06.02.2021
6706 Clear -14 1020 56 10000 2 0 05:44 06.02.2021
6707 Clear -15 1019 61 10000 2 170 04:36 06.02.2021
6708 Clear -22 1018 71 10000 1 0 02:26 06.02.2021
6709 Clear -22 1016 77 10000 1 0 00:48 06.02.2021
6710 Clear -22 1016 77 10000 1 0 00:48 06.02.2021
6711 Clear -22 1016 71 10000 1.95 8 00:20 06.02.2021
6712 Clear -16 1015 66 10000 2 0 23:44 05.02.2021
6713 Clear -16 1015 66 10000 2 0 23:26 05.02.2021
6714 Clouds -17 1015 71 10000 1 0 22:47 05.02.2021
6715 Clouds -17 1015 71 10000 1 0 22:47 05.02.2021
6716 Clouds -16 1014 72 10000 1 0 22:23 05.02.2021
6717 Clouds -14 1014 72 10000 4 310 21:49 05.02.2021
6718 Clouds -14 1014 72 10000 4 310 21:28 05.02.2021
6719 Snow -13 1013 72 10000 2 0 20:47 05.02.2021
6720 Clouds -12 1012 72 10000 3 330 19:53 05.02.2021
6721 Clouds -12 1012 72 10000 3 330 19:20 05.02.2021
6722 Clouds -12 1012 72 10000 3 330 18:54 05.02.2021
6723 Snow -11 1011 73 10000 5 340 18:28 05.02.2021
6724 Clouds -11 1010 73 10000 4 320 17:47 05.02.2021
6725 Clouds -11 1010 73 10000 4 320 17:47 05.02.2021
6726 Snow -11 1010 73 10000 4 320 17:27 05.02.2021
6727 Snow -10 1010 73 10000 3 330 16:50 05.02.2021
6728 Snow -10 1010 73 10000 3 330 16:24 05.02.2021
6729 Snow -11 1009 79 10000 2 300 15:57 05.02.2021
6730 Snow -11 1009 79 10000 2 300 15:27 05.02.2021
6731 Snow -10 1009 73 10000 1.75 347 14:55 05.02.2021
6732 Clouds -10 1009 73 10000 1.75 347 14:36 05.02.2021
6733 Snow -10 1009 73 10000 1 0 14:18 05.02.2021
6734 Clouds -9 1008 73 10000 1 0 13:37 05.02.2021
6735 Snow -9 1008 67 10000 1 0 12:56 05.02.2021
6736 Clouds -10 1008 73 10000 1 0 12:37 05.02.2021
6737 Clouds -8 1007 62 10000 4 350 11:42 05.02.2021
6738 Clouds -7 1007 58 10000 4 350 11:22 05.02.2021
6739 Clouds -7 1007 58 10000 4 350 10:59 05.02.2021
6740 Clouds -6 1007 58 10000 4 350 10:27 05.02.2021
6741 Clouds -4 1006 54 10000 6 290 09:48 05.02.2021
6742 Clouds -4 1006 54 10000 6 290 09:29 05.02.2021
6743 Clouds -4 1006 58 10000 7 290 08:58 05.02.2021
6744 Clouds -4 1005 63 10000 7 290 08:28 05.02.2021
6745 Clouds -3 1005 54 10000 1 0 07:38 05.02.2021
6746 Clouds -4 1005 58 10000 1 0 06:57 05.02.2021
6747 Clouds -5 1006 63 10000 5.65 297 05:38 05.02.2021
6748 Clouds -14 1006 78 10000 2 0 03:23 05.02.2021
6749 Snow -17 1005 78 8000 2 150 02:25 05.02.2021
6750 Clouds -18 1004 85 8000 1 0 00:41 05.02.2021
6751 Clouds -18 1004 85 8000 1 0 00:41 05.02.2021
6752 Clouds -17 1005 78 8000 1 0 00:21 05.02.2021
6753 Clouds -17 1004 78 8000 1 0 23:58 04.02.2021
6754 Clouds -17 1004 78 8000 1 0 23:39 04.02.2021
6755 Clouds -14 1004 78 8000 1 0 23:20 04.02.2021
6756 Clouds -16 1004 78 8000 1 0 22:51 04.02.2021
6757 Clouds -16 1005 78 8000 1 0 22:27 04.02.2021
6758 Clear -15 1005 78 10000 1 0 21:42 04.02.2021
6759 Clear -15 1005 78 10000 1 0 21:21 04.02.2021
6760 Clear -15 1005 85 10000 1 0 20:52 04.02.2021
6761 Clear -15 1005 85 10000 1 0 20:34 04.02.2021
6762 Snow -15 1005 72 10000 1 0 19:45 04.02.2021
6763 Clear -15 1005 78 10000 1 0 18:57 04.02.2021
6764 Clear -15 1005 78 10000 1 0 18:27 04.02.2021
6765 Clear -15 1005 78 10000 0.69 258 17:56 04.02.2021
6766 Clear -15 1005